<?xml version="1.0" encoding="UTF-8" standalone="no" ?>
<gpx xmlns="http://www.topografix.com/GPX/1/1" xmlns:xsi="http://www.w3.org/2001/XMLSchema-instance" xsi:schemaLocation="http://www.topografix.com/GPX/1/1 http://www.topografix.com/GPX/1/1/gpx.xsd" version="1.1" creator="VisuGPX - https://www.visugpx.com">
  <metadata>
    <name>Balade hivernale</name>
    <desc><![CDATA[Balade effectuée du 9 décembre 2022 au 7 janvier 2023.]]></desc>
  </metadata>
  <trk>
    <name><![CDATA[Spezet - Rostrenen]]></name>
    <extensions>
      <line xmlns="http://www.topografix.com/GPX/gpx_style/0/2">
        <color>0000ff</color>
        <width>4</width>
      </line>
    </extensions>
    <trkseg>
      <trkpt lat="48.19235" lon="-3.71617">
        <ele>157.86541</ele>
        <time>2022-12-11T12:17:25.335Z</time>
      </trkpt>
      <trkpt lat="48.19221" lon="-3.71601">
        <ele>157.86541</ele>
        <time>2022-12-11T12:21:10.448Z</time>
      </trkpt>
      <trkpt lat="48.19224" lon="-3.71587">
        <ele>157.86541</ele>
        <time>2022-12-11T12:21:16.437Z</time>
      </trkpt>
      <trkpt lat="48.19231" lon="-3.71579">
        <ele>157.86541</ele>
        <time>2022-12-11T12:21:21.432Z</time>
      </trkpt>
      <trkpt lat="48.19238" lon="-3.71566">
        <ele>157.86541</ele>
        <time>2022-12-11T12:21:26.450Z</time>
      </trkpt>
      <trkpt lat="48.19242" lon="-3.71553">
        <ele>157.86541</ele>
        <time>2022-12-11T12:21:31.441Z</time>
      </trkpt>
      <trkpt lat="48.19244" lon="-3.71538">
        <ele>157.86541</ele>
        <time>2022-12-11T12:21:36.453Z</time>
      </trkpt>
      <trkpt lat="48.19246" lon="-3.71524">
        <ele>157.86541</ele>
        <time>2022-12-11T12:21:41.447Z</time>
      </trkpt>
      <trkpt lat="48.19249" lon="-3.71508">
        <ele>157.86541</ele>
        <time>2022-12-11T12:21:46.435Z</time>
      </trkpt>
      <trkpt lat="48.1925" lon="-3.71491">
        <ele>157.859593</ele>
        <time>2022-12-11T12:21:51.431Z</time>
      </trkpt>
      <trkpt lat="48.19252" lon="-3.71478">
        <ele>157.853476</ele>
        <time>2022-12-11T12:21:55.442Z</time>
      </trkpt>
      <trkpt lat="48.19254" lon="-3.71462">
        <ele>157.84632</ele>
        <time>2022-12-11T12:21:59.452Z</time>
      </trkpt>
      <trkpt lat="48.19256" lon="-3.71446">
        <ele>157.8389</ele>
        <time>2022-12-11T12:22:03.450Z</time>
      </trkpt>
      <trkpt lat="48.19258" lon="-3.71429">
        <ele>157.831148</ele>
        <time>2022-12-11T12:22:07.427Z</time>
      </trkpt>
      <trkpt lat="48.19261" lon="-3.71412">
        <ele>157.823716</ele>
        <time>2022-12-11T12:22:11.451Z</time>
      </trkpt>
      <trkpt lat="48.19263" lon="-3.71399">
        <ele>157.81767</ele>
        <time>2022-12-11T12:22:14.454Z</time>
      </trkpt>
      <trkpt lat="48.19264" lon="-3.71385">
        <ele>157.811354</ele>
        <time>2022-12-11T12:22:17.449Z</time>
      </trkpt>
      <trkpt lat="48.19265" lon="-3.7137">
        <ele>157.804712</ele>
        <time>2022-12-11T12:22:20.448Z</time>
      </trkpt>
      <trkpt lat="48.19267" lon="-3.71355">
        <ele>157.797918</ele>
        <time>2022-12-11T12:22:23.447Z</time>
      </trkpt>
      <trkpt lat="48.1927" lon="-3.71341">
        <ele>157.791246</ele>
        <time>2022-12-11T12:22:26.455Z</time>
      </trkpt>
      <trkpt lat="48.19272" lon="-3.71327">
        <ele>157.785072</ele>
        <time>2022-12-11T12:22:29.449Z</time>
      </trkpt>
      <trkpt lat="48.19273" lon="-3.71313">
        <ele>157.778562</ele>
        <time>2022-12-11T12:22:32.451Z</time>
      </trkpt>
      <trkpt lat="48.19275" lon="-3.71298">
        <ele>157.771877</ele>
        <time>2022-12-11T12:22:35.451Z</time>
      </trkpt>
      <trkpt lat="48.19276" lon="-3.71283">
        <ele>157.765288</ele>
        <time>2022-12-11T12:22:38.454Z</time>
      </trkpt>
      <trkpt lat="48.19275" lon="-3.71268">
        <ele>157.758425</ele>
        <time>2022-12-11T12:22:41.433Z</time>
      </trkpt>
      <trkpt lat="48.19274" lon="-3.71252">
        <ele>157.751491</ele>
        <time>2022-12-11T12:22:44.452Z</time>
      </trkpt>
      <trkpt lat="48.19271" lon="-3.71238">
        <ele>157.717174</ele>
        <time>2022-12-11T12:22:47.445Z</time>
      </trkpt>
      <trkpt lat="48.1927" lon="-3.71222">
        <ele>157.288725</ele>
        <time>2022-12-11T12:22:51.447Z</time>
      </trkpt>
      <trkpt lat="48.19267" lon="-3.71214">
        <ele>157.036774</ele>
        <time>2022-12-11T12:23:10.239Z</time>
      </trkpt>
      <trkpt lat="48.19272" lon="-3.71199">
        <ele>156.601816</ele>
        <time>2022-12-11T12:39:32.443Z</time>
      </trkpt>
      <trkpt lat="48.19276" lon="-3.71183">
        <ele>156.152608</ele>
        <time>2022-12-11T12:39:36.482Z</time>
      </trkpt>
      <trkpt lat="48.19278" lon="-3.71169">
        <ele>155.768964</ele>
        <time>2022-12-11T12:39:39.446Z</time>
      </trkpt>
      <trkpt lat="48.19281" lon="-3.71155">
        <ele>155.37054</ele>
        <time>2022-12-11T12:39:42.436Z</time>
      </trkpt>
      <trkpt lat="48.19285" lon="-3.71139">
        <ele>154.921333</ele>
        <time>2022-12-11T12:39:45.439Z</time>
      </trkpt>
      <trkpt lat="48.19289" lon="-3.71125">
        <ele>154.507771</ele>
        <time>2022-12-11T12:39:48.439Z</time>
      </trkpt>
      <trkpt lat="48.19292" lon="-3.71111">
        <ele>154.085818</ele>
        <time>2022-12-11T12:39:52.454Z</time>
      </trkpt>
      <trkpt lat="48.19297" lon="-3.71094">
        <ele>153.610546</ele>
        <time>2022-12-11T12:39:56.514Z</time>
      </trkpt>
      <trkpt lat="48.193" lon="-3.7108">
        <ele>153.20691</ele>
        <time>2022-12-11T12:39:59.459Z</time>
      </trkpt>
      <trkpt lat="48.19305" lon="-3.71065">
        <ele>152.77951</ele>
        <time>2022-12-11T12:40:02.442Z</time>
      </trkpt>
      <trkpt lat="48.1931" lon="-3.71051">
        <ele>152.324941</ele>
        <time>2022-12-11T12:40:05.442Z</time>
      </trkpt>
      <trkpt lat="48.19315" lon="-3.71036">
        <ele>151.885813</ele>
        <time>2022-12-11T12:40:08.452Z</time>
      </trkpt>
      <trkpt lat="48.1932" lon="-3.71019">
        <ele>151.401061</ele>
        <time>2022-12-11T12:40:12.438Z</time>
      </trkpt>
      <trkpt lat="48.19324" lon="-3.71007">
        <ele>151.019469</ele>
        <time>2022-12-11T12:40:15.444Z</time>
      </trkpt>
      <trkpt lat="48.19328" lon="-3.70992">
        <ele>150.611906</ele>
        <time>2022-12-11T12:40:18.437Z</time>
      </trkpt>
      <trkpt lat="48.19331" lon="-3.70979">
        <ele>150.192911</ele>
        <time>2022-12-11T12:40:21.456Z</time>
      </trkpt>
      <trkpt lat="48.19336" lon="-3.70966">
        <ele>149.721733</ele>
        <time>2022-12-11T12:40:24.436Z</time>
      </trkpt>
      <trkpt lat="48.19342" lon="-3.70952">
        <ele>149.192448</ele>
        <time>2022-12-11T12:40:27.457Z</time>
      </trkpt>
      <trkpt lat="48.19346" lon="-3.70937">
        <ele>148.693662</ele>
        <time>2022-12-11T12:40:30.449Z</time>
      </trkpt>
      <trkpt lat="48.19352" lon="-3.70922">
        <ele>148.144554</ele>
        <time>2022-12-11T12:40:33.437Z</time>
      </trkpt>
      <trkpt lat="48.19356" lon="-3.7091">
        <ele>147.721916</ele>
        <time>2022-12-11T12:40:35.442Z</time>
      </trkpt>
      <trkpt lat="48.1936" lon="-3.70898">
        <ele>147.292351</ele>
        <time>2022-12-11T12:40:37.456Z</time>
      </trkpt>
      <trkpt lat="48.19364" lon="-3.70884">
        <ele>146.834634</ele>
        <time>2022-12-11T12:40:39.449Z</time>
      </trkpt>
      <trkpt lat="48.19369" lon="-3.70871">
        <ele>146.365238</ele>
        <time>2022-12-11T12:40:41.446Z</time>
      </trkpt>
      <trkpt lat="48.19374" lon="-3.70854">
        <ele>145.780984</ele>
        <time>2022-12-11T12:40:44.460Z</time>
      </trkpt>
      <trkpt lat="48.1938" lon="-3.70837">
        <ele>145.176153</ele>
        <time>2022-12-11T12:40:47.442Z</time>
      </trkpt>
      <trkpt lat="48.19387" lon="-3.70821">
        <ele>144.578281</ele>
        <time>2022-12-11T12:40:50.464Z</time>
      </trkpt>
      <trkpt lat="48.19394" lon="-3.70805">
        <ele>143.964847</ele>
        <time>2022-12-11T12:40:53.443Z</time>
      </trkpt>
      <trkpt lat="48.194" lon="-3.70792">
        <ele>143.489212</ele>
        <time>2022-12-11T12:40:55.456Z</time>
      </trkpt>
      <trkpt lat="48.19406" lon="-3.70781">
        <ele>143.063809</ele>
        <time>2022-12-11T12:40:57.446Z</time>
      </trkpt>
      <trkpt lat="48.19412" lon="-3.7077">
        <ele>142.625225</ele>
        <time>2022-12-11T12:40:59.458Z</time>
      </trkpt>
      <trkpt lat="48.19417" lon="-3.7076">
        <ele>142.197387</ele>
        <time>2022-12-11T12:41:01.447Z</time>
      </trkpt>
      <trkpt lat="48.19424" lon="-3.70749">
        <ele>141.87384</ele>
        <time>2022-12-11T12:41:03.463Z</time>
      </trkpt>
      <trkpt lat="48.19431" lon="-3.70739">
        <ele>141.595502</ele>
        <time>2022-12-11T12:41:05.444Z</time>
      </trkpt>
      <trkpt lat="48.19438" lon="-3.70726">
        <ele>141.280858</ele>
        <time>2022-12-11T12:41:08.450Z</time>
      </trkpt>
      <trkpt lat="48.19445" lon="-3.70716">
        <ele>141.019804</ele>
        <time>2022-12-11T12:41:11.446Z</time>
      </trkpt>
      <trkpt lat="48.19454" lon="-3.70701">
        <ele>140.648965</ele>
        <time>2022-12-11T12:41:14.451Z</time>
      </trkpt>
      <trkpt lat="48.19461" lon="-3.70689">
        <ele>140.341441</ele>
        <time>2022-12-11T12:41:16.447Z</time>
      </trkpt>
      <trkpt lat="48.19469" lon="-3.70674">
        <ele>139.983773</ele>
        <time>2022-12-11T12:41:18.451Z</time>
      </trkpt>
      <trkpt lat="48.19477" lon="-3.70659">
        <ele>139.615498</ele>
        <time>2022-12-11T12:41:20.443Z</time>
      </trkpt>
      <trkpt lat="48.19485" lon="-3.70641">
        <ele>139.212158</ele>
        <time>2022-12-11T12:41:22.435Z</time>
      </trkpt>
      <trkpt lat="48.19493" lon="-3.70623">
        <ele>138.805602</ele>
        <time>2022-12-11T12:41:24.458Z</time>
      </trkpt>
      <trkpt lat="48.19501" lon="-3.70605">
        <ele>138.399174</ele>
        <time>2022-12-11T12:41:26.467Z</time>
      </trkpt>
      <trkpt lat="48.19509" lon="-3.70587">
        <ele>138.003475</ele>
        <time>2022-12-11T12:41:28.461Z</time>
      </trkpt>
      <trkpt lat="48.19516" lon="-3.70572">
        <ele>137.643919</ele>
        <time>2022-12-11T12:41:30.446Z</time>
      </trkpt>
      <trkpt lat="48.19523" lon="-3.70556">
        <ele>137.30158</ele>
        <time>2022-12-11T12:41:32.449Z</time>
      </trkpt>
      <trkpt lat="48.19528" lon="-3.70543">
        <ele>137.03986</ele>
        <time>2022-12-11T12:41:34.445Z</time>
      </trkpt>
      <trkpt lat="48.19534" lon="-3.70531">
        <ele>137.490043</ele>
        <time>2022-12-11T12:41:36.454Z</time>
      </trkpt>
      <trkpt lat="48.19541" lon="-3.70516">
        <ele>138.044523</ele>
        <time>2022-12-11T12:41:39.436Z</time>
      </trkpt>
      <trkpt lat="48.19546" lon="-3.70502">
        <ele>138.56071</ele>
        <time>2022-12-11T12:41:43.455Z</time>
      </trkpt>
      <trkpt lat="48.19552" lon="-3.7049">
        <ele>139.005782</ele>
        <time>2022-12-11T12:41:47.441Z</time>
      </trkpt>
      <trkpt lat="48.19558" lon="-3.70476">
        <ele>139.533905</ele>
        <time>2022-12-11T12:41:52.439Z</time>
      </trkpt>
      <trkpt lat="48.19565" lon="-3.70464">
        <ele>140.051945</ele>
        <time>2022-12-11T12:41:57.439Z</time>
      </trkpt>
      <trkpt lat="48.19573" lon="-3.70453">
        <ele>140.533951</ele>
        <time>2022-12-11T12:42:02.444Z</time>
      </trkpt>
      <trkpt lat="48.19579" lon="-3.70442">
        <ele>140.978341</ele>
        <time>2022-12-11T12:42:07.447Z</time>
      </trkpt>
      <trkpt lat="48.19586" lon="-3.70432">
        <ele>141.464312</ele>
        <time>2022-12-11T12:42:12.453Z</time>
      </trkpt>
      <trkpt lat="48.19594" lon="-3.70421">
        <ele>141.959362</ele>
        <time>2022-12-11T12:42:17.450Z</time>
      </trkpt>
      <trkpt lat="48.19601" lon="-3.70411">
        <ele>142.387294</ele>
        <time>2022-12-11T12:42:21.438Z</time>
      </trkpt>
      <trkpt lat="48.19607" lon="-3.70401">
        <ele>142.81807</ele>
        <time>2022-12-11T12:42:25.440Z</time>
      </trkpt>
      <trkpt lat="48.19614" lon="-3.70391">
        <ele>143.275468</ele>
        <time>2022-12-11T12:42:30.440Z</time>
      </trkpt>
      <trkpt lat="48.19622" lon="-3.7038">
        <ele>143.797002</ele>
        <time>2022-12-11T12:42:35.458Z</time>
      </trkpt>
      <trkpt lat="48.1963" lon="-3.70369">
        <ele>144.288995</ele>
        <time>2022-12-11T12:42:40.444Z</time>
      </trkpt>
      <trkpt lat="48.19638" lon="-3.70359">
        <ele>144.795545</ele>
        <time>2022-12-11T12:42:45.441Z</time>
      </trkpt>
      <trkpt lat="48.19646" lon="-3.7035">
        <ele>145.257253</ele>
        <time>2022-12-11T12:42:49.438Z</time>
      </trkpt>
      <trkpt lat="48.19654" lon="-3.70339">
        <ele>145.420449</ele>
        <time>2022-12-11T12:42:54.446Z</time>
      </trkpt>
      <trkpt lat="48.19662" lon="-3.7033">
        <ele>145.380873</ele>
        <time>2022-12-11T12:42:58.445Z</time>
      </trkpt>
      <trkpt lat="48.19671" lon="-3.70321">
        <ele>145.337731</ele>
        <time>2022-12-11T12:43:02.433Z</time>
      </trkpt>
      <trkpt lat="48.1968" lon="-3.70312">
        <ele>145.294564</ele>
        <time>2022-12-11T12:43:06.452Z</time>
      </trkpt>
      <trkpt lat="48.1969" lon="-3.70303">
        <ele>145.249376</ele>
        <time>2022-12-11T12:43:10.448Z</time>
      </trkpt>
      <trkpt lat="48.19701" lon="-3.70295">
        <ele>145.201684</ele>
        <time>2022-12-11T12:43:14.460Z</time>
      </trkpt>
      <trkpt lat="48.19709" lon="-3.70287">
        <ele>145.163337</ele>
        <time>2022-12-11T12:43:17.440Z</time>
      </trkpt>
      <trkpt lat="48.19717" lon="-3.7028">
        <ele>145.12588</ele>
        <time>2022-12-11T12:43:20.447Z</time>
      </trkpt>
      <trkpt lat="48.19726" lon="-3.70271">
        <ele>145.08532</ele>
        <time>2022-12-11T12:43:23.460Z</time>
      </trkpt>
      <trkpt lat="48.19734" lon="-3.70263">
        <ele>145.046685</ele>
        <time>2022-12-11T12:43:26.460Z</time>
      </trkpt>
      <trkpt lat="48.19744" lon="-3.70253">
        <ele>145.000416</ele>
        <time>2022-12-11T12:43:30.442Z</time>
      </trkpt>
      <trkpt lat="48.19752" lon="-3.70244">
        <ele>144.959796</ele>
        <time>2022-12-11T12:43:33.448Z</time>
      </trkpt>
      <trkpt lat="48.1976" lon="-3.70234">
        <ele>144.922119</ele>
        <time>2022-12-11T12:43:36.453Z</time>
      </trkpt>
      <trkpt lat="48.19766" lon="-3.70225">
        <ele>144.885797</ele>
        <time>2022-12-11T12:43:39.438Z</time>
      </trkpt>
      <trkpt lat="48.19773" lon="-3.70214">
        <ele>144.847452</ele>
        <time>2022-12-11T12:43:42.466Z</time>
      </trkpt>
      <trkpt lat="48.19781" lon="-3.70202">
        <ele>144.804998</ele>
        <time>2022-12-11T12:43:45.437Z</time>
      </trkpt>
      <trkpt lat="48.19788" lon="-3.70189">
        <ele>144.758369</ele>
        <time>2022-12-11T12:43:48.450Z</time>
      </trkpt>
      <trkpt lat="48.19797" lon="-3.70175">
        <ele>144.637129</ele>
        <time>2022-12-11T12:43:51.457Z</time>
      </trkpt>
      <trkpt lat="48.19804" lon="-3.70158">
        <ele>144.471162</ele>
        <time>2022-12-11T12:43:54.446Z</time>
      </trkpt>
      <trkpt lat="48.19809" lon="-3.70146">
        <ele>144.347308</ele>
        <time>2022-12-11T12:43:56.450Z</time>
      </trkpt>
      <trkpt lat="48.19814" lon="-3.70133">
        <ele>144.223517</ele>
        <time>2022-12-11T12:43:58.446Z</time>
      </trkpt>
      <trkpt lat="48.19818" lon="-3.70119">
        <ele>144.089534</ele>
        <time>2022-12-11T12:44:00.465Z</time>
      </trkpt>
      <trkpt lat="48.19823" lon="-3.70105">
        <ele>143.954564</ele>
        <time>2022-12-11T12:44:02.439Z</time>
      </trkpt>
      <trkpt lat="48.19828" lon="-3.7009">
        <ele>143.817932</ele>
        <time>2022-12-11T12:44:04.463Z</time>
      </trkpt>
      <trkpt lat="48.19833" lon="-3.70075">
        <ele>143.676338</ele>
        <time>2022-12-11T12:44:06.486Z</time>
      </trkpt>
      <trkpt lat="48.19837" lon="-3.70059">
        <ele>143.532718</ele>
        <time>2022-12-11T12:44:08.459Z</time>
      </trkpt>
      <trkpt lat="48.1984" lon="-3.70043">
        <ele>143.388001</ele>
        <time>2022-12-11T12:44:10.442Z</time>
      </trkpt>
      <trkpt lat="48.19844" lon="-3.70027">
        <ele>143.245656</ele>
        <time>2022-12-11T12:44:12.442Z</time>
      </trkpt>
      <trkpt lat="48.19847" lon="-3.70012">
        <ele>143.110493</ele>
        <time>2022-12-11T12:44:14.442Z</time>
      </trkpt>
      <trkpt lat="48.1985" lon="-3.69998">
        <ele>142.989762</ele>
        <time>2022-12-11T12:44:16.465Z</time>
      </trkpt>
      <trkpt lat="48.19854" lon="-3.69979">
        <ele>142.824107</ele>
        <time>2022-12-11T12:44:19.455Z</time>
      </trkpt>
      <trkpt lat="48.19858" lon="-3.69963">
        <ele>142.675177</ele>
        <time>2022-12-11T12:44:22.460Z</time>
      </trkpt>
      <trkpt lat="48.19866" lon="-3.69954">
        <ele>142.55093</ele>
        <time>2022-12-11T12:44:25.446Z</time>
      </trkpt>
      <trkpt lat="48.19875" lon="-3.69957">
        <ele>142.303934</ele>
        <time>2022-12-11T12:44:28.437Z</time>
      </trkpt>
      <trkpt lat="48.19883" lon="-3.69969">
        <ele>141.692131</ele>
        <time>2022-12-11T12:44:31.442Z</time>
      </trkpt>
      <trkpt lat="48.1989" lon="-3.69983">
        <ele>141.023628</ele>
        <time>2022-12-11T12:44:34.459Z</time>
      </trkpt>
      <trkpt lat="48.19898" lon="-3.69999">
        <ele>140.268086</ele>
        <time>2022-12-11T12:44:37.443Z</time>
      </trkpt>
      <trkpt lat="48.19904" lon="-3.7001">
        <ele>139.73741</ele>
        <time>2022-12-11T12:44:39.454Z</time>
      </trkpt>
      <trkpt lat="48.1991" lon="-3.70022">
        <ele>139.170784</ele>
        <time>2022-12-11T12:44:41.451Z</time>
      </trkpt>
      <trkpt lat="48.19916" lon="-3.70034">
        <ele>138.604608</ele>
        <time>2022-12-11T12:44:43.445Z</time>
      </trkpt>
      <trkpt lat="48.19922" lon="-3.70045">
        <ele>138.058728</ele>
        <time>2022-12-11T12:44:45.456Z</time>
      </trkpt>
      <trkpt lat="48.19929" lon="-3.70056">
        <ele>137.465952</ele>
        <time>2022-12-11T12:44:47.446Z</time>
      </trkpt>
      <trkpt lat="48.19937" lon="-3.70068">
        <ele>136.821141</ele>
        <time>2022-12-11T12:44:49.452Z</time>
      </trkpt>
      <trkpt lat="48.19945" lon="-3.7008">
        <ele>136.175734</ele>
        <time>2022-12-11T12:44:51.460Z</time>
      </trkpt>
      <trkpt lat="48.19953" lon="-3.70091">
        <ele>135.566341</ele>
        <time>2022-12-11T12:44:53.450Z</time>
      </trkpt>
      <trkpt lat="48.19963" lon="-3.701">
        <ele>134.9247</ele>
        <time>2022-12-11T12:44:55.441Z</time>
      </trkpt>
      <trkpt lat="48.19973" lon="-3.70108">
        <ele>134.277232</ele>
        <time>2022-12-11T12:44:57.443Z</time>
      </trkpt>
      <trkpt lat="48.19983" lon="-3.70117">
        <ele>133.596222</ele>
        <time>2022-12-11T12:44:59.446Z</time>
      </trkpt>
      <trkpt lat="48.19993" lon="-3.70126">
        <ele>132.936097</ele>
        <time>2022-12-11T12:45:01.450Z</time>
      </trkpt>
      <trkpt lat="48.20003" lon="-3.70135">
        <ele>132.294689</ele>
        <time>2022-12-11T12:45:03.466Z</time>
      </trkpt>
      <trkpt lat="48.20013" lon="-3.70143">
        <ele>131.797252</ele>
        <time>2022-12-11T12:45:05.451Z</time>
      </trkpt>
      <trkpt lat="48.20024" lon="-3.7015">
        <ele>131.282328</ele>
        <time>2022-12-11T12:45:07.445Z</time>
      </trkpt>
      <trkpt lat="48.20034" lon="-3.70158">
        <ele>130.817476</ele>
        <time>2022-12-11T12:45:09.463Z</time>
      </trkpt>
      <trkpt lat="48.20046" lon="-3.70166">
        <ele>130.307532</ele>
        <time>2022-12-11T12:45:11.443Z</time>
      </trkpt>
      <trkpt lat="48.20057" lon="-3.70175">
        <ele>129.779197</ele>
        <time>2022-12-11T12:45:13.473Z</time>
      </trkpt>
      <trkpt lat="48.20067" lon="-3.70184">
        <ele>129.291024</ele>
        <time>2022-12-11T12:45:15.444Z</time>
      </trkpt>
      <trkpt lat="48.20078" lon="-3.70193">
        <ele>128.773115</ele>
        <time>2022-12-11T12:45:17.431Z</time>
      </trkpt>
      <trkpt lat="48.2009" lon="-3.70201">
        <ele>128.238546</ele>
        <time>2022-12-11T12:45:19.430Z</time>
      </trkpt>
      <trkpt lat="48.20101" lon="-3.7021">
        <ele>127.717397</ele>
        <time>2022-12-11T12:45:21.452Z</time>
      </trkpt>
      <trkpt lat="48.20112" lon="-3.7022">
        <ele>127.197238</ele>
        <time>2022-12-11T12:45:23.459Z</time>
      </trkpt>
      <trkpt lat="48.20124" lon="-3.7023">
        <ele>126.654896</ele>
        <time>2022-12-11T12:45:25.458Z</time>
      </trkpt>
      <trkpt lat="48.20134" lon="-3.70242">
        <ele>126.119987</ele>
        <time>2022-12-11T12:45:27.457Z</time>
      </trkpt>
      <trkpt lat="48.20145" lon="-3.70255">
        <ele>125.529317</ele>
        <time>2022-12-11T12:45:29.440Z</time>
      </trkpt>
      <trkpt lat="48.20157" lon="-3.70269">
        <ele>124.936815</ele>
        <time>2022-12-11T12:45:31.457Z</time>
      </trkpt>
      <trkpt lat="48.20169" lon="-3.70283">
        <ele>125.036789</ele>
        <time>2022-12-11T12:45:33.442Z</time>
      </trkpt>
      <trkpt lat="48.2018" lon="-3.70296">
        <ele>125.253477</ele>
        <time>2022-12-11T12:45:35.459Z</time>
      </trkpt>
      <trkpt lat="48.20191" lon="-3.7031">
        <ele>125.468457</ele>
        <time>2022-12-11T12:45:37.447Z</time>
      </trkpt>
      <trkpt lat="48.20201" lon="-3.70322">
        <ele>125.665393</ele>
        <time>2022-12-11T12:45:39.458Z</time>
      </trkpt>
      <trkpt lat="48.20211" lon="-3.70334">
        <ele>125.853794</ele>
        <time>2022-12-11T12:45:41.442Z</time>
      </trkpt>
      <trkpt lat="48.2022" lon="-3.70345">
        <ele>126.024342</ele>
        <time>2022-12-11T12:45:43.466Z</time>
      </trkpt>
      <trkpt lat="48.20228" lon="-3.70355">
        <ele>126.188875</ele>
        <time>2022-12-11T12:45:45.459Z</time>
      </trkpt>
      <trkpt lat="48.20236" lon="-3.70363">
        <ele>126.329274</ele>
        <time>2022-12-11T12:45:47.445Z</time>
      </trkpt>
      <trkpt lat="48.20244" lon="-3.7037">
        <ele>126.465406</ele>
        <time>2022-12-11T12:45:49.442Z</time>
      </trkpt>
      <trkpt lat="48.20254" lon="-3.7038">
        <ele>126.646385</ele>
        <time>2022-12-11T12:45:52.458Z</time>
      </trkpt>
      <trkpt lat="48.20262" lon="-3.70387">
        <ele>126.790043</ele>
        <time>2022-12-11T12:45:55.438Z</time>
      </trkpt>
      <trkpt lat="48.20273" lon="-3.70393">
        <ele>126.964911</ele>
        <time>2022-12-11T12:45:59.441Z</time>
      </trkpt>
      <trkpt lat="48.20282" lon="-3.70398">
        <ele>127.11136</ele>
        <time>2022-12-11T12:46:03.449Z</time>
      </trkpt>
      <trkpt lat="48.20292" lon="-3.704">
        <ele>127.251112</ele>
        <time>2022-12-11T12:46:07.473Z</time>
      </trkpt>
      <trkpt lat="48.20301" lon="-3.70402">
        <ele>127.388804</ele>
        <time>2022-12-11T12:46:11.442Z</time>
      </trkpt>
      <trkpt lat="48.20312" lon="-3.70403">
        <ele>127.570953</ele>
        <time>2022-12-11T12:46:16.437Z</time>
      </trkpt>
      <trkpt lat="48.20321" lon="-3.70403">
        <ele>127.86855</ele>
        <time>2022-12-11T12:46:20.470Z</time>
      </trkpt>
      <trkpt lat="48.20331" lon="-3.70404">
        <ele>128.201746</ele>
        <time>2022-12-11T12:46:25.463Z</time>
      </trkpt>
      <trkpt lat="48.20342" lon="-3.70403">
        <ele>128.554676</ele>
        <time>2022-12-11T12:46:30.444Z</time>
      </trkpt>
      <trkpt lat="48.20352" lon="-3.70402">
        <ele>128.878087</ele>
        <time>2022-12-11T12:46:35.453Z</time>
      </trkpt>
      <trkpt lat="48.20362" lon="-3.70404">
        <ele>129.205766</ele>
        <time>2022-12-11T12:46:40.449Z</time>
      </trkpt>
      <trkpt lat="48.20373" lon="-3.70405">
        <ele>129.552945</ele>
        <time>2022-12-11T12:46:45.467Z</time>
      </trkpt>
      <trkpt lat="48.20382" lon="-3.70407">
        <ele>129.852149</ele>
        <time>2022-12-11T12:46:49.457Z</time>
      </trkpt>
      <trkpt lat="48.20391" lon="-3.70408">
        <ele>130.151354</ele>
        <time>2022-12-11T12:46:53.458Z</time>
      </trkpt>
      <trkpt lat="48.20401" lon="-3.70411">
        <ele>130.464125</ele>
        <time>2022-12-11T12:46:57.442Z</time>
      </trkpt>
      <trkpt lat="48.20411" lon="-3.70412">
        <ele>130.794215</ele>
        <time>2022-12-11T12:47:01.464Z</time>
      </trkpt>
      <trkpt lat="48.2042" lon="-3.70415">
        <ele>131.096656</ele>
        <time>2022-12-11T12:47:05.438Z</time>
      </trkpt>
      <trkpt lat="48.2043" lon="-3.70416">
        <ele>131.421118</ele>
        <time>2022-12-11T12:47:09.456Z</time>
      </trkpt>
      <trkpt lat="48.2044" lon="-3.70419">
        <ele>131.741905</ele>
        <time>2022-12-11T12:47:13.446Z</time>
      </trkpt>
      <trkpt lat="48.2045" lon="-3.7042">
        <ele>132.076906</ele>
        <time>2022-12-11T12:47:17.457Z</time>
      </trkpt>
      <trkpt lat="48.20461" lon="-3.70421">
        <ele>132.409719</ele>
        <time>2022-12-11T12:47:21.455Z</time>
      </trkpt>
      <trkpt lat="48.2047" lon="-3.70423">
        <ele>132.725746</ele>
        <time>2022-12-11T12:47:25.443Z</time>
      </trkpt>
      <trkpt lat="48.2048" lon="-3.70424">
        <ele>133.044453</ele>
        <time>2022-12-11T12:47:29.456Z</time>
      </trkpt>
      <trkpt lat="48.20491" lon="-3.70427">
        <ele>133.39935</ele>
        <time>2022-12-11T12:47:33.441Z</time>
      </trkpt>
      <trkpt lat="48.20501" lon="-3.7043">
        <ele>133.881128</ele>
        <time>2022-12-11T12:47:37.442Z</time>
      </trkpt>
      <trkpt lat="48.2051" lon="-3.70431">
        <ele>134.325474</ele>
        <time>2022-12-11T12:47:41.454Z</time>
      </trkpt>
      <trkpt lat="48.20519" lon="-3.70434">
        <ele>134.77611</ele>
        <time>2022-12-11T12:47:45.441Z</time>
      </trkpt>
      <trkpt lat="48.20528" lon="-3.70437">
        <ele>135.216867</ele>
        <time>2022-12-11T12:47:49.440Z</time>
      </trkpt>
      <trkpt lat="48.20538" lon="-3.70439">
        <ele>135.667291</ele>
        <time>2022-12-11T12:47:53.457Z</time>
      </trkpt>
      <trkpt lat="48.20547" lon="-3.70442">
        <ele>136.145981</ele>
        <time>2022-12-11T12:47:58.462Z</time>
      </trkpt>
      <trkpt lat="48.20556" lon="-3.70444">
        <ele>136.582613</ele>
        <time>2022-12-11T12:48:03.444Z</time>
      </trkpt>
      <trkpt lat="48.20568" lon="-3.70447">
        <ele>137.115686</ele>
        <time>2022-12-11T12:48:08.444Z</time>
      </trkpt>
      <trkpt lat="48.20577" lon="-3.70449">
        <ele>137.591797</ele>
        <time>2022-12-11T12:48:13.440Z</time>
      </trkpt>
      <trkpt lat="48.20588" lon="-3.70451">
        <ele>138.082973</ele>
        <time>2022-12-11T12:48:18.447Z</time>
      </trkpt>
      <trkpt lat="48.20598" lon="-3.70453">
        <ele>138.577062</ele>
        <time>2022-12-11T12:48:23.445Z</time>
      </trkpt>
      <trkpt lat="48.20607" lon="-3.70455">
        <ele>139.014597</ele>
        <time>2022-12-11T12:48:28.451Z</time>
      </trkpt>
      <trkpt lat="48.20616" lon="-3.70459">
        <ele>139.448416</ele>
        <time>2022-12-11T12:48:33.448Z</time>
      </trkpt>
      <trkpt lat="48.20625" lon="-3.70464">
        <ele>139.931428</ele>
        <time>2022-12-11T12:48:39.442Z</time>
      </trkpt>
      <trkpt lat="48.20635" lon="-3.70467">
        <ele>140.407892</ele>
        <time>2022-12-11T12:48:45.448Z</time>
      </trkpt>
      <trkpt lat="48.20645" lon="-3.70472">
        <ele>140.910352</ele>
        <time>2022-12-11T12:48:51.448Z</time>
      </trkpt>
      <trkpt lat="48.20655" lon="-3.70476">
        <ele>141.38892</ele>
        <time>2022-12-11T12:48:57.447Z</time>
      </trkpt>
      <trkpt lat="48.20664" lon="-3.7048">
        <ele>141.819985</ele>
        <time>2022-12-11T12:49:02.442Z</time>
      </trkpt>
      <trkpt lat="48.20673" lon="-3.70484">
        <ele>142.225702</ele>
        <time>2022-12-11T12:49:08.441Z</time>
      </trkpt>
      <trkpt lat="48.20683" lon="-3.70489">
        <ele>142.603341</ele>
        <time>2022-12-11T12:49:14.444Z</time>
      </trkpt>
      <trkpt lat="48.20691" lon="-3.70495">
        <ele>142.963385</ele>
        <time>2022-12-11T12:49:20.449Z</time>
      </trkpt>
      <trkpt lat="48.207" lon="-3.70499">
        <ele>143.324333</ele>
        <time>2022-12-11T12:49:26.447Z</time>
      </trkpt>
      <trkpt lat="48.20709" lon="-3.70506">
        <ele>143.687395</ele>
        <time>2022-12-11T12:49:32.446Z</time>
      </trkpt>
      <trkpt lat="48.20718" lon="-3.70512">
        <ele>144.075073</ele>
        <time>2022-12-11T12:49:38.456Z</time>
      </trkpt>
      <trkpt lat="48.20727" lon="-3.70516">
        <ele>144.458956</ele>
        <time>2022-12-11T12:49:44.437Z</time>
      </trkpt>
      <trkpt lat="48.20737" lon="-3.70521">
        <ele>144.854544</ele>
        <time>2022-12-11T12:49:50.439Z</time>
      </trkpt>
      <trkpt lat="48.20747" lon="-3.70526">
        <ele>145.239707</ele>
        <time>2022-12-11T12:49:56.443Z</time>
      </trkpt>
      <trkpt lat="48.20757" lon="-3.70529">
        <ele>145.634506</ele>
        <time>2022-12-11T12:50:02.435Z</time>
      </trkpt>
      <trkpt lat="48.20767" lon="-3.70534">
        <ele>146.036582</ele>
        <time>2022-12-11T12:50:08.444Z</time>
      </trkpt>
      <trkpt lat="48.20776" lon="-3.70536">
        <ele>146.403101</ele>
        <time>2022-12-11T12:50:13.439Z</time>
      </trkpt>
      <trkpt lat="48.20786" lon="-3.70541">
        <ele>146.78605</ele>
        <time>2022-12-11T12:50:18.471Z</time>
      </trkpt>
      <trkpt lat="48.20796" lon="-3.70543">
        <ele>147.169315</ele>
        <time>2022-12-11T12:50:23.440Z</time>
      </trkpt>
      <trkpt lat="48.20806" lon="-3.70547">
        <ele>147.577407</ele>
        <time>2022-12-11T12:50:28.465Z</time>
      </trkpt>
      <trkpt lat="48.20817" lon="-3.70549">
        <ele>147.987567</ele>
        <time>2022-12-11T12:50:33.441Z</time>
      </trkpt>
      <trkpt lat="48.20826" lon="-3.70552">
        <ele>148.339052</ele>
        <time>2022-12-11T12:50:36.460Z</time>
      </trkpt>
      <trkpt lat="48.20836" lon="-3.70554">
        <ele>148.754157</ele>
        <time>2022-12-11T12:50:39.451Z</time>
      </trkpt>
      <trkpt lat="48.20848" lon="-3.70556">
        <ele>148.414643</ele>
        <time>2022-12-11T12:50:42.456Z</time>
      </trkpt>
      <trkpt lat="48.2086" lon="-3.70558">
        <ele>147.939361</ele>
        <time>2022-12-11T12:50:45.456Z</time>
      </trkpt>
      <trkpt lat="48.20869" lon="-3.70557">
        <ele>147.580309</ele>
        <time>2022-12-11T12:50:47.467Z</time>
      </trkpt>
      <trkpt lat="48.20879" lon="-3.70558">
        <ele>147.194473</ele>
        <time>2022-12-11T12:50:49.460Z</time>
      </trkpt>
      <trkpt lat="48.2089" lon="-3.70558">
        <ele>146.797314</ele>
        <time>2022-12-11T12:50:51.468Z</time>
      </trkpt>
      <trkpt lat="48.20901" lon="-3.70558">
        <ele>146.373355</ele>
        <time>2022-12-11T12:50:53.459Z</time>
      </trkpt>
      <trkpt lat="48.20912" lon="-3.70559">
        <ele>145.949274</ele>
        <time>2022-12-11T12:50:55.464Z</time>
      </trkpt>
      <trkpt lat="48.20923" lon="-3.70559">
        <ele>145.533021</ele>
        <time>2022-12-11T12:50:57.443Z</time>
      </trkpt>
      <trkpt lat="48.20934" lon="-3.70559">
        <ele>145.101493</ele>
        <time>2022-12-11T12:50:59.447Z</time>
      </trkpt>
      <trkpt lat="48.20945" lon="-3.70559">
        <ele>144.673776</ele>
        <time>2022-12-11T12:51:01.451Z</time>
      </trkpt>
      <trkpt lat="48.20958" lon="-3.70557">
        <ele>144.210514</ele>
        <time>2022-12-11T12:51:03.462Z</time>
      </trkpt>
      <trkpt lat="48.20969" lon="-3.70556">
        <ele>143.765422</ele>
        <time>2022-12-11T12:51:05.451Z</time>
      </trkpt>
      <trkpt lat="48.20982" lon="-3.70553">
        <ele>143.284796</ele>
        <time>2022-12-11T12:51:07.444Z</time>
      </trkpt>
      <trkpt lat="48.20994" lon="-3.70551">
        <ele>142.798742</ele>
        <time>2022-12-11T12:51:09.445Z</time>
      </trkpt>
      <trkpt lat="48.21007" lon="-3.70548">
        <ele>142.317167</ele>
        <time>2022-12-11T12:51:11.447Z</time>
      </trkpt>
      <trkpt lat="48.21019" lon="-3.70545">
        <ele>141.745588</ele>
        <time>2022-12-11T12:51:13.447Z</time>
      </trkpt>
      <trkpt lat="48.21032" lon="-3.70541">
        <ele>140.593626</ele>
        <time>2022-12-11T12:51:15.462Z</time>
      </trkpt>
      <trkpt lat="48.21045" lon="-3.70536">
        <ele>139.435468</ele>
        <time>2022-12-11T12:51:17.467Z</time>
      </trkpt>
      <trkpt lat="48.21059" lon="-3.70532">
        <ele>138.229413</ele>
        <time>2022-12-11T12:51:19.436Z</time>
      </trkpt>
      <trkpt lat="48.21073" lon="-3.70527">
        <ele>136.996228</ele>
        <time>2022-12-11T12:51:21.461Z</time>
      </trkpt>
      <trkpt lat="48.21085" lon="-3.70523">
        <ele>135.885704</ele>
        <time>2022-12-11T12:51:23.448Z</time>
      </trkpt>
      <trkpt lat="48.21099" lon="-3.7052">
        <ele>134.657251</ele>
        <time>2022-12-11T12:51:25.454Z</time>
      </trkpt>
      <trkpt lat="48.21113" lon="-3.70517">
        <ele>133.457706</ele>
        <time>2022-12-11T12:51:27.444Z</time>
      </trkpt>
      <trkpt lat="48.21127" lon="-3.70515">
        <ele>132.256696</ele>
        <time>2022-12-11T12:51:29.468Z</time>
      </trkpt>
      <trkpt lat="48.21141" lon="-3.70514">
        <ele>131.023083</ele>
        <time>2022-12-11T12:51:31.443Z</time>
      </trkpt>
      <trkpt lat="48.21156" lon="-3.70513">
        <ele>129.765202</ele>
        <time>2022-12-11T12:51:33.464Z</time>
      </trkpt>
      <trkpt lat="48.21171" lon="-3.70512">
        <ele>128.473629</ele>
        <time>2022-12-11T12:51:35.449Z</time>
      </trkpt>
      <trkpt lat="48.21185" lon="-3.70512">
        <ele>127.276393</ele>
        <time>2022-12-11T12:51:37.454Z</time>
      </trkpt>
      <trkpt lat="48.21199" lon="-3.70512">
        <ele>126.219664</ele>
        <time>2022-12-11T12:51:39.445Z</time>
      </trkpt>
      <trkpt lat="48.21213" lon="-3.70513">
        <ele>125.535202</ele>
        <time>2022-12-11T12:51:41.443Z</time>
      </trkpt>
      <trkpt lat="48.21227" lon="-3.70514">
        <ele>124.819986</ele>
        <time>2022-12-11T12:51:43.452Z</time>
      </trkpt>
      <trkpt lat="48.21241" lon="-3.70515">
        <ele>124.078344</ele>
        <time>2022-12-11T12:51:45.467Z</time>
      </trkpt>
      <trkpt lat="48.21256" lon="-3.70518">
        <ele>123.329329</ele>
        <time>2022-12-11T12:51:47.444Z</time>
      </trkpt>
      <trkpt lat="48.21269" lon="-3.7052">
        <ele>122.639977</ele>
        <time>2022-12-11T12:51:49.461Z</time>
      </trkpt>
      <trkpt lat="48.21283" lon="-3.70522">
        <ele>121.953119</ele>
        <time>2022-12-11T12:51:51.447Z</time>
      </trkpt>
      <trkpt lat="48.21296" lon="-3.70523">
        <ele>121.27807</ele>
        <time>2022-12-11T12:51:53.444Z</time>
      </trkpt>
      <trkpt lat="48.21308" lon="-3.70525">
        <ele>120.667819</ele>
        <time>2022-12-11T12:51:55.462Z</time>
      </trkpt>
      <trkpt lat="48.2132" lon="-3.70527">
        <ele>120.054298</ele>
        <time>2022-12-11T12:51:57.447Z</time>
      </trkpt>
      <trkpt lat="48.21331" lon="-3.70528">
        <ele>119.510261</ele>
        <time>2022-12-11T12:51:59.472Z</time>
      </trkpt>
      <trkpt lat="48.21342" lon="-3.70531">
        <ele>118.953634</ele>
        <time>2022-12-11T12:52:01.444Z</time>
      </trkpt>
      <trkpt lat="48.21353" lon="-3.70532">
        <ele>118.360539</ele>
        <time>2022-12-11T12:52:03.456Z</time>
      </trkpt>
      <trkpt lat="48.21365" lon="-3.70534">
        <ele>117.746089</ele>
        <time>2022-12-11T12:52:05.474Z</time>
      </trkpt>
      <trkpt lat="48.21378" lon="-3.70536">
        <ele>117.152311</ele>
        <time>2022-12-11T12:52:07.447Z</time>
      </trkpt>
      <trkpt lat="48.2139" lon="-3.70537">
        <ele>116.643468</ele>
        <time>2022-12-11T12:52:09.464Z</time>
      </trkpt>
      <trkpt lat="48.21402" lon="-3.70537">
        <ele>116.09777</ele>
        <time>2022-12-11T12:52:11.471Z</time>
      </trkpt>
      <trkpt lat="48.21415" lon="-3.70535">
        <ele>115.531045</ele>
        <time>2022-12-11T12:52:13.441Z</time>
      </trkpt>
      <trkpt lat="48.21428" lon="-3.7053">
        <ele>114.968</ele>
        <time>2022-12-11T12:52:15.451Z</time>
      </trkpt>
      <trkpt lat="48.2144" lon="-3.70524">
        <ele>114.410758</ele>
        <time>2022-12-11T12:52:17.445Z</time>
      </trkpt>
      <trkpt lat="48.21454" lon="-3.70517">
        <ele>113.786086</ele>
        <time>2022-12-11T12:52:19.445Z</time>
      </trkpt>
      <trkpt lat="48.21467" lon="-3.70509">
        <ele>113.206766</ele>
        <time>2022-12-11T12:52:21.461Z</time>
      </trkpt>
      <trkpt lat="48.21479" lon="-3.70502">
        <ele>112.612075</ele>
        <time>2022-12-11T12:52:23.468Z</time>
      </trkpt>
      <trkpt lat="48.21493" lon="-3.70494">
        <ele>111.99851</ele>
        <time>2022-12-11T12:52:25.442Z</time>
      </trkpt>
      <trkpt lat="48.21507" lon="-3.70486">
        <ele>111.350719</ele>
        <time>2022-12-11T12:52:27.463Z</time>
      </trkpt>
      <trkpt lat="48.21521" lon="-3.70479">
        <ele>110.728144</ele>
        <time>2022-12-11T12:52:29.445Z</time>
      </trkpt>
      <trkpt lat="48.21534" lon="-3.70471">
        <ele>110.103429</ele>
        <time>2022-12-11T12:52:31.451Z</time>
      </trkpt>
      <trkpt lat="48.21547" lon="-3.70464">
        <ele>109.571875</ele>
        <time>2022-12-11T12:52:33.448Z</time>
      </trkpt>
      <trkpt lat="48.2156" lon="-3.70458">
        <ele>109.400697</ele>
        <time>2022-12-11T12:52:35.439Z</time>
      </trkpt>
      <trkpt lat="48.21574" lon="-3.70452">
        <ele>109.211556</ele>
        <time>2022-12-11T12:52:37.444Z</time>
      </trkpt>
      <trkpt lat="48.21589" lon="-3.70444">
        <ele>109.016646</ele>
        <time>2022-12-11T12:52:39.459Z</time>
      </trkpt>
      <trkpt lat="48.21603" lon="-3.70437">
        <ele>108.826196</ele>
        <time>2022-12-11T12:52:41.459Z</time>
      </trkpt>
      <trkpt lat="48.21616" lon="-3.70431">
        <ele>108.647127</ele>
        <time>2022-12-11T12:52:43.473Z</time>
      </trkpt>
      <trkpt lat="48.21629" lon="-3.70425">
        <ele>108.478809</ele>
        <time>2022-12-11T12:52:45.453Z</time>
      </trkpt>
      <trkpt lat="48.2164" lon="-3.70419">
        <ele>108.319919</ele>
        <time>2022-12-11T12:52:47.444Z</time>
      </trkpt>
      <trkpt lat="48.21651" lon="-3.70414">
        <ele>108.175922</ele>
        <time>2022-12-11T12:52:49.443Z</time>
      </trkpt>
      <trkpt lat="48.21661" lon="-3.70408">
        <ele>108.038942</ele>
        <time>2022-12-11T12:52:51.472Z</time>
      </trkpt>
      <trkpt lat="48.21671" lon="-3.70403">
        <ele>107.907609</ele>
        <time>2022-12-11T12:52:53.458Z</time>
      </trkpt>
      <trkpt lat="48.21679" lon="-3.70397">
        <ele>107.786958</ele>
        <time>2022-12-11T12:52:55.453Z</time>
      </trkpt>
      <trkpt lat="48.21689" lon="-3.70388">
        <ele>107.635606</ele>
        <time>2022-12-11T12:52:58.448Z</time>
      </trkpt>
      <trkpt lat="48.217" lon="-3.70377">
        <ele>107.474266</ele>
        <time>2022-12-11T12:53:01.465Z</time>
      </trkpt>
      <trkpt lat="48.21711" lon="-3.70365">
        <ele>107.298648</ele>
        <time>2022-12-11T12:53:04.443Z</time>
      </trkpt>
      <trkpt lat="48.21721" lon="-3.70355">
        <ele>107.305129</ele>
        <time>2022-12-11T12:53:07.436Z</time>
      </trkpt>
      <trkpt lat="48.21729" lon="-3.70345">
        <ele>107.311446</ele>
        <time>2022-12-11T12:53:10.455Z</time>
      </trkpt>
      <trkpt lat="48.21739" lon="-3.70336">
        <ele>107.317718</ele>
        <time>2022-12-11T12:53:13.456Z</time>
      </trkpt>
      <trkpt lat="48.2175" lon="-3.70326">
        <ele>107.325272</ele>
        <time>2022-12-11T12:53:16.507Z</time>
      </trkpt>
      <trkpt lat="48.21758" lon="-3.70316">
        <ele>107.331334</ele>
        <time>2022-12-11T12:53:19.438Z</time>
      </trkpt>
      <trkpt lat="48.21768" lon="-3.70306">
        <ele>107.338066</ele>
        <time>2022-12-11T12:53:22.440Z</time>
      </trkpt>
      <trkpt lat="48.21778" lon="-3.70297">
        <ele>107.344861</ele>
        <time>2022-12-11T12:53:25.440Z</time>
      </trkpt>
      <trkpt lat="48.21788" lon="-3.70287">
        <ele>107.351829</ele>
        <time>2022-12-11T12:53:28.462Z</time>
      </trkpt>
      <trkpt lat="48.21797" lon="-3.70277">
        <ele>107.358354</ele>
        <time>2022-12-11T12:53:31.455Z</time>
      </trkpt>
      <trkpt lat="48.21807" lon="-3.70268">
        <ele>107.364931</ele>
        <time>2022-12-11T12:53:34.443Z</time>
      </trkpt>
      <trkpt lat="48.21816" lon="-3.70262">
        <ele>107.370743</ele>
        <time>2022-12-11T12:53:37.462Z</time>
      </trkpt>
      <trkpt lat="48.21826" lon="-3.70257">
        <ele>107.376778</ele>
        <time>2022-12-11T12:53:40.443Z</time>
      </trkpt>
      <trkpt lat="48.21836" lon="-3.70255">
        <ele>107.382271</ele>
        <time>2022-12-11T12:53:43.445Z</time>
      </trkpt>
      <trkpt lat="48.21845" lon="-3.70255">
        <ele>107.387728</ele>
        <time>2022-12-11T12:53:46.457Z</time>
      </trkpt>
      <trkpt lat="48.21855" lon="-3.70257">
        <ele>107.393515</ele>
        <time>2022-12-11T12:53:50.471Z</time>
      </trkpt>
      <trkpt lat="48.21865" lon="-3.70261">
        <ele>107.399252</ele>
        <time>2022-12-11T12:53:55.444Z</time>
      </trkpt>
      <trkpt lat="48.21872" lon="-3.70271">
        <ele>107.273042</ele>
        <time>2022-12-11T12:54:19.444Z</time>
      </trkpt>
      <trkpt lat="48.21882" lon="-3.70277">
        <ele>106.996546</ele>
        <time>2022-12-11T12:54:25.450Z</time>
      </trkpt>
      <trkpt lat="48.21891" lon="-3.70288">
        <ele>106.714023</ele>
        <time>2022-12-11T12:54:29.445Z</time>
      </trkpt>
      <trkpt lat="48.21898" lon="-3.70302">
        <ele>106.435097</ele>
        <time>2022-12-11T12:54:33.449Z</time>
      </trkpt>
      <trkpt lat="48.21904" lon="-3.70313">
        <ele>106.205509</ele>
        <time>2022-12-11T12:54:36.447Z</time>
      </trkpt>
      <trkpt lat="48.21912" lon="-3.70323">
        <ele>105.946411</ele>
        <time>2022-12-11T12:54:40.450Z</time>
      </trkpt>
      <trkpt lat="48.21922" lon="-3.70323">
        <ele>105.698893</ele>
        <time>2022-12-11T12:54:44.442Z</time>
      </trkpt>
      <trkpt lat="48.21931" lon="-3.70313">
        <ele>105.423494</ele>
        <time>2022-12-11T12:54:48.444Z</time>
      </trkpt>
      <trkpt lat="48.21939" lon="-3.70305">
        <ele>105.19788</ele>
        <time>2022-12-11T12:54:51.446Z</time>
      </trkpt>
      <trkpt lat="48.21947" lon="-3.70295">
        <ele>104.933226</ele>
        <time>2022-12-11T12:54:54.444Z</time>
      </trkpt>
      <trkpt lat="48.21955" lon="-3.70283">
        <ele>104.66932</ele>
        <time>2022-12-11T12:54:57.458Z</time>
      </trkpt>
      <trkpt lat="48.2196" lon="-3.7027">
        <ele>104.418777</ele>
        <time>2022-12-11T12:55:01.455Z</time>
      </trkpt>
      <trkpt lat="48.21967" lon="-3.7026">
        <ele>104.176264</ele>
        <time>2022-12-11T12:55:10.446Z</time>
      </trkpt>
      <trkpt lat="48.21974" lon="-3.70252">
        <ele>103.954512</ele>
        <time>2022-12-11T12:55:14.445Z</time>
      </trkpt>
      <trkpt lat="48.21984" lon="-3.70241">
        <ele>103.659392</ele>
        <time>2022-12-11T12:55:18.463Z</time>
      </trkpt>
      <trkpt lat="48.21991" lon="-3.70232">
        <ele>103.437719</ele>
        <time>2022-12-11T12:55:21.447Z</time>
      </trkpt>
      <trkpt lat="48.21999" lon="-3.7022">
        <ele>103.147799</ele>
        <time>2022-12-11T12:55:25.443Z</time>
      </trkpt>
      <trkpt lat="48.22007" lon="-3.7021">
        <ele>103.022049</ele>
        <time>2022-12-11T12:55:28.445Z</time>
      </trkpt>
      <trkpt lat="48.22014" lon="-3.70199">
        <ele>103.110261</ele>
        <time>2022-12-11T12:55:31.437Z</time>
      </trkpt>
      <trkpt lat="48.22022" lon="-3.70184">
        <ele>103.210543</ele>
        <time>2022-12-11T12:55:34.444Z</time>
      </trkpt>
      <trkpt lat="48.22029" lon="-3.70171">
        <ele>103.302162</ele>
        <time>2022-12-11T12:55:37.464Z</time>
      </trkpt>
      <trkpt lat="48.22035" lon="-3.70159">
        <ele>103.3817</ele>
        <time>2022-12-11T12:55:40.458Z</time>
      </trkpt>
      <trkpt lat="48.22041" lon="-3.70148">
        <ele>103.458568</ele>
        <time>2022-12-11T12:55:43.470Z</time>
      </trkpt>
      <trkpt lat="48.22048" lon="-3.70137">
        <ele>103.539982</ele>
        <time>2022-12-11T12:55:48.450Z</time>
      </trkpt>
      <trkpt lat="48.22052" lon="-3.70124">
        <ele>103.617598</ele>
        <time>2022-12-11T12:55:52.435Z</time>
      </trkpt>
      <trkpt lat="48.22056" lon="-3.70109">
        <ele>103.704744</ele>
        <time>2022-12-11T12:55:56.445Z</time>
      </trkpt>
      <trkpt lat="48.22061" lon="-3.70095">
        <ele>103.787274</ele>
        <time>2022-12-11T12:56:00.443Z</time>
      </trkpt>
      <trkpt lat="48.22066" lon="-3.70084">
        <ele>103.86103</ele>
        <time>2022-12-11T12:56:04.452Z</time>
      </trkpt>
      <trkpt lat="48.22072" lon="-3.70069">
        <ele>103.95345</ele>
        <time>2022-12-11T12:56:08.445Z</time>
      </trkpt>
      <trkpt lat="48.22077" lon="-3.70057">
        <ele>104.028564</ele>
        <time>2022-12-11T12:56:11.446Z</time>
      </trkpt>
      <trkpt lat="48.22083" lon="-3.70043">
        <ele>104.119263</ele>
        <time>2022-12-11T12:56:15.472Z</time>
      </trkpt>
      <trkpt lat="48.22088" lon="-3.70028">
        <ele>104.210146</ele>
        <time>2022-12-11T12:56:19.464Z</time>
      </trkpt>
      <trkpt lat="48.22094" lon="-3.70014">
        <ele>104.299439</ele>
        <time>2022-12-11T12:56:23.442Z</time>
      </trkpt>
      <trkpt lat="48.221" lon="-3.70001">
        <ele>104.378014</ele>
        <time>2022-12-11T12:56:27.441Z</time>
      </trkpt>
      <trkpt lat="48.22105" lon="-3.69987">
        <ele>104.468732</ele>
        <time>2022-12-11T12:56:31.455Z</time>
      </trkpt>
      <trkpt lat="48.2211" lon="-3.69975">
        <ele>104.550013</ele>
        <time>2022-12-11T12:56:34.454Z</time>
      </trkpt>
      <trkpt lat="48.22116" lon="-3.69961">
        <ele>104.647966</ele>
        <time>2022-12-11T12:56:38.454Z</time>
      </trkpt>
      <trkpt lat="48.22121" lon="-3.69949">
        <ele>104.727294</ele>
        <time>2022-12-11T12:56:42.445Z</time>
      </trkpt>
      <trkpt lat="48.22126" lon="-3.69936">
        <ele>104.812905</ele>
        <time>2022-12-11T12:56:46.466Z</time>
      </trkpt>
      <trkpt lat="48.22132" lon="-3.69921">
        <ele>104.914763</ele>
        <time>2022-12-11T12:56:50.449Z</time>
      </trkpt>
      <trkpt lat="48.22138" lon="-3.69906">
        <ele>105.013273</ele>
        <time>2022-12-11T12:56:54.447Z</time>
      </trkpt>
      <trkpt lat="48.22143" lon="-3.69895">
        <ele>105.090695</ele>
        <time>2022-12-11T12:56:57.454Z</time>
      </trkpt>
      <trkpt lat="48.2215" lon="-3.69885">
        <ele>105.170534</ele>
        <time>2022-12-11T12:57:00.442Z</time>
      </trkpt>
      <trkpt lat="48.22158" lon="-3.69878">
        <ele>105.252725</ele>
        <time>2022-12-11T12:57:03.443Z</time>
      </trkpt>
      <trkpt lat="48.22167" lon="-3.69873">
        <ele>105.335219</ele>
        <time>2022-12-11T12:57:06.484Z</time>
      </trkpt>
      <trkpt lat="48.22178" lon="-3.69868">
        <ele>105.438042</ele>
        <time>2022-12-11T12:57:10.441Z</time>
      </trkpt>
      <trkpt lat="48.22188" lon="-3.69863">
        <ele>105.52059</ele>
        <time>2022-12-11T12:57:13.452Z</time>
      </trkpt>
      <trkpt lat="48.22197" lon="-3.69861">
        <ele>105.601247</ele>
        <time>2022-12-11T12:57:16.456Z</time>
      </trkpt>
      <trkpt lat="48.22206" lon="-3.69858">
        <ele>105.682361</ele>
        <time>2022-12-11T12:57:19.447Z</time>
      </trkpt>
      <trkpt lat="48.22215" lon="-3.69855">
        <ele>105.766001</ele>
        <time>2022-12-11T12:57:22.440Z</time>
      </trkpt>
      <trkpt lat="48.22226" lon="-3.69852">
        <ele>105.861278</ele>
        <time>2022-12-11T12:57:25.445Z</time>
      </trkpt>
      <trkpt lat="48.22236" lon="-3.6985">
        <ele>105.947679</ele>
        <time>2022-12-11T12:57:28.442Z</time>
      </trkpt>
      <trkpt lat="48.22248" lon="-3.69848">
        <ele>105.949779</ele>
        <time>2022-12-11T12:57:32.446Z</time>
      </trkpt>
      <trkpt lat="48.22258" lon="-3.69848">
        <ele>105.886598</ele>
        <time>2022-12-11T12:57:36.450Z</time>
      </trkpt>
      <trkpt lat="48.22267" lon="-3.69847">
        <ele>105.828972</ele>
        <time>2022-12-11T12:57:39.450Z</time>
      </trkpt>
      <trkpt lat="48.22278" lon="-3.69844">
        <ele>105.753611</ele>
        <time>2022-12-11T12:57:43.442Z</time>
      </trkpt>
      <trkpt lat="48.22288" lon="-3.69843">
        <ele>105.689284</ele>
        <time>2022-12-11T12:57:46.461Z</time>
      </trkpt>
      <trkpt lat="48.22298" lon="-3.69842">
        <ele>105.627235</ele>
        <time>2022-12-11T12:57:49.470Z</time>
      </trkpt>
      <trkpt lat="48.22307" lon="-3.69839">
        <ele>105.569372</ele>
        <time>2022-12-11T12:57:52.447Z</time>
      </trkpt>
      <trkpt lat="48.22317" lon="-3.69837">
        <ele>105.504357</ele>
        <time>2022-12-11T12:57:56.466Z</time>
      </trkpt>
      <trkpt lat="48.22328" lon="-3.69834">
        <ele>105.436607</ele>
        <time>2022-12-11T12:58:00.445Z</time>
      </trkpt>
      <trkpt lat="48.22337" lon="-3.6983">
        <ele>105.372117</ele>
        <time>2022-12-11T12:58:03.448Z</time>
      </trkpt>
      <trkpt lat="48.22348" lon="-3.69827">
        <ele>105.305616</ele>
        <time>2022-12-11T12:58:06.467Z</time>
      </trkpt>
      <trkpt lat="48.22357" lon="-3.69823">
        <ele>105.240188</ele>
        <time>2022-12-11T12:58:09.449Z</time>
      </trkpt>
      <trkpt lat="48.22367" lon="-3.6982">
        <ele>105.176049</ele>
        <time>2022-12-11T12:58:12.468Z</time>
      </trkpt>
      <trkpt lat="48.22377" lon="-3.69818">
        <ele>105.111352</ele>
        <time>2022-12-11T12:58:15.473Z</time>
      </trkpt>
      <trkpt lat="48.22387" lon="-3.69815">
        <ele>105.049172</ele>
        <time>2022-12-11T12:58:18.446Z</time>
      </trkpt>
      <trkpt lat="48.22396" lon="-3.69811">
        <ele>104.988163</ele>
        <time>2022-12-11T12:58:22.455Z</time>
      </trkpt>
      <trkpt lat="48.22407" lon="-3.69806">
        <ele>104.912482</ele>
        <time>2022-12-11T12:58:26.459Z</time>
      </trkpt>
      <trkpt lat="48.22418" lon="-3.69801">
        <ele>104.845</ele>
        <time>2022-12-11T12:58:29.460Z</time>
      </trkpt>
      <trkpt lat="48.22426" lon="-3.69795">
        <ele>104.706189</ele>
        <time>2022-12-11T12:58:32.451Z</time>
      </trkpt>
      <trkpt lat="48.22435" lon="-3.69789">
        <ele>104.565802</ele>
        <time>2022-12-11T12:58:35.454Z</time>
      </trkpt>
      <trkpt lat="48.22443" lon="-3.69782">
        <ele>104.43439</ele>
        <time>2022-12-11T12:58:38.463Z</time>
      </trkpt>
      <trkpt lat="48.22452" lon="-3.69771">
        <ele>104.271911</ele>
        <time>2022-12-11T12:58:42.468Z</time>
      </trkpt>
      <trkpt lat="48.2246" lon="-3.6976">
        <ele>104.109311</ele>
        <time>2022-12-11T12:58:46.468Z</time>
      </trkpt>
      <trkpt lat="48.22467" lon="-3.69751">
        <ele>103.97655</ele>
        <time>2022-12-11T12:58:49.467Z</time>
      </trkpt>
      <trkpt lat="48.22473" lon="-3.6974">
        <ele>103.843393</ele>
        <time>2022-12-11T12:58:52.444Z</time>
      </trkpt>
      <trkpt lat="48.22482" lon="-3.69728">
        <ele>103.669114</ele>
        <time>2022-12-11T12:58:56.504Z</time>
      </trkpt>
      <trkpt lat="48.2249" lon="-3.69714">
        <ele>103.495229</ele>
        <time>2022-12-11T12:59:00.448Z</time>
      </trkpt>
      <trkpt lat="48.22496" lon="-3.69701">
        <ele>103.334851</ele>
        <time>2022-12-11T12:59:03.440Z</time>
      </trkpt>
      <trkpt lat="48.22502" lon="-3.69688">
        <ele>103.181822</ele>
        <time>2022-12-11T12:59:06.451Z</time>
      </trkpt>
      <trkpt lat="48.22508" lon="-3.69676">
        <ele>103.044797</ele>
        <time>2022-12-11T12:59:09.474Z</time>
      </trkpt>
      <trkpt lat="48.22515" lon="-3.69665">
        <ele>102.890232</ele>
        <time>2022-12-11T12:59:13.458Z</time>
      </trkpt>
      <trkpt lat="48.2252" lon="-3.69652">
        <ele>102.755024</ele>
        <time>2022-12-11T12:59:16.451Z</time>
      </trkpt>
      <trkpt lat="48.22524" lon="-3.69638">
        <ele>102.60092</ele>
        <time>2022-12-11T12:59:20.443Z</time>
      </trkpt>
      <trkpt lat="48.22526" lon="-3.69621">
        <ele>102.436398</ele>
        <time>2022-12-11T12:59:23.449Z</time>
      </trkpt>
      <trkpt lat="48.22524" lon="-3.69605">
        <ele>102.278409</ele>
        <time>2022-12-11T12:59:26.454Z</time>
      </trkpt>
      <trkpt lat="48.22523" lon="-3.69589">
        <ele>102.372904</ele>
        <time>2022-12-11T12:59:29.442Z</time>
      </trkpt>
      <trkpt lat="48.22518" lon="-3.69574">
        <ele>102.54771</ele>
        <time>2022-12-11T12:59:32.439Z</time>
      </trkpt>
      <trkpt lat="48.22513" lon="-3.69559">
        <ele>102.720322</ele>
        <time>2022-12-11T12:59:35.434Z</time>
      </trkpt>
      <trkpt lat="48.22508" lon="-3.69545">
        <ele>102.898741</ele>
        <time>2022-12-11T12:59:38.462Z</time>
      </trkpt>
      <trkpt lat="48.22501" lon="-3.69528">
        <ele>103.09866</ele>
        <time>2022-12-11T12:59:41.448Z</time>
      </trkpt>
      <trkpt lat="48.22495" lon="-3.69514">
        <ele>103.286168</ele>
        <time>2022-12-11T12:59:44.444Z</time>
      </trkpt>
      <trkpt lat="48.22488" lon="-3.69498">
        <ele>103.473744</ele>
        <time>2022-12-11T12:59:47.443Z</time>
      </trkpt>
      <trkpt lat="48.22483" lon="-3.69486">
        <ele>103.627093</ele>
        <time>2022-12-11T12:59:50.441Z</time>
      </trkpt>
      <trkpt lat="48.22476" lon="-3.69472">
        <ele>103.813917</ele>
        <time>2022-12-11T12:59:54.449Z</time>
      </trkpt>
      <trkpt lat="48.22469" lon="-3.69462">
        <ele>103.963618</ele>
        <time>2022-12-11T12:59:57.461Z</time>
      </trkpt>
      <trkpt lat="48.22462" lon="-3.6945">
        <ele>104.131896</ele>
        <time>2022-12-11T13:00:00.458Z</time>
      </trkpt>
      <trkpt lat="48.22456" lon="-3.69438">
        <ele>104.293907</ele>
        <time>2022-12-11T13:00:03.442Z</time>
      </trkpt>
      <trkpt lat="48.22449" lon="-3.69426">
        <ele>104.464992</ele>
        <time>2022-12-11T13:00:06.448Z</time>
      </trkpt>
      <trkpt lat="48.22442" lon="-3.69414">
        <ele>104.620123</ele>
        <time>2022-12-11T13:00:09.468Z</time>
      </trkpt>
      <trkpt lat="48.22434" lon="-3.69402">
        <ele>104.804068</ele>
        <time>2022-12-11T13:00:13.445Z</time>
      </trkpt>
      <trkpt lat="48.22428" lon="-3.69391">
        <ele>104.948482</ele>
        <time>2022-12-11T13:00:17.461Z</time>
      </trkpt>
      <trkpt lat="48.22422" lon="-3.69377">
        <ele>105.071408</ele>
        <time>2022-12-11T13:00:21.473Z</time>
      </trkpt>
      <trkpt lat="48.22417" lon="-3.69365">
        <ele>105.009252</ele>
        <time>2022-12-11T13:00:24.455Z</time>
      </trkpt>
      <trkpt lat="48.2241" lon="-3.69354">
        <ele>104.945712</ele>
        <time>2022-12-11T13:00:27.455Z</time>
      </trkpt>
      <trkpt lat="48.22403" lon="-3.6934">
        <ele>104.868937</ele>
        <time>2022-12-11T13:00:31.442Z</time>
      </trkpt>
      <trkpt lat="48.22397" lon="-3.6933">
        <ele>104.810929</ele>
        <time>2022-12-11T13:00:34.455Z</time>
      </trkpt>
      <trkpt lat="48.22391" lon="-3.69317">
        <ele>104.745524</ele>
        <time>2022-12-11T13:00:37.465Z</time>
      </trkpt>
      <trkpt lat="48.22386" lon="-3.69304">
        <ele>104.679976</ele>
        <time>2022-12-11T13:00:40.461Z</time>
      </trkpt>
      <trkpt lat="48.22382" lon="-3.6929">
        <ele>104.613642</ele>
        <time>2022-12-11T13:00:43.448Z</time>
      </trkpt>
      <trkpt lat="48.22377" lon="-3.69277">
        <ele>104.548641</ele>
        <time>2022-12-11T13:00:47.459Z</time>
      </trkpt>
      <trkpt lat="48.22372" lon="-3.69261">
        <ele>104.473714</ele>
        <time>2022-12-11T13:00:51.454Z</time>
      </trkpt>
      <trkpt lat="48.22368" lon="-3.69245">
        <ele>104.400697</ele>
        <time>2022-12-11T13:00:55.443Z</time>
      </trkpt>
      <trkpt lat="48.22365" lon="-3.69229">
        <ele>104.327985</ele>
        <time>2022-12-11T13:00:59.444Z</time>
      </trkpt>
      <trkpt lat="48.22361" lon="-3.69213">
        <ele>104.253601</ele>
        <time>2022-12-11T13:01:03.451Z</time>
      </trkpt>
      <trkpt lat="48.22358" lon="-3.69198">
        <ele>104.188021</ele>
        <time>2022-12-11T13:01:06.447Z</time>
      </trkpt>
      <trkpt lat="48.22353" lon="-3.69182">
        <ele>104.113967</ele>
        <time>2022-12-11T13:01:10.447Z</time>
      </trkpt>
      <trkpt lat="48.2235" lon="-3.69168">
        <ele>104.049319</ele>
        <time>2022-12-11T13:01:13.464Z</time>
      </trkpt>
      <trkpt lat="48.22345" lon="-3.69154">
        <ele>103.980491</ele>
        <time>2022-12-11T13:01:17.444Z</time>
      </trkpt>
      <trkpt lat="48.22342" lon="-3.69139">
        <ele>103.950731</ele>
        <time>2022-12-11T13:01:20.470Z</time>
      </trkpt>
      <trkpt lat="48.22339" lon="-3.69121">
        <ele>104.063563</ele>
        <time>2022-12-11T13:01:23.474Z</time>
      </trkpt>
      <trkpt lat="48.22335" lon="-3.69106">
        <ele>104.163155</ele>
        <time>2022-12-11T13:01:26.464Z</time>
      </trkpt>
      <trkpt lat="48.22333" lon="-3.69093">
        <ele>104.247211</ele>
        <time>2022-12-11T13:01:29.440Z</time>
      </trkpt>
      <trkpt lat="48.22329" lon="-3.69077">
        <ele>104.350913</ele>
        <time>2022-12-11T13:01:33.448Z</time>
      </trkpt>
      <trkpt lat="48.22326" lon="-3.69063">
        <ele>104.440623</ele>
        <time>2022-12-11T13:01:36.452Z</time>
      </trkpt>
      <trkpt lat="48.22321" lon="-3.6905">
        <ele>104.531618</ele>
        <time>2022-12-11T13:01:39.467Z</time>
      </trkpt>
      <trkpt lat="48.22317" lon="-3.69038">
        <ele>104.622504</ele>
        <time>2022-12-11T13:01:42.459Z</time>
      </trkpt>
      <trkpt lat="48.22312" lon="-3.69025">
        <ele>104.712795</ele>
        <time>2022-12-11T13:01:45.444Z</time>
      </trkpt>
      <trkpt lat="48.22305" lon="-3.69013">
        <ele>104.808958</ele>
        <time>2022-12-11T13:01:48.463Z</time>
      </trkpt>
      <trkpt lat="48.22298" lon="-3.69">
        <ele>104.90928</ele>
        <time>2022-12-11T13:01:52.451Z</time>
      </trkpt>
      <trkpt lat="48.22292" lon="-3.68987">
        <ele>105.011555</ele>
        <time>2022-12-11T13:01:56.452Z</time>
      </trkpt>
      <trkpt lat="48.22284" lon="-3.68975">
        <ele>105.115732</ele>
        <time>2022-12-11T13:02:00.456Z</time>
      </trkpt>
      <trkpt lat="48.22276" lon="-3.68961">
        <ele>105.231035</ele>
        <time>2022-12-11T13:02:03.461Z</time>
      </trkpt>
      <trkpt lat="48.22268" lon="-3.6895">
        <ele>105.32872</ele>
        <time>2022-12-11T13:02:06.453Z</time>
      </trkpt>
      <trkpt lat="48.2226" lon="-3.68942">
        <ele>105.419095</ele>
        <time>2022-12-11T13:02:09.474Z</time>
      </trkpt>
      <trkpt lat="48.22252" lon="-3.68934">
        <ele>105.509226</ele>
        <time>2022-12-11T13:02:12.462Z</time>
      </trkpt>
      <trkpt lat="48.22243" lon="-3.68925">
        <ele>105.605678</ele>
        <time>2022-12-11T13:02:15.444Z</time>
      </trkpt>
      <trkpt lat="48.22234" lon="-3.68916">
        <ele>105.647699</ele>
        <time>2022-12-11T13:02:18.449Z</time>
      </trkpt>
      <trkpt lat="48.22226" lon="-3.68907">
        <ele>105.690999</ele>
        <time>2022-12-11T13:02:21.456Z</time>
      </trkpt>
      <trkpt lat="48.22218" lon="-3.68898">
        <ele>105.730075</ele>
        <time>2022-12-11T13:02:24.441Z</time>
      </trkpt>
      <trkpt lat="48.22209" lon="-3.68891">
        <ele>105.77379</ele>
        <time>2022-12-11T13:02:28.442Z</time>
      </trkpt>
      <trkpt lat="48.22199" lon="-3.68884">
        <ele>105.817744</ele>
        <time>2022-12-11T13:02:31.449Z</time>
      </trkpt>
      <trkpt lat="48.2219" lon="-3.68877">
        <ele>105.859146</ele>
        <time>2022-12-11T13:02:34.452Z</time>
      </trkpt>
      <trkpt lat="48.22181" lon="-3.68871">
        <ele>105.900973</ele>
        <time>2022-12-11T13:02:37.445Z</time>
      </trkpt>
      <trkpt lat="48.22171" lon="-3.68865">
        <ele>105.941729</ele>
        <time>2022-12-11T13:02:40.445Z</time>
      </trkpt>
      <trkpt lat="48.2216" lon="-3.6886">
        <ele>105.989062</ele>
        <time>2022-12-11T13:02:44.444Z</time>
      </trkpt>
      <trkpt lat="48.2215" lon="-3.68855">
        <ele>106.031943</ele>
        <time>2022-12-11T13:02:48.465Z</time>
      </trkpt>
      <trkpt lat="48.22142" lon="-3.6885">
        <ele>106.069374</ele>
        <time>2022-12-11T13:02:51.448Z</time>
      </trkpt>
      <trkpt lat="48.22133" lon="-3.68844">
        <ele>106.108204</ele>
        <time>2022-12-11T13:02:54.443Z</time>
      </trkpt>
      <trkpt lat="48.22124" lon="-3.6884">
        <ele>106.146072</ele>
        <time>2022-12-11T13:02:57.445Z</time>
      </trkpt>
      <trkpt lat="48.22115" lon="-3.68836">
        <ele>106.186927</ele>
        <time>2022-12-11T13:03:00.468Z</time>
      </trkpt>
      <trkpt lat="48.22105" lon="-3.68832">
        <ele>106.226618</ele>
        <time>2022-12-11T13:03:03.443Z</time>
      </trkpt>
      <trkpt lat="48.22097" lon="-3.68827">
        <ele>106.263816</ele>
        <time>2022-12-11T13:03:06.451Z</time>
      </trkpt>
      <trkpt lat="48.22087" lon="-3.68823">
        <ele>106.303896</ele>
        <time>2022-12-11T13:03:09.452Z</time>
      </trkpt>
      <trkpt lat="48.22076" lon="-3.68816">
        <ele>106.306022</ele>
        <time>2022-12-11T13:03:13.445Z</time>
      </trkpt>
      <trkpt lat="48.22066" lon="-3.6881">
        <ele>106.229212</ele>
        <time>2022-12-11T13:03:17.446Z</time>
      </trkpt>
      <trkpt lat="48.22056" lon="-3.68803">
        <ele>106.151259</ele>
        <time>2022-12-11T13:03:21.455Z</time>
      </trkpt>
      <trkpt lat="48.22047" lon="-3.68795">
        <ele>106.074135</ele>
        <time>2022-12-11T13:03:25.460Z</time>
      </trkpt>
      <trkpt lat="48.22035" lon="-3.68788">
        <ele>105.989632</ele>
        <time>2022-12-11T13:03:29.461Z</time>
      </trkpt>
      <trkpt lat="48.22027" lon="-3.68783">
        <ele>105.925784</ele>
        <time>2022-12-11T13:03:32.447Z</time>
      </trkpt>
      <trkpt lat="48.22019" lon="-3.68778">
        <ele>105.862092</ele>
        <time>2022-12-11T13:03:35.447Z</time>
      </trkpt>
      <trkpt lat="48.2201" lon="-3.68773">
        <ele>105.795083</ele>
        <time>2022-12-11T13:03:38.447Z</time>
      </trkpt>
      <trkpt lat="48.21999" lon="-3.68767">
        <ele>105.715233</ele>
        <time>2022-12-11T13:03:42.445Z</time>
      </trkpt>
      <trkpt lat="48.2199" lon="-3.6876">
        <ele>105.644214</ele>
        <time>2022-12-11T13:03:46.452Z</time>
      </trkpt>
      <trkpt lat="48.21981" lon="-3.68754">
        <ele>105.576532</ele>
        <time>2022-12-11T13:03:50.459Z</time>
      </trkpt>
      <trkpt lat="48.21972" lon="-3.68749">
        <ele>105.502621</ele>
        <time>2022-12-11T13:03:53.449Z</time>
      </trkpt>
      <trkpt lat="48.21963" lon="-3.68743">
        <ele>105.432937</ele>
        <time>2022-12-11T13:03:56.473Z</time>
      </trkpt>
      <trkpt lat="48.21952" lon="-3.68738">
        <ele>105.357676</ele>
        <time>2022-12-11T13:04:00.457Z</time>
      </trkpt>
      <trkpt lat="48.21943" lon="-3.68731">
        <ele>105.282898</ele>
        <time>2022-12-11T13:04:05.466Z</time>
      </trkpt>
      <trkpt lat="48.21933" lon="-3.68726">
        <ele>105.210139</ele>
        <time>2022-12-11T13:04:10.462Z</time>
      </trkpt>
      <trkpt lat="48.21925" lon="-3.68719">
        <ele>105.145567</ele>
        <time>2022-12-11T13:04:14.465Z</time>
      </trkpt>
      <trkpt lat="48.21915" lon="-3.68713">
        <ele>105.069452</ele>
        <time>2022-12-11T13:04:18.452Z</time>
      </trkpt>
      <trkpt lat="48.21906" lon="-3.68706">
        <ele>105.135863</ele>
        <time>2022-12-11T13:04:21.459Z</time>
      </trkpt>
      <trkpt lat="48.21897" lon="-3.68697">
        <ele>105.20917</ele>
        <time>2022-12-11T13:04:25.446Z</time>
      </trkpt>
      <trkpt lat="48.21889" lon="-3.6869">
        <ele>105.270412</ele>
        <time>2022-12-11T13:04:29.472Z</time>
      </trkpt>
      <trkpt lat="48.2188" lon="-3.68685">
        <ele>105.331706</ele>
        <time>2022-12-11T13:04:33.448Z</time>
      </trkpt>
      <trkpt lat="48.21871" lon="-3.68676">
        <ele>105.410293</ele>
        <time>2022-12-11T13:04:37.468Z</time>
      </trkpt>
      <trkpt lat="48.21861" lon="-3.68667">
        <ele>105.483683</ele>
        <time>2022-12-11T13:04:40.458Z</time>
      </trkpt>
      <trkpt lat="48.21852" lon="-3.68659">
        <ele>105.559948</ele>
        <time>2022-12-11T13:04:43.449Z</time>
      </trkpt>
      <trkpt lat="48.21843" lon="-3.68651">
        <ele>105.626496</ele>
        <time>2022-12-11T13:04:46.452Z</time>
      </trkpt>
      <trkpt lat="48.21834" lon="-3.68643">
        <ele>105.699647</ele>
        <time>2022-12-11T13:04:50.462Z</time>
      </trkpt>
      <trkpt lat="48.21826" lon="-3.68636">
        <ele>105.76273</ele>
        <time>2022-12-11T13:04:54.462Z</time>
      </trkpt>
      <trkpt lat="48.21817" lon="-3.68628">
        <ele>105.831358</ele>
        <time>2022-12-11T13:04:58.449Z</time>
      </trkpt>
      <trkpt lat="48.21808" lon="-3.6862">
        <ele>105.905467</ele>
        <time>2022-12-11T13:05:02.466Z</time>
      </trkpt>
      <trkpt lat="48.218" lon="-3.68611">
        <ele>105.967277</ele>
        <time>2022-12-11T13:05:05.447Z</time>
      </trkpt>
      <trkpt lat="48.21795" lon="-3.68599">
        <ele>106.035047</ele>
        <time>2022-12-11T13:05:09.451Z</time>
      </trkpt>
      <trkpt lat="48.21797" lon="-3.68582">
        <ele>106.112313</ele>
        <time>2022-12-11T13:05:13.462Z</time>
      </trkpt>
      <trkpt lat="48.21803" lon="-3.68568">
        <ele>106.185448</ele>
        <time>2022-12-11T13:05:17.447Z</time>
      </trkpt>
      <trkpt lat="48.21808" lon="-3.68554">
        <ele>106.257416</ele>
        <time>2022-12-11T13:05:21.463Z</time>
      </trkpt>
      <trkpt lat="48.21816" lon="-3.6854">
        <ele>106.203346</ele>
        <time>2022-12-11T13:05:25.463Z</time>
      </trkpt>
      <trkpt lat="48.21822" lon="-3.68527">
        <ele>106.105224</ele>
        <time>2022-12-11T13:05:28.445Z</time>
      </trkpt>
      <trkpt lat="48.21828" lon="-3.68513">
        <ele>106.005074</ele>
        <time>2022-12-11T13:05:32.444Z</time>
      </trkpt>
      <trkpt lat="48.21834" lon="-3.68499">
        <ele>105.898768</ele>
        <time>2022-12-11T13:05:36.455Z</time>
      </trkpt>
      <trkpt lat="48.2184" lon="-3.68485">
        <ele>105.795535</ele>
        <time>2022-12-11T13:05:40.442Z</time>
      </trkpt>
      <trkpt lat="48.21846" lon="-3.68473">
        <ele>105.706685</ele>
        <time>2022-12-11T13:05:43.445Z</time>
      </trkpt>
      <trkpt lat="48.21851" lon="-3.68459">
        <ele>105.604523</ele>
        <time>2022-12-11T13:05:48.444Z</time>
      </trkpt>
      <trkpt lat="48.21857" lon="-3.68447">
        <ele>105.513412</ele>
        <time>2022-12-11T13:05:52.452Z</time>
      </trkpt>
      <trkpt lat="48.21864" lon="-3.68432">
        <ele>105.402483</ele>
        <time>2022-12-11T13:05:56.452Z</time>
      </trkpt>
      <trkpt lat="48.2187" lon="-3.6842">
        <ele>105.308205</ele>
        <time>2022-12-11T13:05:59.447Z</time>
      </trkpt>
      <trkpt lat="48.21876" lon="-3.68408">
        <ele>105.21633</ele>
        <time>2022-12-11T13:06:02.451Z</time>
      </trkpt>
      <trkpt lat="48.21884" lon="-3.68396">
        <ele>105.108925</ele>
        <time>2022-12-11T13:06:06.460Z</time>
      </trkpt>
      <trkpt lat="48.21892" lon="-3.68383">
        <ele>105.005275</ele>
        <time>2022-12-11T13:06:10.448Z</time>
      </trkpt>
      <trkpt lat="48.21898" lon="-3.68373">
        <ele>104.920234</ele>
        <time>2022-12-11T13:06:13.472Z</time>
      </trkpt>
      <trkpt lat="48.21905" lon="-3.68361">
        <ele>104.821347</ele>
        <time>2022-12-11T13:06:17.451Z</time>
      </trkpt>
      <trkpt lat="48.21912" lon="-3.68349">
        <ele>104.720774</ele>
        <time>2022-12-11T13:06:21.447Z</time>
      </trkpt>
      <trkpt lat="48.21919" lon="-3.68336">
        <ele>104.617587</ele>
        <time>2022-12-11T13:06:25.464Z</time>
      </trkpt>
      <trkpt lat="48.21926" lon="-3.68324">
        <ele>104.556694</ele>
        <time>2022-12-11T13:06:29.456Z</time>
      </trkpt>
      <trkpt lat="48.21934" lon="-3.68314">
        <ele>104.495735</ele>
        <time>2022-12-11T13:06:33.467Z</time>
      </trkpt>
      <trkpt lat="48.21941" lon="-3.68305">
        <ele>104.440465</ele>
        <time>2022-12-11T13:06:36.477Z</time>
      </trkpt>
      <trkpt lat="48.21949" lon="-3.68293">
        <ele>104.378423</ele>
        <time>2022-12-11T13:06:39.477Z</time>
      </trkpt>
      <trkpt lat="48.21955" lon="-3.68282">
        <ele>104.322233</ele>
        <time>2022-12-11T13:06:42.475Z</time>
      </trkpt>
      <trkpt lat="48.21962" lon="-3.68272">
        <ele>104.265814</ele>
        <time>2022-12-11T13:06:45.478Z</time>
      </trkpt>
      <trkpt lat="48.21969" lon="-3.6826">
        <ele>104.204401</ele>
        <time>2022-12-11T13:06:48.449Z</time>
      </trkpt>
      <trkpt lat="48.21976" lon="-3.68249">
        <ele>104.145991</ele>
        <time>2022-12-11T13:06:51.468Z</time>
      </trkpt>
      <trkpt lat="48.21982" lon="-3.68237">
        <ele>104.087979</ele>
        <time>2022-12-11T13:06:54.467Z</time>
      </trkpt>
      <trkpt lat="48.21989" lon="-3.68224">
        <ele>104.018799</ele>
        <time>2022-12-11T13:06:58.451Z</time>
      </trkpt>
      <trkpt lat="48.21997" lon="-3.68211">
        <ele>103.951485</ele>
        <time>2022-12-11T13:07:02.462Z</time>
      </trkpt>
      <trkpt lat="48.22003" lon="-3.68195">
        <ele>103.881761</ele>
        <time>2022-12-11T13:07:06.454Z</time>
      </trkpt>
      <trkpt lat="48.22007" lon="-3.68183">
        <ele>103.828472</ele>
        <time>2022-12-11T13:07:09.474Z</time>
      </trkpt>
      <trkpt lat="48.22012" lon="-3.68171">
        <ele>103.77449</ele>
        <time>2022-12-11T13:07:12.474Z</time>
      </trkpt>
      <trkpt lat="48.22016" lon="-3.68158">
        <ele>103.717984</ele>
        <time>2022-12-11T13:07:15.450Z</time>
      </trkpt>
      <trkpt lat="48.22021" lon="-3.68142">
        <ele>103.651073</ele>
        <time>2022-12-11T13:07:18.449Z</time>
      </trkpt>
      <trkpt lat="48.22025" lon="-3.68128">
        <ele>103.589703</ele>
        <time>2022-12-11T13:07:21.471Z</time>
      </trkpt>
      <trkpt lat="48.22029" lon="-3.68114">
        <ele>103.585154</ele>
        <time>2022-12-11T13:07:24.447Z</time>
      </trkpt>
      <trkpt lat="48.22032" lon="-3.68101">
        <ele>103.608219</ele>
        <time>2022-12-11T13:07:27.464Z</time>
      </trkpt>
      <trkpt lat="48.22035" lon="-3.68088">
        <ele>103.631844</ele>
        <time>2022-12-11T13:07:30.448Z</time>
      </trkpt>
      <trkpt lat="48.22038" lon="-3.68073">
        <ele>103.658099</ele>
        <time>2022-12-11T13:07:33.450Z</time>
      </trkpt>
      <trkpt lat="48.22041" lon="-3.6806">
        <ele>103.681974</ele>
        <time>2022-12-11T13:07:36.479Z</time>
      </trkpt>
      <trkpt lat="48.22044" lon="-3.68043">
        <ele>103.711776</ele>
        <time>2022-12-11T13:07:40.459Z</time>
      </trkpt>
      <trkpt lat="48.22048" lon="-3.68028">
        <ele>103.739333</ele>
        <time>2022-12-11T13:07:44.460Z</time>
      </trkpt>
      <trkpt lat="48.22051" lon="-3.68011">
        <ele>103.769638</ele>
        <time>2022-12-11T13:07:48.473Z</time>
      </trkpt>
      <trkpt lat="48.22053" lon="-3.67998">
        <ele>103.793946</ele>
        <time>2022-12-11T13:07:51.452Z</time>
      </trkpt>
      <trkpt lat="48.22056" lon="-3.67984">
        <ele>103.818061</ele>
        <time>2022-12-11T13:07:54.461Z</time>
      </trkpt>
      <trkpt lat="48.2206" lon="-3.6797">
        <ele>103.844955</ele>
        <time>2022-12-11T13:07:58.458Z</time>
      </trkpt>
      <trkpt lat="48.22064" lon="-3.67953">
        <ele>103.875412</ele>
        <time>2022-12-11T13:08:02.470Z</time>
      </trkpt>
      <trkpt lat="48.22068" lon="-3.6794">
        <ele>103.899623</ele>
        <time>2022-12-11T13:08:05.449Z</time>
      </trkpt>
      <trkpt lat="48.2207" lon="-3.67926">
        <ele>103.924779</ele>
        <time>2022-12-11T13:08:08.447Z</time>
      </trkpt>
      <trkpt lat="48.22071" lon="-3.67911">
        <ele>103.950429</ele>
        <time>2022-12-11T13:08:11.438Z</time>
      </trkpt>
      <trkpt lat="48.22071" lon="-3.67896">
        <ele>103.97622</ele>
        <time>2022-12-11T13:08:14.475Z</time>
      </trkpt>
      <trkpt lat="48.22071" lon="-3.67882">
        <ele>103.999967</ele>
        <time>2022-12-11T13:08:17.446Z</time>
      </trkpt>
      <trkpt lat="48.2207" lon="-3.67864">
        <ele>104.031155</ele>
        <time>2022-12-11T13:08:21.445Z</time>
      </trkpt>
      <trkpt lat="48.22068" lon="-3.6785">
        <ele>103.985732</ele>
        <time>2022-12-11T13:08:24.460Z</time>
      </trkpt>
      <trkpt lat="48.22067" lon="-3.67836">
        <ele>103.938431</ele>
        <time>2022-12-11T13:08:27.441Z</time>
      </trkpt>
      <trkpt lat="48.22066" lon="-3.67818">
        <ele>103.880757</ele>
        <time>2022-12-11T13:08:31.470Z</time>
      </trkpt>
      <trkpt lat="48.22065" lon="-3.678">
        <ele>103.822806</ele>
        <time>2022-12-11T13:08:35.449Z</time>
      </trkpt>
      <trkpt lat="48.22065" lon="-3.67785">
        <ele>103.772142</ele>
        <time>2022-12-11T13:08:38.450Z</time>
      </trkpt>
      <trkpt lat="48.22065" lon="-3.67771">
        <ele>103.725746</ele>
        <time>2022-12-11T13:08:41.475Z</time>
      </trkpt>
      <trkpt lat="48.22065" lon="-3.67757">
        <ele>103.678364</ele>
        <time>2022-12-11T13:08:45.450Z</time>
      </trkpt>
      <trkpt lat="48.22064" lon="-3.67739">
        <ele>103.622075</ele>
        <time>2022-12-11T13:08:49.476Z</time>
      </trkpt>
      <trkpt lat="48.22064" lon="-3.67723">
        <ele>103.566667</ele>
        <time>2022-12-11T13:08:53.474Z</time>
      </trkpt>
      <trkpt lat="48.22063" lon="-3.67708">
        <ele>103.518298</ele>
        <time>2022-12-11T13:08:56.514Z</time>
      </trkpt>
      <trkpt lat="48.22062" lon="-3.67691">
        <ele>103.461621</ele>
        <time>2022-12-11T13:09:00.471Z</time>
      </trkpt>
      <trkpt lat="48.22062" lon="-3.67674">
        <ele>103.406334</ele>
        <time>2022-12-11T13:09:04.464Z</time>
      </trkpt>
      <trkpt lat="48.22062" lon="-3.67659">
        <ele>103.357523</ele>
        <time>2022-12-11T13:09:07.460Z</time>
      </trkpt>
      <trkpt lat="48.22063" lon="-3.67644">
        <ele>103.306775</ele>
        <time>2022-12-11T13:09:10.474Z</time>
      </trkpt>
      <trkpt lat="48.22063" lon="-3.67629">
        <ele>103.257407</ele>
        <time>2022-12-11T13:09:13.449Z</time>
      </trkpt>
      <trkpt lat="48.22064" lon="-3.67614">
        <ele>103.207247</ele>
        <time>2022-12-11T13:09:16.452Z</time>
      </trkpt>
      <trkpt lat="48.22066" lon="-3.676">
        <ele>103.161786</ele>
        <time>2022-12-11T13:09:19.442Z</time>
      </trkpt>
      <trkpt lat="48.2207" lon="-3.67585">
        <ele>103.171836</ele>
        <time>2022-12-11T13:09:24.448Z</time>
      </trkpt>
      <trkpt lat="48.22075" lon="-3.67569">
        <ele>103.219631</ele>
        <time>2022-12-11T13:09:28.449Z</time>
      </trkpt>
      <trkpt lat="48.22081" lon="-3.67553">
        <ele>103.266321</ele>
        <time>2022-12-11T13:09:32.457Z</time>
      </trkpt>
      <trkpt lat="48.22086" lon="-3.6754">
        <ele>103.306233</ele>
        <time>2022-12-11T13:09:35.463Z</time>
      </trkpt>
      <trkpt lat="48.22091" lon="-3.67525">
        <ele>103.350871</ele>
        <time>2022-12-11T13:09:38.442Z</time>
      </trkpt>
      <trkpt lat="48.22095" lon="-3.67512">
        <ele>103.388073</ele>
        <time>2022-12-11T13:09:41.455Z</time>
      </trkpt>
      <trkpt lat="48.22099" lon="-3.67498">
        <ele>103.429367</ele>
        <time>2022-12-11T13:09:44.455Z</time>
      </trkpt>
      <trkpt lat="48.22103" lon="-3.67485">
        <ele>103.465555</ele>
        <time>2022-12-11T13:09:47.460Z</time>
      </trkpt>
      <trkpt lat="48.22106" lon="-3.67471">
        <ele>103.503305</ele>
        <time>2022-12-11T13:09:50.445Z</time>
      </trkpt>
      <trkpt lat="48.22109" lon="-3.67457">
        <ele>103.54237</ele>
        <time>2022-12-11T13:09:53.449Z</time>
      </trkpt>
      <trkpt lat="48.22113" lon="-3.67445">
        <ele>103.577811</ele>
        <time>2022-12-11T13:09:56.458Z</time>
      </trkpt>
      <trkpt lat="48.22116" lon="-3.67429">
        <ele>103.621178</ele>
        <time>2022-12-11T13:09:59.450Z</time>
      </trkpt>
      <trkpt lat="48.2212" lon="-3.67415">
        <ele>103.660832</ele>
        <time>2022-12-11T13:10:02.476Z</time>
      </trkpt>
      <trkpt lat="48.22124" lon="-3.674">
        <ele>103.703555</ele>
        <time>2022-12-11T13:10:06.448Z</time>
      </trkpt>
      <trkpt lat="48.22129" lon="-3.67388">
        <ele>103.740176</ele>
        <time>2022-12-11T13:10:09.448Z</time>
      </trkpt>
      <trkpt lat="48.22133" lon="-3.67375">
        <ele>103.778291</ele>
        <time>2022-12-11T13:10:12.474Z</time>
      </trkpt>
      <trkpt lat="48.22137" lon="-3.67363">
        <ele>103.815468</ele>
        <time>2022-12-11T13:10:15.455Z</time>
      </trkpt>
      <trkpt lat="48.22142" lon="-3.6735">
        <ele>103.850758</ele>
        <time>2022-12-11T13:10:18.466Z</time>
      </trkpt>
      <trkpt lat="48.22147" lon="-3.67337">
        <ele>103.72073</ele>
        <time>2022-12-11T13:10:21.472Z</time>
      </trkpt>
      <trkpt lat="48.22151" lon="-3.67325">
        <ele>103.598914</ele>
        <time>2022-12-11T13:10:24.467Z</time>
      </trkpt>
      <trkpt lat="48.22157" lon="-3.67309">
        <ele>103.441257</ele>
        <time>2022-12-11T13:10:28.449Z</time>
      </trkpt>
      <trkpt lat="48.22163" lon="-3.67295">
        <ele>103.297742</ele>
        <time>2022-12-11T13:10:31.469Z</time>
      </trkpt>
      <trkpt lat="48.22168" lon="-3.6728">
        <ele>103.153559</ele>
        <time>2022-12-11T13:10:34.472Z</time>
      </trkpt>
      <trkpt lat="48.22173" lon="-3.67267">
        <ele>103.022004</ele>
        <time>2022-12-11T13:10:37.457Z</time>
      </trkpt>
      <trkpt lat="48.22177" lon="-3.67254">
        <ele>102.899251</ele>
        <time>2022-12-11T13:10:40.464Z</time>
      </trkpt>
      <trkpt lat="48.22181" lon="-3.67239">
        <ele>102.758542</ele>
        <time>2022-12-11T13:10:43.475Z</time>
      </trkpt>
      <trkpt lat="48.22184" lon="-3.67225">
        <ele>102.627705</ele>
        <time>2022-12-11T13:10:46.486Z</time>
      </trkpt>
      <trkpt lat="48.22187" lon="-3.67212">
        <ele>102.506713</ele>
        <time>2022-12-11T13:10:49.452Z</time>
      </trkpt>
      <trkpt lat="48.2219" lon="-3.67195">
        <ele>102.359545</ele>
        <time>2022-12-11T13:10:53.475Z</time>
      </trkpt>
      <trkpt lat="48.22193" lon="-3.6718">
        <ele>102.221124</ele>
        <time>2022-12-11T13:10:57.475Z</time>
      </trkpt>
      <trkpt lat="48.22196" lon="-3.67167">
        <ele>102.100776</ele>
        <time>2022-12-11T13:11:00.444Z</time>
      </trkpt>
      <trkpt lat="48.22198" lon="-3.67151">
        <ele>101.960048</ele>
        <time>2022-12-11T13:11:03.467Z</time>
      </trkpt>
      <trkpt lat="48.22199" lon="-3.67135">
        <ele>101.823614</ele>
        <time>2022-12-11T13:11:06.451Z</time>
      </trkpt>
      <trkpt lat="48.222" lon="-3.6712">
        <ele>101.691762</ele>
        <time>2022-12-11T13:11:09.446Z</time>
      </trkpt>
      <trkpt lat="48.22201" lon="-3.67105">
        <ele>101.558177</ele>
        <time>2022-12-11T13:11:12.448Z</time>
      </trkpt>
      <trkpt lat="48.22201" lon="-3.67089">
        <ele>101.516714</ele>
        <time>2022-12-11T13:11:15.460Z</time>
      </trkpt>
      <trkpt lat="48.22202" lon="-3.67074">
        <ele>101.534907</ele>
        <time>2022-12-11T13:11:18.451Z</time>
      </trkpt>
      <trkpt lat="48.22204" lon="-3.6706">
        <ele>101.552354</ele>
        <time>2022-12-11T13:11:21.445Z</time>
      </trkpt>
      <trkpt lat="48.22204" lon="-3.67044">
        <ele>101.570974</ele>
        <time>2022-12-11T13:11:24.457Z</time>
      </trkpt>
      <trkpt lat="48.22205" lon="-3.6703">
        <ele>101.588717</ele>
        <time>2022-12-11T13:11:27.465Z</time>
      </trkpt>
      <trkpt lat="48.22207" lon="-3.67016">
        <ele>101.605156</ele>
        <time>2022-12-11T13:11:30.462Z</time>
      </trkpt>
      <trkpt lat="48.22208" lon="-3.66999">
        <ele>101.626067</ele>
        <time>2022-12-11T13:11:34.454Z</time>
      </trkpt>
      <trkpt lat="48.22209" lon="-3.66985">
        <ele>101.642841</ele>
        <time>2022-12-11T13:11:37.453Z</time>
      </trkpt>
      <trkpt lat="48.22211" lon="-3.66968">
        <ele>101.663478</ele>
        <time>2022-12-11T13:11:41.449Z</time>
      </trkpt>
      <trkpt lat="48.22213" lon="-3.66955">
        <ele>101.679744</ele>
        <time>2022-12-11T13:11:44.454Z</time>
      </trkpt>
      <trkpt lat="48.22214" lon="-3.66941">
        <ele>101.696278</ele>
        <time>2022-12-11T13:11:47.458Z</time>
      </trkpt>
      <trkpt lat="48.22214" lon="-3.66924">
        <ele>101.717064</ele>
        <time>2022-12-11T13:11:51.443Z</time>
      </trkpt>
      <trkpt lat="48.22215" lon="-3.66906">
        <ele>101.738103</ele>
        <time>2022-12-11T13:11:55.470Z</time>
      </trkpt>
      <trkpt lat="48.22212" lon="-3.66892">
        <ele>101.755709</ele>
        <time>2022-12-11T13:11:58.442Z</time>
      </trkpt>
      <trkpt lat="48.22208" lon="-3.66879">
        <ele>101.773278</ele>
        <time>2022-12-11T13:12:01.446Z</time>
      </trkpt>
      <trkpt lat="48.22202" lon="-3.66867">
        <ele>101.791776</ele>
        <time>2022-12-11T13:12:04.459Z</time>
      </trkpt>
      <trkpt lat="48.22194" lon="-3.66852">
        <ele>101.813919</ele>
        <time>2022-12-11T13:12:07.446Z</time>
      </trkpt>
      <trkpt lat="48.22186" lon="-3.6684">
        <ele>101.931211</ele>
        <time>2022-12-11T13:12:09.459Z</time>
      </trkpt>
      <trkpt lat="48.22181" lon="-3.66827">
        <ele>102.272394</ele>
        <time>2022-12-11T13:12:11.444Z</time>
      </trkpt>
      <trkpt lat="48.22173" lon="-3.66813">
        <ele>102.691787</ele>
        <time>2022-12-11T13:12:13.465Z</time>
      </trkpt>
      <trkpt lat="48.22167" lon="-3.66801">
        <ele>103.036986</ele>
        <time>2022-12-11T13:12:15.465Z</time>
      </trkpt>
      <trkpt lat="48.2216" lon="-3.66788">
        <ele>103.418171</ele>
        <time>2022-12-11T13:12:18.461Z</time>
      </trkpt>
      <trkpt lat="48.22153" lon="-3.66777">
        <ele>103.759925</ele>
        <time>2022-12-11T13:12:22.449Z</time>
      </trkpt>
      <trkpt lat="48.22147" lon="-3.66766">
        <ele>104.094233</ele>
        <time>2022-12-11T13:12:26.473Z</time>
      </trkpt>
      <trkpt lat="48.2214" lon="-3.66753">
        <ele>104.468384</ele>
        <time>2022-12-11T13:12:30.477Z</time>
      </trkpt>
      <trkpt lat="48.22133" lon="-3.66739">
        <ele>104.851259</ele>
        <time>2022-12-11T13:12:33.462Z</time>
      </trkpt>
      <trkpt lat="48.22128" lon="-3.66726">
        <ele>105.199852</ele>
        <time>2022-12-11T13:12:36.475Z</time>
      </trkpt>
      <trkpt lat="48.2212" lon="-3.66712">
        <ele>105.614497</ele>
        <time>2022-12-11T13:12:40.458Z</time>
      </trkpt>
      <trkpt lat="48.22115" lon="-3.66699">
        <ele>105.96906</ele>
        <time>2022-12-11T13:12:43.477Z</time>
      </trkpt>
      <trkpt lat="48.2211" lon="-3.66687">
        <ele>106.298762</ele>
        <time>2022-12-11T13:12:46.495Z</time>
      </trkpt>
      <trkpt lat="48.22103" lon="-3.66673">
        <ele>106.683355</ele>
        <time>2022-12-11T13:12:50.472Z</time>
      </trkpt>
      <trkpt lat="48.22097" lon="-3.6666">
        <ele>107.05571</ele>
        <time>2022-12-11T13:12:53.455Z</time>
      </trkpt>
      <trkpt lat="48.22087" lon="-3.66647">
        <ele>107.494968</ele>
        <time>2022-12-11T13:12:56.472Z</time>
      </trkpt>
      <trkpt lat="48.22078" lon="-3.66635">
        <ele>107.916305</ele>
        <time>2022-12-11T13:12:59.447Z</time>
      </trkpt>
      <trkpt lat="48.22069" lon="-3.66626">
        <ele>107.856146</ele>
        <time>2022-12-11T13:13:02.444Z</time>
      </trkpt>
      <trkpt lat="48.22063" lon="-3.66617">
        <ele>107.729032</ele>
        <time>2022-12-11T13:13:05.450Z</time>
      </trkpt>
      <trkpt lat="48.22054" lon="-3.66607">
        <ele>107.577366</ele>
        <time>2022-12-11T13:13:09.447Z</time>
      </trkpt>
      <trkpt lat="48.22048" lon="-3.66597">
        <ele>107.449482</ele>
        <time>2022-12-11T13:13:12.474Z</time>
      </trkpt>
      <trkpt lat="48.22039" lon="-3.66588">
        <ele>107.291754</ele>
        <time>2022-12-11T13:13:15.438Z</time>
      </trkpt>
      <trkpt lat="48.22031" lon="-3.66579">
        <ele>107.156025</ele>
        <time>2022-12-11T13:13:18.450Z</time>
      </trkpt>
      <trkpt lat="48.22022" lon="-3.66567">
        <ele>106.990259</ele>
        <time>2022-12-11T13:13:22.445Z</time>
      </trkpt>
      <trkpt lat="48.22016" lon="-3.66555">
        <ele>106.848636</ele>
        <time>2022-12-11T13:13:26.453Z</time>
      </trkpt>
      <trkpt lat="48.2201" lon="-3.6654">
        <ele>106.683805</ele>
        <time>2022-12-11T13:13:30.443Z</time>
      </trkpt>
      <trkpt lat="48.22004" lon="-3.66523">
        <ele>106.509012</ele>
        <time>2022-12-11T13:13:34.465Z</time>
      </trkpt>
      <trkpt lat="48.22" lon="-3.6651">
        <ele>106.374655</ele>
        <time>2022-12-11T13:13:37.454Z</time>
      </trkpt>
      <trkpt lat="48.21997" lon="-3.66494">
        <ele>106.211267</ele>
        <time>2022-12-11T13:13:40.473Z</time>
      </trkpt>
      <trkpt lat="48.21993" lon="-3.66477">
        <ele>106.045513</ele>
        <time>2022-12-11T13:13:43.448Z</time>
      </trkpt>
      <trkpt lat="48.21991" lon="-3.66463">
        <ele>105.906795</ele>
        <time>2022-12-11T13:13:46.473Z</time>
      </trkpt>
      <trkpt lat="48.21988" lon="-3.66448">
        <ele>105.763024</ele>
        <time>2022-12-11T13:13:50.451Z</time>
      </trkpt>
      <trkpt lat="48.21984" lon="-3.66434">
        <ele>105.621841</ele>
        <time>2022-12-11T13:13:54.451Z</time>
      </trkpt>
      <trkpt lat="48.2198" lon="-3.6642">
        <ele>105.474632</ele>
        <time>2022-12-11T13:13:58.445Z</time>
      </trkpt>
      <trkpt lat="48.21976" lon="-3.66405">
        <ele>105.509753</ele>
        <time>2022-12-11T13:14:02.464Z</time>
      </trkpt>
      <trkpt lat="48.21972" lon="-3.6639">
        <ele>105.594574</ele>
        <time>2022-12-11T13:14:06.455Z</time>
      </trkpt>
      <trkpt lat="48.21964" lon="-3.66379">
        <ele>105.676633</ele>
        <time>2022-12-11T13:14:10.447Z</time>
      </trkpt>
      <trkpt lat="48.21956" lon="-3.66368">
        <ele>105.769424</ele>
        <time>2022-12-11T13:14:15.445Z</time>
      </trkpt>
      <trkpt lat="48.21948" lon="-3.66356">
        <ele>105.855249</ele>
        <time>2022-12-11T13:14:19.450Z</time>
      </trkpt>
      <trkpt lat="48.21941" lon="-3.66343">
        <ele>105.947765</ele>
        <time>2022-12-11T13:14:23.452Z</time>
      </trkpt>
      <trkpt lat="48.21934" lon="-3.66333">
        <ele>106.02436</ele>
        <time>2022-12-11T13:14:26.470Z</time>
      </trkpt>
      <trkpt lat="48.21927" lon="-3.66323">
        <ele>106.097924</ele>
        <time>2022-12-11T13:14:29.450Z</time>
      </trkpt>
      <trkpt lat="48.2192" lon="-3.66314">
        <ele>106.174057</ele>
        <time>2022-12-11T13:14:32.458Z</time>
      </trkpt>
      <trkpt lat="48.21912" lon="-3.66301">
        <ele>106.266171</ele>
        <time>2022-12-11T13:14:36.468Z</time>
      </trkpt>
      <trkpt lat="48.21904" lon="-3.66288">
        <ele>106.365569</ele>
        <time>2022-12-11T13:14:40.471Z</time>
      </trkpt>
      <trkpt lat="48.21896" lon="-3.66277">
        <ele>106.448933</ele>
        <time>2022-12-11T13:14:43.451Z</time>
      </trkpt>
      <trkpt lat="48.21889" lon="-3.66267">
        <ele>106.524829</ele>
        <time>2022-12-11T13:14:46.465Z</time>
      </trkpt>
      <trkpt lat="48.21881" lon="-3.66255">
        <ele>106.616704</ele>
        <time>2022-12-11T13:14:50.459Z</time>
      </trkpt>
      <trkpt lat="48.21874" lon="-3.66246">
        <ele>106.689625</ele>
        <time>2022-12-11T13:14:54.472Z</time>
      </trkpt>
      <trkpt lat="48.21866" lon="-3.66236">
        <ele>106.778318</ele>
        <time>2022-12-11T13:14:58.446Z</time>
      </trkpt>
      <trkpt lat="48.21857" lon="-3.66225">
        <ele>106.867655</ele>
        <time>2022-12-11T13:15:02.456Z</time>
      </trkpt>
      <trkpt lat="48.21851" lon="-3.66215">
        <ele>106.876571</ele>
        <time>2022-12-11T13:15:05.473Z</time>
      </trkpt>
      <trkpt lat="48.21844" lon="-3.66205">
        <ele>106.870474</ele>
        <time>2022-12-11T13:15:08.460Z</time>
      </trkpt>
      <trkpt lat="48.21835" lon="-3.66195">
        <ele>106.863694</ele>
        <time>2022-12-11T13:15:12.443Z</time>
      </trkpt>
      <trkpt lat="48.21826" lon="-3.66183">
        <ele>106.855857</ele>
        <time>2022-12-11T13:15:16.449Z</time>
      </trkpt>
      <trkpt lat="48.21818" lon="-3.66172">
        <ele>106.848971</ele>
        <time>2022-12-11T13:15:19.445Z</time>
      </trkpt>
      <trkpt lat="48.21811" lon="-3.66162">
        <ele>106.842828</ele>
        <time>2022-12-11T13:15:22.460Z</time>
      </trkpt>
      <trkpt lat="48.21803" lon="-3.6615">
        <ele>106.835304</ele>
        <time>2022-12-11T13:15:26.476Z</time>
      </trkpt>
      <trkpt lat="48.21796" lon="-3.66137">
        <ele>106.828565</ele>
        <time>2022-12-11T13:15:29.449Z</time>
      </trkpt>
      <trkpt lat="48.21791" lon="-3.66126">
        <ele>106.822766</ele>
        <time>2022-12-11T13:15:32.450Z</time>
      </trkpt>
      <trkpt lat="48.21786" lon="-3.66112">
        <ele>106.815983</ele>
        <time>2022-12-11T13:15:36.454Z</time>
      </trkpt>
      <trkpt lat="48.21782" lon="-3.66095">
        <ele>106.808363</ele>
        <time>2022-12-11T13:15:40.445Z</time>
      </trkpt>
      <trkpt lat="48.21781" lon="-3.66079">
        <ele>106.801442</ele>
        <time>2022-12-11T13:15:43.448Z</time>
      </trkpt>
      <trkpt lat="48.2178" lon="-3.66064">
        <ele>106.794944</ele>
        <time>2022-12-11T13:15:46.451Z</time>
      </trkpt>
      <trkpt lat="48.21782" lon="-3.66049">
        <ele>106.788486</ele>
        <time>2022-12-11T13:15:49.463Z</time>
      </trkpt>
      <trkpt lat="48.21782" lon="-3.66033">
        <ele>106.781631</ele>
        <time>2022-12-11T13:15:52.472Z</time>
      </trkpt>
      <trkpt lat="48.21784" lon="-3.66016">
        <ele>106.774508</ele>
        <time>2022-12-11T13:15:55.469Z</time>
      </trkpt>
      <trkpt lat="48.21786" lon="-3.66001">
        <ele>106.767916</ele>
        <time>2022-12-11T13:15:58.457Z</time>
      </trkpt>
      <trkpt lat="48.21788" lon="-3.65986">
        <ele>107.040278</ele>
        <time>2022-12-11T13:16:02.454Z</time>
      </trkpt>
      <trkpt lat="48.21789" lon="-3.65971">
        <ele>107.389015</ele>
        <time>2022-12-11T13:16:07.447Z</time>
      </trkpt>
      <trkpt lat="48.21792" lon="-3.65957">
        <ele>107.728432</ele>
        <time>2022-12-11T13:16:10.452Z</time>
      </trkpt>
      <trkpt lat="48.21796" lon="-3.65942">
        <ele>108.087428</ele>
        <time>2022-12-11T13:16:13.460Z</time>
      </trkpt>
      <trkpt lat="48.21801" lon="-3.65929">
        <ele>108.448065</ele>
        <time>2022-12-11T13:16:16.468Z</time>
      </trkpt>
      <trkpt lat="48.21806" lon="-3.65914">
        <ele>108.830165</ele>
        <time>2022-12-11T13:16:20.448Z</time>
      </trkpt>
      <trkpt lat="48.21812" lon="-3.65898">
        <ele>109.251139</ele>
        <time>2022-12-11T13:16:24.460Z</time>
      </trkpt>
      <trkpt lat="48.21817" lon="-3.65885">
        <ele>109.607426</ele>
        <time>2022-12-11T13:16:27.479Z</time>
      </trkpt>
      <trkpt lat="48.21823" lon="-3.65868">
        <ele>110.034124</ele>
        <time>2022-12-11T13:16:31.451Z</time>
      </trkpt>
      <trkpt lat="48.21827" lon="-3.65855">
        <ele>110.368009</ele>
        <time>2022-12-11T13:16:34.446Z</time>
      </trkpt>
      <trkpt lat="48.21832" lon="-3.65842">
        <ele>110.724986</ele>
        <time>2022-12-11T13:16:38.451Z</time>
      </trkpt>
      <trkpt lat="48.21837" lon="-3.6583">
        <ele>111.044351</ele>
        <time>2022-12-11T13:16:41.452Z</time>
      </trkpt>
      <trkpt lat="48.21843" lon="-3.65818">
        <ele>111.382689</ele>
        <time>2022-12-11T13:16:44.449Z</time>
      </trkpt>
      <trkpt lat="48.2185" lon="-3.65807">
        <ele>111.732647</ele>
        <time>2022-12-11T13:16:47.452Z</time>
      </trkpt>
      <trkpt lat="48.21858" lon="-3.65796">
        <ele>112.112662</ele>
        <time>2022-12-11T13:16:50.460Z</time>
      </trkpt>
      <trkpt lat="48.21865" lon="-3.65786">
        <ele>112.446589</ele>
        <time>2022-12-11T13:16:53.451Z</time>
      </trkpt>
      <trkpt lat="48.21872" lon="-3.65777">
        <ele>112.757945</ele>
        <time>2022-12-11T13:16:56.478Z</time>
      </trkpt>
      <trkpt lat="48.21879" lon="-3.65768">
        <ele>112.910444</ele>
        <time>2022-12-11T13:16:59.476Z</time>
      </trkpt>
      <trkpt lat="48.21887" lon="-3.65759">
        <ele>112.760372</ele>
        <time>2022-12-11T13:17:02.443Z</time>
      </trkpt>
      <trkpt lat="48.21894" lon="-3.65752">
        <ele>112.618187</ele>
        <time>2022-12-11T13:17:05.448Z</time>
      </trkpt>
      <trkpt lat="48.21903" lon="-3.65746">
        <ele>112.466661</ele>
        <time>2022-12-11T13:17:09.454Z</time>
      </trkpt>
      <trkpt lat="48.21914" lon="-3.65743">
        <ele>112.288815</ele>
        <time>2022-12-11T13:17:13.447Z</time>
      </trkpt>
      <trkpt lat="48.21924" lon="-3.65743">
        <ele>112.143433</ele>
        <time>2022-12-11T13:17:16.451Z</time>
      </trkpt>
      <trkpt lat="48.21933" lon="-3.65743">
        <ele>111.99792</ele>
        <time>2022-12-11T13:17:19.474Z</time>
      </trkpt>
      <trkpt lat="48.21944" lon="-3.65742">
        <ele>111.819031</ele>
        <time>2022-12-11T13:17:23.447Z</time>
      </trkpt>
      <trkpt lat="48.21954" lon="-3.65739">
        <ele>111.670149</ele>
        <time>2022-12-11T13:17:26.467Z</time>
      </trkpt>
      <trkpt lat="48.21964" lon="-3.65736">
        <ele>111.510094</ele>
        <time>2022-12-11T13:17:29.455Z</time>
      </trkpt>
      <trkpt lat="48.21973" lon="-3.65731">
        <ele>111.354197</ele>
        <time>2022-12-11T13:17:32.446Z</time>
      </trkpt>
      <trkpt lat="48.21983" lon="-3.65724">
        <ele>111.191078</ele>
        <time>2022-12-11T13:17:35.461Z</time>
      </trkpt>
      <trkpt lat="48.21991" lon="-3.65717">
        <ele>111.037755</ele>
        <time>2022-12-11T13:17:38.452Z</time>
      </trkpt>
      <trkpt lat="48.21999" lon="-3.65709">
        <ele>110.889752</ele>
        <time>2022-12-11T13:17:41.453Z</time>
      </trkpt>
      <trkpt lat="48.22006" lon="-3.65699">
        <ele>110.740113</ele>
        <time>2022-12-11T13:17:44.449Z</time>
      </trkpt>
      <trkpt lat="48.22012" lon="-3.65689">
        <ele>110.598057</ele>
        <time>2022-12-11T13:17:47.445Z</time>
      </trkpt>
      <trkpt lat="48.22019" lon="-3.65676">
        <ele>110.4239</ele>
        <time>2022-12-11T13:17:51.458Z</time>
      </trkpt>
      <trkpt lat="48.22026" lon="-3.65666">
        <ele>110.274138</ele>
        <time>2022-12-11T13:17:55.470Z</time>
      </trkpt>
      <trkpt lat="48.22032" lon="-3.65656">
        <ele>110.145277</ele>
        <time>2022-12-11T13:17:59.479Z</time>
      </trkpt>
      <trkpt lat="48.22041" lon="-3.65646">
        <ele>110.088532</ele>
        <time>2022-12-11T13:18:03.462Z</time>
      </trkpt>
      <trkpt lat="48.22051" lon="-3.65637">
        <ele>110.023755</ele>
        <time>2022-12-11T13:18:07.446Z</time>
      </trkpt>
      <trkpt lat="48.2206" lon="-3.6563">
        <ele>109.970673</ele>
        <time>2022-12-11T13:18:10.453Z</time>
      </trkpt>
      <trkpt lat="48.22069" lon="-3.65623">
        <ele>109.91745</ele>
        <time>2022-12-11T13:18:13.477Z</time>
      </trkpt>
      <trkpt lat="48.22078" lon="-3.65617">
        <ele>109.864703</ele>
        <time>2022-12-11T13:18:16.480Z</time>
      </trkpt>
      <trkpt lat="48.22088" lon="-3.65611">
        <ele>109.807484</ele>
        <time>2022-12-11T13:18:20.452Z</time>
      </trkpt>
      <trkpt lat="48.22097" lon="-3.65606">
        <ele>109.755997</ele>
        <time>2022-12-11T13:18:24.452Z</time>
      </trkpt>
      <trkpt lat="48.22106" lon="-3.65602">
        <ele>109.707548</ele>
        <time>2022-12-11T13:18:28.473Z</time>
      </trkpt>
      <trkpt lat="48.22116" lon="-3.65601">
        <ele>109.654606</ele>
        <time>2022-12-11T13:18:32.465Z</time>
      </trkpt>
      <trkpt lat="48.22127" lon="-3.65598">
        <ele>109.593755</ele>
        <time>2022-12-11T13:18:36.469Z</time>
      </trkpt>
      <trkpt lat="48.22136" lon="-3.65597">
        <ele>109.544241</ele>
        <time>2022-12-11T13:18:39.445Z</time>
      </trkpt>
      <trkpt lat="48.22146" lon="-3.65595">
        <ele>109.49174</ele>
        <time>2022-12-11T13:18:42.457Z</time>
      </trkpt>
      <trkpt lat="48.22156" lon="-3.65593">
        <ele>109.439507</ele>
        <time>2022-12-11T13:18:45.456Z</time>
      </trkpt>
      <trkpt lat="48.22167" lon="-3.6559">
        <ele>109.382126</ele>
        <time>2022-12-11T13:18:48.459Z</time>
      </trkpt>
      <trkpt lat="48.22176" lon="-3.65588">
        <ele>109.328728</ele>
        <time>2022-12-11T13:18:51.479Z</time>
      </trkpt>
      <trkpt lat="48.22186" lon="-3.65586">
        <ele>109.279231</ele>
        <time>2022-12-11T13:18:54.476Z</time>
      </trkpt>
      <trkpt lat="48.22195" lon="-3.65585">
        <ele>109.228656</ele>
        <time>2022-12-11T13:18:57.478Z</time>
      </trkpt>
      <trkpt lat="48.22207" lon="-3.65584">
        <ele>109.238339</ele>
        <time>2022-12-11T13:19:01.456Z</time>
      </trkpt>
      <trkpt lat="48.22217" lon="-3.65586">
        <ele>109.311965</ele>
        <time>2022-12-11T13:19:04.468Z</time>
      </trkpt>
      <trkpt lat="48.22227" lon="-3.65589">
        <ele>109.385657</ele>
        <time>2022-12-11T13:19:07.452Z</time>
      </trkpt>
      <trkpt lat="48.22237" lon="-3.65589">
        <ele>109.4601</ele>
        <time>2022-12-11T13:19:10.450Z</time>
      </trkpt>
      <trkpt lat="48.22247" lon="-3.65587">
        <ele>109.533726</ele>
        <time>2022-12-11T13:19:13.451Z</time>
      </trkpt>
      <trkpt lat="48.22256" lon="-3.65583">
        <ele>109.603087</ele>
        <time>2022-12-11T13:19:16.485Z</time>
      </trkpt>
      <trkpt lat="48.22265" lon="-3.65578">
        <ele>109.677512</ele>
        <time>2022-12-11T13:19:19.450Z</time>
      </trkpt>
      <trkpt lat="48.22274" lon="-3.65573">
        <ele>109.748244</ele>
        <time>2022-12-11T13:19:22.475Z</time>
      </trkpt>
      <trkpt lat="48.22285" lon="-3.65567">
        <ele>109.833123</ele>
        <time>2022-12-11T13:19:26.450Z</time>
      </trkpt>
      <trkpt lat="48.22296" lon="-3.65561">
        <ele>109.920254</ele>
        <time>2022-12-11T13:19:30.455Z</time>
      </trkpt>
      <trkpt lat="48.22305" lon="-3.65555">
        <ele>109.988284</ele>
        <time>2022-12-11T13:19:33.462Z</time>
      </trkpt>
      <trkpt lat="48.22313" lon="-3.65551">
        <ele>110.057502</ele>
        <time>2022-12-11T13:19:36.486Z</time>
      </trkpt>
      <trkpt lat="48.22323" lon="-3.65547">
        <ele>110.132228</ele>
        <time>2022-12-11T13:19:39.467Z</time>
      </trkpt>
      <trkpt lat="48.22333" lon="-3.65544">
        <ele>110.207589</ele>
        <time>2022-12-11T13:19:42.474Z</time>
      </trkpt>
      <trkpt lat="48.22342" lon="-3.65539">
        <ele>110.274877</ele>
        <time>2022-12-11T13:19:45.448Z</time>
      </trkpt>
      <trkpt lat="48.22351" lon="-3.65533">
        <ele>110.349925</ele>
        <time>2022-12-11T13:19:49.457Z</time>
      </trkpt>
      <trkpt lat="48.2236" lon="-3.65528">
        <ele>110.41826</ele>
        <time>2022-12-11T13:19:53.459Z</time>
      </trkpt>
      <trkpt lat="48.2237" lon="-3.65527">
        <ele>110.492284</ele>
        <time>2022-12-11T13:19:57.454Z</time>
      </trkpt>
      <trkpt lat="48.22379" lon="-3.65531">
        <ele>110.492124</ele>
        <time>2022-12-11T13:20:02.451Z</time>
      </trkpt>
      <trkpt lat="48.22389" lon="-3.65534">
        <ele>110.430234</ele>
        <time>2022-12-11T13:20:07.450Z</time>
      </trkpt>
      <trkpt lat="48.22399" lon="-3.6553">
        <ele>110.37012</ele>
        <time>2022-12-11T13:20:11.448Z</time>
      </trkpt>
      <trkpt lat="48.2241" lon="-3.65529">
        <ele>110.304076</ele>
        <time>2022-12-11T13:20:15.457Z</time>
      </trkpt>
      <trkpt lat="48.22419" lon="-3.65528">
        <ele>110.248993</ele>
        <time>2022-12-11T13:20:18.454Z</time>
      </trkpt>
      <trkpt lat="48.22431" lon="-3.65529">
        <ele>110.177924</ele>
        <time>2022-12-11T13:20:22.466Z</time>
      </trkpt>
      <trkpt lat="48.22441" lon="-3.65529">
        <ele>110.118135</ele>
        <time>2022-12-11T13:20:25.473Z</time>
      </trkpt>
      <trkpt lat="48.22451" lon="-3.65528">
        <ele>110.062427</ele>
        <time>2022-12-11T13:20:28.478Z</time>
      </trkpt>
      <trkpt lat="48.22462" lon="-3.65528">
        <ele>109.997306</ele>
        <time>2022-12-11T13:20:31.461Z</time>
      </trkpt>
      <trkpt lat="48.22472" lon="-3.65527">
        <ele>109.937439</ele>
        <time>2022-12-11T13:20:34.463Z</time>
      </trkpt>
      <trkpt lat="48.22483" lon="-3.65527">
        <ele>109.872877</ele>
        <time>2022-12-11T13:20:37.465Z</time>
      </trkpt>
      <trkpt lat="48.22493" lon="-3.65525">
        <ele>109.813895</ele>
        <time>2022-12-11T13:20:40.455Z</time>
      </trkpt>
      <trkpt lat="48.22504" lon="-3.65521">
        <ele>109.742113</ele>
        <time>2022-12-11T13:20:44.464Z</time>
      </trkpt>
      <trkpt lat="48.22514" lon="-3.65517">
        <ele>109.681427</ele>
        <time>2022-12-11T13:20:47.451Z</time>
      </trkpt>
      <trkpt lat="48.22524" lon="-3.65511">
        <ele>109.621015</ele>
        <time>2022-12-11T13:20:50.454Z</time>
      </trkpt>
      <trkpt lat="48.22533" lon="-3.65505">
        <ele>109.561322</ele>
        <time>2022-12-11T13:20:53.450Z</time>
      </trkpt>
      <trkpt lat="48.22541" lon="-3.65497">
        <ele>109.502226</ele>
        <time>2022-12-11T13:20:56.479Z</time>
      </trkpt>
      <trkpt lat="48.2255" lon="-3.65488">
        <ele>109.40158</ele>
        <time>2022-12-11T13:20:59.446Z</time>
      </trkpt>
      <trkpt lat="48.22558" lon="-3.65478">
        <ele>109.179143</ele>
        <time>2022-12-11T13:21:02.459Z</time>
      </trkpt>
      <trkpt lat="48.22566" lon="-3.65469">
        <ele>108.972763</ele>
        <time>2022-12-11T13:21:05.477Z</time>
      </trkpt>
      <trkpt lat="48.22575" lon="-3.6546">
        <ele>108.746253</ele>
        <time>2022-12-11T13:21:08.452Z</time>
      </trkpt>
      <trkpt lat="48.22584" lon="-3.65451">
        <ele>108.508336</ele>
        <time>2022-12-11T13:21:12.456Z</time>
      </trkpt>
      <trkpt lat="48.22591" lon="-3.65442">
        <ele>108.313641</ele>
        <time>2022-12-11T13:21:15.457Z</time>
      </trkpt>
      <trkpt lat="48.22599" lon="-3.65434">
        <ele>108.108949</ele>
        <time>2022-12-11T13:21:18.456Z</time>
      </trkpt>
      <trkpt lat="48.22608" lon="-3.65424">
        <ele>107.886564</ele>
        <time>2022-12-11T13:21:21.449Z</time>
      </trkpt>
      <trkpt lat="48.22616" lon="-3.65414">
        <ele>107.66615</ele>
        <time>2022-12-11T13:21:24.453Z</time>
      </trkpt>
      <trkpt lat="48.22623" lon="-3.654">
        <ele>107.426987</ele>
        <time>2022-12-11T13:21:28.479Z</time>
      </trkpt>
      <trkpt lat="48.22629" lon="-3.65389">
        <ele>107.220476</ele>
        <time>2022-12-11T13:21:31.469Z</time>
      </trkpt>
      <trkpt lat="48.22636" lon="-3.65378">
        <ele>107.002506</ele>
        <time>2022-12-11T13:21:34.459Z</time>
      </trkpt>
      <trkpt lat="48.22643" lon="-3.65365">
        <ele>106.771996</ele>
        <time>2022-12-11T13:21:37.458Z</time>
      </trkpt>
      <trkpt lat="48.22649" lon="-3.65353">
        <ele>106.553516</ele>
        <time>2022-12-11T13:21:40.451Z</time>
      </trkpt>
      <trkpt lat="48.22654" lon="-3.6534">
        <ele>106.344225</ele>
        <time>2022-12-11T13:21:43.462Z</time>
      </trkpt>
      <trkpt lat="48.22658" lon="-3.65323">
        <ele>106.098213</ele>
        <time>2022-12-11T13:21:46.491Z</time>
      </trkpt>
      <trkpt lat="48.22663" lon="-3.65306">
        <ele>105.82974</ele>
        <time>2022-12-11T13:21:50.448Z</time>
      </trkpt>
      <trkpt lat="48.22665" lon="-3.65286">
        <ele>105.403639</ele>
        <time>2022-12-11T13:21:53.474Z</time>
      </trkpt>
      <trkpt lat="48.22666" lon="-3.65269">
        <ele>104.826248</ele>
        <time>2022-12-11T13:21:56.475Z</time>
      </trkpt>
      <trkpt lat="48.22666" lon="-3.65253">
        <ele>104.303196</ele>
        <time>2022-12-11T13:21:59.463Z</time>
      </trkpt>
      <trkpt lat="48.22664" lon="-3.65236">
        <ele>103.699159</ele>
        <time>2022-12-11T13:22:02.470Z</time>
      </trkpt>
      <trkpt lat="48.22661" lon="-3.65218">
        <ele>103.098592</ele>
        <time>2022-12-11T13:22:05.448Z</time>
      </trkpt>
      <trkpt lat="48.22659" lon="-3.65202">
        <ele>102.539218</ele>
        <time>2022-12-11T13:22:08.458Z</time>
      </trkpt>
      <trkpt lat="48.22657" lon="-3.65185">
        <ele>101.965565</ele>
        <time>2022-12-11T13:22:11.477Z</time>
      </trkpt>
      <trkpt lat="48.22655" lon="-3.6517">
        <ele>101.472771</ele>
        <time>2022-12-11T13:22:14.464Z</time>
      </trkpt>
      <trkpt lat="48.22656" lon="-3.65157">
        <ele>101.022034</ele>
        <time>2022-12-11T13:22:17.457Z</time>
      </trkpt>
      <trkpt lat="48.22658" lon="-3.65141">
        <ele>100.498363</ele>
        <time>2022-12-11T13:22:20.450Z</time>
      </trkpt>
      <trkpt lat="48.2266" lon="-3.65125">
        <ele>99.963889</ele>
        <time>2022-12-11T13:22:23.460Z</time>
      </trkpt>
      <trkpt lat="48.22664" lon="-3.65111">
        <ele>99.443839</ele>
        <time>2022-12-11T13:22:26.452Z</time>
      </trkpt>
      <trkpt lat="48.22664" lon="-3.65093">
        <ele>98.847332</ele>
        <time>2022-12-11T13:22:30.451Z</time>
      </trkpt>
      <trkpt lat="48.22666" lon="-3.65077">
        <ele>98.29916</ele>
        <time>2022-12-11T13:22:33.465Z</time>
      </trkpt>
      <trkpt lat="48.22666" lon="-3.65061">
        <ele>97.785518</ele>
        <time>2022-12-11T13:22:37.454Z</time>
      </trkpt>
      <trkpt lat="48.22669" lon="-3.65046">
        <ele>97.256103</ele>
        <time>2022-12-11T13:22:40.466Z</time>
      </trkpt>
      <trkpt lat="48.22672" lon="-3.65028">
        <ele>96.725346</ele>
        <time>2022-12-11T13:22:43.454Z</time>
      </trkpt>
      <trkpt lat="48.22673" lon="-3.6501">
        <ele>97.326112</ele>
        <time>2022-12-11T13:22:46.475Z</time>
      </trkpt>
      <trkpt lat="48.22674" lon="-3.6499">
        <ele>98.002591</ele>
        <time>2022-12-11T13:22:49.470Z</time>
      </trkpt>
      <trkpt lat="48.22673" lon="-3.64974">
        <ele>98.531746</ele>
        <time>2022-12-11T13:22:52.462Z</time>
      </trkpt>
      <trkpt lat="48.22672" lon="-3.6496">
        <ele>99.018588</ele>
        <time>2022-12-11T13:22:55.449Z</time>
      </trkpt>
      <trkpt lat="48.22669" lon="-3.64942">
        <ele>99.632998</ele>
        <time>2022-12-11T13:22:58.462Z</time>
      </trkpt>
      <trkpt lat="48.22665" lon="-3.64925">
        <ele>100.269934</ele>
        <time>2022-12-11T13:23:01.457Z</time>
      </trkpt>
      <trkpt lat="48.22661" lon="-3.64906">
        <ele>100.934376</ele>
        <time>2022-12-11T13:23:04.485Z</time>
      </trkpt>
      <trkpt lat="48.22659" lon="-3.64891">
        <ele>101.439679</ele>
        <time>2022-12-11T13:23:06.453Z</time>
      </trkpt>
      <trkpt lat="48.22656" lon="-3.64873">
        <ele>102.071732</ele>
        <time>2022-12-11T13:23:09.454Z</time>
      </trkpt>
      <trkpt lat="48.22653" lon="-3.64855">
        <ele>102.715677</ele>
        <time>2022-12-11T13:23:12.463Z</time>
      </trkpt>
      <trkpt lat="48.2265" lon="-3.64839">
        <ele>103.268194</ele>
        <time>2022-12-11T13:23:15.479Z</time>
      </trkpt>
      <trkpt lat="48.22647" lon="-3.64822">
        <ele>103.842817</ele>
        <time>2022-12-11T13:23:19.476Z</time>
      </trkpt>
      <trkpt lat="48.22646" lon="-3.64806">
        <ele>104.401611</ele>
        <time>2022-12-11T13:23:22.471Z</time>
      </trkpt>
      <trkpt lat="48.22644" lon="-3.64789">
        <ele>104.983773</ele>
        <time>2022-12-11T13:23:25.446Z</time>
      </trkpt>
      <trkpt lat="48.22642" lon="-3.64771">
        <ele>105.587217</ele>
        <time>2022-12-11T13:23:28.479Z</time>
      </trkpt>
      <trkpt lat="48.2264" lon="-3.64754">
        <ele>106.025226</ele>
        <time>2022-12-11T13:23:31.467Z</time>
      </trkpt>
      <trkpt lat="48.22637" lon="-3.64738">
        <ele>106.363703</ele>
        <time>2022-12-11T13:23:34.474Z</time>
      </trkpt>
      <trkpt lat="48.22634" lon="-3.64721">
        <ele>106.710842</ele>
        <time>2022-12-11T13:23:37.448Z</time>
      </trkpt>
      <trkpt lat="48.22633" lon="-3.64705">
        <ele>107.040442</ele>
        <time>2022-12-11T13:23:40.448Z</time>
      </trkpt>
      <trkpt lat="48.22629" lon="-3.64689">
        <ele>107.383858</ele>
        <time>2022-12-11T13:23:43.452Z</time>
      </trkpt>
      <trkpt lat="48.22626" lon="-3.64672">
        <ele>107.740543</ele>
        <time>2022-12-11T13:23:46.451Z</time>
      </trkpt>
      <trkpt lat="48.22622" lon="-3.64657">
        <ele>108.066644</ele>
        <time>2022-12-11T13:23:49.450Z</time>
      </trkpt>
      <trkpt lat="48.2262" lon="-3.64641">
        <ele>108.392027</ele>
        <time>2022-12-11T13:23:52.464Z</time>
      </trkpt>
      <trkpt lat="48.22618" lon="-3.64625">
        <ele>108.728536</ele>
        <time>2022-12-11T13:23:55.455Z</time>
      </trkpt>
      <trkpt lat="48.22616" lon="-3.64608">
        <ele>109.072633</ele>
        <time>2022-12-11T13:23:58.465Z</time>
      </trkpt>
      <trkpt lat="48.22615" lon="-3.64589">
        <ele>109.444149</ele>
        <time>2022-12-11T13:24:01.460Z</time>
      </trkpt>
      <trkpt lat="48.22615" lon="-3.64572">
        <ele>109.789334</ele>
        <time>2022-12-11T13:24:04.452Z</time>
      </trkpt>
      <trkpt lat="48.22613" lon="-3.64558">
        <ele>110.081634</ele>
        <time>2022-12-11T13:24:07.451Z</time>
      </trkpt>
      <trkpt lat="48.22611" lon="-3.64543">
        <ele>110.378421</ele>
        <time>2022-12-11T13:24:10.470Z</time>
      </trkpt>
      <trkpt lat="48.2261" lon="-3.64526">
        <ele>110.730478</ele>
        <time>2022-12-11T13:24:14.459Z</time>
      </trkpt>
      <trkpt lat="48.22609" lon="-3.6451">
        <ele>111.048708</ele>
        <time>2022-12-11T13:24:17.457Z</time>
      </trkpt>
      <trkpt lat="48.22607" lon="-3.64493">
        <ele>111.254096</ele>
        <time>2022-12-11T13:24:20.461Z</time>
      </trkpt>
      <trkpt lat="48.22606" lon="-3.64476">
        <ele>111.266614</ele>
        <time>2022-12-11T13:24:23.476Z</time>
      </trkpt>
      <trkpt lat="48.22603" lon="-3.6446">
        <ele>111.27897</ele>
        <time>2022-12-11T13:24:26.467Z</time>
      </trkpt>
      <trkpt lat="48.22601" lon="-3.64445">
        <ele>111.290966</ele>
        <time>2022-12-11T13:24:29.479Z</time>
      </trkpt>
      <trkpt lat="48.22598" lon="-3.64428">
        <ele>111.303984</ele>
        <time>2022-12-11T13:24:33.469Z</time>
      </trkpt>
      <trkpt lat="48.22596" lon="-3.64414">
        <ele>111.314277</ele>
        <time>2022-12-11T13:24:36.476Z</time>
      </trkpt>
      <trkpt lat="48.22593" lon="-3.644">
        <ele>111.32488</ele>
        <time>2022-12-11T13:24:39.469Z</time>
      </trkpt>
      <trkpt lat="48.22592" lon="-3.64386">
        <ele>111.33552</ele>
        <time>2022-12-11T13:24:42.478Z</time>
      </trkpt>
      <trkpt lat="48.22591" lon="-3.64369">
        <ele>111.348642</ele>
        <time>2022-12-11T13:24:46.470Z</time>
      </trkpt>
      <trkpt lat="48.2259" lon="-3.64354">
        <ele>111.359458</ele>
        <time>2022-12-11T13:24:49.452Z</time>
      </trkpt>
      <trkpt lat="48.22588" lon="-3.64337">
        <ele>111.372605</ele>
        <time>2022-12-11T13:24:53.458Z</time>
      </trkpt>
      <trkpt lat="48.22586" lon="-3.64319">
        <ele>111.38586</ele>
        <time>2022-12-11T13:24:57.453Z</time>
      </trkpt>
      <trkpt lat="48.22585" lon="-3.64306">
        <ele>111.39616</ele>
        <time>2022-12-11T13:25:00.458Z</time>
      </trkpt>
      <trkpt lat="48.22584" lon="-3.64292">
        <ele>111.406544</ele>
        <time>2022-12-11T13:25:03.469Z</time>
      </trkpt>
      <trkpt lat="48.22583" lon="-3.64278">
        <ele>111.416938</ele>
        <time>2022-12-11T13:25:06.463Z</time>
      </trkpt>
      <trkpt lat="48.22582" lon="-3.64264">
        <ele>111.427051</ele>
        <time>2022-12-11T13:25:09.460Z</time>
      </trkpt>
      <trkpt lat="48.2258" lon="-3.64249">
        <ele>111.438847</ele>
        <time>2022-12-11T13:25:13.457Z</time>
      </trkpt>
      <trkpt lat="48.22578" lon="-3.64235">
        <ele>111.44914</ele>
        <time>2022-12-11T13:25:16.471Z</time>
      </trkpt>
      <trkpt lat="48.22576" lon="-3.64222">
        <ele>111.521321</ele>
        <time>2022-12-11T13:25:19.464Z</time>
      </trkpt>
      <trkpt lat="48.22575" lon="-3.64206">
        <ele>111.602539</ele>
        <time>2022-12-11T13:25:22.475Z</time>
      </trkpt>
      <trkpt lat="48.22573" lon="-3.64191">
        <ele>111.683645</ele>
        <time>2022-12-11T13:25:25.476Z</time>
      </trkpt>
      <trkpt lat="48.22571" lon="-3.64176">
        <ele>111.767478</ele>
        <time>2022-12-11T13:25:28.451Z</time>
      </trkpt>
      <trkpt lat="48.22569" lon="-3.6416">
        <ele>111.851577</ele>
        <time>2022-12-11T13:25:31.450Z</time>
      </trkpt>
      <trkpt lat="48.22567" lon="-3.64145">
        <ele>111.93463</ele>
        <time>2022-12-11T13:25:34.476Z</time>
      </trkpt>
      <trkpt lat="48.22565" lon="-3.64131">
        <ele>112.009822</ele>
        <time>2022-12-11T13:25:37.456Z</time>
      </trkpt>
      <trkpt lat="48.22562" lon="-3.64117">
        <ele>112.09096</ele>
        <time>2022-12-11T13:25:41.471Z</time>
      </trkpt>
      <trkpt lat="48.2256" lon="-3.64098">
        <ele>112.189467</ele>
        <time>2022-12-11T13:25:45.451Z</time>
      </trkpt>
      <trkpt lat="48.22556" lon="-3.64082">
        <ele>112.28321</ele>
        <time>2022-12-11T13:25:49.450Z</time>
      </trkpt>
      <trkpt lat="48.22554" lon="-3.64068">
        <ele>112.358802</ele>
        <time>2022-12-11T13:25:52.475Z</time>
      </trkpt>
      <trkpt lat="48.22553" lon="-3.64052">
        <ele>112.444422</ele>
        <time>2022-12-11T13:25:56.468Z</time>
      </trkpt>
      <trkpt lat="48.22551" lon="-3.64037">
        <ele>112.524067</ele>
        <time>2022-12-11T13:25:59.457Z</time>
      </trkpt>
      <trkpt lat="48.2255" lon="-3.64021">
        <ele>112.608632</ele>
        <time>2022-12-11T13:26:02.456Z</time>
      </trkpt>
      <trkpt lat="48.2255" lon="-3.64005">
        <ele>112.691636</ele>
        <time>2022-12-11T13:26:05.471Z</time>
      </trkpt>
      <trkpt lat="48.2255" lon="-3.63988">
        <ele>112.78197</ele>
        <time>2022-12-11T13:26:08.480Z</time>
      </trkpt>
      <trkpt lat="48.22551" lon="-3.63974">
        <ele>112.857076</ele>
        <time>2022-12-11T13:26:11.464Z</time>
      </trkpt>
      <trkpt lat="48.22552" lon="-3.63961">
        <ele>113.079287</ele>
        <time>2022-12-11T13:26:14.466Z</time>
      </trkpt>
      <trkpt lat="48.22554" lon="-3.63945">
        <ele>113.445463</ele>
        <time>2022-12-11T13:26:17.462Z</time>
      </trkpt>
      <trkpt lat="48.22556" lon="-3.63928">
        <ele>113.815528</ele>
        <time>2022-12-11T13:26:20.453Z</time>
      </trkpt>
      <trkpt lat="48.22557" lon="-3.63912">
        <ele>114.183377</ele>
        <time>2022-12-11T13:26:23.465Z</time>
      </trkpt>
      <trkpt lat="48.22559" lon="-3.63896">
        <ele>114.553561</ele>
        <time>2022-12-11T13:26:26.466Z</time>
      </trkpt>
      <trkpt lat="48.22562" lon="-3.6388">
        <ele>114.918609</ele>
        <time>2022-12-11T13:26:29.475Z</time>
      </trkpt>
      <trkpt lat="48.22566" lon="-3.63866">
        <ele>115.268757</ele>
        <time>2022-12-11T13:26:32.470Z</time>
      </trkpt>
      <trkpt lat="48.22569" lon="-3.6385">
        <ele>115.630599</ele>
        <time>2022-12-11T13:26:35.466Z</time>
      </trkpt>
      <trkpt lat="48.22573" lon="-3.63834">
        <ele>116.01425</ele>
        <time>2022-12-11T13:26:38.453Z</time>
      </trkpt>
      <trkpt lat="48.22578" lon="-3.63819">
        <ele>116.408623</ele>
        <time>2022-12-11T13:26:41.450Z</time>
      </trkpt>
      <trkpt lat="48.22583" lon="-3.63804">
        <ele>116.769452</ele>
        <time>2022-12-11T13:26:44.466Z</time>
      </trkpt>
      <trkpt lat="48.22587" lon="-3.63789">
        <ele>117.137073</ele>
        <time>2022-12-11T13:26:47.470Z</time>
      </trkpt>
      <trkpt lat="48.22592" lon="-3.63775">
        <ele>117.480306</ele>
        <time>2022-12-11T13:26:50.453Z</time>
      </trkpt>
      <trkpt lat="48.22598" lon="-3.63762">
        <ele>117.846493</ele>
        <time>2022-12-11T13:26:53.461Z</time>
      </trkpt>
      <trkpt lat="48.22607" lon="-3.6375">
        <ele>118.261803</ele>
        <time>2022-12-11T13:26:56.457Z</time>
      </trkpt>
      <trkpt lat="48.22618" lon="-3.6374">
        <ele>118.668826</ele>
        <time>2022-12-11T13:26:59.453Z</time>
      </trkpt>
      <trkpt lat="48.22629" lon="-3.63735">
        <ele>118.792291</ele>
        <time>2022-12-11T13:27:02.457Z</time>
      </trkpt>
      <trkpt lat="48.22641" lon="-3.63729">
        <ele>118.286154</ele>
        <time>2022-12-11T13:27:05.466Z</time>
      </trkpt>
      <trkpt lat="48.22653" lon="-3.63723">
        <ele>117.794776</ele>
        <time>2022-12-11T13:27:08.464Z</time>
      </trkpt>
      <trkpt lat="48.22662" lon="-3.63716">
        <ele>117.393842</ele>
        <time>2022-12-11T13:27:11.447Z</time>
      </trkpt>
      <trkpt lat="48.22671" lon="-3.6371">
        <ele>116.99013</ele>
        <time>2022-12-11T13:27:14.453Z</time>
      </trkpt>
      <trkpt lat="48.2268" lon="-3.63704">
        <ele>116.591443</ele>
        <time>2022-12-11T13:27:17.453Z</time>
      </trkpt>
      <trkpt lat="48.22689" lon="-3.63695">
        <ele>116.170471</ele>
        <time>2022-12-11T13:27:20.456Z</time>
      </trkpt>
      <trkpt lat="48.22697" lon="-3.63687">
        <ele>115.793873</ele>
        <time>2022-12-11T13:27:23.476Z</time>
      </trkpt>
      <trkpt lat="48.22705" lon="-3.63679">
        <ele>115.404765</ele>
        <time>2022-12-11T13:27:26.462Z</time>
      </trkpt>
      <trkpt lat="48.22715" lon="-3.63671">
        <ele>114.964696</ele>
        <time>2022-12-11T13:27:29.466Z</time>
      </trkpt>
      <trkpt lat="48.22725" lon="-3.63663">
        <ele>114.497406</ele>
        <time>2022-12-11T13:27:32.455Z</time>
      </trkpt>
      <trkpt lat="48.22735" lon="-3.63654">
        <ele>114.036012</ele>
        <time>2022-12-11T13:27:35.470Z</time>
      </trkpt>
      <trkpt lat="48.22745" lon="-3.63645">
        <ele>113.593684</ele>
        <time>2022-12-11T13:27:38.447Z</time>
      </trkpt>
      <trkpt lat="48.22753" lon="-3.63636">
        <ele>113.186625</ele>
        <time>2022-12-11T13:27:41.459Z</time>
      </trkpt>
      <trkpt lat="48.22762" lon="-3.63626">
        <ele>112.742394</ele>
        <time>2022-12-11T13:27:44.453Z</time>
      </trkpt>
      <trkpt lat="48.22771" lon="-3.63616">
        <ele>112.286914</ele>
        <time>2022-12-11T13:27:47.444Z</time>
      </trkpt>
      <trkpt lat="48.2278" lon="-3.63604">
        <ele>111.830899</ele>
        <time>2022-12-11T13:27:50.452Z</time>
      </trkpt>
      <trkpt lat="48.22787" lon="-3.63593">
        <ele>111.749885</ele>
        <time>2022-12-11T13:27:53.476Z</time>
      </trkpt>
      <trkpt lat="48.22797" lon="-3.63581">
        <ele>111.6788</ele>
        <time>2022-12-11T13:27:57.475Z</time>
      </trkpt>
      <trkpt lat="48.22804" lon="-3.63568">
        <ele>111.614758</ele>
        <time>2022-12-11T13:28:00.458Z</time>
      </trkpt>
      <trkpt lat="48.22813" lon="-3.63555">
        <ele>111.546325</ele>
        <time>2022-12-11T13:28:03.470Z</time>
      </trkpt>
      <trkpt lat="48.22821" lon="-3.63543">
        <ele>111.47696</ele>
        <time>2022-12-11T13:28:06.483Z</time>
      </trkpt>
      <trkpt lat="48.22831" lon="-3.6353">
        <ele>111.407554</ele>
        <time>2022-12-11T13:28:09.447Z</time>
      </trkpt>
      <trkpt lat="48.2284" lon="-3.63522">
        <ele>111.346434</ele>
        <time>2022-12-11T13:28:12.452Z</time>
      </trkpt>
      <trkpt lat="48.22848" lon="-3.63515">
        <ele>111.293725</ele>
        <time>2022-12-11T13:28:15.454Z</time>
      </trkpt>
      <trkpt lat="48.22858" lon="-3.63509">
        <ele>111.232605</ele>
        <time>2022-12-11T13:28:18.452Z</time>
      </trkpt>
      <trkpt lat="48.22869" lon="-3.63503">
        <ele>111.169233</ele>
        <time>2022-12-11T13:28:21.482Z</time>
      </trkpt>
      <trkpt lat="48.2288" lon="-3.63499">
        <ele>111.101391</ele>
        <time>2022-12-11T13:28:24.461Z</time>
      </trkpt>
      <trkpt lat="48.22892" lon="-3.63497">
        <ele>111.03469</ele>
        <time>2022-12-11T13:28:27.452Z</time>
      </trkpt>
      <trkpt lat="48.22905" lon="-3.63495">
        <ele>110.962254</ele>
        <time>2022-12-11T13:28:30.472Z</time>
      </trkpt>
      <trkpt lat="48.22916" lon="-3.63492">
        <ele>110.896984</ele>
        <time>2022-12-11T13:28:33.456Z</time>
      </trkpt>
      <trkpt lat="48.22927" lon="-3.63489">
        <ele>110.837509</ele>
        <time>2022-12-11T13:28:36.497Z</time>
      </trkpt>
      <trkpt lat="48.22938" lon="-3.63484">
        <ele>110.798305</ele>
        <time>2022-12-11T13:28:39.453Z</time>
      </trkpt>
      <trkpt lat="48.2295" lon="-3.63479">
        <ele>110.83531</ele>
        <time>2022-12-11T13:28:42.475Z</time>
      </trkpt>
      <trkpt lat="48.22961" lon="-3.63473">
        <ele>110.87226</ele>
        <time>2022-12-11T13:28:45.476Z</time>
      </trkpt>
      <trkpt lat="48.22973" lon="-3.63468">
        <ele>110.908565</ele>
        <time>2022-12-11T13:28:48.473Z</time>
      </trkpt>
      <trkpt lat="48.22984" lon="-3.63463">
        <ele>110.943435</ele>
        <time>2022-12-11T13:28:51.473Z</time>
      </trkpt>
      <trkpt lat="48.22994" lon="-3.63459">
        <ele>110.974918</ele>
        <time>2022-12-11T13:28:54.464Z</time>
      </trkpt>
      <trkpt lat="48.23004" lon="-3.63456">
        <ele>111.005024</ele>
        <time>2022-12-11T13:28:57.459Z</time>
      </trkpt>
      <trkpt lat="48.23015" lon="-3.63453">
        <ele>111.038482</ele>
        <time>2022-12-11T13:29:00.457Z</time>
      </trkpt>
      <trkpt lat="48.23026" lon="-3.63451">
        <ele>111.072383</ele>
        <time>2022-12-11T13:29:03.458Z</time>
      </trkpt>
      <trkpt lat="48.23038" lon="-3.63449">
        <ele>111.108742</ele>
        <time>2022-12-11T13:29:06.468Z</time>
      </trkpt>
      <trkpt lat="48.2305" lon="-3.63446">
        <ele>111.143745</ele>
        <time>2022-12-11T13:29:09.476Z</time>
      </trkpt>
      <trkpt lat="48.23061" lon="-3.63443">
        <ele>111.176999</ele>
        <time>2022-12-11T13:29:12.479Z</time>
      </trkpt>
      <trkpt lat="48.23071" lon="-3.63441">
        <ele>111.20882</ele>
        <time>2022-12-11T13:29:15.458Z</time>
      </trkpt>
      <trkpt lat="48.23082" lon="-3.63439">
        <ele>111.242003</ele>
        <time>2022-12-11T13:29:18.453Z</time>
      </trkpt>
      <trkpt lat="48.23094" lon="-3.63438">
        <ele>111.275742</ele>
        <time>2022-12-11T13:29:21.454Z</time>
      </trkpt>
      <trkpt lat="48.23105" lon="-3.63437">
        <ele>111.310575</ele>
        <time>2022-12-11T13:29:24.458Z</time>
      </trkpt>
      <trkpt lat="48.23117" lon="-3.63435">
        <ele>111.298264</ele>
        <time>2022-12-11T13:29:27.453Z</time>
      </trkpt>
      <trkpt lat="48.23129" lon="-3.63433">
        <ele>111.24116</ele>
        <time>2022-12-11T13:29:30.479Z</time>
      </trkpt>
      <trkpt lat="48.2314" lon="-3.63431">
        <ele>111.19051</ele>
        <time>2022-12-11T13:29:33.457Z</time>
      </trkpt>
      <trkpt lat="48.23151" lon="-3.63429">
        <ele>111.13539</ele>
        <time>2022-12-11T13:29:36.488Z</time>
      </trkpt>
      <trkpt lat="48.23162" lon="-3.63427">
        <ele>111.08412</ele>
        <time>2022-12-11T13:29:39.466Z</time>
      </trkpt>
      <trkpt lat="48.23173" lon="-3.63425">
        <ele>111.030905</ele>
        <time>2022-12-11T13:29:42.451Z</time>
      </trkpt>
      <trkpt lat="48.23184" lon="-3.63423">
        <ele>110.975416</ele>
        <time>2022-12-11T13:29:45.470Z</time>
      </trkpt>
      <trkpt lat="48.23194" lon="-3.6342">
        <ele>110.927069</ele>
        <time>2022-12-11T13:29:48.459Z</time>
      </trkpt>
      <trkpt lat="48.23204" lon="-3.63417">
        <ele>110.879341</ele>
        <time>2022-12-11T13:29:51.452Z</time>
      </trkpt>
      <trkpt lat="48.23215" lon="-3.63411">
        <ele>110.822233</ele>
        <time>2022-12-11T13:29:54.464Z</time>
      </trkpt>
      <trkpt lat="48.23226" lon="-3.63403">
        <ele>110.765126</ele>
        <time>2022-12-11T13:29:57.457Z</time>
      </trkpt>
      <trkpt lat="48.23236" lon="-3.63396">
        <ele>110.711191</ele>
        <time>2022-12-11T13:30:00.454Z</time>
      </trkpt>
      <trkpt lat="48.23246" lon="-3.63389">
        <ele>110.659206</ele>
        <time>2022-12-11T13:30:03.460Z</time>
      </trkpt>
      <trkpt lat="48.23256" lon="-3.63383">
        <ele>110.607404</ele>
        <time>2022-12-11T13:30:06.469Z</time>
      </trkpt>
      <trkpt lat="48.23265" lon="-3.63378">
        <ele>110.559043</ele>
        <time>2022-12-11T13:30:09.452Z</time>
      </trkpt>
      <trkpt lat="48.23276" lon="-3.63371">
        <ele>110.504815</ele>
        <time>2022-12-11T13:30:12.453Z</time>
      </trkpt>
      <trkpt lat="48.23285" lon="-3.63363">
        <ele>110.423078</ele>
        <time>2022-12-11T13:30:15.474Z</time>
      </trkpt>
      <trkpt lat="48.23294" lon="-3.63353">
        <ele>110.22024</ele>
        <time>2022-12-11T13:30:18.475Z</time>
      </trkpt>
      <trkpt lat="48.23302" lon="-3.63342">
        <ele>110.008158</ele>
        <time>2022-12-11T13:30:21.455Z</time>
      </trkpt>
      <trkpt lat="48.2331" lon="-3.63331">
        <ele>109.814745</ele>
        <time>2022-12-11T13:30:24.457Z</time>
      </trkpt>
      <trkpt lat="48.23316" lon="-3.6332">
        <ele>109.64562</ele>
        <time>2022-12-11T13:30:27.452Z</time>
      </trkpt>
      <trkpt lat="48.23321" lon="-3.63305">
        <ele>109.444685</ele>
        <time>2022-12-11T13:30:31.457Z</time>
      </trkpt>
      <trkpt lat="48.23324" lon="-3.63291">
        <ele>109.259683</ele>
        <time>2022-12-11T13:30:34.447Z</time>
      </trkpt>
      <trkpt lat="48.23328" lon="-3.63274">
        <ele>109.04773</ele>
        <time>2022-12-11T13:30:37.452Z</time>
      </trkpt>
      <trkpt lat="48.23333" lon="-3.63258">
        <ele>108.830796</ele>
        <time>2022-12-11T13:30:41.464Z</time>
      </trkpt>
      <trkpt lat="48.23339" lon="-3.63242">
        <ele>108.610416</ele>
        <time>2022-12-11T13:30:44.458Z</time>
      </trkpt>
      <trkpt lat="48.23345" lon="-3.63226">
        <ele>108.385586</ele>
        <time>2022-12-11T13:30:47.453Z</time>
      </trkpt>
      <trkpt lat="48.23353" lon="-3.63212">
        <ele>108.164077</ele>
        <time>2022-12-11T13:30:50.476Z</time>
      </trkpt>
      <trkpt lat="48.23361" lon="-3.63196">
        <ele>107.917016</ele>
        <time>2022-12-11T13:30:53.470Z</time>
      </trkpt>
      <trkpt lat="48.23367" lon="-3.63185">
        <ele>107.74998</ele>
        <time>2022-12-11T13:30:55.474Z</time>
      </trkpt>
      <trkpt lat="48.23374" lon="-3.63171">
        <ele>107.540914</ele>
        <time>2022-12-11T13:30:58.474Z</time>
      </trkpt>
      <trkpt lat="48.23378" lon="-3.6316">
        <ele>107.377173</ele>
        <time>2022-12-11T13:31:01.450Z</time>
      </trkpt>
      <trkpt lat="48.23383" lon="-3.63144">
        <ele>107.219421</ele>
        <time>2022-12-11T13:31:05.451Z</time>
      </trkpt>
      <trkpt lat="48.23388" lon="-3.6313">
        <ele>107.408019</ele>
        <time>2022-12-11T13:31:08.469Z</time>
      </trkpt>
      <trkpt lat="48.23393" lon="-3.63118">
        <ele>107.576334</ele>
        <time>2022-12-11T13:31:11.472Z</time>
      </trkpt>
      <trkpt lat="48.23397" lon="-3.63105">
        <ele>107.745074</ele>
        <time>2022-12-11T13:31:14.452Z</time>
      </trkpt>
      <trkpt lat="48.23402" lon="-3.63089">
        <ele>107.956418</ele>
        <time>2022-12-11T13:31:17.455Z</time>
      </trkpt>
      <trkpt lat="48.23404" lon="-3.63075">
        <ele>108.122435</ele>
        <time>2022-12-11T13:31:20.461Z</time>
      </trkpt>
      <trkpt lat="48.23406" lon="-3.6306">
        <ele>108.304654</ele>
        <time>2022-12-11T13:31:23.473Z</time>
      </trkpt>
      <trkpt lat="48.23409" lon="-3.63043">
        <ele>108.515056</ele>
        <time>2022-12-11T13:31:26.453Z</time>
      </trkpt>
      <trkpt lat="48.23412" lon="-3.63026">
        <ele>108.727142</ele>
        <time>2022-12-11T13:31:29.475Z</time>
      </trkpt>
      <trkpt lat="48.23416" lon="-3.63009">
        <ele>108.939227</ele>
        <time>2022-12-11T13:31:33.454Z</time>
      </trkpt>
      <trkpt lat="48.23421" lon="-3.62992">
        <ele>109.157801</ele>
        <time>2022-12-11T13:31:36.488Z</time>
      </trkpt>
      <trkpt lat="48.23426" lon="-3.62977">
        <ele>109.356986</ele>
        <time>2022-12-11T13:31:40.458Z</time>
      </trkpt>
      <trkpt lat="48.2343" lon="-3.62964">
        <ele>109.530722</ele>
        <time>2022-12-11T13:31:43.457Z</time>
      </trkpt>
      <trkpt lat="48.23436" lon="-3.62946">
        <ele>109.766001</ele>
        <time>2022-12-11T13:31:46.467Z</time>
      </trkpt>
      <trkpt lat="48.23442" lon="-3.62931">
        <ele>109.974924</ele>
        <time>2022-12-11T13:31:48.453Z</time>
      </trkpt>
      <trkpt lat="48.23447" lon="-3.62919">
        <ele>110.141945</ele>
        <time>2022-12-11T13:31:50.448Z</time>
      </trkpt>
      <trkpt lat="48.23452" lon="-3.62907">
        <ele>110.310259</ele>
        <time>2022-12-11T13:31:52.454Z</time>
      </trkpt>
      <trkpt lat="48.23458" lon="-3.62892">
        <ele>110.51757</ele>
        <time>2022-12-11T13:31:55.445Z</time>
      </trkpt>
      <trkpt lat="48.23462" lon="-3.6288">
        <ele>110.687561</ele>
        <time>2022-12-11T13:32:00.455Z</time>
      </trkpt>
      <trkpt lat="48.23467" lon="-3.62868">
        <ele>110.86933</ele>
        <time>2022-12-11T13:32:03.455Z</time>
      </trkpt>
      <trkpt lat="48.23472" lon="-3.62851">
        <ele>111.10325</ele>
        <time>2022-12-11T13:32:06.473Z</time>
      </trkpt>
      <trkpt lat="48.23476" lon="-3.62834">
        <ele>111.327771</ele>
        <time>2022-12-11T13:32:09.468Z</time>
      </trkpt>
      <trkpt lat="48.23479" lon="-3.62819">
        <ele>111.521602</ele>
        <time>2022-12-11T13:32:12.483Z</time>
      </trkpt>
      <trkpt lat="48.23482" lon="-3.62801">
        <ele>111.760781</ele>
        <time>2022-12-11T13:32:15.471Z</time>
      </trkpt>
      <trkpt lat="48.23487" lon="-3.62784">
        <ele>111.992042</ele>
        <time>2022-12-11T13:32:18.455Z</time>
      </trkpt>
      <trkpt lat="48.23491" lon="-3.62768">
        <ele>112.207988</ele>
        <time>2022-12-11T13:32:21.456Z</time>
      </trkpt>
      <trkpt lat="48.23492" lon="-3.62754">
        <ele>112.381509</ele>
        <time>2022-12-11T13:32:24.478Z</time>
      </trkpt>
      <trkpt lat="48.23495" lon="-3.62737">
        <ele>112.593753</ele>
        <time>2022-12-11T13:32:28.452Z</time>
      </trkpt>
      <trkpt lat="48.23496" lon="-3.62723">
        <ele>112.775122</ele>
        <time>2022-12-11T13:32:32.478Z</time>
      </trkpt>
      <trkpt lat="48.23499" lon="-3.62706">
        <ele>113.00199</ele>
        <time>2022-12-11T13:32:36.484Z</time>
      </trkpt>
      <trkpt lat="48.23502" lon="-3.62691">
        <ele>113.189972</ele>
        <time>2022-12-11T13:32:39.450Z</time>
      </trkpt>
      <trkpt lat="48.23506" lon="-3.62677">
        <ele>113.388662</ele>
        <time>2022-12-11T13:32:42.454Z</time>
      </trkpt>
      <trkpt lat="48.23511" lon="-3.62662">
        <ele>113.594602</ele>
        <time>2022-12-11T13:32:45.479Z</time>
      </trkpt>
      <trkpt lat="48.23515" lon="-3.62647">
        <ele>113.809453</ele>
        <time>2022-12-11T13:32:48.468Z</time>
      </trkpt>
      <trkpt lat="48.23518" lon="-3.62633">
        <ele>114.04067</ele>
        <time>2022-12-11T13:32:51.477Z</time>
      </trkpt>
      <trkpt lat="48.23521" lon="-3.62618">
        <ele>114.290617</ele>
        <time>2022-12-11T13:32:54.455Z</time>
      </trkpt>
      <trkpt lat="48.23526" lon="-3.62603">
        <ele>114.560326</ele>
        <time>2022-12-11T13:32:57.475Z</time>
      </trkpt>
      <trkpt lat="48.23532" lon="-3.62586">
        <ele>114.86816</ele>
        <time>2022-12-11T13:33:00.449Z</time>
      </trkpt>
      <trkpt lat="48.23536" lon="-3.62572">
        <ele>115.117487</ele>
        <time>2022-12-11T13:33:03.468Z</time>
      </trkpt>
      <trkpt lat="48.23541" lon="-3.62557">
        <ele>115.38611</ele>
        <time>2022-12-11T13:33:07.472Z</time>
      </trkpt>
      <trkpt lat="48.23545" lon="-3.62539">
        <ele>115.676371</ele>
        <time>2022-12-11T13:33:11.455Z</time>
      </trkpt>
      <trkpt lat="48.23549" lon="-3.62524">
        <ele>115.935478</ele>
        <time>2022-12-11T13:33:14.466Z</time>
      </trkpt>
      <trkpt lat="48.23553" lon="-3.62511">
        <ele>116.170746</ele>
        <time>2022-12-11T13:33:18.470Z</time>
      </trkpt>
      <trkpt lat="48.23557" lon="-3.62494">
        <ele>116.457764</ele>
        <time>2022-12-11T13:33:22.477Z</time>
      </trkpt>
      <trkpt lat="48.23562" lon="-3.62482">
        <ele>116.684857</ele>
        <time>2022-12-11T13:33:25.459Z</time>
      </trkpt>
      <trkpt lat="48.23566" lon="-3.6247">
        <ele>116.905904</ele>
        <time>2022-12-11T13:33:29.470Z</time>
      </trkpt>
      <trkpt lat="48.23572" lon="-3.62456">
        <ele>117.169866</ele>
        <time>2022-12-11T13:33:32.448Z</time>
      </trkpt>
      <trkpt lat="48.23578" lon="-3.62441">
        <ele>117.443652</ele>
        <time>2022-12-11T13:33:35.467Z</time>
      </trkpt>
      <trkpt lat="48.23582" lon="-3.62428">
        <ele>117.680039</ele>
        <time>2022-12-11T13:33:38.467Z</time>
      </trkpt>
      <trkpt lat="48.23588" lon="-3.62415">
        <ele>117.924133</ele>
        <time>2022-12-11T13:33:41.457Z</time>
      </trkpt>
      <trkpt lat="48.23593" lon="-3.624">
        <ele>118.089737</ele>
        <time>2022-12-11T13:33:45.470Z</time>
      </trkpt>
      <trkpt lat="48.23597" lon="-3.62385">
        <ele>118.026272</ele>
        <time>2022-12-11T13:33:49.459Z</time>
      </trkpt>
      <trkpt lat="48.23602" lon="-3.62372">
        <ele>117.971385</ele>
        <time>2022-12-11T13:33:52.450Z</time>
      </trkpt>
      <trkpt lat="48.23605" lon="-3.62358">
        <ele>117.915257</ele>
        <time>2022-12-11T13:33:55.459Z</time>
      </trkpt>
      <trkpt lat="48.23608" lon="-3.62344">
        <ele>117.859733</ele>
        <time>2022-12-11T13:33:58.451Z</time>
      </trkpt>
      <trkpt lat="48.23612" lon="-3.6233">
        <ele>117.802831</ele>
        <time>2022-12-11T13:34:02.468Z</time>
      </trkpt>
      <trkpt lat="48.23617" lon="-3.62315">
        <ele>117.737949</ele>
        <time>2022-12-11T13:34:07.456Z</time>
      </trkpt>
      <trkpt lat="48.23622" lon="-3.623">
        <ele>117.675916</ele>
        <time>2022-12-11T13:34:11.468Z</time>
      </trkpt>
      <trkpt lat="48.23626" lon="-3.62288">
        <ele>117.624341</ele>
        <time>2022-12-11T13:34:14.449Z</time>
      </trkpt>
      <trkpt lat="48.23629" lon="-3.62275">
        <ele>117.572506</ele>
        <time>2022-12-11T13:34:17.476Z</time>
      </trkpt>
      <trkpt lat="48.23633" lon="-3.62261">
        <ele>117.515465</ele>
        <time>2022-12-11T13:34:21.455Z</time>
      </trkpt>
      <trkpt lat="48.23637" lon="-3.62244">
        <ele>117.445688</ele>
        <time>2022-12-11T13:34:25.451Z</time>
      </trkpt>
      <trkpt lat="48.2364" lon="-3.62228">
        <ele>117.381794</ele>
        <time>2022-12-11T13:34:29.473Z</time>
      </trkpt>
      <trkpt lat="48.23643" lon="-3.62213">
        <ele>117.323829</ele>
        <time>2022-12-11T13:34:33.445Z</time>
      </trkpt>
      <trkpt lat="48.23646" lon="-3.62196">
        <ele>117.258747</ele>
        <time>2022-12-11T13:34:37.455Z</time>
      </trkpt>
      <trkpt lat="48.2365" lon="-3.62182">
        <ele>117.198721</ele>
        <time>2022-12-11T13:34:40.474Z</time>
      </trkpt>
      <trkpt lat="48.23652" lon="-3.62165">
        <ele>117.135559</ele>
        <time>2022-12-11T13:34:45.466Z</time>
      </trkpt>
      <trkpt lat="48.23656" lon="-3.62148">
        <ele>117.085185</ele>
        <time>2022-12-11T13:34:49.480Z</time>
      </trkpt>
      <trkpt lat="48.23661" lon="-3.62134">
        <ele>117.081686</ele>
        <time>2022-12-11T13:34:52.467Z</time>
      </trkpt>
      <trkpt lat="48.23665" lon="-3.62121">
        <ele>117.0786</ele>
        <time>2022-12-11T13:34:55.453Z</time>
      </trkpt>
      <trkpt lat="48.23671" lon="-3.62107">
        <ele>117.07507</ele>
        <time>2022-12-11T13:34:59.455Z</time>
      </trkpt>
      <trkpt lat="48.23675" lon="-3.62095">
        <ele>117.072123</ele>
        <time>2022-12-11T13:35:02.452Z</time>
      </trkpt>
      <trkpt lat="48.2368" lon="-3.62083">
        <ele>117.069068</ele>
        <time>2022-12-11T13:35:05.464Z</time>
      </trkpt>
      <trkpt lat="48.23686" lon="-3.62071">
        <ele>117.065996</ele>
        <time>2022-12-11T13:35:08.458Z</time>
      </trkpt>
      <trkpt lat="48.23692" lon="-3.62058">
        <ele>117.062618</ele>
        <time>2022-12-11T13:35:11.459Z</time>
      </trkpt>
      <trkpt lat="48.23697" lon="-3.62044">
        <ele>117.059175</ele>
        <time>2022-12-11T13:35:15.475Z</time>
      </trkpt>
      <trkpt lat="48.23703" lon="-3.62033">
        <ele>117.056078</ele>
        <time>2022-12-11T13:35:18.475Z</time>
      </trkpt>
      <trkpt lat="48.23709" lon="-3.62021">
        <ele>117.052963</ele>
        <time>2022-12-11T13:35:21.461Z</time>
      </trkpt>
      <trkpt lat="48.23715" lon="-3.62009">
        <ele>117.049624</ele>
        <time>2022-12-11T13:35:24.479Z</time>
      </trkpt>
      <trkpt lat="48.23721" lon="-3.61997">
        <ele>117.046446</ele>
        <time>2022-12-11T13:35:27.460Z</time>
      </trkpt>
      <trkpt lat="48.23727" lon="-3.61985">
        <ele>117.043301</ele>
        <time>2022-12-11T13:35:30.462Z</time>
      </trkpt>
      <trkpt lat="48.23733" lon="-3.61974">
        <ele>117.040039</ele>
        <time>2022-12-11T13:35:33.472Z</time>
      </trkpt>
      <trkpt lat="48.23739" lon="-3.61962">
        <ele>117.036935</ele>
        <time>2022-12-11T13:35:36.502Z</time>
      </trkpt>
      <trkpt lat="48.23745" lon="-3.61951">
        <ele>117.033732</ele>
        <time>2022-12-11T13:35:39.496Z</time>
      </trkpt>
      <trkpt lat="48.23751" lon="-3.6194">
        <ele>117.03078</ele>
        <time>2022-12-11T13:35:42.476Z</time>
      </trkpt>
      <trkpt lat="48.23761" lon="-3.61929">
        <ele>116.972616</ele>
        <time>2022-12-11T13:35:46.464Z</time>
      </trkpt>
      <trkpt lat="48.23769" lon="-3.61922">
        <ele>116.848782</ele>
        <time>2022-12-11T13:35:49.465Z</time>
      </trkpt>
      <trkpt lat="48.23777" lon="-3.61917">
        <ele>116.723796</ele>
        <time>2022-12-11T13:35:52.473Z</time>
      </trkpt>
      <trkpt lat="48.23787" lon="-3.61913">
        <ele>116.599754</ele>
        <time>2022-12-11T13:35:55.464Z</time>
      </trkpt>
      <trkpt lat="48.23796" lon="-3.61911">
        <ele>116.470341</ele>
        <time>2022-12-11T13:35:58.481Z</time>
      </trkpt>
      <trkpt lat="48.23807" lon="-3.61907">
        <ele>116.321354</ele>
        <time>2022-12-11T13:36:02.469Z</time>
      </trkpt>
      <trkpt lat="48.23816" lon="-3.61904">
        <ele>116.201045</ele>
        <time>2022-12-11T13:36:06.453Z</time>
      </trkpt>
      <trkpt lat="48.23826" lon="-3.61902">
        <ele>116.071062</ele>
        <time>2022-12-11T13:36:10.461Z</time>
      </trkpt>
      <trkpt lat="48.23838" lon="-3.61899">
        <ele>115.910153</ele>
        <time>2022-12-11T13:36:14.475Z</time>
      </trkpt>
      <trkpt lat="48.23848" lon="-3.61896">
        <ele>115.768012</ele>
        <time>2022-12-11T13:36:18.460Z</time>
      </trkpt>
      <trkpt lat="48.23859" lon="-3.61895">
        <ele>115.624738</ele>
        <time>2022-12-11T13:36:22.459Z</time>
      </trkpt>
      <trkpt lat="48.2387" lon="-3.61896">
        <ele>115.474753</ele>
        <time>2022-12-11T13:36:26.461Z</time>
      </trkpt>
      <trkpt lat="48.2388" lon="-3.619">
        <ele>115.344261</ele>
        <time>2022-12-11T13:36:29.456Z</time>
      </trkpt>
      <trkpt lat="48.23889" lon="-3.61903">
        <ele>115.218509</ele>
        <time>2022-12-11T13:36:32.485Z</time>
      </trkpt>
      <trkpt lat="48.23899" lon="-3.61906">
        <ele>115.085187</ele>
        <time>2022-12-11T13:36:35.460Z</time>
      </trkpt>
      <trkpt lat="48.23909" lon="-3.61908">
        <ele>114.946026</ele>
        <time>2022-12-11T13:36:39.455Z</time>
      </trkpt>
      <trkpt lat="48.23919" lon="-3.61913">
        <ele>114.814838</ele>
        <time>2022-12-11T13:36:43.459Z</time>
      </trkpt>
      <trkpt lat="48.23929" lon="-3.61917">
        <ele>114.680276</ele>
        <time>2022-12-11T13:36:46.465Z</time>
      </trkpt>
      <trkpt lat="48.2394" lon="-3.61919">
        <ele>114.652908</ele>
        <time>2022-12-11T13:36:49.464Z</time>
      </trkpt>
      <trkpt lat="48.23951" lon="-3.61923">
        <ele>114.662344</ele>
        <time>2022-12-11T13:36:52.466Z</time>
      </trkpt>
      <trkpt lat="48.23961" lon="-3.61925">
        <ele>114.670199</ele>
        <time>2022-12-11T13:36:55.474Z</time>
      </trkpt>
      <trkpt lat="48.2397" lon="-3.61928">
        <ele>114.677912</ele>
        <time>2022-12-11T13:36:58.472Z</time>
      </trkpt>
      <trkpt lat="48.23979" lon="-3.61931">
        <ele>114.685603</ele>
        <time>2022-12-11T13:37:01.478Z</time>
      </trkpt>
      <trkpt lat="48.23988" lon="-3.61935">
        <ele>114.694026</ele>
        <time>2022-12-11T13:37:04.474Z</time>
      </trkpt>
      <trkpt lat="48.23999" lon="-3.61938">
        <ele>114.703306</ele>
        <time>2022-12-11T13:37:07.478Z</time>
      </trkpt>
      <trkpt lat="48.2401" lon="-3.61939">
        <ele>114.712038</ele>
        <time>2022-12-11T13:37:10.477Z</time>
      </trkpt>
      <trkpt lat="48.24021" lon="-3.61938">
        <ele>114.721941</ele>
        <time>2022-12-11T13:37:14.448Z</time>
      </trkpt>
      <trkpt lat="48.24032" lon="-3.61938">
        <ele>114.730923</ele>
        <time>2022-12-11T13:37:18.483Z</time>
      </trkpt>
      <trkpt lat="48.24041" lon="-3.61938">
        <ele>114.73856</ele>
        <time>2022-12-11T13:37:21.476Z</time>
      </trkpt>
      <trkpt lat="48.24051" lon="-3.61937">
        <ele>114.746869</ele>
        <time>2022-12-11T13:37:24.458Z</time>
      </trkpt>
      <trkpt lat="48.24063" lon="-3.61935">
        <ele>114.756667</ele>
        <time>2022-12-11T13:37:27.460Z</time>
      </trkpt>
      <trkpt lat="48.24073" lon="-3.61933">
        <ele>114.765157</ele>
        <time>2022-12-11T13:37:30.458Z</time>
      </trkpt>
      <trkpt lat="48.24084" lon="-3.61932">
        <ele>114.774312</ele>
        <time>2022-12-11T13:37:33.468Z</time>
      </trkpt>
      <trkpt lat="48.24094" lon="-3.61932">
        <ele>114.783298</ele>
        <time>2022-12-11T13:37:36.475Z</time>
      </trkpt>
      <trkpt lat="48.24106" lon="-3.61931">
        <ele>114.793139</ele>
        <time>2022-12-11T13:37:39.470Z</time>
      </trkpt>
      <trkpt lat="48.24119" lon="-3.61929">
        <ele>114.875545</ele>
        <time>2022-12-11T13:37:42.468Z</time>
      </trkpt>
      <trkpt lat="48.24129" lon="-3.61928">
        <ele>114.963051</ele>
        <time>2022-12-11T13:37:45.482Z</time>
      </trkpt>
      <trkpt lat="48.2414" lon="-3.61928">
        <ele>115.060603</ele>
        <time>2022-12-11T13:37:48.457Z</time>
      </trkpt>
      <trkpt lat="48.24149" lon="-3.61929">
        <ele>115.142643</ele>
        <time>2022-12-11T13:37:51.478Z</time>
      </trkpt>
      <trkpt lat="48.24161" lon="-3.6193">
        <ele>115.244778</ele>
        <time>2022-12-11T13:37:55.457Z</time>
      </trkpt>
      <trkpt lat="48.24171" lon="-3.61932">
        <ele>115.332646</ele>
        <time>2022-12-11T13:37:58.464Z</time>
      </trkpt>
      <trkpt lat="48.24181" lon="-3.61935">
        <ele>115.42103</ele>
        <time>2022-12-11T13:38:01.475Z</time>
      </trkpt>
      <trkpt lat="48.24192" lon="-3.6194">
        <ele>115.518257</ele>
        <time>2022-12-11T13:38:04.457Z</time>
      </trkpt>
      <trkpt lat="48.24202" lon="-3.61946">
        <ele>115.613034</ele>
        <time>2022-12-11T13:38:07.456Z</time>
      </trkpt>
      <trkpt lat="48.24213" lon="-3.61953">
        <ele>115.70948</ele>
        <time>2022-12-11T13:38:11.473Z</time>
      </trkpt>
      <trkpt lat="48.24222" lon="-3.61958">
        <ele>115.797428</ele>
        <time>2022-12-11T13:38:16.463Z</time>
      </trkpt>
      <trkpt lat="48.24233" lon="-3.61962">
        <ele>115.897438</ele>
        <time>2022-12-11T13:38:21.465Z</time>
      </trkpt>
      <trkpt lat="48.24243" lon="-3.61964">
        <ele>115.980329</ele>
        <time>2022-12-11T13:38:24.457Z</time>
      </trkpt>
      <trkpt lat="48.24253" lon="-3.61965">
        <ele>116.071116</ele>
        <time>2022-12-11T13:38:27.463Z</time>
      </trkpt>
      <trkpt lat="48.24264" lon="-3.61967">
        <ele>116.165052</ele>
        <time>2022-12-11T13:38:30.471Z</time>
      </trkpt>
      <trkpt lat="48.24275" lon="-3.61967">
        <ele>116.258345</ele>
        <time>2022-12-11T13:38:33.471Z</time>
      </trkpt>
      <trkpt lat="48.24285" lon="-3.61966">
        <ele>116.343928</ele>
        <time>2022-12-11T13:38:36.455Z</time>
      </trkpt>
      <trkpt lat="48.24294" lon="-3.61965">
        <ele>116.132497</ele>
        <time>2022-12-11T13:38:39.454Z</time>
      </trkpt>
      <trkpt lat="48.24304" lon="-3.61964">
        <ele>115.883483</ele>
        <time>2022-12-11T13:38:42.468Z</time>
      </trkpt>
      <trkpt lat="48.24315" lon="-3.61965">
        <ele>115.602479</ele>
        <time>2022-12-11T13:38:45.466Z</time>
      </trkpt>
      <trkpt lat="48.24326" lon="-3.61966">
        <ele>115.328763</ele>
        <time>2022-12-11T13:38:48.473Z</time>
      </trkpt>
      <trkpt lat="48.24336" lon="-3.61967">
        <ele>115.089544</ele>
        <time>2022-12-11T13:38:51.454Z</time>
      </trkpt>
      <trkpt lat="48.24347" lon="-3.61968">
        <ele>114.812318</ele>
        <time>2022-12-11T13:38:55.475Z</time>
      </trkpt>
      <trkpt lat="48.24356" lon="-3.6197">
        <ele>114.584472</ele>
        <time>2022-12-11T13:38:58.473Z</time>
      </trkpt>
      <trkpt lat="48.24366" lon="-3.61971">
        <ele>114.340522</ele>
        <time>2022-12-11T13:39:01.478Z</time>
      </trkpt>
      <trkpt lat="48.24376" lon="-3.61973">
        <ele>114.093122</ele>
        <time>2022-12-11T13:39:06.465Z</time>
      </trkpt>
      <trkpt lat="48.24378" lon="-3.61971">
        <ele>114.041438</ele>
        <time>2022-12-11T13:40:25.050Z</time>
      </trkpt>
      <trkpt lat="48.24394" lon="-3.61962">
        <ele>113.608017</ele>
        <time>2022-12-11T13:59:37.470Z</time>
      </trkpt>
      <trkpt lat="48.24405" lon="-3.61963">
        <ele>113.331978</ele>
        <time>2022-12-11T13:59:42.483Z</time>
      </trkpt>
      <trkpt lat="48.24416" lon="-3.61967">
        <ele>113.069219</ele>
        <time>2022-12-11T13:59:46.493Z</time>
      </trkpt>
      <trkpt lat="48.24427" lon="-3.61966">
        <ele>112.793379</ele>
        <time>2022-12-11T13:59:50.459Z</time>
      </trkpt>
      <trkpt lat="48.24437" lon="-3.61967">
        <ele>112.529752</ele>
        <time>2022-12-11T13:59:53.463Z</time>
      </trkpt>
      <trkpt lat="48.24447" lon="-3.61965">
        <ele>112.284442</ele>
        <time>2022-12-11T13:59:56.478Z</time>
      </trkpt>
      <trkpt lat="48.24457" lon="-3.61963">
        <ele>112.046317</ele>
        <time>2022-12-11T13:59:59.460Z</time>
      </trkpt>
      <trkpt lat="48.24467" lon="-3.61961">
        <ele>111.955973</ele>
        <time>2022-12-11T14:00:02.481Z</time>
      </trkpt>
      <trkpt lat="48.24477" lon="-3.61958">
        <ele>112.15055</ele>
        <time>2022-12-11T14:00:05.473Z</time>
      </trkpt>
      <trkpt lat="48.24486" lon="-3.61955">
        <ele>112.33147</ele>
        <time>2022-12-11T14:00:08.472Z</time>
      </trkpt>
      <trkpt lat="48.24495" lon="-3.61952">
        <ele>112.518485</ele>
        <time>2022-12-11T14:00:11.462Z</time>
      </trkpt>
      <trkpt lat="48.24505" lon="-3.61946">
        <ele>112.736251</ele>
        <time>2022-12-11T14:00:14.470Z</time>
      </trkpt>
      <trkpt lat="48.24515" lon="-3.61938">
        <ele>112.960724</ele>
        <time>2022-12-11T14:00:17.458Z</time>
      </trkpt>
      <trkpt lat="48.24525" lon="-3.61927">
        <ele>113.213037</ele>
        <time>2022-12-11T14:00:20.479Z</time>
      </trkpt>
      <trkpt lat="48.24535" lon="-3.61917">
        <ele>113.444026</ele>
        <time>2022-12-11T14:00:23.460Z</time>
      </trkpt>
      <trkpt lat="48.24544" lon="-3.61908">
        <ele>113.658971</ele>
        <time>2022-12-11T14:00:26.485Z</time>
      </trkpt>
      <trkpt lat="48.24553" lon="-3.61899">
        <ele>113.883904</ele>
        <time>2022-12-11T14:00:29.456Z</time>
      </trkpt>
      <trkpt lat="48.24563" lon="-3.61889">
        <ele>114.113407</ele>
        <time>2022-12-11T14:00:32.461Z</time>
      </trkpt>
      <trkpt lat="48.24572" lon="-3.61879">
        <ele>114.339631</ele>
        <time>2022-12-11T14:00:35.475Z</time>
      </trkpt>
      <trkpt lat="48.24581" lon="-3.61869">
        <ele>114.55618</ele>
        <time>2022-12-11T14:00:38.531Z</time>
      </trkpt>
      <trkpt lat="48.24589" lon="-3.6186">
        <ele>114.75924</ele>
        <time>2022-12-11T14:00:41.459Z</time>
      </trkpt>
      <trkpt lat="48.24598" lon="-3.61852">
        <ele>114.962388</ele>
        <time>2022-12-11T14:00:44.463Z</time>
      </trkpt>
      <trkpt lat="48.24606" lon="-3.61842">
        <ele>115.176527</ele>
        <time>2022-12-11T14:00:47.480Z</time>
      </trkpt>
      <trkpt lat="48.24614" lon="-3.61832">
        <ele>115.381676</ele>
        <time>2022-12-11T14:00:50.481Z</time>
      </trkpt>
      <trkpt lat="48.24622" lon="-3.61822">
        <ele>115.531</ele>
        <time>2022-12-11T14:00:53.482Z</time>
      </trkpt>
      <trkpt lat="48.24629" lon="-3.61811">
        <ele>115.658023</ele>
        <time>2022-12-11T14:00:56.469Z</time>
      </trkpt>
      <trkpt lat="48.24636" lon="-3.618">
        <ele>115.783271</ele>
        <time>2022-12-11T14:00:59.483Z</time>
      </trkpt>
      <trkpt lat="48.24644" lon="-3.61788">
        <ele>115.930133</ele>
        <time>2022-12-11T14:01:03.460Z</time>
      </trkpt>
      <trkpt lat="48.24652" lon="-3.61776">
        <ele>116.069006</ele>
        <time>2022-12-11T14:01:07.472Z</time>
      </trkpt>
      <trkpt lat="48.24655" lon="-3.61762">
        <ele>116.191355</ele>
        <time>2022-12-11T14:01:11.463Z</time>
      </trkpt>
      <trkpt lat="48.24648" lon="-3.61752">
        <ele>116.307428</ele>
        <time>2022-12-11T14:01:16.462Z</time>
      </trkpt>
      <trkpt lat="48.24637" lon="-3.61736">
        <ele>116.506104</ele>
        <time>2022-12-11T14:02:08.459Z</time>
      </trkpt>
      <trkpt lat="48.24644" lon="-3.61719">
        <ele>116.667038</ele>
        <time>2022-12-11T14:02:12.458Z</time>
      </trkpt>
      <trkpt lat="48.24652" lon="-3.61708">
        <ele>116.810121</ele>
        <time>2022-12-11T14:02:15.473Z</time>
      </trkpt>
      <trkpt lat="48.24661" lon="-3.61698">
        <ele>116.946877</ele>
        <time>2022-12-11T14:02:18.456Z</time>
      </trkpt>
      <trkpt lat="48.24668" lon="-3.61688">
        <ele>117.065465</ele>
        <time>2022-12-11T14:02:21.463Z</time>
      </trkpt>
      <trkpt lat="48.24676" lon="-3.61678">
        <ele>117.193725</ele>
        <time>2022-12-11T14:02:25.462Z</time>
      </trkpt>
      <trkpt lat="48.24682" lon="-3.61668">
        <ele>117.313072</ele>
        <time>2022-12-11T14:02:30.469Z</time>
      </trkpt>
      <trkpt lat="48.24689" lon="-3.61658">
        <ele>117.433153</ele>
        <time>2022-12-11T14:03:29.457Z</time>
      </trkpt>
      <trkpt lat="48.24694" lon="-3.61645">
        <ele>117.5608</ele>
        <time>2022-12-11T14:03:43.460Z</time>
      </trkpt>
      <trkpt lat="48.24699" lon="-3.6163">
        <ele>117.694168</ele>
        <time>2022-12-11T14:03:48.465Z</time>
      </trkpt>
      <trkpt lat="48.24702" lon="-3.61615">
        <ele>117.629865</ele>
        <time>2022-12-11T14:03:52.475Z</time>
      </trkpt>
      <trkpt lat="48.2471" lon="-3.61602">
        <ele>117.533434</ele>
        <time>2022-12-11T14:03:56.461Z</time>
      </trkpt>
      <trkpt lat="48.24718" lon="-3.6159">
        <ele>117.440838</ele>
        <time>2022-12-11T14:04:00.464Z</time>
      </trkpt>
      <trkpt lat="48.24723" lon="-3.61578">
        <ele>117.360926</ele>
        <time>2022-12-11T14:04:03.469Z</time>
      </trkpt>
      <trkpt lat="48.2473" lon="-3.61564">
        <ele>117.268677</ele>
        <time>2022-12-11T14:04:07.520Z</time>
      </trkpt>
      <trkpt lat="48.24736" lon="-3.61549">
        <ele>117.172968</ele>
        <time>2022-12-11T14:04:11.470Z</time>
      </trkpt>
      <trkpt lat="48.24741" lon="-3.61537">
        <ele>117.096295</ele>
        <time>2022-12-11T14:04:14.457Z</time>
      </trkpt>
      <trkpt lat="48.24746" lon="-3.61523">
        <ele>117.01125</ele>
        <time>2022-12-11T14:04:18.469Z</time>
      </trkpt>
      <trkpt lat="48.24748" lon="-3.61507">
        <ele>116.922758</ele>
        <time>2022-12-11T14:04:22.478Z</time>
      </trkpt>
      <trkpt lat="48.24748" lon="-3.6149">
        <ele>116.829039</ele>
        <time>2022-12-11T14:04:26.456Z</time>
      </trkpt>
      <trkpt lat="48.24747" lon="-3.61476">
        <ele>116.751031</ele>
        <time>2022-12-11T14:04:29.478Z</time>
      </trkpt>
      <trkpt lat="48.24743" lon="-3.61459">
        <ele>116.65851</ele>
        <time>2022-12-11T14:04:33.480Z</time>
      </trkpt>
      <trkpt lat="48.2474" lon="-3.61447">
        <ele>116.583947</ele>
        <time>2022-12-11T14:04:36.465Z</time>
      </trkpt>
      <trkpt lat="48.24736" lon="-3.61431">
        <ele>116.492391</ele>
        <time>2022-12-11T14:04:40.462Z</time>
      </trkpt>
      <trkpt lat="48.24732" lon="-3.61418">
        <ele>116.417034</ele>
        <time>2022-12-11T14:04:43.464Z</time>
      </trkpt>
      <trkpt lat="48.24729" lon="-3.61404">
        <ele>116.338631</ele>
        <time>2022-12-11T14:04:46.458Z</time>
      </trkpt>
      <trkpt lat="48.24725" lon="-3.61389">
        <ele>116.252116</ele>
        <time>2022-12-11T14:04:50.468Z</time>
      </trkpt>
      <trkpt lat="48.24721" lon="-3.61375">
        <ele>116.283402</ele>
        <time>2022-12-11T14:04:54.459Z</time>
      </trkpt>
      <trkpt lat="48.24718" lon="-3.61362">
        <ele>116.320551</ele>
        <time>2022-12-11T14:04:57.454Z</time>
      </trkpt>
      <trkpt lat="48.24714" lon="-3.61346">
        <ele>116.364981</ele>
        <time>2022-12-11T14:05:01.459Z</time>
      </trkpt>
      <trkpt lat="48.2471" lon="-3.61331">
        <ele>116.409253</ele>
        <time>2022-12-11T14:05:05.461Z</time>
      </trkpt>
      <trkpt lat="48.24704" lon="-3.61316">
        <ele>116.45761</ele>
        <time>2022-12-11T14:05:09.468Z</time>
      </trkpt>
      <trkpt lat="48.247" lon="-3.61302">
        <ele>116.49927</ele>
        <time>2022-12-11T14:05:12.470Z</time>
      </trkpt>
      <trkpt lat="48.24695" lon="-3.61286">
        <ele>116.544302</ele>
        <time>2022-12-11T14:05:17.461Z</time>
      </trkpt>
      <trkpt lat="48.2469" lon="-3.61275">
        <ele>116.581932</ele>
        <time>2022-12-11T14:05:21.460Z</time>
      </trkpt>
      <trkpt lat="48.24683" lon="-3.61261">
        <ele>116.627091</ele>
        <time>2022-12-11T14:05:25.462Z</time>
      </trkpt>
      <trkpt lat="48.24677" lon="-3.61248">
        <ele>116.671969</ele>
        <time>2022-12-11T14:05:29.457Z</time>
      </trkpt>
      <trkpt lat="48.24671" lon="-3.61236">
        <ele>116.710962</ele>
        <time>2022-12-11T14:05:33.465Z</time>
      </trkpt>
      <trkpt lat="48.24666" lon="-3.61221">
        <ele>116.756376</ele>
        <time>2022-12-11T14:05:37.474Z</time>
      </trkpt>
      <trkpt lat="48.2466" lon="-3.6121">
        <ele>116.794933</ele>
        <time>2022-12-11T14:05:40.468Z</time>
      </trkpt>
      <trkpt lat="48.24654" lon="-3.61198">
        <ele>116.835038</ele>
        <time>2022-12-11T14:05:43.476Z</time>
      </trkpt>
      <trkpt lat="48.24649" lon="-3.61185">
        <ele>116.874916</ele>
        <time>2022-12-11T14:05:46.464Z</time>
      </trkpt>
      <trkpt lat="48.24642" lon="-3.61173">
        <ele>116.918144</ele>
        <time>2022-12-11T14:05:50.471Z</time>
      </trkpt>
      <trkpt lat="48.24637" lon="-3.61161">
        <ele>116.95781</ele>
        <time>2022-12-11T14:05:54.468Z</time>
      </trkpt>
      <trkpt lat="48.24631" lon="-3.61148">
        <ele>116.934118</ele>
        <time>2022-12-11T14:05:58.458Z</time>
      </trkpt>
      <trkpt lat="48.24625" lon="-3.61136">
        <ele>116.883771</ele>
        <time>2022-12-11T14:06:01.464Z</time>
      </trkpt>
      <trkpt lat="48.24619" lon="-3.61124">
        <ele>116.828376</ele>
        <time>2022-12-11T14:06:05.456Z</time>
      </trkpt>
      <trkpt lat="48.24613" lon="-3.61109">
        <ele>116.766785</ele>
        <time>2022-12-11T14:06:09.461Z</time>
      </trkpt>
      <trkpt lat="48.24608" lon="-3.61096">
        <ele>116.714048</ele>
        <time>2022-12-11T14:06:12.490Z</time>
      </trkpt>
      <trkpt lat="48.24602" lon="-3.61084">
        <ele>116.660771</ele>
        <time>2022-12-11T14:06:15.461Z</time>
      </trkpt>
      <trkpt lat="48.24595" lon="-3.61071">
        <ele>116.602077</ele>
        <time>2022-12-11T14:06:19.470Z</time>
      </trkpt>
      <trkpt lat="48.2459" lon="-3.61056">
        <ele>116.540917</ele>
        <time>2022-12-11T14:06:23.463Z</time>
      </trkpt>
      <trkpt lat="48.24585" lon="-3.61042">
        <ele>116.486674</ele>
        <time>2022-12-11T14:06:27.465Z</time>
      </trkpt>
      <trkpt lat="48.2458" lon="-3.61028">
        <ele>116.428042</ele>
        <time>2022-12-11T14:06:33.462Z</time>
      </trkpt>
      <trkpt lat="48.24572" lon="-3.61014">
        <ele>116.36308</ele>
        <time>2022-12-11T14:06:37.469Z</time>
      </trkpt>
      <trkpt lat="48.24567" lon="-3.61001">
        <ele>116.3095</ele>
        <time>2022-12-11T14:06:41.475Z</time>
      </trkpt>
      <trkpt lat="48.24561" lon="-3.6099">
        <ele>116.259475</ele>
        <time>2022-12-11T14:06:44.477Z</time>
      </trkpt>
      <trkpt lat="48.24555" lon="-3.60977">
        <ele>116.203213</ele>
        <time>2022-12-11T14:06:47.472Z</time>
      </trkpt>
      <trkpt lat="48.24549" lon="-3.60965">
        <ele>116.151087</ele>
        <time>2022-12-11T14:06:50.477Z</time>
      </trkpt>
      <trkpt lat="48.24543" lon="-3.60951">
        <ele>116.088891</ele>
        <time>2022-12-11T14:06:54.479Z</time>
      </trkpt>
      <trkpt lat="48.24537" lon="-3.6094">
        <ele>116.039607</ele>
        <time>2022-12-11T14:06:57.460Z</time>
      </trkpt>
      <trkpt lat="48.24531" lon="-3.60928">
        <ele>116.08865</ele>
        <time>2022-12-11T14:07:00.472Z</time>
      </trkpt>
      <trkpt lat="48.24525" lon="-3.60916">
        <ele>116.264145</ele>
        <time>2022-12-11T14:07:03.457Z</time>
      </trkpt>
      <trkpt lat="48.2452" lon="-3.60906">
        <ele>116.425915</ele>
        <time>2022-12-11T14:07:06.458Z</time>
      </trkpt>
      <trkpt lat="48.24512" lon="-3.60892">
        <ele>116.638659</ele>
        <time>2022-12-11T14:07:10.459Z</time>
      </trkpt>
      <trkpt lat="48.24507" lon="-3.6088">
        <ele>116.806141</ele>
        <time>2022-12-11T14:07:13.479Z</time>
      </trkpt>
      <trkpt lat="48.245" lon="-3.60867">
        <ele>117.000337</ele>
        <time>2022-12-11T14:07:17.465Z</time>
      </trkpt>
      <trkpt lat="48.24494" lon="-3.60852">
        <ele>117.207719</ele>
        <time>2022-12-11T14:07:21.457Z</time>
      </trkpt>
      <trkpt lat="48.24489" lon="-3.60839">
        <ele>117.390851</ele>
        <time>2022-12-11T14:07:24.460Z</time>
      </trkpt>
      <trkpt lat="48.24483" lon="-3.60826">
        <ele>117.568075</ele>
        <time>2022-12-11T14:07:27.477Z</time>
      </trkpt>
      <trkpt lat="48.24477" lon="-3.60813">
        <ele>117.764046</ele>
        <time>2022-12-11T14:07:31.461Z</time>
      </trkpt>
      <trkpt lat="48.24471" lon="-3.60799">
        <ele>117.959009</ele>
        <time>2022-12-11T14:07:35.457Z</time>
      </trkpt>
      <trkpt lat="48.24463" lon="-3.60785">
        <ele>118.168253</ele>
        <time>2022-12-11T14:07:39.461Z</time>
      </trkpt>
      <trkpt lat="48.24458" lon="-3.60774">
        <ele>118.332867</ele>
        <time>2022-12-11T14:07:42.465Z</time>
      </trkpt>
      <trkpt lat="48.24452" lon="-3.60759">
        <ele>118.537829</ele>
        <time>2022-12-11T14:07:46.480Z</time>
      </trkpt>
      <trkpt lat="48.24447" lon="-3.60748">
        <ele>118.700291</ele>
        <time>2022-12-11T14:07:49.465Z</time>
      </trkpt>
      <trkpt lat="48.24441" lon="-3.60735">
        <ele>118.878747</ele>
        <time>2022-12-11T14:07:52.465Z</time>
      </trkpt>
      <trkpt lat="48.24435" lon="-3.60721">
        <ele>119.079633</ele>
        <time>2022-12-11T14:07:55.461Z</time>
      </trkpt>
      <trkpt lat="48.24429" lon="-3.60707">
        <ele>119.211777</ele>
        <time>2022-12-11T14:07:58.465Z</time>
      </trkpt>
      <trkpt lat="48.24423" lon="-3.60696">
        <ele>119.226796</ele>
        <time>2022-12-11T14:08:01.461Z</time>
      </trkpt>
      <trkpt lat="48.24417" lon="-3.60684">
        <ele>119.242187</ele>
        <time>2022-12-11T14:08:04.487Z</time>
      </trkpt>
      <trkpt lat="48.24412" lon="-3.60671">
        <ele>119.257923</ele>
        <time>2022-12-11T14:08:07.456Z</time>
      </trkpt>
      <trkpt lat="48.24406" lon="-3.60658">
        <ele>119.273824</ele>
        <time>2022-12-11T14:08:10.481Z</time>
      </trkpt>
      <trkpt lat="48.244" lon="-3.60646">
        <ele>119.289342</ele>
        <time>2022-12-11T14:08:13.464Z</time>
      </trkpt>
      <trkpt lat="48.24394" lon="-3.60633">
        <ele>119.305681</ele>
        <time>2022-12-11T14:08:16.460Z</time>
      </trkpt>
      <trkpt lat="48.24388" lon="-3.6062">
        <ele>119.322285</ele>
        <time>2022-12-11T14:08:19.457Z</time>
      </trkpt>
      <trkpt lat="48.24381" lon="-3.60607">
        <ele>119.338619</ele>
        <time>2022-12-11T14:08:22.459Z</time>
      </trkpt>
      <trkpt lat="48.24375" lon="-3.60594">
        <ele>119.354719</ele>
        <time>2022-12-11T14:08:25.456Z</time>
      </trkpt>
      <trkpt lat="48.24369" lon="-3.60583">
        <ele>119.369876</ele>
        <time>2022-12-11T14:08:28.467Z</time>
      </trkpt>
      <trkpt lat="48.24363" lon="-3.60572">
        <ele>119.384508</ele>
        <time>2022-12-11T14:08:32.472Z</time>
      </trkpt>
      <trkpt lat="48.24358" lon="-3.60559">
        <ele>119.399639</ele>
        <time>2022-12-11T14:08:36.464Z</time>
      </trkpt>
      <trkpt lat="48.24352" lon="-3.60548">
        <ele>119.414785</ele>
        <time>2022-12-11T14:08:40.457Z</time>
      </trkpt>
      <trkpt lat="48.24346" lon="-3.60534">
        <ele>119.431626</ele>
        <time>2022-12-11T14:08:44.459Z</time>
      </trkpt>
      <trkpt lat="48.24334" lon="-3.60511">
        <ele>119.461445</ele>
        <time>2022-12-11T14:09:49.475Z</time>
      </trkpt>
      <trkpt lat="48.24326" lon="-3.60502">
        <ele>119.477048</ele>
        <time>2022-12-11T14:09:53.460Z</time>
      </trkpt>
      <trkpt lat="48.24319" lon="-3.60493">
        <ele>119.372943</ele>
        <time>2022-12-11T14:09:57.459Z</time>
      </trkpt>
      <trkpt lat="48.24314" lon="-3.60478">
        <ele>119.134535</ele>
        <time>2022-12-11T14:10:01.457Z</time>
      </trkpt>
      <trkpt lat="48.24309" lon="-3.60461">
        <ele>118.871787</ele>
        <time>2022-12-11T14:10:04.460Z</time>
      </trkpt>
      <trkpt lat="48.24304" lon="-3.60448">
        <ele>118.636839</ele>
        <time>2022-12-11T14:10:07.462Z</time>
      </trkpt>
      <trkpt lat="48.24298" lon="-3.60435">
        <ele>118.42144</ele>
        <time>2022-12-11T14:10:10.464Z</time>
      </trkpt>
      <trkpt lat="48.24291" lon="-3.60421">
        <ele>118.166046</ele>
        <time>2022-12-11T14:10:14.471Z</time>
      </trkpt>
      <trkpt lat="48.24286" lon="-3.60409">
        <ele>117.946929</ele>
        <time>2022-12-11T14:10:17.456Z</time>
      </trkpt>
      <trkpt lat="48.2428" lon="-3.60395">
        <ele>117.712167</ele>
        <time>2022-12-11T14:10:20.458Z</time>
      </trkpt>
      <trkpt lat="48.24274" lon="-3.60383">
        <ele>117.491911</ele>
        <time>2022-12-11T14:10:23.460Z</time>
      </trkpt>
      <trkpt lat="48.24268" lon="-3.60371">
        <ele>117.284785</ele>
        <time>2022-12-11T14:10:26.461Z</time>
      </trkpt>
      <trkpt lat="48.24263" lon="-3.60359">
        <ele>117.073008</ele>
        <time>2022-12-11T14:10:29.463Z</time>
      </trkpt>
      <trkpt lat="48.24257" lon="-3.60347">
        <ele>116.856383</ele>
        <time>2022-12-11T14:10:32.464Z</time>
      </trkpt>
      <trkpt lat="48.24252" lon="-3.60335">
        <ele>116.639632</ele>
        <time>2022-12-11T14:10:35.487Z</time>
      </trkpt>
      <trkpt lat="48.24246" lon="-3.60323">
        <ele>116.429069</ele>
        <time>2022-12-11T14:10:38.457Z</time>
      </trkpt>
      <trkpt lat="48.2424" lon="-3.60309">
        <ele>116.183412</ele>
        <time>2022-12-11T14:10:42.458Z</time>
      </trkpt>
      <trkpt lat="48.24234" lon="-3.60297">
        <ele>115.971619</ele>
        <time>2022-12-11T14:10:46.460Z</time>
      </trkpt>
      <trkpt lat="48.24229" lon="-3.60284">
        <ele>115.745297</ele>
        <time>2022-12-11T14:10:50.462Z</time>
      </trkpt>
      <trkpt lat="48.24222" lon="-3.6027">
        <ele>115.616202</ele>
        <time>2022-12-11T14:10:54.466Z</time>
      </trkpt>
      <trkpt lat="48.24216" lon="-3.60259">
        <ele>115.810763</ele>
        <time>2022-12-11T14:10:57.460Z</time>
      </trkpt>
      <trkpt lat="48.2421" lon="-3.60246">
        <ele>116.038533</ele>
        <time>2022-12-11T14:11:00.460Z</time>
      </trkpt>
      <trkpt lat="48.24206" lon="-3.60234">
        <ele>116.244161</ele>
        <time>2022-12-11T14:11:03.487Z</time>
      </trkpt>
      <trkpt lat="48.24204" lon="-3.6022">
        <ele>116.44022</ele>
        <time>2022-12-11T14:11:17.463Z</time>
      </trkpt>
      <trkpt lat="48.2421" lon="-3.60209">
        <ele>116.657802</ele>
        <time>2022-12-11T14:11:27.453Z</time>
      </trkpt>
      <trkpt lat="48.24218" lon="-3.60201">
        <ele>116.862553</ele>
        <time>2022-12-11T14:11:31.473Z</time>
      </trkpt>
      <trkpt lat="48.24218" lon="-3.60185">
        <ele>117.096171</ele>
        <time>2022-12-11T14:11:37.454Z</time>
      </trkpt>
      <trkpt lat="48.24211" lon="-3.60172">
        <ele>117.32267</ele>
        <time>2022-12-11T14:11:39.465Z</time>
      </trkpt>
      <trkpt lat="48.24205" lon="-3.60159">
        <ele>117.557907</ele>
        <time>2022-12-11T14:11:41.463Z</time>
      </trkpt>
      <trkpt lat="48.24199" lon="-3.60147">
        <ele>117.758041</ele>
        <time>2022-12-11T14:11:43.459Z</time>
      </trkpt>
      <trkpt lat="48.24192" lon="-3.60133">
        <ele>118.015885</ele>
        <time>2022-12-11T14:11:46.456Z</time>
      </trkpt>
      <trkpt lat="48.24186" lon="-3.60118">
        <ele>118.264101</ele>
        <time>2022-12-11T14:11:50.455Z</time>
      </trkpt>
      <trkpt lat="48.24182" lon="-3.60106">
        <ele>118.465797</ele>
        <time>2022-12-11T14:11:54.462Z</time>
      </trkpt>
      <trkpt lat="48.24179" lon="-3.60093">
        <ele>118.661322</ele>
        <time>2022-12-11T14:11:58.463Z</time>
      </trkpt>
      <trkpt lat="48.24177" lon="-3.60079">
        <ele>118.866776</ele>
        <time>2022-12-11T14:12:03.473Z</time>
      </trkpt>
      <trkpt lat="48.24179" lon="-3.60063">
        <ele>119.097579</ele>
        <time>2022-12-11T14:12:09.466Z</time>
      </trkpt>
      <trkpt lat="48.2418" lon="-3.60046">
        <ele>119.345907</ele>
        <time>2022-12-11T14:12:15.470Z</time>
      </trkpt>
      <trkpt lat="48.24184" lon="-3.60026">
        <ele>119.355495</ele>
        <time>2022-12-11T14:12:18.468Z</time>
      </trkpt>
      <trkpt lat="48.24187" lon="-3.6001">
        <ele>119.282342</ele>
        <time>2022-12-11T14:12:21.465Z</time>
      </trkpt>
      <trkpt lat="48.24191" lon="-3.59995">
        <ele>119.213063</ele>
        <time>2022-12-11T14:12:24.466Z</time>
      </trkpt>
      <trkpt lat="48.24197" lon="-3.59984">
        <ele>119.148474</ele>
        <time>2022-12-11T14:12:27.493Z</time>
      </trkpt>
      <trkpt lat="48.24204" lon="-3.5997">
        <ele>119.076315</ele>
        <time>2022-12-11T14:12:30.455Z</time>
      </trkpt>
      <trkpt lat="48.24212" lon="-3.59955">
        <ele>118.991551</ele>
        <time>2022-12-11T14:12:33.471Z</time>
      </trkpt>
      <trkpt lat="48.2422" lon="-3.5994">
        <ele>118.906684</ele>
        <time>2022-12-11T14:12:36.462Z</time>
      </trkpt>
      <trkpt lat="48.24228" lon="-3.59925">
        <ele>118.824688</ele>
        <time>2022-12-11T14:12:39.469Z</time>
      </trkpt>
      <trkpt lat="48.24234" lon="-3.59911">
        <ele>118.752529</ele>
        <time>2022-12-11T14:12:42.460Z</time>
      </trkpt>
      <trkpt lat="48.2424" lon="-3.599">
        <ele>118.687941</ele>
        <time>2022-12-11T14:12:45.489Z</time>
      </trkpt>
      <trkpt lat="48.24246" lon="-3.59887">
        <ele>118.623462</ele>
        <time>2022-12-11T14:12:48.466Z</time>
      </trkpt>
      <trkpt lat="48.24253" lon="-3.59874">
        <ele>118.55086</ele>
        <time>2022-12-11T14:12:52.474Z</time>
      </trkpt>
      <trkpt lat="48.24259" lon="-3.59864">
        <ele>118.491654</ele>
        <time>2022-12-11T14:12:55.469Z</time>
      </trkpt>
      <trkpt lat="48.24265" lon="-3.59852">
        <ele>118.426412</ele>
        <time>2022-12-11T14:12:58.461Z</time>
      </trkpt>
      <trkpt lat="48.24271" lon="-3.59839">
        <ele>118.358213</ele>
        <time>2022-12-11T14:13:01.450Z</time>
      </trkpt>
      <trkpt lat="48.24277" lon="-3.59827">
        <ele>118.289561</ele>
        <time>2022-12-11T14:13:04.492Z</time>
      </trkpt>
      <trkpt lat="48.24285" lon="-3.59813">
        <ele>118.31042</ele>
        <time>2022-12-11T14:13:07.468Z</time>
      </trkpt>
      <trkpt lat="48.24292" lon="-3.59799">
        <ele>118.462856</ele>
        <time>2022-12-11T14:13:10.464Z</time>
      </trkpt>
      <trkpt lat="48.24299" lon="-3.59786">
        <ele>118.600911</ele>
        <time>2022-12-11T14:13:13.467Z</time>
      </trkpt>
      <trkpt lat="48.24305" lon="-3.59773">
        <ele>118.734861</ele>
        <time>2022-12-11T14:13:16.465Z</time>
      </trkpt>
      <trkpt lat="48.2431" lon="-3.59761">
        <ele>118.857562</ele>
        <time>2022-12-11T14:13:19.479Z</time>
      </trkpt>
      <trkpt lat="48.24317" lon="-3.59746">
        <ele>119.014601</ele>
        <time>2022-12-11T14:13:23.472Z</time>
      </trkpt>
      <trkpt lat="48.24322" lon="-3.59733">
        <ele>119.133855</ele>
        <time>2022-12-11T14:13:26.458Z</time>
      </trkpt>
      <trkpt lat="48.24326" lon="-3.59721">
        <ele>119.250272</ele>
        <time>2022-12-11T14:13:29.461Z</time>
      </trkpt>
      <trkpt lat="48.24329" lon="-3.59707">
        <ele>119.374803</ele>
        <time>2022-12-11T14:13:32.464Z</time>
      </trkpt>
      <trkpt lat="48.24331" lon="-3.59692">
        <ele>119.507209</ele>
        <time>2022-12-11T14:13:35.462Z</time>
      </trkpt>
      <trkpt lat="48.24332" lon="-3.59676">
        <ele>119.639215</ele>
        <time>2022-12-11T14:13:38.460Z</time>
      </trkpt>
      <trkpt lat="48.24332" lon="-3.59661">
        <ele>119.763137</ele>
        <time>2022-12-11T14:13:41.469Z</time>
      </trkpt>
      <trkpt lat="48.24333" lon="-3.59648">
        <ele>119.880463</ele>
        <time>2022-12-11T14:13:44.466Z</time>
      </trkpt>
      <trkpt lat="48.24334" lon="-3.59634">
        <ele>119.996948</ele>
        <time>2022-12-11T14:13:47.462Z</time>
      </trkpt>
      <trkpt lat="48.24334" lon="-3.59619">
        <ele>120.12118</ele>
        <time>2022-12-11T14:13:50.486Z</time>
      </trkpt>
      <trkpt lat="48.24333" lon="-3.59605">
        <ele>120.238575</ele>
        <time>2022-12-11T14:13:53.463Z</time>
      </trkpt>
      <trkpt lat="48.24333" lon="-3.59592">
        <ele>120.354143</ele>
        <time>2022-12-11T14:13:56.459Z</time>
      </trkpt>
      <trkpt lat="48.24334" lon="-3.59577">
        <ele>120.477904</ele>
        <time>2022-12-11T14:13:59.469Z</time>
      </trkpt>
      <trkpt lat="48.24335" lon="-3.59562">
        <ele>120.530992</ele>
        <time>2022-12-11T14:14:02.468Z</time>
      </trkpt>
      <trkpt lat="48.24337" lon="-3.59545">
        <ele>120.545851</ele>
        <time>2022-12-11T14:14:05.458Z</time>
      </trkpt>
      <trkpt lat="48.24338" lon="-3.5953">
        <ele>120.560225</ele>
        <time>2022-12-11T14:14:08.460Z</time>
      </trkpt>
      <trkpt lat="48.24339" lon="-3.59512">
        <ele>120.575991</ele>
        <time>2022-12-11T14:14:12.463Z</time>
      </trkpt>
      <trkpt lat="48.2434" lon="-3.59498">
        <ele>120.5889</ele>
        <time>2022-12-11T14:14:16.466Z</time>
      </trkpt>
      <trkpt lat="48.24341" lon="-3.59483">
        <ele>120.602596</ele>
        <time>2022-12-11T14:14:20.464Z</time>
      </trkpt>
      <trkpt lat="48.24342" lon="-3.59465">
        <ele>120.618235</ele>
        <time>2022-12-11T14:14:24.474Z</time>
      </trkpt>
      <trkpt lat="48.24344" lon="-3.59452">
        <ele>120.630431</ele>
        <time>2022-12-11T14:14:27.481Z</time>
      </trkpt>
      <trkpt lat="48.24345" lon="-3.59438">
        <ele>120.643381</ele>
        <time>2022-12-11T14:14:30.460Z</time>
      </trkpt>
      <trkpt lat="48.24345" lon="-3.5942">
        <ele>120.659246</ele>
        <time>2022-12-11T14:14:34.462Z</time>
      </trkpt>
      <trkpt lat="48.24346" lon="-3.59405">
        <ele>120.673169</ele>
        <time>2022-12-11T14:14:38.476Z</time>
      </trkpt>
      <trkpt lat="48.24347" lon="-3.59391">
        <ele>120.685507</ele>
        <time>2022-12-11T14:14:41.461Z</time>
      </trkpt>
      <trkpt lat="48.24348" lon="-3.59376">
        <ele>120.69878</ele>
        <time>2022-12-11T14:14:44.459Z</time>
      </trkpt>
      <trkpt lat="48.24347" lon="-3.5936">
        <ele>120.713213</ele>
        <time>2022-12-11T14:14:48.464Z</time>
      </trkpt>
      <trkpt lat="48.24347" lon="-3.59345">
        <ele>120.727183</ele>
        <time>2022-12-11T14:14:52.466Z</time>
      </trkpt>
      <trkpt lat="48.24347" lon="-3.59331">
        <ele>120.73963</ele>
        <time>2022-12-11T14:14:55.461Z</time>
      </trkpt>
      <trkpt lat="48.24348" lon="-3.59316">
        <ele>120.753344</ele>
        <time>2022-12-11T14:14:58.464Z</time>
      </trkpt>
      <trkpt lat="48.2435" lon="-3.59301">
        <ele>120.757386</ele>
        <time>2022-12-11T14:15:01.459Z</time>
      </trkpt>
      <trkpt lat="48.24352" lon="-3.59284">
        <ele>120.696594</ele>
        <time>2022-12-11T14:15:05.459Z</time>
      </trkpt>
      <trkpt lat="48.24353" lon="-3.59267">
        <ele>120.63788</ele>
        <time>2022-12-11T14:15:09.466Z</time>
      </trkpt>
      <trkpt lat="48.24354" lon="-3.59253">
        <ele>120.590988</ele>
        <time>2022-12-11T14:15:12.477Z</time>
      </trkpt>
      <trkpt lat="48.24356" lon="-3.59239">
        <ele>120.541459</ele>
        <time>2022-12-11T14:15:15.461Z</time>
      </trkpt>
      <trkpt lat="48.24358" lon="-3.59225">
        <ele>120.490018</ele>
        <time>2022-12-11T14:15:18.460Z</time>
      </trkpt>
      <trkpt lat="48.24359" lon="-3.59208">
        <ele>120.433557</ele>
        <time>2022-12-11T14:15:21.478Z</time>
      </trkpt>
      <trkpt lat="48.24362" lon="-3.59195">
        <ele>120.386581</ele>
        <time>2022-12-11T14:15:24.477Z</time>
      </trkpt>
      <trkpt lat="48.24366" lon="-3.59182">
        <ele>120.33537</ele>
        <time>2022-12-11T14:15:28.463Z</time>
      </trkpt>
      <trkpt lat="48.24373" lon="-3.59169">
        <ele>120.277698</ele>
        <time>2022-12-11T14:15:32.462Z</time>
      </trkpt>
      <trkpt lat="48.24381" lon="-3.59159">
        <ele>120.222768</ele>
        <time>2022-12-11T14:15:36.458Z</time>
      </trkpt>
      <trkpt lat="48.2439" lon="-3.59151">
        <ele>120.170286</ele>
        <time>2022-12-11T14:15:41.468Z</time>
      </trkpt>
      <trkpt lat="48.24401" lon="-3.59144">
        <ele>120.11178</ele>
        <time>2022-12-11T14:15:45.459Z</time>
      </trkpt>
      <trkpt lat="48.2441" lon="-3.59136">
        <ele>120.054567</ele>
        <time>2022-12-11T14:15:49.461Z</time>
      </trkpt>
      <trkpt lat="48.2442" lon="-3.59133">
        <ele>120.001907</ele>
        <time>2022-12-11T14:15:53.460Z</time>
      </trkpt>
      <trkpt lat="48.24429" lon="-3.59127">
        <ele>119.949161</ele>
        <time>2022-12-11T14:15:59.469Z</time>
      </trkpt>
      <trkpt lat="48.24441" lon="-3.59123">
        <ele>119.887276</ele>
        <time>2022-12-11T14:16:02.461Z</time>
      </trkpt>
      <trkpt lat="48.2445" lon="-3.59123">
        <ele>119.840226</ele>
        <time>2022-12-11T14:16:05.459Z</time>
      </trkpt>
      <trkpt lat="48.2446" lon="-3.59125">
        <ele>119.975058</ele>
        <time>2022-12-11T14:16:09.467Z</time>
      </trkpt>
      <trkpt lat="48.2447" lon="-3.59125">
        <ele>120.133962</ele>
        <time>2022-12-11T14:16:28.459Z</time>
      </trkpt>
      <trkpt lat="48.24479" lon="-3.59124">
        <ele>120.277569</ele>
        <time>2022-12-11T14:16:32.458Z</time>
      </trkpt>
      <trkpt lat="48.24488" lon="-3.59126">
        <ele>120.420532</ele>
        <time>2022-12-11T14:16:35.461Z</time>
      </trkpt>
      <trkpt lat="48.24498" lon="-3.59129">
        <ele>120.582284</ele>
        <time>2022-12-11T14:16:38.469Z</time>
      </trkpt>
      <trkpt lat="48.24509" lon="-3.59131">
        <ele>120.749971</ele>
        <time>2022-12-11T14:16:41.460Z</time>
      </trkpt>
      <trkpt lat="48.24519" lon="-3.59131">
        <ele>120.905699</ele>
        <time>2022-12-11T14:16:45.465Z</time>
      </trkpt>
      <trkpt lat="48.24531" lon="-3.5913">
        <ele>121.093179</ele>
        <time>2022-12-11T14:16:49.485Z</time>
      </trkpt>
      <trkpt lat="48.24542" lon="-3.5913">
        <ele>121.270978</ele>
        <time>2022-12-11T14:16:52.465Z</time>
      </trkpt>
      <trkpt lat="48.24553" lon="-3.59132">
        <ele>121.439602</ele>
        <time>2022-12-11T14:16:55.466Z</time>
      </trkpt>
      <trkpt lat="48.24562" lon="-3.59136">
        <ele>121.586662</ele>
        <time>2022-12-11T14:16:58.459Z</time>
      </trkpt>
      <trkpt lat="48.24571" lon="-3.59134">
        <ele>121.742234</ele>
        <time>2022-12-11T14:17:02.464Z</time>
      </trkpt>
      <trkpt lat="48.24582" lon="-3.59131">
        <ele>121.912309</ele>
        <time>2022-12-11T14:17:06.460Z</time>
      </trkpt>
      <trkpt lat="48.24592" lon="-3.59129">
        <ele>122.070392</ele>
        <time>2022-12-11T14:17:09.484Z</time>
      </trkpt>
      <trkpt lat="48.24601" lon="-3.59127">
        <ele>122.215912</ele>
        <time>2022-12-11T14:17:12.457Z</time>
      </trkpt>
      <trkpt lat="48.24611" lon="-3.59121">
        <ele>122.385269</ele>
        <time>2022-12-11T14:17:16.462Z</time>
      </trkpt>
      <trkpt lat="48.2462" lon="-3.59114">
        <ele>122.537412</ele>
        <time>2022-12-11T14:17:19.465Z</time>
      </trkpt>
      <trkpt lat="48.24627" lon="-3.59107">
        <ele>122.651621</ele>
        <time>2022-12-11T14:17:22.468Z</time>
      </trkpt>
      <trkpt lat="48.24636" lon="-3.59096">
        <ele>122.516289</ele>
        <time>2022-12-11T14:17:26.459Z</time>
      </trkpt>
      <trkpt lat="48.24643" lon="-3.59084">
        <ele>122.392334</ele>
        <time>2022-12-11T14:17:29.455Z</time>
      </trkpt>
      <trkpt lat="48.24649" lon="-3.59074">
        <ele>122.284059</ele>
        <time>2022-12-11T14:17:32.464Z</time>
      </trkpt>
      <trkpt lat="48.24655" lon="-3.5906">
        <ele>122.151296</ele>
        <time>2022-12-11T14:17:36.466Z</time>
      </trkpt>
      <trkpt lat="48.24661" lon="-3.59049">
        <ele>122.039106</ele>
        <time>2022-12-11T14:17:39.459Z</time>
      </trkpt>
      <trkpt lat="48.24664" lon="-3.59034">
        <ele>121.915664</ele>
        <time>2022-12-11T14:17:42.459Z</time>
      </trkpt>
      <trkpt lat="48.24668" lon="-3.59021">
        <ele>121.804653</ele>
        <time>2022-12-11T14:17:45.463Z</time>
      </trkpt>
      <trkpt lat="48.24672" lon="-3.59006">
        <ele>121.669815</ele>
        <time>2022-12-11T14:17:49.462Z</time>
      </trkpt>
      <trkpt lat="48.24672" lon="-3.58991">
        <ele>121.549453</ele>
        <time>2022-12-11T14:17:52.458Z</time>
      </trkpt>
      <trkpt lat="48.24673" lon="-3.58973">
        <ele>121.407552</ele>
        <time>2022-12-11T14:17:56.457Z</time>
      </trkpt>
      <trkpt lat="48.24672" lon="-3.58959">
        <ele>121.29747</ele>
        <time>2022-12-11T14:17:59.458Z</time>
      </trkpt>
      <trkpt lat="48.24672" lon="-3.58944">
        <ele>121.178629</ele>
        <time>2022-12-11T14:18:02.462Z</time>
      </trkpt>
      <trkpt lat="48.24669" lon="-3.58931">
        <ele>121.068175</ele>
        <time>2022-12-11T14:18:05.459Z</time>
      </trkpt>
      <trkpt lat="48.24665" lon="-3.58917">
        <ele>120.948138</ele>
        <time>2022-12-11T14:18:09.463Z</time>
      </trkpt>
      <trkpt lat="48.24661" lon="-3.58904">
        <ele>120.831334</ele>
        <time>2022-12-11T14:18:12.473Z</time>
      </trkpt>
      <trkpt lat="48.24655" lon="-3.5889">
        <ele>120.705301</ele>
        <time>2022-12-11T14:18:15.475Z</time>
      </trkpt>
      <trkpt lat="48.24647" lon="-3.58878">
        <ele>120.564894</ele>
        <time>2022-12-11T14:18:18.463Z</time>
      </trkpt>
      <trkpt lat="48.2464" lon="-3.58867">
        <ele>120.584156</ele>
        <time>2022-12-11T14:18:21.459Z</time>
      </trkpt>
      <trkpt lat="48.24633" lon="-3.58856">
        <ele>120.725098</ele>
        <time>2022-12-11T14:18:24.466Z</time>
      </trkpt>
      <trkpt lat="48.24625" lon="-3.58844">
        <ele>120.868091</ele>
        <time>2022-12-11T14:18:27.470Z</time>
      </trkpt>
      <trkpt lat="48.24618" lon="-3.58833">
        <ele>121.003069</ele>
        <time>2022-12-11T14:18:30.462Z</time>
      </trkpt>
      <trkpt lat="48.2461" lon="-3.58821">
        <ele>121.152595</ele>
        <time>2022-12-11T14:18:33.471Z</time>
      </trkpt>
      <trkpt lat="48.24603" lon="-3.58808">
        <ele>121.293408</ele>
        <time>2022-12-11T14:18:36.460Z</time>
      </trkpt>
      <trkpt lat="48.24597" lon="-3.58799">
        <ele>121.415279</ele>
        <time>2022-12-11T14:18:39.462Z</time>
      </trkpt>
      <trkpt lat="48.24589" lon="-3.58787">
        <ele>121.557639</ele>
        <time>2022-12-11T14:18:43.467Z</time>
      </trkpt>
      <trkpt lat="48.24581" lon="-3.58776">
        <ele>121.705348</ele>
        <time>2022-12-11T14:18:47.461Z</time>
      </trkpt>
      <trkpt lat="48.24573" lon="-3.58762">
        <ele>121.859157</ele>
        <time>2022-12-11T14:18:51.481Z</time>
      </trkpt>
      <trkpt lat="48.24567" lon="-3.58752">
        <ele>121.98506</ele>
        <time>2022-12-11T14:18:54.467Z</time>
      </trkpt>
      <trkpt lat="48.24558" lon="-3.58739">
        <ele>122.144479</ele>
        <time>2022-12-11T14:18:58.467Z</time>
      </trkpt>
      <trkpt lat="48.24552" lon="-3.58728">
        <ele>122.272332</ele>
        <time>2022-12-11T14:19:01.467Z</time>
      </trkpt>
      <trkpt lat="48.24545" lon="-3.58717">
        <ele>122.405441</ele>
        <time>2022-12-11T14:19:04.485Z</time>
      </trkpt>
      <trkpt lat="48.24538" lon="-3.58707">
        <ele>122.528686</ele>
        <time>2022-12-11T14:19:07.492Z</time>
      </trkpt>
      <trkpt lat="48.2453" lon="-3.58697">
        <ele>122.672935</ele>
        <time>2022-12-11T14:19:11.463Z</time>
      </trkpt>
      <trkpt lat="48.2452" lon="-3.58691">
        <ele>122.807152</ele>
        <time>2022-12-11T14:19:15.469Z</time>
      </trkpt>
      <trkpt lat="48.2451" lon="-3.58685">
        <ele>122.81325</ele>
        <time>2022-12-11T14:19:20.459Z</time>
      </trkpt>
      <trkpt lat="48.24502" lon="-3.58672">
        <ele>122.665827</ele>
        <time>2022-12-11T14:19:24.486Z</time>
      </trkpt>
      <trkpt lat="48.24497" lon="-3.58659">
        <ele>122.54129</ele>
        <time>2022-12-11T14:19:27.464Z</time>
      </trkpt>
      <trkpt lat="48.24493" lon="-3.58642">
        <ele>122.391118</ele>
        <time>2022-12-11T14:19:31.461Z</time>
      </trkpt>
      <trkpt lat="48.2449" lon="-3.58629">
        <ele>122.27071</ele>
        <time>2022-12-11T14:19:34.463Z</time>
      </trkpt>
      <trkpt lat="48.24486" lon="-3.58615">
        <ele>122.143269</ele>
        <time>2022-12-11T14:19:37.461Z</time>
      </trkpt>
      <trkpt lat="48.24482" lon="-3.586">
        <ele>122.009788</ele>
        <time>2022-12-11T14:19:40.473Z</time>
      </trkpt>
      <trkpt lat="48.24481" lon="-3.58584">
        <ele>121.876161</ele>
        <time>2022-12-11T14:19:43.466Z</time>
      </trkpt>
      <trkpt lat="48.2448" lon="-3.58567">
        <ele>121.732358</ele>
        <time>2022-12-11T14:19:46.461Z</time>
      </trkpt>
      <trkpt lat="48.24481" lon="-3.58551">
        <ele>121.598184</ele>
        <time>2022-12-11T14:19:49.458Z</time>
      </trkpt>
      <trkpt lat="48.24483" lon="-3.58536">
        <ele>121.472341</ele>
        <time>2022-12-11T14:19:52.476Z</time>
      </trkpt>
      <trkpt lat="48.24487" lon="-3.58522">
        <ele>121.346263</ele>
        <time>2022-12-11T14:19:55.462Z</time>
      </trkpt>
      <trkpt lat="48.24492" lon="-3.58506">
        <ele>121.204158</ele>
        <time>2022-12-11T14:19:58.465Z</time>
      </trkpt>
      <trkpt lat="48.24498" lon="-3.58492">
        <ele>121.057519</ele>
        <time>2022-12-11T14:20:01.471Z</time>
      </trkpt>
      <trkpt lat="48.24507" lon="-3.58479">
        <ele>120.909229</ele>
        <time>2022-12-11T14:20:04.470Z</time>
      </trkpt>
      <trkpt lat="48.24516" lon="-3.58468">
        <ele>120.755832</ele>
        <time>2022-12-11T14:20:07.463Z</time>
      </trkpt>
      <trkpt lat="48.24526" lon="-3.58459">
        <ele>120.614776</ele>
        <time>2022-12-11T14:20:10.480Z</time>
      </trkpt>
      <trkpt lat="48.24535" lon="-3.5845">
        <ele>120.491777</ele>
        <time>2022-12-11T14:20:13.460Z</time>
      </trkpt>
      <trkpt lat="48.24543" lon="-3.58441">
        <ele>120.378344</ele>
        <time>2022-12-11T14:20:16.473Z</time>
      </trkpt>
      <trkpt lat="48.24554" lon="-3.58432">
        <ele>120.239077</ele>
        <time>2022-12-11T14:20:19.462Z</time>
      </trkpt>
      <trkpt lat="48.24562" lon="-3.58424">
        <ele>120.124798</ele>
        <time>2022-12-11T14:20:22.463Z</time>
      </trkpt>
      <trkpt lat="48.24572" lon="-3.58416">
        <ele>119.999004</ele>
        <time>2022-12-11T14:20:25.470Z</time>
      </trkpt>
      <trkpt lat="48.24583" lon="-3.58408">
        <ele>119.8549</ele>
        <time>2022-12-11T14:20:28.463Z</time>
      </trkpt>
      <trkpt lat="48.24594" lon="-3.584">
        <ele>119.718515</ele>
        <time>2022-12-11T14:20:31.473Z</time>
      </trkpt>
      <trkpt lat="48.24603" lon="-3.58393">
        <ele>119.599498</ele>
        <time>2022-12-11T14:20:34.458Z</time>
      </trkpt>
      <trkpt lat="48.24611" lon="-3.58385">
        <ele>119.49668</ele>
        <time>2022-12-11T14:20:37.463Z</time>
      </trkpt>
      <trkpt lat="48.24619" lon="-3.58375">
        <ele>119.374318</ele>
        <time>2022-12-11T14:20:41.462Z</time>
      </trkpt>
      <trkpt lat="48.24628" lon="-3.58368">
        <ele>119.259591</ele>
        <time>2022-12-11T14:20:44.462Z</time>
      </trkpt>
      <trkpt lat="48.24638" lon="-3.58363">
        <ele>119.141484</ele>
        <time>2022-12-11T14:20:47.471Z</time>
      </trkpt>
      <trkpt lat="48.24648" lon="-3.58355">
        <ele>119.008517</ele>
        <time>2022-12-11T14:20:51.477Z</time>
      </trkpt>
      <trkpt lat="48.24657" lon="-3.58348">
        <ele>118.896882</ele>
        <time>2022-12-11T14:20:54.466Z</time>
      </trkpt>
      <trkpt lat="48.24666" lon="-3.5834">
        <ele>118.777805</ele>
        <time>2022-12-11T14:20:57.479Z</time>
      </trkpt>
      <trkpt lat="48.24675" lon="-3.58333">
        <ele>118.661567</ele>
        <time>2022-12-11T14:21:00.459Z</time>
      </trkpt>
      <trkpt lat="48.24683" lon="-3.58326">
        <ele>118.647208</ele>
        <time>2022-12-11T14:21:03.477Z</time>
      </trkpt>
      <trkpt lat="48.24693" lon="-3.58317">
        <ele>119.050774</ele>
        <time>2022-12-11T14:21:07.464Z</time>
      </trkpt>
      <trkpt lat="48.24703" lon="-3.58307">
        <ele>119.445933</ele>
        <time>2022-12-11T14:21:11.476Z</time>
      </trkpt>
      <trkpt lat="48.24712" lon="-3.58298">
        <ele>119.815331</ele>
        <time>2022-12-11T14:21:15.476Z</time>
      </trkpt>
      <trkpt lat="48.24721" lon="-3.58289">
        <ele>120.198229</ele>
        <time>2022-12-11T14:21:19.479Z</time>
      </trkpt>
      <trkpt lat="48.24731" lon="-3.5828">
        <ele>120.583712</ele>
        <time>2022-12-11T14:21:23.470Z</time>
      </trkpt>
      <trkpt lat="48.2474" lon="-3.58275">
        <ele>120.901413</ele>
        <time>2022-12-11T14:21:26.472Z</time>
      </trkpt>
      <trkpt lat="48.24749" lon="-3.58269">
        <ele>121.232962</ele>
        <time>2022-12-11T14:21:29.478Z</time>
      </trkpt>
      <trkpt lat="48.24758" lon="-3.58259">
        <ele>121.613024</ele>
        <time>2022-12-11T14:21:33.469Z</time>
      </trkpt>
      <trkpt lat="48.24768" lon="-3.5825">
        <ele>122.021291</ele>
        <time>2022-12-11T14:21:37.464Z</time>
      </trkpt>
      <trkpt lat="48.24776" lon="-3.58241">
        <ele>122.343625</ele>
        <time>2022-12-11T14:21:40.459Z</time>
      </trkpt>
      <trkpt lat="48.24783" lon="-3.58232">
        <ele>122.667614</ele>
        <time>2022-12-11T14:21:43.458Z</time>
      </trkpt>
      <trkpt lat="48.2479" lon="-3.58218">
        <ele>123.047722</ele>
        <time>2022-12-11T14:21:47.464Z</time>
      </trkpt>
      <trkpt lat="48.24795" lon="-3.58205">
        <ele>123.394777</ele>
        <time>2022-12-11T14:21:51.504Z</time>
      </trkpt>
      <trkpt lat="48.248" lon="-3.58193">
        <ele>123.714031</ele>
        <time>2022-12-11T14:21:54.462Z</time>
      </trkpt>
      <trkpt lat="48.24804" lon="-3.5818">
        <ele>124.04875</ele>
        <time>2022-12-11T14:21:57.460Z</time>
      </trkpt>
      <trkpt lat="48.24808" lon="-3.58166">
        <ele>124.389417</ele>
        <time>2022-12-11T14:22:00.473Z</time>
      </trkpt>
      <trkpt lat="48.24811" lon="-3.58153">
        <ele>124.693869</ele>
        <time>2022-12-11T14:22:03.463Z</time>
      </trkpt>
      <trkpt lat="48.24813" lon="-3.58137">
        <ele>124.371663</ele>
        <time>2022-12-11T14:22:08.462Z</time>
      </trkpt>
      <trkpt lat="48.24815" lon="-3.58122">
        <ele>124.080091</ele>
        <time>2022-12-11T14:22:12.461Z</time>
      </trkpt>
      <trkpt lat="48.24815" lon="-3.58108">
        <ele>123.793651</ele>
        <time>2022-12-11T14:22:17.475Z</time>
      </trkpt>
      <trkpt lat="48.24816" lon="-3.58093">
        <ele>123.501336</ele>
        <time>2022-12-11T14:22:22.463Z</time>
      </trkpt>
      <trkpt lat="48.24818" lon="-3.58078">
        <ele>123.217464</ele>
        <time>2022-12-11T14:22:27.461Z</time>
      </trkpt>
      <trkpt lat="48.2482" lon="-3.58064">
        <ele>122.926359</ele>
        <time>2022-12-11T14:22:32.468Z</time>
      </trkpt>
      <trkpt lat="48.24822" lon="-3.5805">
        <ele>122.648082</ele>
        <time>2022-12-11T14:22:37.463Z</time>
      </trkpt>
      <trkpt lat="48.24823" lon="-3.58035">
        <ele>122.36421</ele>
        <time>2022-12-11T14:22:43.466Z</time>
      </trkpt>
      <trkpt lat="48.24824" lon="-3.58019">
        <ele>122.048027</ele>
        <time>2022-12-11T14:22:49.464Z</time>
      </trkpt>
      <trkpt lat="48.24825" lon="-3.58004">
        <ele>121.748305</ele>
        <time>2022-12-11T14:22:52.471Z</time>
      </trkpt>
      <trkpt lat="48.24827" lon="-3.57988">
        <ele>121.429334</ele>
        <time>2022-12-11T14:22:54.475Z</time>
      </trkpt>
      <trkpt lat="48.24827" lon="-3.57972">
        <ele>121.126939</ele>
        <time>2022-12-11T14:22:56.465Z</time>
      </trkpt>
      <trkpt lat="48.24828" lon="-3.57955">
        <ele>120.796736</ele>
        <time>2022-12-11T14:22:59.469Z</time>
      </trkpt>
      <trkpt lat="48.2483" lon="-3.57931">
        <ele>120.317923</ele>
        <time>2022-12-11T14:23:01.473Z</time>
      </trkpt>
      <trkpt lat="48.2483" lon="-3.57914">
        <ele>119.988654</ele>
        <time>2022-12-11T14:23:04.465Z</time>
      </trkpt>
      <trkpt lat="48.24832" lon="-3.57898">
        <ele>119.680144</ele>
        <time>2022-12-11T14:23:07.464Z</time>
      </trkpt>
      <trkpt lat="48.24833" lon="-3.57881">
        <ele>119.432577</ele>
        <time>2022-12-11T14:23:11.461Z</time>
      </trkpt>
      <trkpt lat="48.24835" lon="-3.57865">
        <ele>119.42138</ele>
        <time>2022-12-11T14:23:15.462Z</time>
      </trkpt>
      <trkpt lat="48.24836" lon="-3.57851">
        <ele>119.411704</ele>
        <time>2022-12-11T14:23:18.467Z</time>
      </trkpt>
      <trkpt lat="48.24837" lon="-3.57836">
        <ele>119.401243</ele>
        <time>2022-12-11T14:23:21.478Z</time>
      </trkpt>
      <trkpt lat="48.24838" lon="-3.5782">
        <ele>119.390039</ele>
        <time>2022-12-11T14:23:24.468Z</time>
      </trkpt>
      <trkpt lat="48.24839" lon="-3.57805">
        <ele>119.379396</ele>
        <time>2022-12-11T14:23:27.463Z</time>
      </trkpt>
      <trkpt lat="48.2484" lon="-3.57787">
        <ele>119.366737</ele>
        <time>2022-12-11T14:23:31.461Z</time>
      </trkpt>
      <trkpt lat="48.24841" lon="-3.57772">
        <ele>119.356056</ele>
        <time>2022-12-11T14:23:34.463Z</time>
      </trkpt>
      <trkpt lat="48.24843" lon="-3.57756">
        <ele>119.344669</ele>
        <time>2022-12-11T14:23:37.461Z</time>
      </trkpt>
      <trkpt lat="48.24844" lon="-3.57741">
        <ele>119.333866</ele>
        <time>2022-12-11T14:23:40.467Z</time>
      </trkpt>
      <trkpt lat="48.24846" lon="-3.57726">
        <ele>119.323562</ele>
        <time>2022-12-11T14:23:43.472Z</time>
      </trkpt>
      <trkpt lat="48.24847" lon="-3.57708">
        <ele>119.31096</ele>
        <time>2022-12-11T14:23:47.465Z</time>
      </trkpt>
      <trkpt lat="48.24849" lon="-3.57693">
        <ele>119.300033</ele>
        <time>2022-12-11T14:23:50.464Z</time>
      </trkpt>
      <trkpt lat="48.2485" lon="-3.57678">
        <ele>119.289335</ele>
        <time>2022-12-11T14:23:53.465Z</time>
      </trkpt>
      <trkpt lat="48.24852" lon="-3.57663">
        <ele>119.279377</ele>
        <time>2022-12-11T14:23:56.470Z</time>
      </trkpt>
      <trkpt lat="48.24853" lon="-3.57646">
        <ele>119.267052</ele>
        <time>2022-12-11T14:24:00.465Z</time>
      </trkpt>
      <trkpt lat="48.24854" lon="-3.57631">
        <ele>119.256788</ele>
        <time>2022-12-11T14:24:03.472Z</time>
      </trkpt>
      <trkpt lat="48.24856" lon="-3.57616">
        <ele>119.272973</ele>
        <time>2022-12-11T14:24:06.461Z</time>
      </trkpt>
      <trkpt lat="48.24858" lon="-3.57602">
        <ele>119.499208</ele>
        <time>2022-12-11T14:24:09.460Z</time>
      </trkpt>
      <trkpt lat="48.24859" lon="-3.57588">
        <ele>119.711661</ele>
        <time>2022-12-11T14:24:12.467Z</time>
      </trkpt>
      <trkpt lat="48.2486" lon="-3.5757">
        <ele>119.986722</ele>
        <time>2022-12-11T14:24:16.469Z</time>
      </trkpt>
      <trkpt lat="48.24862" lon="-3.57555">
        <ele>120.210242</ele>
        <time>2022-12-11T14:24:19.466Z</time>
      </trkpt>
      <trkpt lat="48.24863" lon="-3.57541">
        <ele>120.433833</ele>
        <time>2022-12-11T14:24:22.470Z</time>
      </trkpt>
      <trkpt lat="48.24865" lon="-3.57523">
        <ele>120.700457</ele>
        <time>2022-12-11T14:24:26.459Z</time>
      </trkpt>
      <trkpt lat="48.24865" lon="-3.57506">
        <ele>120.957641</ele>
        <time>2022-12-11T14:24:30.469Z</time>
      </trkpt>
      <trkpt lat="48.24866" lon="-3.57493">
        <ele>121.164278</ele>
        <time>2022-12-11T14:24:33.459Z</time>
      </trkpt>
      <trkpt lat="48.24867" lon="-3.57479">
        <ele>121.385343</ele>
        <time>2022-12-11T14:24:36.463Z</time>
      </trkpt>
      <trkpt lat="48.24869" lon="-3.57462">
        <ele>121.639337</ele>
        <time>2022-12-11T14:24:40.462Z</time>
      </trkpt>
      <trkpt lat="48.2487" lon="-3.57446">
        <ele>121.887847</ele>
        <time>2022-12-11T14:24:44.465Z</time>
      </trkpt>
      <trkpt lat="48.24872" lon="-3.5743">
        <ele>122.134849</ele>
        <time>2022-12-11T14:24:48.462Z</time>
      </trkpt>
      <trkpt lat="48.24873" lon="-3.57414">
        <ele>122.382157</ele>
        <time>2022-12-11T14:24:52.465Z</time>
      </trkpt>
      <trkpt lat="48.24875" lon="-3.57397">
        <ele>122.640328</ele>
        <time>2022-12-11T14:24:56.464Z</time>
      </trkpt>
      <trkpt lat="48.24876" lon="-3.57379">
        <ele>122.907538</ele>
        <time>2022-12-11T14:25:00.462Z</time>
      </trkpt>
      <trkpt lat="48.24877" lon="-3.57366">
        <ele>123.11746</ele>
        <time>2022-12-11T14:25:03.459Z</time>
      </trkpt>
      <trkpt lat="48.24879" lon="-3.57351">
        <ele>123.345515</ele>
        <time>2022-12-11T14:25:06.460Z</time>
      </trkpt>
      <trkpt lat="48.24879" lon="-3.57336">
        <ele>123.337196</ele>
        <time>2022-12-11T14:25:09.463Z</time>
      </trkpt>
      <trkpt lat="48.2488" lon="-3.57322">
        <ele>123.318547</ele>
        <time>2022-12-11T14:25:12.465Z</time>
      </trkpt>
      <trkpt lat="48.24882" lon="-3.57304">
        <ele>123.295287</ele>
        <time>2022-12-11T14:25:16.465Z</time>
      </trkpt>
      <trkpt lat="48.24884" lon="-3.5729">
        <ele>123.275923</ele>
        <time>2022-12-11T14:25:19.467Z</time>
      </trkpt>
      <trkpt lat="48.24885" lon="-3.57276">
        <ele>123.257358</ele>
        <time>2022-12-11T14:25:22.471Z</time>
      </trkpt>
      <trkpt lat="48.24885" lon="-3.57261">
        <ele>123.238393</ele>
        <time>2022-12-11T14:25:25.462Z</time>
      </trkpt>
      <trkpt lat="48.24887" lon="-3.57248">
        <ele>123.220415</ele>
        <time>2022-12-11T14:25:28.461Z</time>
      </trkpt>
      <trkpt lat="48.24889" lon="-3.57234">
        <ele>123.202136</ele>
        <time>2022-12-11T14:25:31.466Z</time>
      </trkpt>
      <trkpt lat="48.2489" lon="-3.5722">
        <ele>123.182805</ele>
        <time>2022-12-11T14:25:34.469Z</time>
      </trkpt>
      <trkpt lat="48.24891" lon="-3.57205">
        <ele>123.163041</ele>
        <time>2022-12-11T14:25:38.466Z</time>
      </trkpt>
      <trkpt lat="48.24893" lon="-3.57188">
        <ele>123.140818</ele>
        <time>2022-12-11T14:25:42.466Z</time>
      </trkpt>
      <trkpt lat="48.24895" lon="-3.57173">
        <ele>123.120865</ele>
        <time>2022-12-11T14:25:45.467Z</time>
      </trkpt>
      <trkpt lat="48.24896" lon="-3.57158">
        <ele>123.100865</ele>
        <time>2022-12-11T14:25:48.470Z</time>
      </trkpt>
      <trkpt lat="48.24897" lon="-3.57143">
        <ele>123.080122</ele>
        <time>2022-12-11T14:25:51.461Z</time>
      </trkpt>
      <trkpt lat="48.24899" lon="-3.57128">
        <ele>123.061009</ele>
        <time>2022-12-11T14:25:54.462Z</time>
      </trkpt>
      <trkpt lat="48.24901" lon="-3.5711">
        <ele>123.037363</ele>
        <time>2022-12-11T14:25:58.459Z</time>
      </trkpt>
      <trkpt lat="48.24902" lon="-3.57096">
        <ele>123.018292</ele>
        <time>2022-12-11T14:26:01.477Z</time>
      </trkpt>
      <trkpt lat="48.24905" lon="-3.57082">
        <ele>122.999997</ele>
        <time>2022-12-11T14:26:04.464Z</time>
      </trkpt>
      <trkpt lat="48.2491" lon="-3.57069">
        <ele>122.991661</ele>
        <time>2022-12-11T14:26:07.484Z</time>
      </trkpt>
      <trkpt lat="48.24915" lon="-3.57056">
        <ele>122.982998</ele>
        <time>2022-12-11T14:26:10.463Z</time>
      </trkpt>
      <trkpt lat="48.24922" lon="-3.57045">
        <ele>122.974822</ele>
        <time>2022-12-11T14:26:13.466Z</time>
      </trkpt>
      <trkpt lat="48.24928" lon="-3.57035">
        <ele>122.966871</ele>
        <time>2022-12-11T14:26:16.464Z</time>
      </trkpt>
      <trkpt lat="48.24936" lon="-3.57025">
        <ele>122.95827</ele>
        <time>2022-12-11T14:26:19.475Z</time>
      </trkpt>
      <trkpt lat="48.24944" lon="-3.57016">
        <ele>122.949576</ele>
        <time>2022-12-11T14:26:22.494Z</time>
      </trkpt>
      <trkpt lat="48.24952" lon="-3.57007">
        <ele>122.940914</ele>
        <time>2022-12-11T14:26:25.464Z</time>
      </trkpt>
      <trkpt lat="48.24961" lon="-3.56998">
        <ele>122.932221</ele>
        <time>2022-12-11T14:26:28.467Z</time>
      </trkpt>
      <trkpt lat="48.24967" lon="-3.56988">
        <ele>122.924552</ele>
        <time>2022-12-11T14:26:31.459Z</time>
      </trkpt>
      <trkpt lat="48.24976" lon="-3.56979">
        <ele>122.91489</ele>
        <time>2022-12-11T14:26:35.465Z</time>
      </trkpt>
      <trkpt lat="48.24983" lon="-3.5697">
        <ele>122.907244</ele>
        <time>2022-12-11T14:26:38.460Z</time>
      </trkpt>
      <trkpt lat="48.24991" lon="-3.56961">
        <ele>122.898959</ele>
        <time>2022-12-11T14:26:41.479Z</time>
      </trkpt>
      <trkpt lat="48.25" lon="-3.56955">
        <ele>122.890958</ele>
        <time>2022-12-11T14:26:44.462Z</time>
      </trkpt>
      <trkpt lat="48.25008" lon="-3.56944">
        <ele>122.881721</ele>
        <time>2022-12-11T14:26:48.479Z</time>
      </trkpt>
      <trkpt lat="48.25015" lon="-3.56936">
        <ele>122.873605</ele>
        <time>2022-12-11T14:26:51.463Z</time>
      </trkpt>
      <trkpt lat="48.25026" lon="-3.56928">
        <ele>122.863403</ele>
        <time>2022-12-11T14:26:55.458Z</time>
      </trkpt>
      <trkpt lat="48.25036" lon="-3.56918">
        <ele>122.853371</ele>
        <time>2022-12-11T14:26:59.466Z</time>
      </trkpt>
      <trkpt lat="48.25044" lon="-3.56911">
        <ele>122.882922</ele>
        <time>2022-12-11T14:27:02.470Z</time>
      </trkpt>
      <trkpt lat="48.25053" lon="-3.56905">
        <ele>122.972147</ele>
        <time>2022-12-11T14:27:05.459Z</time>
      </trkpt>
      <trkpt lat="48.25062" lon="-3.56895">
        <ele>123.074504</ele>
        <time>2022-12-11T14:27:09.469Z</time>
      </trkpt>
      <trkpt lat="48.2507" lon="-3.56885">
        <ele>123.179127</ele>
        <time>2022-12-11T14:27:13.465Z</time>
      </trkpt>
      <trkpt lat="48.25077" lon="-3.56873">
        <ele>123.273662</ele>
        <time>2022-12-11T14:27:16.458Z</time>
      </trkpt>
      <trkpt lat="48.25086" lon="-3.56867">
        <ele>123.366461</ele>
        <time>2022-12-11T14:27:20.475Z</time>
      </trkpt>
      <trkpt lat="48.25093" lon="-3.56856">
        <ele>123.465566</ele>
        <time>2022-12-11T14:27:24.466Z</time>
      </trkpt>
      <trkpt lat="48.251" lon="-3.56845">
        <ele>123.563676</ele>
        <time>2022-12-11T14:27:28.464Z</time>
      </trkpt>
      <trkpt lat="48.25106" lon="-3.5683">
        <ele>123.671995</ele>
        <time>2022-12-11T14:27:32.466Z</time>
      </trkpt>
      <trkpt lat="48.25111" lon="-3.56818">
        <ele>123.758119</ele>
        <time>2022-12-11T14:27:35.462Z</time>
      </trkpt>
      <trkpt lat="48.25114" lon="-3.56805">
        <ele>123.845537</ele>
        <time>2022-12-11T14:27:38.461Z</time>
      </trkpt>
      <trkpt lat="48.25115" lon="-3.5679">
        <ele>123.935956</ele>
        <time>2022-12-11T14:27:41.461Z</time>
      </trkpt>
      <trkpt lat="48.25117" lon="-3.56776">
        <ele>124.0298</ele>
        <time>2022-12-11T14:27:44.469Z</time>
      </trkpt>
      <trkpt lat="48.25117" lon="-3.5676">
        <ele>124.128197</ele>
        <time>2022-12-11T14:27:47.463Z</time>
      </trkpt>
      <trkpt lat="48.25118" lon="-3.56746">
        <ele>124.214809</ele>
        <time>2022-12-11T14:27:50.458Z</time>
      </trkpt>
      <trkpt lat="48.25118" lon="-3.56731">
        <ele>124.310086</ele>
        <time>2022-12-11T14:27:53.463Z</time>
      </trkpt>
      <trkpt lat="48.25118" lon="-3.56716">
        <ele>124.404723</ele>
        <time>2022-12-11T14:27:56.460Z</time>
      </trkpt>
      <trkpt lat="48.25118" lon="-3.56699">
        <ele>124.510786</ele>
        <time>2022-12-11T14:28:00.475Z</time>
      </trkpt>
      <trkpt lat="48.25117" lon="-3.56681">
        <ele>124.722476</ele>
        <time>2022-12-11T14:28:04.464Z</time>
      </trkpt>
      <trkpt lat="48.25116" lon="-3.56664">
        <ele>124.94983</ele>
        <time>2022-12-11T14:28:08.462Z</time>
      </trkpt>
      <trkpt lat="48.25115" lon="-3.5665">
        <ele>125.149225</ele>
        <time>2022-12-11T14:28:12.467Z</time>
      </trkpt>
      <trkpt lat="48.25114" lon="-3.56636">
        <ele>125.347668</ele>
        <time>2022-12-11T14:28:16.458Z</time>
      </trkpt>
      <trkpt lat="48.25114" lon="-3.56619">
        <ele>125.579838</ele>
        <time>2022-12-11T14:28:20.463Z</time>
      </trkpt>
      <trkpt lat="48.25114" lon="-3.56604">
        <ele>125.774847</ele>
        <time>2022-12-11T14:28:23.466Z</time>
      </trkpt>
      <trkpt lat="48.25113" lon="-3.56589">
        <ele>125.981676</ele>
        <time>2022-12-11T14:28:26.466Z</time>
      </trkpt>
      <trkpt lat="48.25112" lon="-3.56574">
        <ele>126.193978</ele>
        <time>2022-12-11T14:28:29.464Z</time>
      </trkpt>
      <trkpt lat="48.25112" lon="-3.56559">
        <ele>126.406929</ele>
        <time>2022-12-11T14:28:32.463Z</time>
      </trkpt>
      <trkpt lat="48.25112" lon="-3.56542">
        <ele>126.633533</ele>
        <time>2022-12-11T14:28:36.463Z</time>
      </trkpt>
      <trkpt lat="48.25111" lon="-3.56527">
        <ele>126.845514</ele>
        <time>2022-12-11T14:28:39.465Z</time>
      </trkpt>
      <trkpt lat="48.25111" lon="-3.5651">
        <ele>127.072568</ele>
        <time>2022-12-11T14:28:42.464Z</time>
      </trkpt>
      <trkpt lat="48.2511" lon="-3.56493">
        <ele>127.306766</ele>
        <time>2022-12-11T14:28:45.468Z</time>
      </trkpt>
      <trkpt lat="48.25109" lon="-3.56476">
        <ele>127.543298</ele>
        <time>2022-12-11T14:28:48.460Z</time>
      </trkpt>
      <trkpt lat="48.25109" lon="-3.56461">
        <ele>127.745215</ele>
        <time>2022-12-11T14:28:51.471Z</time>
      </trkpt>
      <trkpt lat="48.25109" lon="-3.56444">
        <ele>127.976078</ele>
        <time>2022-12-11T14:28:54.473Z</time>
      </trkpt>
      <trkpt lat="48.25108" lon="-3.56431">
        <ele>128.167367</ele>
        <time>2022-12-11T14:28:57.463Z</time>
      </trkpt>
      <trkpt lat="48.25108" lon="-3.56415">
        <ele>128.242097</ele>
        <time>2022-12-11T14:29:00.470Z</time>
      </trkpt>
      <trkpt lat="48.25107" lon="-3.56399">
        <ele>128.227139</ele>
        <time>2022-12-11T14:29:03.465Z</time>
      </trkpt>
      <trkpt lat="48.25107" lon="-3.56383">
        <ele>128.212142</ele>
        <time>2022-12-11T14:29:06.468Z</time>
      </trkpt>
      <trkpt lat="48.25106" lon="-3.56367">
        <ele>128.19695</ele>
        <time>2022-12-11T14:29:09.465Z</time>
      </trkpt>
      <trkpt lat="48.25107" lon="-3.56349">
        <ele>128.181114</ele>
        <time>2022-12-11T14:29:12.476Z</time>
      </trkpt>
      <trkpt lat="48.25108" lon="-3.56332">
        <ele>128.165143</ele>
        <time>2022-12-11T14:29:15.466Z</time>
      </trkpt>
      <trkpt lat="48.25111" lon="-3.56318">
        <ele>128.151616</ele>
        <time>2022-12-11T14:29:18.467Z</time>
      </trkpt>
      <trkpt lat="48.25113" lon="-3.56305">
        <ele>128.13839</ele>
        <time>2022-12-11T14:29:21.470Z</time>
      </trkpt>
      <trkpt lat="48.25117" lon="-3.56291">
        <ele>128.124344</ele>
        <time>2022-12-11T14:29:24.466Z</time>
      </trkpt>
      <trkpt lat="48.25123" lon="-3.56277">
        <ele>128.109471</ele>
        <time>2022-12-11T14:29:27.469Z</time>
      </trkpt>
      <trkpt lat="48.25129" lon="-3.56264">
        <ele>128.094442</ele>
        <time>2022-12-11T14:29:30.461Z</time>
      </trkpt>
      <trkpt lat="48.25135" lon="-3.5625">
        <ele>128.079026</ele>
        <time>2022-12-11T14:29:33.468Z</time>
      </trkpt>
      <trkpt lat="48.25141" lon="-3.56236">
        <ele>128.064145</ele>
        <time>2022-12-11T14:29:36.461Z</time>
      </trkpt>
      <trkpt lat="48.25147" lon="-3.56222">
        <ele>128.048425</ele>
        <time>2022-12-11T14:29:39.464Z</time>
      </trkpt>
      <trkpt lat="48.25153" lon="-3.56208">
        <ele>128.032784</ele>
        <time>2022-12-11T14:29:42.492Z</time>
      </trkpt>
      <trkpt lat="48.25159" lon="-3.56195">
        <ele>128.018296</ele>
        <time>2022-12-11T14:29:45.465Z</time>
      </trkpt>
      <trkpt lat="48.25165" lon="-3.56184">
        <ele>128.005625</ele>
        <time>2022-12-11T14:29:48.461Z</time>
      </trkpt>
      <trkpt lat="48.25171" lon="-3.56173">
        <ele>128.16471</ele>
        <time>2022-12-11T14:29:51.469Z</time>
      </trkpt>
      <trkpt lat="48.25177" lon="-3.5616">
        <ele>128.436713</ele>
        <time>2022-12-11T14:29:54.467Z</time>
      </trkpt>
      <trkpt lat="48.25182" lon="-3.56147">
        <ele>128.704292</ele>
        <time>2022-12-11T14:29:57.466Z</time>
      </trkpt>
      <trkpt lat="48.25188" lon="-3.56135">
        <ele>128.973342</ele>
        <time>2022-12-11T14:30:00.466Z</time>
      </trkpt>
      <trkpt lat="48.25194" lon="-3.56121">
        <ele>129.257123</ele>
        <time>2022-12-11T14:30:03.470Z</time>
      </trkpt>
      <trkpt lat="48.25199" lon="-3.56108">
        <ele>129.538177</ele>
        <time>2022-12-11T14:30:06.465Z</time>
      </trkpt>
      <trkpt lat="48.25205" lon="-3.56095">
        <ele>129.814669</ele>
        <time>2022-12-11T14:30:09.463Z</time>
      </trkpt>
      <trkpt lat="48.25211" lon="-3.56081">
        <ele>130.111717</ele>
        <time>2022-12-11T14:30:12.462Z</time>
      </trkpt>
      <trkpt lat="48.25217" lon="-3.56067">
        <ele>130.391402</ele>
        <time>2022-12-11T14:30:15.478Z</time>
      </trkpt>
      <trkpt lat="48.25221" lon="-3.56055">
        <ele>130.633124</ele>
        <time>2022-12-11T14:30:18.464Z</time>
      </trkpt>
      <trkpt lat="48.25226" lon="-3.56042">
        <ele>130.891919</ele>
        <time>2022-12-11T14:30:21.468Z</time>
      </trkpt>
      <trkpt lat="48.25231" lon="-3.5603">
        <ele>131.158033</ele>
        <time>2022-12-11T14:30:24.467Z</time>
      </trkpt>
      <trkpt lat="48.25237" lon="-3.56017">
        <ele>131.428594</ele>
        <time>2022-12-11T14:30:27.469Z</time>
      </trkpt>
      <trkpt lat="48.25243" lon="-3.56004">
        <ele>131.710873</ele>
        <time>2022-12-11T14:30:30.465Z</time>
      </trkpt>
      <trkpt lat="48.25248" lon="-3.55991">
        <ele>131.982861</ele>
        <time>2022-12-11T14:30:33.466Z</time>
      </trkpt>
      <trkpt lat="48.25253" lon="-3.55979">
        <ele>132.230499</ele>
        <time>2022-12-11T14:30:36.468Z</time>
      </trkpt>
      <trkpt lat="48.25259" lon="-3.55964">
        <ele>132.541091</ele>
        <time>2022-12-11T14:30:40.490Z</time>
      </trkpt>
      <trkpt lat="48.25264" lon="-3.55952">
        <ele>132.77192</ele>
        <time>2022-12-11T14:30:44.471Z</time>
      </trkpt>
      <trkpt lat="48.25269" lon="-3.55941">
        <ele>132.771571</ele>
        <time>2022-12-11T14:30:48.461Z</time>
      </trkpt>
      <trkpt lat="48.25275" lon="-3.55929">
        <ele>132.771198</ele>
        <time>2022-12-11T14:30:52.470Z</time>
      </trkpt>
      <trkpt lat="48.2528" lon="-3.55912">
        <ele>132.770747</ele>
        <time>2022-12-11T14:33:01.488Z</time>
      </trkpt>
      <trkpt lat="48.25286" lon="-3.55898">
        <ele>132.770352</ele>
        <time>2022-12-11T14:33:04.480Z</time>
      </trkpt>
      <trkpt lat="48.25293" lon="-3.55884">
        <ele>132.769895</ele>
        <time>2022-12-11T14:33:07.465Z</time>
      </trkpt>
      <trkpt lat="48.253" lon="-3.55869">
        <ele>132.769467</ele>
        <time>2022-12-11T14:33:10.466Z</time>
      </trkpt>
      <trkpt lat="48.25304" lon="-3.55856">
        <ele>132.769089</ele>
        <time>2022-12-11T14:33:13.488Z</time>
      </trkpt>
      <trkpt lat="48.2531" lon="-3.55841">
        <ele>132.768681</ele>
        <time>2022-12-11T14:33:16.459Z</time>
      </trkpt>
      <trkpt lat="48.25315" lon="-3.55829">
        <ele>132.768311</ele>
        <time>2022-12-11T14:33:19.496Z</time>
      </trkpt>
      <trkpt lat="48.25321" lon="-3.55817">
        <ele>132.76794</ele>
        <time>2022-12-11T14:33:23.467Z</time>
      </trkpt>
      <trkpt lat="48.25327" lon="-3.55806">
        <ele>132.767587</ele>
        <time>2022-12-11T14:33:27.467Z</time>
      </trkpt>
      <trkpt lat="48.25332" lon="-3.55791">
        <ele>132.767188</ele>
        <time>2022-12-11T14:33:31.468Z</time>
      </trkpt>
      <trkpt lat="48.25337" lon="-3.55777">
        <ele>132.766774</ele>
        <time>2022-12-11T14:33:35.471Z</time>
      </trkpt>
      <trkpt lat="48.25344" lon="-3.55763">
        <ele>132.766346</ele>
        <time>2022-12-11T14:33:39.469Z</time>
      </trkpt>
      <trkpt lat="48.2535" lon="-3.55749">
        <ele>132.765945</ele>
        <time>2022-12-11T14:33:43.465Z</time>
      </trkpt>
      <trkpt lat="48.25355" lon="-3.55735">
        <ele>132.765546</ele>
        <time>2022-12-11T14:33:47.463Z</time>
      </trkpt>
      <trkpt lat="48.25361" lon="-3.55721">
        <ele>132.772313</ele>
        <time>2022-12-11T14:33:51.489Z</time>
      </trkpt>
      <trkpt lat="48.25367" lon="-3.55709">
        <ele>132.799332</ele>
        <time>2022-12-11T14:33:55.475Z</time>
      </trkpt>
      <trkpt lat="48.25373" lon="-3.55696">
        <ele>132.828629</ele>
        <time>2022-12-11T14:33:59.477Z</time>
      </trkpt>
      <trkpt lat="48.25379" lon="-3.55681">
        <ele>132.860774</ele>
        <time>2022-12-11T14:34:03.467Z</time>
      </trkpt>
      <trkpt lat="48.25385" lon="-3.5567">
        <ele>132.886279</ele>
        <time>2022-12-11T14:34:06.460Z</time>
      </trkpt>
      <trkpt lat="48.2539" lon="-3.55657">
        <ele>132.913895</ele>
        <time>2022-12-11T14:34:09.469Z</time>
      </trkpt>
      <trkpt lat="48.25396" lon="-3.55645">
        <ele>132.940503</ele>
        <time>2022-12-11T14:34:12.467Z</time>
      </trkpt>
      <trkpt lat="48.25402" lon="-3.55633">
        <ele>132.968118</ele>
        <time>2022-12-11T14:34:15.468Z</time>
      </trkpt>
      <trkpt lat="48.25407" lon="-3.55621">
        <ele>132.993927</ele>
        <time>2022-12-11T14:34:18.467Z</time>
      </trkpt>
      <trkpt lat="48.25412" lon="-3.55608">
        <ele>133.020341</ele>
        <time>2022-12-11T14:34:21.492Z</time>
      </trkpt>
      <trkpt lat="48.25419" lon="-3.55595">
        <ele>133.051144</ele>
        <time>2022-12-11T14:34:25.462Z</time>
      </trkpt>
      <trkpt lat="48.25425" lon="-3.55584">
        <ele>133.077355</ele>
        <time>2022-12-11T14:34:28.473Z</time>
      </trkpt>
      <trkpt lat="48.25431" lon="-3.55571">
        <ele>133.10633</ele>
        <time>2022-12-11T14:34:31.482Z</time>
      </trkpt>
      <trkpt lat="48.25436" lon="-3.55556">
        <ele>133.135383</ele>
        <time>2022-12-11T14:34:34.473Z</time>
      </trkpt>
      <trkpt lat="48.25442" lon="-3.55544">
        <ele>133.161991</ele>
        <time>2022-12-11T14:34:37.472Z</time>
      </trkpt>
      <trkpt lat="48.25446" lon="-3.55531">
        <ele>133.189416</ele>
        <time>2022-12-11T14:34:40.471Z</time>
      </trkpt>
      <trkpt lat="48.25452" lon="-3.55518">
        <ele>133.217065</ele>
        <time>2022-12-11T14:34:43.468Z</time>
      </trkpt>
      <trkpt lat="48.25456" lon="-3.55505">
        <ele>133.244202</ele>
        <time>2022-12-11T14:34:46.458Z</time>
      </trkpt>
      <trkpt lat="48.25461" lon="-3.55491">
        <ele>133.197794</ele>
        <time>2022-12-11T14:34:49.464Z</time>
      </trkpt>
      <trkpt lat="48.25464" lon="-3.55475">
        <ele>133.097083</ele>
        <time>2022-12-11T14:34:52.481Z</time>
      </trkpt>
      <trkpt lat="48.25465" lon="-3.55459">
        <ele>132.99737</ele>
        <time>2022-12-11T14:34:55.468Z</time>
      </trkpt>
      <trkpt lat="48.25469" lon="-3.55446">
        <ele>132.906175</ele>
        <time>2022-12-11T14:34:59.485Z</time>
      </trkpt>
      <trkpt lat="48.2547" lon="-3.55428">
        <ele>132.796732</ele>
        <time>2022-12-11T14:35:03.486Z</time>
      </trkpt>
      <trkpt lat="48.2547" lon="-3.5541">
        <ele>132.687848</ele>
        <time>2022-12-11T14:35:07.468Z</time>
      </trkpt>
      <trkpt lat="48.25467" lon="-3.55396">
        <ele>132.599617</ele>
        <time>2022-12-11T14:35:10.474Z</time>
      </trkpt>
      <trkpt lat="48.25464" lon="-3.5538">
        <ele>132.495638</ele>
        <time>2022-12-11T14:35:14.476Z</time>
      </trkpt>
      <trkpt lat="48.25461" lon="-3.55365">
        <ele>132.397806</ele>
        <time>2022-12-11T14:35:17.463Z</time>
      </trkpt>
      <trkpt lat="48.25458" lon="-3.5535">
        <ele>132.301412</ele>
        <time>2022-12-11T14:35:20.465Z</time>
      </trkpt>
      <trkpt lat="48.25454" lon="-3.55335">
        <ele>132.208297</ele>
        <time>2022-12-11T14:35:23.469Z</time>
      </trkpt>
      <trkpt lat="48.25451" lon="-3.55318">
        <ele>132.097426</ele>
        <time>2022-12-11T14:35:27.464Z</time>
      </trkpt>
      <trkpt lat="48.25447" lon="-3.55303">
        <ele>131.995695</ele>
        <time>2022-12-11T14:35:30.473Z</time>
      </trkpt>
      <trkpt lat="48.25443" lon="-3.55288">
        <ele>131.898152</ele>
        <time>2022-12-11T14:35:33.461Z</time>
      </trkpt>
      <trkpt lat="48.25439" lon="-3.55272">
        <ele>131.794938</ele>
        <time>2022-12-11T14:35:36.464Z</time>
      </trkpt>
      <trkpt lat="48.25436" lon="-3.55258">
        <ele>131.702974</ele>
        <time>2022-12-11T14:35:39.468Z</time>
      </trkpt>
      <trkpt lat="48.25432" lon="-3.55245">
        <ele>131.614395</ele>
        <time>2022-12-11T14:35:42.470Z</time>
      </trkpt>
      <trkpt lat="48.25428" lon="-3.55229">
        <ele>131.541554</ele>
        <time>2022-12-11T14:35:45.464Z</time>
      </trkpt>
      <trkpt lat="48.25425" lon="-3.55213">
        <ele>131.472732</ele>
        <time>2022-12-11T14:35:48.467Z</time>
      </trkpt>
      <trkpt lat="48.25422" lon="-3.55199">
        <ele>131.413532</ele>
        <time>2022-12-11T14:35:51.462Z</time>
      </trkpt>
      <trkpt lat="48.25418" lon="-3.55184">
        <ele>131.349696</ele>
        <time>2022-12-11T14:35:54.474Z</time>
      </trkpt>
      <trkpt lat="48.25414" lon="-3.55169">
        <ele>131.284153</ele>
        <time>2022-12-11T14:35:57.469Z</time>
      </trkpt>
      <trkpt lat="48.25411" lon="-3.55155">
        <ele>131.222807</ele>
        <time>2022-12-11T14:36:00.468Z</time>
      </trkpt>
      <trkpt lat="48.25406" lon="-3.55138">
        <ele>131.149066</ele>
        <time>2022-12-11T14:36:04.490Z</time>
      </trkpt>
      <trkpt lat="48.25403" lon="-3.55124">
        <ele>131.087665</ele>
        <time>2022-12-11T14:36:07.464Z</time>
      </trkpt>
      <trkpt lat="48.25399" lon="-3.5511">
        <ele>131.025509</ele>
        <time>2022-12-11T14:36:10.471Z</time>
      </trkpt>
      <trkpt lat="48.25396" lon="-3.55095">
        <ele>130.964193</ele>
        <time>2022-12-11T14:36:13.496Z</time>
      </trkpt>
      <trkpt lat="48.25394" lon="-3.55082">
        <ele>130.909347</ele>
        <time>2022-12-11T14:36:16.477Z</time>
      </trkpt>
      <trkpt lat="48.25391" lon="-3.55067">
        <ele>130.845663</ele>
        <time>2022-12-11T14:36:19.489Z</time>
      </trkpt>
      <trkpt lat="48.25387" lon="-3.55053">
        <ele>130.782956</ele>
        <time>2022-12-11T14:36:22.489Z</time>
      </trkpt>
      <trkpt lat="48.25383" lon="-3.55035">
        <ele>130.709151</ele>
        <time>2022-12-11T14:36:26.465Z</time>
      </trkpt>
      <trkpt lat="48.2538" lon="-3.5502">
        <ele>130.645519</ele>
        <time>2022-12-11T14:36:29.469Z</time>
      </trkpt>
      <trkpt lat="48.25377" lon="-3.55005">
        <ele>130.581849</ele>
        <time>2022-12-11T14:36:32.463Z</time>
      </trkpt>
      <trkpt lat="48.25374" lon="-3.5499">
        <ele>130.517618</ele>
        <time>2022-12-11T14:36:35.467Z</time>
      </trkpt>
      <trkpt lat="48.25372" lon="-3.54977">
        <ele>130.512966</ele>
        <time>2022-12-11T14:36:38.476Z</time>
      </trkpt>
      <trkpt lat="48.25369" lon="-3.54961">
        <ele>130.526807</ele>
        <time>2022-12-11T14:36:41.472Z</time>
      </trkpt>
      <trkpt lat="48.25368" lon="-3.54945">
        <ele>130.541345</ele>
        <time>2022-12-11T14:36:44.464Z</time>
      </trkpt>
      <trkpt lat="48.25369" lon="-3.54928">
        <ele>130.556303</ele>
        <time>2022-12-11T14:36:47.473Z</time>
      </trkpt>
      <trkpt lat="48.25369" lon="-3.54914">
        <ele>130.569026</ele>
        <time>2022-12-11T14:36:50.474Z</time>
      </trkpt>
      <trkpt lat="48.25369" lon="-3.54897">
        <ele>130.583797</ele>
        <time>2022-12-11T14:36:54.464Z</time>
      </trkpt>
      <trkpt lat="48.25368" lon="-3.54882">
        <ele>130.598013</ele>
        <time>2022-12-11T14:36:58.476Z</time>
      </trkpt>
      <trkpt lat="48.25367" lon="-3.54865">
        <ele>130.612705</ele>
        <time>2022-12-11T14:37:02.462Z</time>
      </trkpt>
      <trkpt lat="48.25367" lon="-3.54848">
        <ele>130.628388</ele>
        <time>2022-12-11T14:37:06.471Z</time>
      </trkpt>
      <trkpt lat="48.25366" lon="-3.54831">
        <ele>130.643281</ele>
        <time>2022-12-11T14:37:10.469Z</time>
      </trkpt>
      <trkpt lat="48.25365" lon="-3.54817">
        <ele>130.655703</ele>
        <time>2022-12-11T14:37:14.467Z</time>
      </trkpt>
      <trkpt lat="48.25364" lon="-3.548">
        <ele>130.670748</ele>
        <time>2022-12-11T14:37:18.467Z</time>
      </trkpt>
      <trkpt lat="48.25363" lon="-3.54784">
        <ele>130.685173</ele>
        <time>2022-12-11T14:37:22.471Z</time>
      </trkpt>
      <trkpt lat="48.25363" lon="-3.54766">
        <ele>130.700748</ele>
        <time>2022-12-11T14:37:26.461Z</time>
      </trkpt>
      <trkpt lat="48.25362" lon="-3.54749">
        <ele>130.71652</ele>
        <time>2022-12-11T14:37:30.473Z</time>
      </trkpt>
      <trkpt lat="48.25361" lon="-3.54734">
        <ele>130.729621</ele>
        <time>2022-12-11T14:37:33.468Z</time>
      </trkpt>
      <trkpt lat="48.25361" lon="-3.5472">
        <ele>130.742529</ele>
        <time>2022-12-11T14:37:36.469Z</time>
      </trkpt>
      <trkpt lat="48.2536" lon="-3.54705">
        <ele>130.867221</ele>
        <time>2022-12-11T14:37:39.475Z</time>
      </trkpt>
      <trkpt lat="48.2536" lon="-3.54687">
        <ele>131.030784</ele>
        <time>2022-12-11T14:37:43.470Z</time>
      </trkpt>
      <trkpt lat="48.25359" lon="-3.54673">
        <ele>131.160935</ele>
        <time>2022-12-11T14:37:46.466Z</time>
      </trkpt>
      <trkpt lat="48.25359" lon="-3.54659">
        <ele>131.292162</ele>
        <time>2022-12-11T14:37:49.477Z</time>
      </trkpt>
      <trkpt lat="48.25358" lon="-3.54642">
        <ele>131.454754</ele>
        <time>2022-12-11T14:37:53.465Z</time>
      </trkpt>
      <trkpt lat="48.25358" lon="-3.54624">
        <ele>131.622918</ele>
        <time>2022-12-11T14:37:57.485Z</time>
      </trkpt>
      <trkpt lat="48.25357" lon="-3.54608">
        <ele>131.768139</ele>
        <time>2022-12-11T14:38:00.473Z</time>
      </trkpt>
      <trkpt lat="48.25357" lon="-3.54592">
        <ele>131.914385</ele>
        <time>2022-12-11T14:38:03.469Z</time>
      </trkpt>
      <trkpt lat="48.25356" lon="-3.54577">
        <ele>132.053767</ele>
        <time>2022-12-11T14:38:06.463Z</time>
      </trkpt>
      <trkpt lat="48.25355" lon="-3.54561">
        <ele>132.205321</ele>
        <time>2022-12-11T14:38:09.462Z</time>
      </trkpt>
      <trkpt lat="48.25355" lon="-3.54545">
        <ele>132.355889</ele>
        <time>2022-12-11T14:38:12.467Z</time>
      </trkpt>
      <trkpt lat="48.25353" lon="-3.54528">
        <ele>132.512222</ele>
        <time>2022-12-11T14:38:15.473Z</time>
      </trkpt>
      <trkpt lat="48.25351" lon="-3.54513">
        <ele>132.655614</ele>
        <time>2022-12-11T14:38:18.463Z</time>
      </trkpt>
      <trkpt lat="48.25351" lon="-3.54495">
        <ele>132.819106</ele>
        <time>2022-12-11T14:38:21.464Z</time>
      </trkpt>
      <trkpt lat="48.25351" lon="-3.54477">
        <ele>132.98727</ele>
        <time>2022-12-11T14:38:24.463Z</time>
      </trkpt>
      <trkpt lat="48.2535" lon="-3.54459">
        <ele>133.156403</ele>
        <time>2022-12-11T14:38:27.484Z</time>
      </trkpt>
      <trkpt lat="48.25349" lon="-3.54442">
        <ele>133.206449</ele>
        <time>2022-12-11T14:38:30.468Z</time>
      </trkpt>
      <trkpt lat="48.25349" lon="-3.54427">
        <ele>133.098731</ele>
        <time>2022-12-11T14:38:33.472Z</time>
      </trkpt>
      <trkpt lat="48.25349" lon="-3.54411">
        <ele>132.990495</ele>
        <time>2022-12-11T14:38:36.467Z</time>
      </trkpt>
      <trkpt lat="48.25348" lon="-3.54394">
        <ele>132.875284</ele>
        <time>2022-12-11T14:38:39.495Z</time>
      </trkpt>
      <trkpt lat="48.25347" lon="-3.54377">
        <ele>132.753425</ele>
        <time>2022-12-11T14:38:42.473Z</time>
      </trkpt>
      <trkpt lat="48.25347" lon="-3.54361">
        <ele>132.645707</ele>
        <time>2022-12-11T14:38:45.461Z</time>
      </trkpt>
      <trkpt lat="48.25346" lon="-3.54346">
        <ele>132.540816</ele>
        <time>2022-12-11T14:38:48.461Z</time>
      </trkpt>
      <trkpt lat="48.25346" lon="-3.54331">
        <ele>132.437185</ele>
        <time>2022-12-11T14:38:51.477Z</time>
      </trkpt>
      <trkpt lat="48.25345" lon="-3.54315">
        <ele>132.321941</ele>
        <time>2022-12-11T14:38:54.469Z</time>
      </trkpt>
      <trkpt lat="48.25344" lon="-3.54298">
        <ele>132.202751</ele>
        <time>2022-12-11T14:38:57.466Z</time>
      </trkpt>
      <trkpt lat="48.25343" lon="-3.54282">
        <ele>132.094967</ele>
        <time>2022-12-11T14:39:00.477Z</time>
      </trkpt>
      <trkpt lat="48.25343" lon="-3.54265">
        <ele>131.975268</ele>
        <time>2022-12-11T14:39:03.471Z</time>
      </trkpt>
      <trkpt lat="48.25342" lon="-3.5425">
        <ele>131.870501</ele>
        <time>2022-12-11T14:39:06.483Z</time>
      </trkpt>
      <trkpt lat="48.25341" lon="-3.54232">
        <ele>131.742996</ele>
        <time>2022-12-11T14:39:10.464Z</time>
      </trkpt>
      <trkpt lat="48.2534" lon="-3.54216">
        <ele>131.633946</ele>
        <time>2022-12-11T14:39:13.476Z</time>
      </trkpt>
      <trkpt lat="48.25339" lon="-3.54198">
        <ele>131.508713</ele>
        <time>2022-12-11T14:39:16.462Z</time>
      </trkpt>
      <trkpt lat="48.25339" lon="-3.54183">
        <ele>131.403211</ele>
        <time>2022-12-11T14:39:19.466Z</time>
      </trkpt>
      <trkpt lat="48.25338" lon="-3.54169">
        <ele>131.380045</ele>
        <time>2022-12-11T14:39:22.472Z</time>
      </trkpt>
      <trkpt lat="48.2534" lon="-3.54154">
        <ele>131.382132</ele>
        <time>2022-12-11T14:39:26.461Z</time>
      </trkpt>
      <trkpt lat="48.25338" lon="-3.54137">
        <ele>131.384485</ele>
        <time>2022-12-11T14:39:29.485Z</time>
      </trkpt>
      <trkpt lat="48.25336" lon="-3.54119">
        <ele>131.386889</ele>
        <time>2022-12-11T14:39:32.466Z</time>
      </trkpt>
      <trkpt lat="48.25336" lon="-3.54104">
        <ele>131.388887</ele>
        <time>2022-12-11T14:39:36.475Z</time>
      </trkpt>
      <trkpt lat="48.25336" lon="-3.54087">
        <ele>131.391249</ele>
        <time>2022-12-11T14:39:41.472Z</time>
      </trkpt>
      <trkpt lat="48.25336" lon="-3.54072">
        <ele>131.393247</ele>
        <time>2022-12-11T14:39:44.464Z</time>
      </trkpt>
      <trkpt lat="48.25337" lon="-3.54058">
        <ele>131.395109</ele>
        <time>2022-12-11T14:39:47.462Z</time>
      </trkpt>
      <trkpt lat="48.25338" lon="-3.54044">
        <ele>131.396988</ele>
        <time>2022-12-11T14:39:50.474Z</time>
      </trkpt>
      <trkpt lat="48.2534" lon="-3.5403">
        <ele>131.398934</ele>
        <time>2022-12-11T14:39:53.470Z</time>
      </trkpt>
      <trkpt lat="48.25344" lon="-3.54013">
        <ele>131.401373</ele>
        <time>2022-12-11T14:39:57.464Z</time>
      </trkpt>
      <trkpt lat="48.2535" lon="-3.53998">
        <ele>131.403744</ele>
        <time>2022-12-11T14:40:01.464Z</time>
      </trkpt>
      <trkpt lat="48.25355" lon="-3.53987">
        <ele>131.405655</ele>
        <time>2022-12-11T14:40:04.471Z</time>
      </trkpt>
      <trkpt lat="48.25363" lon="-3.53973">
        <ele>131.40802</ele>
        <time>2022-12-11T14:40:08.472Z</time>
      </trkpt>
      <trkpt lat="48.25371" lon="-3.53962">
        <ele>131.410322</ele>
        <time>2022-12-11T14:40:12.469Z</time>
      </trkpt>
      <trkpt lat="48.25378" lon="-3.53952">
        <ele>131.412208</ele>
        <time>2022-12-11T14:40:15.474Z</time>
      </trkpt>
      <trkpt lat="48.25386" lon="-3.5394">
        <ele>131.414457</ele>
        <time>2022-12-11T14:40:19.459Z</time>
      </trkpt>
      <trkpt lat="48.25393" lon="-3.5393">
        <ele>131.543099</ele>
        <time>2022-12-11T14:40:23.471Z</time>
      </trkpt>
      <trkpt lat="48.254" lon="-3.53919">
        <ele>131.748957</ele>
        <time>2022-12-11T14:40:27.469Z</time>
      </trkpt>
      <trkpt lat="48.25408" lon="-3.53909">
        <ele>131.956496</ele>
        <time>2022-12-11T14:40:31.468Z</time>
      </trkpt>
      <trkpt lat="48.25415" lon="-3.53899">
        <ele>132.162235</ele>
        <time>2022-12-11T14:40:35.491Z</time>
      </trkpt>
      <trkpt lat="48.25423" lon="-3.53889">
        <ele>132.366195</ele>
        <time>2022-12-11T14:40:39.468Z</time>
      </trkpt>
      <trkpt lat="48.25429" lon="-3.53878">
        <ele>132.552445</ele>
        <time>2022-12-11T14:40:42.463Z</time>
      </trkpt>
      <trkpt lat="48.25435" lon="-3.53868">
        <ele>132.748963</ele>
        <time>2022-12-11T14:40:45.461Z</time>
      </trkpt>
      <trkpt lat="48.25442" lon="-3.53857">
        <ele>132.942903</ele>
        <time>2022-12-11T14:40:48.466Z</time>
      </trkpt>
      <trkpt lat="48.25448" lon="-3.53847">
        <ele>133.13297</ele>
        <time>2022-12-11T14:40:51.465Z</time>
      </trkpt>
      <trkpt lat="48.25456" lon="-3.53838">
        <ele>133.336567</ele>
        <time>2022-12-11T14:40:54.460Z</time>
      </trkpt>
      <trkpt lat="48.25464" lon="-3.53828">
        <ele>133.537896</ele>
        <time>2022-12-11T14:40:57.476Z</time>
      </trkpt>
      <trkpt lat="48.25471" lon="-3.53818">
        <ele>133.733757</ele>
        <time>2022-12-11T14:41:00.476Z</time>
      </trkpt>
      <trkpt lat="48.25477" lon="-3.53808">
        <ele>133.925751</ele>
        <time>2022-12-11T14:41:03.469Z</time>
      </trkpt>
      <trkpt lat="48.25485" lon="-3.53799">
        <ele>134.113846</ele>
        <time>2022-12-11T14:41:06.463Z</time>
      </trkpt>
      <trkpt lat="48.25492" lon="-3.5379">
        <ele>134.305496</ele>
        <time>2022-12-11T14:41:09.466Z</time>
      </trkpt>
      <trkpt lat="48.25499" lon="-3.5378">
        <ele>134.504314</ele>
        <time>2022-12-11T14:41:12.481Z</time>
      </trkpt>
      <trkpt lat="48.25507" lon="-3.53773">
        <ele>134.699664</ele>
        <time>2022-12-11T14:41:15.469Z</time>
      </trkpt>
      <trkpt lat="48.25514" lon="-3.53763">
        <ele>134.896377</ele>
        <time>2022-12-11T14:41:18.478Z</time>
      </trkpt>
      <trkpt lat="48.25522" lon="-3.53753">
        <ele>135.081443</ele>
        <time>2022-12-11T14:41:21.467Z</time>
      </trkpt>
      <trkpt lat="48.25529" lon="-3.53743">
        <ele>135.175188</ele>
        <time>2022-12-11T14:41:24.468Z</time>
      </trkpt>
      <trkpt lat="48.25536" lon="-3.53732">
        <ele>135.27452</ele>
        <time>2022-12-11T14:41:28.467Z</time>
      </trkpt>
      <trkpt lat="48.25542" lon="-3.53721">
        <ele>135.367522</ele>
        <time>2022-12-11T14:41:32.460Z</time>
      </trkpt>
      <trkpt lat="48.25551" lon="-3.53711">
        <ele>135.474201</ele>
        <time>2022-12-11T14:41:37.494Z</time>
      </trkpt>
      <trkpt lat="48.25558" lon="-3.53702">
        <ele>135.571046</ele>
        <time>2022-12-11T14:41:42.469Z</time>
      </trkpt>
      <trkpt lat="48.25566" lon="-3.53692">
        <ele>135.666685</ele>
        <time>2022-12-11T14:41:47.468Z</time>
      </trkpt>
      <trkpt lat="48.25573" lon="-3.53681">
        <ele>135.771712</ele>
        <time>2022-12-11T14:41:51.467Z</time>
      </trkpt>
      <trkpt lat="48.25576" lon="-3.53664">
        <ele>135.886444</ele>
        <time>2022-12-11T14:41:54.466Z</time>
      </trkpt>
      <trkpt lat="48.25588" lon="-3.53631">
        <ele>136.12951</ele>
        <time>2022-12-11T14:41:55.463Z</time>
      </trkpt>
      <trkpt lat="48.2559" lon="-3.53613">
        <ele>136.250214</ele>
        <time>2022-12-11T14:41:58.478Z</time>
      </trkpt>
      <trkpt lat="48.25591" lon="-3.53599">
        <ele>136.342717</ele>
        <time>2022-12-11T14:42:00.464Z</time>
      </trkpt>
      <trkpt lat="48.25593" lon="-3.53582">
        <ele>136.457575</ele>
        <time>2022-12-11T14:42:03.475Z</time>
      </trkpt>
      <trkpt lat="48.25594" lon="-3.53568">
        <ele>136.552028</ele>
        <time>2022-12-11T14:42:05.483Z</time>
      </trkpt>
      <trkpt lat="48.25594" lon="-3.5355">
        <ele>136.670004</ele>
        <time>2022-12-11T14:42:08.466Z</time>
      </trkpt>
      <trkpt lat="48.25596" lon="-3.53536">
        <ele>136.760429</ele>
        <time>2022-12-11T14:42:11.487Z</time>
      </trkpt>
      <trkpt lat="48.25597" lon="-3.53521">
        <ele>136.853193</ele>
        <time>2022-12-11T14:42:15.482Z</time>
      </trkpt>
      <trkpt lat="48.25599" lon="-3.53507">
        <ele>136.913563</ele>
        <time>2022-12-11T14:42:18.475Z</time>
      </trkpt>
      <trkpt lat="48.256" lon="-3.53492">
        <ele>136.983275</ele>
        <time>2022-12-11T14:42:21.466Z</time>
      </trkpt>
      <trkpt lat="48.25603" lon="-3.53475">
        <ele>137.059563</ele>
        <time>2022-12-11T14:42:24.472Z</time>
      </trkpt>
      <trkpt lat="48.25605" lon="-3.53459">
        <ele>137.131977</ele>
        <time>2022-12-11T14:42:27.482Z</time>
      </trkpt>
      <trkpt lat="48.25606" lon="-3.53443">
        <ele>137.202528</ele>
        <time>2022-12-11T14:42:30.473Z</time>
      </trkpt>
      <trkpt lat="48.25609" lon="-3.53429">
        <ele>137.271153</ele>
        <time>2022-12-11T14:42:34.463Z</time>
      </trkpt>
      <trkpt lat="48.25611" lon="-3.53414">
        <ele>137.337304</ele>
        <time>2022-12-11T14:42:38.474Z</time>
      </trkpt>
      <trkpt lat="48.25612" lon="-3.53399">
        <ele>137.405246</ele>
        <time>2022-12-11T14:42:42.469Z</time>
      </trkpt>
      <trkpt lat="48.25612" lon="-3.53383">
        <ele>137.477305</ele>
        <time>2022-12-11T14:42:45.476Z</time>
      </trkpt>
      <trkpt lat="48.25613" lon="-3.53368">
        <ele>137.542724</ele>
        <time>2022-12-11T14:42:48.468Z</time>
      </trkpt>
      <trkpt lat="48.25613" lon="-3.53353">
        <ele>137.60833</ele>
        <time>2022-12-11T14:42:52.468Z</time>
      </trkpt>
      <trkpt lat="48.25615" lon="-3.53337">
        <ele>137.679762</ele>
        <time>2022-12-11T14:42:56.477Z</time>
      </trkpt>
      <trkpt lat="48.25615" lon="-3.53324">
        <ele>137.740389</ele>
        <time>2022-12-11T14:42:59.473Z</time>
      </trkpt>
      <trkpt lat="48.25617" lon="-3.53306">
        <ele>137.820198</ele>
        <time>2022-12-11T14:43:03.466Z</time>
      </trkpt>
      <trkpt lat="48.25619" lon="-3.53292">
        <ele>137.884182</ele>
        <time>2022-12-11T14:43:06.463Z</time>
      </trkpt>
      <trkpt lat="48.2562" lon="-3.53278">
        <ele>137.945929</ele>
        <time>2022-12-11T14:43:09.473Z</time>
      </trkpt>
      <trkpt lat="48.25621" lon="-3.5326">
        <ele>138.025581</ele>
        <time>2022-12-11T14:43:13.485Z</time>
      </trkpt>
      <trkpt lat="48.25621" lon="-3.53245">
        <ele>138.120901</ele>
        <time>2022-12-11T14:43:16.466Z</time>
      </trkpt>
      <trkpt lat="48.25619" lon="-3.5323">
        <ele>138.221507</ele>
        <time>2022-12-11T14:43:19.468Z</time>
      </trkpt>
      <trkpt lat="48.25618" lon="-3.53216">
        <ele>138.318547</ele>
        <time>2022-12-11T14:43:22.469Z</time>
      </trkpt>
      <trkpt lat="48.25615" lon="-3.532">
        <ele>138.427044</ele>
        <time>2022-12-11T14:43:26.461Z</time>
      </trkpt>
      <trkpt lat="48.25611" lon="-3.53184">
        <ele>138.536889</ele>
        <time>2022-12-11T14:43:30.490Z</time>
      </trkpt>
      <trkpt lat="48.25606" lon="-3.53171">
        <ele>138.634634</ele>
        <time>2022-12-11T14:43:33.486Z</time>
      </trkpt>
      <trkpt lat="48.256" lon="-3.53159">
        <ele>138.730168</ele>
        <time>2022-12-11T14:43:36.470Z</time>
      </trkpt>
      <trkpt lat="48.25594" lon="-3.53147">
        <ele>138.830493</ele>
        <time>2022-12-11T14:43:39.466Z</time>
      </trkpt>
      <trkpt lat="48.25586" lon="-3.53136">
        <ele>138.938059</ele>
        <time>2022-12-11T14:43:43.466Z</time>
      </trkpt>
      <trkpt lat="48.25578" lon="-3.53127">
        <ele>139.03573</ele>
        <time>2022-12-11T14:43:46.462Z</time>
      </trkpt>
      <trkpt lat="48.25569" lon="-3.53119">
        <ele>139.134888</ele>
        <time>2022-12-11T14:43:49.467Z</time>
      </trkpt>
      <trkpt lat="48.25561" lon="-3.53113">
        <ele>139.231804</ele>
        <time>2022-12-11T14:43:52.470Z</time>
      </trkpt>
      <trkpt lat="48.25552" lon="-3.53105">
        <ele>139.328949</ele>
        <time>2022-12-11T14:43:55.486Z</time>
      </trkpt>
      <trkpt lat="48.25542" lon="-3.53099">
        <ele>139.433443</ele>
        <time>2022-12-11T14:43:59.468Z</time>
      </trkpt>
      <trkpt lat="48.25532" lon="-3.53091">
        <ele>139.549754</ele>
        <time>2022-12-11T14:44:03.469Z</time>
      </trkpt>
      <trkpt lat="48.25523" lon="-3.53085">
        <ele>139.646119</ele>
        <time>2022-12-11T14:44:06.466Z</time>
      </trkpt>
      <trkpt lat="48.25514" lon="-3.53079">
        <ele>139.736646</ele>
        <time>2022-12-11T14:44:09.474Z</time>
      </trkpt>
      <trkpt lat="48.25505" lon="-3.53075">
        <ele>139.896624</ele>
        <time>2022-12-11T14:44:12.465Z</time>
      </trkpt>
      <trkpt lat="48.25496" lon="-3.53069">
        <ele>140.22546</ele>
        <time>2022-12-11T14:44:15.471Z</time>
      </trkpt>
      <trkpt lat="48.25486" lon="-3.53063">
        <ele>140.558839</ele>
        <time>2022-12-11T14:44:18.469Z</time>
      </trkpt>
      <trkpt lat="48.25477" lon="-3.53058">
        <ele>140.856374</ele>
        <time>2022-12-11T14:44:21.486Z</time>
      </trkpt>
      <trkpt lat="48.25468" lon="-3.53053">
        <ele>141.159445</ele>
        <time>2022-12-11T14:44:24.468Z</time>
      </trkpt>
      <trkpt lat="48.25458" lon="-3.53049">
        <ele>141.475852</ele>
        <time>2022-12-11T14:44:27.464Z</time>
      </trkpt>
      <trkpt lat="48.25449" lon="-3.53045">
        <ele>141.798362</ele>
        <time>2022-12-11T14:44:30.464Z</time>
      </trkpt>
      <trkpt lat="48.2544" lon="-3.53039">
        <ele>142.105621</ele>
        <time>2022-12-11T14:44:33.475Z</time>
      </trkpt>
      <trkpt lat="48.2543" lon="-3.53034">
        <ele>142.447105</ele>
        <time>2022-12-11T14:44:36.466Z</time>
      </trkpt>
      <trkpt lat="48.25421" lon="-3.53028">
        <ele>142.755255</ele>
        <time>2022-12-11T14:44:39.475Z</time>
      </trkpt>
      <trkpt lat="48.25411" lon="-3.53021">
        <ele>143.106521</ele>
        <time>2022-12-11T14:44:43.468Z</time>
      </trkpt>
      <trkpt lat="48.25399" lon="-3.53015">
        <ele>143.488642</ele>
        <time>2022-12-11T14:44:47.477Z</time>
      </trkpt>
      <trkpt lat="48.2539" lon="-3.53008">
        <ele>143.798609</ele>
        <time>2022-12-11T14:44:50.478Z</time>
      </trkpt>
      <trkpt lat="48.2538" lon="-3.53002">
        <ele>144.165911</ele>
        <time>2022-12-11T14:44:54.477Z</time>
      </trkpt>
      <trkpt lat="48.25369" lon="-3.52996">
        <ele>144.527264</ele>
        <time>2022-12-11T14:44:58.485Z</time>
      </trkpt>
      <trkpt lat="48.25359" lon="-3.52992">
        <ele>144.85735</ele>
        <time>2022-12-11T14:45:02.475Z</time>
      </trkpt>
      <trkpt lat="48.2535" lon="-3.52987">
        <ele>145.164596</ele>
        <time>2022-12-11T14:45:06.469Z</time>
      </trkpt>
      <trkpt lat="48.2534" lon="-3.52982">
        <ele>145.483724</ele>
        <time>2022-12-11T14:45:10.466Z</time>
      </trkpt>
      <trkpt lat="48.2533" lon="-3.52976">
        <ele>145.481531</ele>
        <time>2022-12-11T14:45:14.475Z</time>
      </trkpt>
      <trkpt lat="48.25319" lon="-3.52971">
        <ele>145.450772</ele>
        <time>2022-12-11T14:45:18.467Z</time>
      </trkpt>
      <trkpt lat="48.25309" lon="-3.52965">
        <ele>145.422005</ele>
        <time>2022-12-11T14:45:22.466Z</time>
      </trkpt>
      <trkpt lat="48.25298" lon="-3.52958">
        <ele>145.390303</ele>
        <time>2022-12-11T14:45:26.467Z</time>
      </trkpt>
      <trkpt lat="48.2529" lon="-3.52951">
        <ele>145.366247</ele>
        <time>2022-12-11T14:45:29.471Z</time>
      </trkpt>
      <trkpt lat="48.25282" lon="-3.52943">
        <ele>145.341421</ele>
        <time>2022-12-11T14:45:32.467Z</time>
      </trkpt>
      <trkpt lat="48.25275" lon="-3.52934">
        <ele>145.315961</ele>
        <time>2022-12-11T14:45:35.467Z</time>
      </trkpt>
      <trkpt lat="48.25267" lon="-3.52923">
        <ele>145.28864</ele>
        <time>2022-12-11T14:45:38.492Z</time>
      </trkpt>
      <trkpt lat="48.2526" lon="-3.5291">
        <ele>145.259283</ele>
        <time>2022-12-11T14:45:42.474Z</time>
      </trkpt>
      <trkpt lat="48.25255" lon="-3.52899">
        <ele>145.235717</ele>
        <time>2022-12-11T14:45:45.475Z</time>
      </trkpt>
      <trkpt lat="48.25251" lon="-3.52885">
        <ele>145.209932</ele>
        <time>2022-12-11T14:45:48.471Z</time>
      </trkpt>
      <trkpt lat="48.25249" lon="-3.52871">
        <ele>145.184078</ele>
        <time>2022-12-11T14:45:51.484Z</time>
      </trkpt>
      <trkpt lat="48.25247" lon="-3.52853">
        <ele>145.153714</ele>
        <time>2022-12-11T14:45:55.480Z</time>
      </trkpt>
      <trkpt lat="48.25247" lon="-3.52838">
        <ele>145.127202</ele>
        <time>2022-12-11T14:45:58.472Z</time>
      </trkpt>
      <trkpt lat="48.25249" lon="-3.52822">
        <ele>145.099366</ele>
        <time>2022-12-11T14:46:01.466Z</time>
      </trkpt>
      <trkpt lat="48.25251" lon="-3.52809">
        <ele>145.074724</ele>
        <time>2022-12-11T14:46:04.476Z</time>
      </trkpt>
      <trkpt lat="48.25255" lon="-3.52795">
        <ele>145.049262</ele>
        <time>2022-12-11T14:46:07.467Z</time>
      </trkpt>
      <trkpt lat="48.2526" lon="-3.52781">
        <ele>145.009207</ele>
        <time>2022-12-11T14:46:10.477Z</time>
      </trkpt>
      <trkpt lat="48.25267" lon="-3.52768">
        <ele>144.95537</ele>
        <time>2022-12-11T14:46:14.487Z</time>
      </trkpt>
      <trkpt lat="48.25273" lon="-3.52758">
        <ele>144.910853</ele>
        <time>2022-12-11T14:46:17.476Z</time>
      </trkpt>
      <trkpt lat="48.2528" lon="-3.52749">
        <ele>144.865596</ele>
        <time>2022-12-11T14:46:20.476Z</time>
      </trkpt>
      <trkpt lat="48.25288" lon="-3.52739">
        <ele>144.817566</ele>
        <time>2022-12-11T14:46:23.477Z</time>
      </trkpt>
      <trkpt lat="48.25294" lon="-3.5273">
        <ele>144.773865</ele>
        <time>2022-12-11T14:46:26.476Z</time>
      </trkpt>
      <trkpt lat="48.25305" lon="-3.52725">
        <ele>144.721927</ele>
        <time>2022-12-11T14:46:29.466Z</time>
      </trkpt>
      <trkpt lat="48.25315" lon="-3.52718">
        <ele>144.669024</ele>
        <time>2022-12-11T14:46:32.470Z</time>
      </trkpt>
      <trkpt lat="48.25325" lon="-3.52713">
        <ele>144.617544</ele>
        <time>2022-12-11T14:46:35.473Z</time>
      </trkpt>
      <trkpt lat="48.25333" lon="-3.52708">
        <ele>144.574217</ele>
        <time>2022-12-11T14:46:38.473Z</time>
      </trkpt>
      <trkpt lat="48.25343" lon="-3.52703">
        <ele>144.52563</ele>
        <time>2022-12-11T14:46:41.473Z</time>
      </trkpt>
      <trkpt lat="48.25353" lon="-3.52699">
        <ele>144.475083</ele>
        <time>2022-12-11T14:46:44.464Z</time>
      </trkpt>
      <trkpt lat="48.25362" lon="-3.52693">
        <ele>144.424277</ele>
        <time>2022-12-11T14:46:47.484Z</time>
      </trkpt>
      <trkpt lat="48.25372" lon="-3.52687">
        <ele>144.372369</ele>
        <time>2022-12-11T14:46:50.468Z</time>
      </trkpt>
      <trkpt lat="48.25382" lon="-3.52681">
        <ele>144.322326</ele>
        <time>2022-12-11T14:46:53.465Z</time>
      </trkpt>
      <trkpt lat="48.25391" lon="-3.52675">
        <ele>144.276207</ele>
        <time>2022-12-11T14:46:56.464Z</time>
      </trkpt>
      <trkpt lat="48.254" lon="-3.52668">
        <ele>144.225055</ele>
        <time>2022-12-11T14:46:59.467Z</time>
      </trkpt>
      <trkpt lat="48.2541" lon="-3.52663">
        <ele>144.173874</ele>
        <time>2022-12-11T14:47:02.470Z</time>
      </trkpt>
      <trkpt lat="48.2542" lon="-3.52656">
        <ele>144.049433</ele>
        <time>2022-12-11T14:47:05.460Z</time>
      </trkpt>
      <trkpt lat="48.2543" lon="-3.5265">
        <ele>143.914565</ele>
        <time>2022-12-11T14:47:08.483Z</time>
      </trkpt>
      <trkpt lat="48.25441" lon="-3.52643">
        <ele>143.777749</ele>
        <time>2022-12-11T14:47:11.487Z</time>
      </trkpt>
      <trkpt lat="48.25451" lon="-3.52638">
        <ele>143.637538</ele>
        <time>2022-12-11T14:47:14.477Z</time>
      </trkpt>
      <trkpt lat="48.25461" lon="-3.52632">
        <ele>143.51732</ele>
        <time>2022-12-11T14:47:17.468Z</time>
      </trkpt>
      <trkpt lat="48.2547" lon="-3.52627">
        <ele>143.395076</ele>
        <time>2022-12-11T14:47:20.472Z</time>
      </trkpt>
      <trkpt lat="48.2548" lon="-3.52621">
        <ele>143.268525</ele>
        <time>2022-12-11T14:47:23.485Z</time>
      </trkpt>
      <trkpt lat="48.25489" lon="-3.52614">
        <ele>143.138469</ele>
        <time>2022-12-11T14:47:26.469Z</time>
      </trkpt>
      <trkpt lat="48.25498" lon="-3.52608">
        <ele>143.020982</ele>
        <time>2022-12-11T14:47:29.468Z</time>
      </trkpt>
      <trkpt lat="48.25509" lon="-3.52604">
        <ele>142.876965</ele>
        <time>2022-12-11T14:47:33.472Z</time>
      </trkpt>
      <trkpt lat="48.25519" lon="-3.52598">
        <ele>142.750414</ele>
        <time>2022-12-11T14:47:36.465Z</time>
      </trkpt>
      <trkpt lat="48.25529" lon="-3.52592">
        <ele>142.623864</ele>
        <time>2022-12-11T14:47:39.478Z</time>
      </trkpt>
      <trkpt lat="48.25537" lon="-3.52587">
        <ele>142.511864</ele>
        <time>2022-12-11T14:47:42.484Z</time>
      </trkpt>
      <trkpt lat="48.25547" lon="-3.52581">
        <ele>142.380042</ele>
        <time>2022-12-11T14:47:46.468Z</time>
      </trkpt>
      <trkpt lat="48.25557" lon="-3.52576">
        <ele>142.253504</ele>
        <time>2022-12-11T14:47:49.471Z</time>
      </trkpt>
      <trkpt lat="48.25568" lon="-3.52574">
        <ele>142.114588</ele>
        <time>2022-12-11T14:47:52.488Z</time>
      </trkpt>
      <trkpt lat="48.25579" lon="-3.52568">
        <ele>141.980094</ele>
        <time>2022-12-11T14:47:55.467Z</time>
      </trkpt>
      <trkpt lat="48.25587" lon="-3.52562">
        <ele>142.019854</ele>
        <time>2022-12-11T14:47:58.475Z</time>
      </trkpt>
      <trkpt lat="48.25598" lon="-3.52556">
        <ele>142.08255</ele>
        <time>2022-12-11T14:48:02.467Z</time>
      </trkpt>
      <trkpt lat="48.25607" lon="-3.5255">
        <ele>142.133829</ele>
        <time>2022-12-11T14:48:05.481Z</time>
      </trkpt>
      <trkpt lat="48.25616" lon="-3.52546">
        <ele>142.186129</ele>
        <time>2022-12-11T14:48:08.472Z</time>
      </trkpt>
      <trkpt lat="48.25624" lon="-3.52539">
        <ele>142.236922</ele>
        <time>2022-12-11T14:48:11.471Z</time>
      </trkpt>
      <trkpt lat="48.25635" lon="-3.52533">
        <ele>142.303332</ele>
        <time>2022-12-11T14:48:15.473Z</time>
      </trkpt>
      <trkpt lat="48.25644" lon="-3.52529">
        <ele>142.351855</ele>
        <time>2022-12-11T14:48:18.481Z</time>
      </trkpt>
      <trkpt lat="48.25655" lon="-3.52524">
        <ele>142.413245</ele>
        <time>2022-12-11T14:48:22.474Z</time>
      </trkpt>
      <trkpt lat="48.25664" lon="-3.52517">
        <ele>142.466752</ele>
        <time>2022-12-11T14:48:26.464Z</time>
      </trkpt>
      <trkpt lat="48.25674" lon="-3.52513">
        <ele>142.522776</ele>
        <time>2022-12-11T14:48:30.460Z</time>
      </trkpt>
      <trkpt lat="48.25684" lon="-3.52506">
        <ele>142.584846</ele>
        <time>2022-12-11T14:48:34.468Z</time>
      </trkpt>
      <trkpt lat="48.25692" lon="-3.52499">
        <ele>142.636245</ele>
        <time>2022-12-11T14:48:37.471Z</time>
      </trkpt>
      <trkpt lat="48.25701" lon="-3.52495">
        <ele>142.685064</ele>
        <time>2022-12-11T14:48:40.470Z</time>
      </trkpt>
      <trkpt lat="48.25709" lon="-3.52489">
        <ele>142.735976</ele>
        <time>2022-12-11T14:48:44.467Z</time>
      </trkpt>
      <trkpt lat="48.25717" lon="-3.52479">
        <ele>142.792774</ele>
        <time>2022-12-11T14:48:48.479Z</time>
      </trkpt>
      <trkpt lat="48.25723" lon="-3.52463">
        <ele>142.856823</ele>
        <time>2022-12-11T14:48:52.479Z</time>
      </trkpt>
      <trkpt lat="48.25725" lon="-3.5245">
        <ele>142.905829</ele>
        <time>2022-12-11T14:48:55.471Z</time>
      </trkpt>
      <trkpt lat="48.25724" lon="-3.52432">
        <ele>143.0452</ele>
        <time>2022-12-11T14:48:59.470Z</time>
      </trkpt>
      <trkpt lat="48.2572" lon="-3.5242">
        <ele>143.261238</ele>
        <time>2022-12-11T14:49:02.468Z</time>
      </trkpt>
      <trkpt lat="48.25712" lon="-3.52408">
        <ele>143.516477</ele>
        <time>2022-12-11T14:49:05.468Z</time>
      </trkpt>
      <trkpt lat="48.25704" lon="-3.52399">
        <ele>143.766238</ele>
        <time>2022-12-11T14:49:08.470Z</time>
      </trkpt>
      <trkpt lat="48.25694" lon="-3.5239">
        <ele>144.033551</ele>
        <time>2022-12-11T14:49:12.479Z</time>
      </trkpt>
      <trkpt lat="48.25686" lon="-3.52383">
        <ele>144.251384</ele>
        <time>2022-12-11T14:49:15.469Z</time>
      </trkpt>
      <trkpt lat="48.25677" lon="-3.52375">
        <ele>144.494055</ele>
        <time>2022-12-11T14:49:18.474Z</time>
      </trkpt>
      <trkpt lat="48.25668" lon="-3.52368">
        <ele>144.731903</ele>
        <time>2022-12-11T14:49:21.482Z</time>
      </trkpt>
      <trkpt lat="48.2566" lon="-3.52361">
        <ele>144.946208</ele>
        <time>2022-12-11T14:49:24.482Z</time>
      </trkpt>
      <trkpt lat="48.2565" lon="-3.52352">
        <ele>145.213785</ele>
        <time>2022-12-11T14:49:28.472Z</time>
      </trkpt>
      <trkpt lat="48.25642" lon="-3.52345">
        <ele>145.435256</ele>
        <time>2022-12-11T14:49:31.473Z</time>
      </trkpt>
      <trkpt lat="48.25634" lon="-3.52338">
        <ele>145.649561</ele>
        <time>2022-12-11T14:49:34.473Z</time>
      </trkpt>
      <trkpt lat="48.25626" lon="-3.52331">
        <ele>145.869058</ele>
        <time>2022-12-11T14:49:37.469Z</time>
      </trkpt>
      <trkpt lat="48.25618" lon="-3.52324">
        <ele>146.090262</ele>
        <time>2022-12-11T14:49:40.495Z</time>
      </trkpt>
      <trkpt lat="48.25609" lon="-3.52317">
        <ele>146.320621</ele>
        <time>2022-12-11T14:49:43.486Z</time>
      </trkpt>
      <trkpt lat="48.25601" lon="-3.52312">
        <ele>146.530896</ele>
        <time>2022-12-11T14:49:46.474Z</time>
      </trkpt>
      <trkpt lat="48.25592" lon="-3.52306">
        <ele>146.760433</ele>
        <time>2022-12-11T14:49:50.485Z</time>
      </trkpt>
      <trkpt lat="48.25583" lon="-3.52297">
        <ele>147.021247</ele>
        <time>2022-12-11T14:49:54.480Z</time>
      </trkpt>
      <trkpt lat="48.25575" lon="-3.52289">
        <ele>147.127865</ele>
        <time>2022-12-11T14:49:58.472Z</time>
      </trkpt>
      <trkpt lat="48.25567" lon="-3.5228">
        <ele>147.047544</ele>
        <time>2022-12-11T14:50:02.474Z</time>
      </trkpt>
      <trkpt lat="48.25559" lon="-3.52273">
        <ele>146.972368</ele>
        <time>2022-12-11T14:50:05.473Z</time>
      </trkpt>
      <trkpt lat="48.25552" lon="-3.52265">
        <ele>146.897881</ele>
        <time>2022-12-11T14:50:08.475Z</time>
      </trkpt>
      <trkpt lat="48.25543" lon="-3.52254">
        <ele>146.800969</ele>
        <time>2022-12-11T14:50:12.481Z</time>
      </trkpt>
      <trkpt lat="48.25538" lon="-3.52242">
        <ele>146.718437</ele>
        <time>2022-12-11T14:50:16.466Z</time>
      </trkpt>
      <trkpt lat="48.25536" lon="-3.52226">
        <ele>146.631796</ele>
        <time>2022-12-11T14:50:21.481Z</time>
      </trkpt>
      <trkpt lat="48.25535" lon="-3.52212">
        <ele>146.553832</ele>
        <time>2022-12-11T14:50:26.474Z</time>
      </trkpt>
      <trkpt lat="48.25532" lon="-3.52198">
        <ele>146.473276</ele>
        <time>2022-12-11T14:50:32.474Z</time>
      </trkpt>
      <trkpt lat="48.25528" lon="-3.52168">
        <ele>146.305413</ele>
        <time>2022-12-11T14:50:55.472Z</time>
      </trkpt>
      <trkpt lat="48.2553" lon="-3.52152">
        <ele>146.215415</ele>
        <time>2022-12-11T14:50:58.469Z</time>
      </trkpt>
      <trkpt lat="48.25532" lon="-3.52135">
        <ele>146.116733</ele>
        <time>2022-12-11T14:51:01.468Z</time>
      </trkpt>
      <trkpt lat="48.25536" lon="-3.52121">
        <ele>146.034342</ele>
        <time>2022-12-11T14:51:04.474Z</time>
      </trkpt>
      <trkpt lat="48.25541" lon="-3.52108">
        <ele>145.948973</ele>
        <time>2022-12-11T14:51:07.464Z</time>
      </trkpt>
      <trkpt lat="48.25546" lon="-3.52094">
        <ele>145.865122</ele>
        <time>2022-12-11T14:51:10.472Z</time>
      </trkpt>
      <trkpt lat="48.25551" lon="-3.52079">
        <ele>145.771312</ele>
        <time>2022-12-11T14:51:13.470Z</time>
      </trkpt>
      <trkpt lat="48.25555" lon="-3.52064">
        <ele>145.682514</ele>
        <time>2022-12-11T14:51:16.472Z</time>
      </trkpt>
      <trkpt lat="48.25558" lon="-3.52051">
        <ele>145.541736</ele>
        <time>2022-12-11T14:51:19.470Z</time>
      </trkpt>
      <trkpt lat="48.25561" lon="-3.52036">
        <ele>145.373121</ele>
        <time>2022-12-11T14:51:22.471Z</time>
      </trkpt>
      <trkpt lat="48.25563" lon="-3.5202">
        <ele>145.200982</ele>
        <time>2022-12-11T14:51:25.471Z</time>
      </trkpt>
      <trkpt lat="48.25568" lon="-3.52005">
        <ele>145.020617</ele>
        <time>2022-12-11T14:51:28.474Z</time>
      </trkpt>
      <trkpt lat="48.25574" lon="-3.51991">
        <ele>144.845234</ele>
        <time>2022-12-11T14:51:31.492Z</time>
      </trkpt>
      <trkpt lat="48.25577" lon="-3.51978">
        <ele>144.686638</ele>
        <time>2022-12-11T14:51:34.473Z</time>
      </trkpt>
      <trkpt lat="48.25581" lon="-3.51963">
        <ele>144.520428</ele>
        <time>2022-12-11T14:51:37.477Z</time>
      </trkpt>
      <trkpt lat="48.25585" lon="-3.51951">
        <ele>144.37408</ele>
        <time>2022-12-11T14:51:40.490Z</time>
      </trkpt>
      <trkpt lat="48.2559" lon="-3.51933">
        <ele>144.168544</ele>
        <time>2022-12-11T14:51:44.474Z</time>
      </trkpt>
      <trkpt lat="48.25591" lon="-3.51917">
        <ele>143.985772</ele>
        <time>2022-12-11T14:51:47.475Z</time>
      </trkpt>
      <trkpt lat="48.2559" lon="-3.51901">
        <ele>143.816592</ele>
        <time>2022-12-11T14:51:49.475Z</time>
      </trkpt>
      <trkpt lat="48.25596" lon="-3.51886">
        <ele>143.631368</ele>
        <time>2022-12-11T14:51:52.473Z</time>
      </trkpt>
      <trkpt lat="48.256" lon="-3.5187">
        <ele>143.447811</ele>
        <time>2022-12-11T14:51:55.476Z</time>
      </trkpt>
      <trkpt lat="48.25604" lon="-3.51855">
        <ele>143.266345</ele>
        <time>2022-12-11T14:51:58.516Z</time>
      </trkpt>
      <trkpt lat="48.25608" lon="-3.5184">
        <ele>143.101947</ele>
        <time>2022-12-11T14:52:01.481Z</time>
      </trkpt>
      <trkpt lat="48.25609" lon="-3.51823">
        <ele>142.915307</ele>
        <time>2022-12-11T14:52:04.469Z</time>
      </trkpt>
      <trkpt lat="48.25614" lon="-3.51808">
        <ele>142.770827</ele>
        <time>2022-12-11T14:52:07.466Z</time>
      </trkpt>
      <trkpt lat="48.25618" lon="-3.51794">
        <ele>143.004682</ele>
        <time>2022-12-11T14:52:10.474Z</time>
      </trkpt>
      <trkpt lat="48.25622" lon="-3.51776">
        <ele>143.284227</ele>
        <time>2022-12-11T14:52:13.473Z</time>
      </trkpt>
      <trkpt lat="48.25626" lon="-3.51761">
        <ele>143.526396</ele>
        <time>2022-12-11T14:52:16.465Z</time>
      </trkpt>
      <trkpt lat="48.25631" lon="-3.51747">
        <ele>143.764923</ele>
        <time>2022-12-11T14:52:19.489Z</time>
      </trkpt>
      <trkpt lat="48.25636" lon="-3.51732">
        <ele>144.005402</ele>
        <time>2022-12-11T14:52:22.478Z</time>
      </trkpt>
      <trkpt lat="48.25641" lon="-3.51718">
        <ele>144.253915</ele>
        <time>2022-12-11T14:52:25.483Z</time>
      </trkpt>
      <trkpt lat="48.25646" lon="-3.51702">
        <ele>144.506845</ele>
        <time>2022-12-11T14:52:28.472Z</time>
      </trkpt>
      <trkpt lat="48.25651" lon="-3.51687">
        <ele>144.762041</ele>
        <time>2022-12-11T14:52:31.468Z</time>
      </trkpt>
      <trkpt lat="48.25655" lon="-3.51671">
        <ele>145.02437</ele>
        <time>2022-12-11T14:52:34.467Z</time>
      </trkpt>
      <trkpt lat="48.25659" lon="-3.51655">
        <ele>145.263903</ele>
        <time>2022-12-11T14:52:37.474Z</time>
      </trkpt>
      <trkpt lat="48.25663" lon="-3.51643">
        <ele>145.473159</ele>
        <time>2022-12-11T14:52:40.474Z</time>
      </trkpt>
      <trkpt lat="48.25667" lon="-3.51627">
        <ele>145.722523</ele>
        <time>2022-12-11T14:52:44.468Z</time>
      </trkpt>
      <trkpt lat="48.25672" lon="-3.5161">
        <ele>145.996408</ele>
        <time>2022-12-11T14:52:48.475Z</time>
      </trkpt>
      <trkpt lat="48.25676" lon="-3.51594">
        <ele>146.25285</ele>
        <time>2022-12-11T14:52:52.469Z</time>
      </trkpt>
      <trkpt lat="48.25678" lon="-3.51578">
        <ele>146.489655</ele>
        <time>2022-12-11T14:52:56.480Z</time>
      </trkpt>
      <trkpt lat="48.25682" lon="-3.51564">
        <ele>146.718628</ele>
        <time>2022-12-11T14:53:00.479Z</time>
      </trkpt>
      <trkpt lat="48.25686" lon="-3.5155">
        <ele>146.891364</ele>
        <time>2022-12-11T14:53:04.482Z</time>
      </trkpt>
      <trkpt lat="48.25687" lon="-3.51534">
        <ele>147.057804</ele>
        <time>2022-12-11T14:53:08.487Z</time>
      </trkpt>
      <trkpt lat="48.25692" lon="-3.51519">
        <ele>147.225243</ele>
        <time>2022-12-11T14:53:12.491Z</time>
      </trkpt>
      <trkpt lat="48.25695" lon="-3.51503">
        <ele>147.392927</ele>
        <time>2022-12-11T14:53:16.473Z</time>
      </trkpt>
      <trkpt lat="48.25699" lon="-3.51487">
        <ele>147.573842</ele>
        <time>2022-12-11T14:53:20.478Z</time>
      </trkpt>
      <trkpt lat="48.25702" lon="-3.51473">
        <ele>147.721516</ele>
        <time>2022-12-11T14:53:23.485Z</time>
      </trkpt>
      <trkpt lat="48.25704" lon="-3.51458">
        <ele>147.880638</ele>
        <time>2022-12-11T14:53:26.490Z</time>
      </trkpt>
      <trkpt lat="48.25707" lon="-3.51442">
        <ele>148.04778</ele>
        <time>2022-12-11T14:53:30.478Z</time>
      </trkpt>
      <trkpt lat="48.25709" lon="-3.51426">
        <ele>148.219266</ele>
        <time>2022-12-11T14:53:34.479Z</time>
      </trkpt>
      <trkpt lat="48.2571" lon="-3.51411">
        <ele>148.368504</ele>
        <time>2022-12-11T14:53:37.474Z</time>
      </trkpt>
      <trkpt lat="48.25708" lon="-3.51397">
        <ele>148.522945</ele>
        <time>2022-12-11T14:53:40.473Z</time>
      </trkpt>
      <trkpt lat="48.25707" lon="-3.51382">
        <ele>148.673311</ele>
        <time>2022-12-11T14:53:45.476Z</time>
      </trkpt>
      <trkpt lat="48.25705" lon="-3.51368">
        <ele>148.817722</ele>
        <time>2022-12-11T14:53:48.469Z</time>
      </trkpt>
      <trkpt lat="48.25703" lon="-3.51355">
        <ele>148.959535</ele>
        <time>2022-12-11T14:53:51.466Z</time>
      </trkpt>
      <trkpt lat="48.25699" lon="-3.51341">
        <ele>149.114506</ele>
        <time>2022-12-11T14:53:54.466Z</time>
      </trkpt>
      <trkpt lat="48.25696" lon="-3.51325">
        <ele>149.279247</ele>
        <time>2022-12-11T14:53:57.474Z</time>
      </trkpt>
      <trkpt lat="48.25692" lon="-3.51311">
        <ele>149.440477</ele>
        <time>2022-12-11T14:54:00.477Z</time>
      </trkpt>
      <trkpt lat="48.25689" lon="-3.51297">
        <ele>149.568213</ele>
        <time>2022-12-11T14:54:03.469Z</time>
      </trkpt>
      <trkpt lat="48.25685" lon="-3.51282">
        <ele>149.6687</ele>
        <time>2022-12-11T14:54:06.472Z</time>
      </trkpt>
      <trkpt lat="48.2568" lon="-3.51265">
        <ele>149.775345</ele>
        <time>2022-12-11T14:54:09.491Z</time>
      </trkpt>
      <trkpt lat="48.25676" lon="-3.51249">
        <ele>149.874109</ele>
        <time>2022-12-11T14:54:12.475Z</time>
      </trkpt>
      <trkpt lat="48.25673" lon="-3.51234">
        <ele>149.971834</ele>
        <time>2022-12-11T14:54:15.495Z</time>
      </trkpt>
      <trkpt lat="48.2567" lon="-3.51221">
        <ele>150.055123</ele>
        <time>2022-12-11T14:54:18.470Z</time>
      </trkpt>
      <trkpt lat="48.25665" lon="-3.51206">
        <ele>150.14802</ele>
        <time>2022-12-11T14:54:21.468Z</time>
      </trkpt>
      <trkpt lat="48.2566" lon="-3.5119">
        <ele>150.255721</ele>
        <time>2022-12-11T14:54:24.470Z</time>
      </trkpt>
      <trkpt lat="48.25656" lon="-3.51175">
        <ele>150.355124</ele>
        <time>2022-12-11T14:54:27.471Z</time>
      </trkpt>
      <trkpt lat="48.25652" lon="-3.51159">
        <ele>150.454764</ele>
        <time>2022-12-11T14:54:30.475Z</time>
      </trkpt>
      <trkpt lat="48.25648" lon="-3.51143">
        <ele>150.554665</ele>
        <time>2022-12-11T14:54:33.474Z</time>
      </trkpt>
      <trkpt lat="48.25645" lon="-3.51126">
        <ele>150.659379</ele>
        <time>2022-12-11T14:54:36.476Z</time>
      </trkpt>
      <trkpt lat="48.25641" lon="-3.51109">
        <ele>150.763495</ele>
        <time>2022-12-11T14:54:39.477Z</time>
      </trkpt>
      <trkpt lat="48.25637" lon="-3.51094">
        <ele>150.860601</ele>
        <time>2022-12-11T14:54:42.480Z</time>
      </trkpt>
      <trkpt lat="48.25633" lon="-3.51078">
        <ele>150.959942</ele>
        <time>2022-12-11T14:54:45.467Z</time>
      </trkpt>
      <trkpt lat="48.25629" lon="-3.51063">
        <ele>151.058541</ele>
        <time>2022-12-11T14:54:48.475Z</time>
      </trkpt>
      <trkpt lat="48.25626" lon="-3.51048">
        <ele>151.140155</ele>
        <time>2022-12-11T14:54:51.488Z</time>
      </trkpt>
      <trkpt lat="48.25624" lon="-3.51031">
        <ele>151.100269</ele>
        <time>2022-12-11T14:54:55.475Z</time>
      </trkpt>
      <trkpt lat="48.2562" lon="-3.51018">
        <ele>151.069523</ele>
        <time>2022-12-11T14:54:58.470Z</time>
      </trkpt>
      <trkpt lat="48.25618" lon="-3.51003">
        <ele>151.036619</ele>
        <time>2022-12-11T14:55:02.470Z</time>
      </trkpt>
      <trkpt lat="48.25614" lon="-3.50987">
        <ele>150.998329</ele>
        <time>2022-12-11T14:55:06.482Z</time>
      </trkpt>
      <trkpt lat="48.2561" lon="-3.50972">
        <ele>150.962191</ele>
        <time>2022-12-11T14:55:10.473Z</time>
      </trkpt>
      <trkpt lat="48.25606" lon="-3.50959">
        <ele>150.93091</ele>
        <time>2022-12-11T14:55:14.470Z</time>
      </trkpt>
      <trkpt lat="48.25602" lon="-3.50943">
        <ele>150.89336</ele>
        <time>2022-12-11T14:55:18.470Z</time>
      </trkpt>
      <trkpt lat="48.25598" lon="-3.50929">
        <ele>150.858578</ele>
        <time>2022-12-11T14:55:22.468Z</time>
      </trkpt>
      <trkpt lat="48.25596" lon="-3.50914">
        <ele>150.824055</ele>
        <time>2022-12-11T14:55:26.473Z</time>
      </trkpt>
      <trkpt lat="48.25591" lon="-3.50897">
        <ele>150.783754</ele>
        <time>2022-12-11T14:55:30.472Z</time>
      </trkpt>
      <trkpt lat="48.25587" lon="-3.50883">
        <ele>150.749657</ele>
        <time>2022-12-11T14:55:33.484Z</time>
      </trkpt>
      <trkpt lat="48.25583" lon="-3.50869">
        <ele>150.717788</ele>
        <time>2022-12-11T14:55:36.466Z</time>
      </trkpt>
      <trkpt lat="48.25579" lon="-3.50855">
        <ele>150.683747</ele>
        <time>2022-12-11T14:55:39.480Z</time>
      </trkpt>
      <trkpt lat="48.25575" lon="-3.50842">
        <ele>150.652069</ele>
        <time>2022-12-11T14:55:42.468Z</time>
      </trkpt>
      <trkpt lat="48.25571" lon="-3.50829">
        <ele>150.618783</ele>
        <time>2022-12-11T14:55:45.474Z</time>
      </trkpt>
      <trkpt lat="48.25568" lon="-3.50815">
        <ele>150.58577</ele>
        <time>2022-12-11T14:55:48.469Z</time>
      </trkpt>
      <trkpt lat="48.25566" lon="-3.50799">
        <ele>150.551177</ele>
        <time>2022-12-11T14:55:52.475Z</time>
      </trkpt>
      <trkpt lat="48.25564" lon="-3.50782">
        <ele>150.465726</ele>
        <time>2022-12-11T14:55:56.480Z</time>
      </trkpt>
      <trkpt lat="48.25565" lon="-3.50768">
        <ele>150.389943</ele>
        <time>2022-12-11T14:55:59.479Z</time>
      </trkpt>
      <trkpt lat="48.25567" lon="-3.50753">
        <ele>150.310865</ele>
        <time>2022-12-11T14:56:02.474Z</time>
      </trkpt>
      <trkpt lat="48.25571" lon="-3.50738">
        <ele>150.225735</ele>
        <time>2022-12-11T14:56:05.471Z</time>
      </trkpt>
      <trkpt lat="48.25575" lon="-3.50723">
        <ele>150.135774</ele>
        <time>2022-12-11T14:56:08.484Z</time>
      </trkpt>
      <trkpt lat="48.25581" lon="-3.50709">
        <ele>150.044118</ele>
        <time>2022-12-11T14:56:11.476Z</time>
      </trkpt>
      <trkpt lat="48.25588" lon="-3.50694">
        <ele>149.950369</ele>
        <time>2022-12-11T14:56:14.474Z</time>
      </trkpt>
      <trkpt lat="48.25595" lon="-3.50681">
        <ele>149.857156</ele>
        <time>2022-12-11T14:56:17.469Z</time>
      </trkpt>
      <trkpt lat="48.25603" lon="-3.50668">
        <ele>149.76387</ele>
        <time>2022-12-11T14:56:20.469Z</time>
      </trkpt>
      <trkpt lat="48.2561" lon="-3.50655">
        <ele>149.67347</ele>
        <time>2022-12-11T14:56:23.472Z</time>
      </trkpt>
      <trkpt lat="48.25617" lon="-3.50643">
        <ele>149.584532</ele>
        <time>2022-12-11T14:56:26.472Z</time>
      </trkpt>
      <trkpt lat="48.25624" lon="-3.5063">
        <ele>149.497633</ele>
        <time>2022-12-11T14:56:29.475Z</time>
      </trkpt>
      <trkpt lat="48.25631" lon="-3.50618">
        <ele>149.408171</ele>
        <time>2022-12-11T14:56:32.494Z</time>
      </trkpt>
      <trkpt lat="48.25638" lon="-3.50604">
        <ele>149.31349</ele>
        <time>2022-12-11T14:56:35.471Z</time>
      </trkpt>
      <trkpt lat="48.25646" lon="-3.50589">
        <ele>149.213138</ele>
        <time>2022-12-11T14:56:38.484Z</time>
      </trkpt>
      <trkpt lat="48.25653" lon="-3.50576">
        <ele>149.120362</ele>
        <time>2022-12-11T14:56:41.473Z</time>
      </trkpt>
      <trkpt lat="48.2566" lon="-3.50562">
        <ele>149.154434</ele>
        <time>2022-12-11T14:56:44.478Z</time>
      </trkpt>
      <trkpt lat="48.25667" lon="-3.50548">
        <ele>149.258992</ele>
        <time>2022-12-11T14:56:47.471Z</time>
      </trkpt>
      <trkpt lat="48.25674" lon="-3.50534">
        <ele>149.362543</ele>
        <time>2022-12-11T14:56:50.473Z</time>
      </trkpt>
      <trkpt lat="48.25682" lon="-3.50521">
        <ele>149.461334</ele>
        <time>2022-12-11T14:56:53.465Z</time>
      </trkpt>
      <trkpt lat="48.25689" lon="-3.50508">
        <ele>149.560199</ele>
        <time>2022-12-11T14:56:56.478Z</time>
      </trkpt>
      <trkpt lat="48.25696" lon="-3.50495">
        <ele>149.661548</ele>
        <time>2022-12-11T14:56:59.471Z</time>
      </trkpt>
      <trkpt lat="48.25702" lon="-3.50482">
        <ele>149.753606</ele>
        <time>2022-12-11T14:57:02.491Z</time>
      </trkpt>
      <trkpt lat="48.25707" lon="-3.50469">
        <ele>149.841703</ele>
        <time>2022-12-11T14:57:05.472Z</time>
      </trkpt>
      <trkpt lat="48.25712" lon="-3.50455">
        <ele>149.933771</ele>
        <time>2022-12-11T14:57:08.475Z</time>
      </trkpt>
      <trkpt lat="48.25716" lon="-3.5044">
        <ele>150.031199</ele>
        <time>2022-12-11T14:57:11.473Z</time>
      </trkpt>
      <trkpt lat="48.25717" lon="-3.50422">
        <ele>150.135723</ele>
        <time>2022-12-11T14:57:14.476Z</time>
      </trkpt>
      <trkpt lat="48.25719" lon="-3.50406">
        <ele>150.230705</ele>
        <time>2022-12-11T14:57:17.480Z</time>
      </trkpt>
      <trkpt lat="48.2572" lon="-3.50391">
        <ele>150.31977</ele>
        <time>2022-12-11T14:57:20.472Z</time>
      </trkpt>
      <trkpt lat="48.2572" lon="-3.50374">
        <ele>150.420906</ele>
        <time>2022-12-11T14:57:24.471Z</time>
      </trkpt>
      <trkpt lat="48.25717" lon="-3.50358">
        <ele>150.518887</ele>
        <time>2022-12-11T14:57:28.471Z</time>
      </trkpt>
      <trkpt lat="48.25715" lon="-3.50341">
        <ele>150.620678</ele>
        <time>2022-12-11T14:57:32.469Z</time>
      </trkpt>
      <trkpt lat="48.2571" lon="-3.50328">
        <ele>150.764837</ele>
        <time>2022-12-11T14:57:36.482Z</time>
      </trkpt>
      <trkpt lat="48.25707" lon="-3.50311">
        <ele>151.092322</ele>
        <time>2022-12-11T14:57:40.486Z</time>
      </trkpt>
      <trkpt lat="48.25703" lon="-3.50296">
        <ele>151.405498</ele>
        <time>2022-12-11T14:57:44.476Z</time>
      </trkpt>
      <trkpt lat="48.25698" lon="-3.50281">
        <ele>151.705559</ele>
        <time>2022-12-11T14:57:48.480Z</time>
      </trkpt>
      <trkpt lat="48.25695" lon="-3.50266">
        <ele>151.996656</ele>
        <time>2022-12-11T14:57:52.476Z</time>
      </trkpt>
      <trkpt lat="48.25691" lon="-3.50251">
        <ele>152.288655</ele>
        <time>2022-12-11T14:57:57.487Z</time>
      </trkpt>
      <trkpt lat="48.25686" lon="-3.50237">
        <ele>152.587402</ele>
        <time>2022-12-11T14:58:02.475Z</time>
      </trkpt>
      <trkpt lat="48.25682" lon="-3.50224">
        <ele>152.853338</ele>
        <time>2022-12-11T14:58:06.498Z</time>
      </trkpt>
      <trkpt lat="48.25678" lon="-3.50211">
        <ele>153.129565</ele>
        <time>2022-12-11T14:58:10.467Z</time>
      </trkpt>
      <trkpt lat="48.25673" lon="-3.50196">
        <ele>153.436603</ele>
        <time>2022-12-11T14:58:14.473Z</time>
      </trkpt>
      <trkpt lat="48.25669" lon="-3.50183">
        <ele>153.719446</ele>
        <time>2022-12-11T14:58:17.474Z</time>
      </trkpt>
      <trkpt lat="48.25665" lon="-3.5017">
        <ele>153.975221</ele>
        <time>2022-12-11T14:58:20.474Z</time>
      </trkpt>
      <trkpt lat="48.2566" lon="-3.50158">
        <ele>154.240253</ele>
        <time>2022-12-11T14:58:23.501Z</time>
      </trkpt>
      <trkpt lat="48.25655" lon="-3.50142">
        <ele>154.569834</ele>
        <time>2022-12-11T14:58:27.469Z</time>
      </trkpt>
      <trkpt lat="48.25651" lon="-3.50128">
        <ele>154.85399</ele>
        <time>2022-12-11T14:58:30.467Z</time>
      </trkpt>
      <trkpt lat="48.25647" lon="-3.50115">
        <ele>155.127344</ele>
        <time>2022-12-11T14:58:33.475Z</time>
      </trkpt>
      <trkpt lat="48.25643" lon="-3.501">
        <ele>155.431936</ele>
        <time>2022-12-11T14:58:36.475Z</time>
      </trkpt>
      <trkpt lat="48.25639" lon="-3.50084">
        <ele>155.726489</ele>
        <time>2022-12-11T14:58:39.479Z</time>
      </trkpt>
      <trkpt lat="48.25634" lon="-3.50071">
        <ele>155.866491</ele>
        <time>2022-12-11T14:58:42.481Z</time>
      </trkpt>
      <trkpt lat="48.2563" lon="-3.50058">
        <ele>155.994134</ele>
        <time>2022-12-11T14:58:45.486Z</time>
      </trkpt>
      <trkpt lat="48.25624" lon="-3.50046">
        <ele>156.124199</ele>
        <time>2022-12-11T14:58:48.478Z</time>
      </trkpt>
      <trkpt lat="48.25618" lon="-3.50034">
        <ele>156.266294</ele>
        <time>2022-12-11T14:58:51.466Z</time>
      </trkpt>
      <trkpt lat="48.2561" lon="-3.50023">
        <ele>156.409045</ele>
        <time>2022-12-11T14:58:54.473Z</time>
      </trkpt>
      <trkpt lat="48.25602" lon="-3.50014">
        <ele>156.550342</ele>
        <time>2022-12-11T14:58:57.489Z</time>
      </trkpt>
      <trkpt lat="48.25592" lon="-3.50004">
        <ele>156.707199</ele>
        <time>2022-12-11T14:59:01.475Z</time>
      </trkpt>
      <trkpt lat="48.25582" lon="-3.49996">
        <ele>156.872779</ele>
        <time>2022-12-11T14:59:05.488Z</time>
      </trkpt>
      <trkpt lat="48.25573" lon="-3.49989">
        <ele>157.00658</ele>
        <time>2022-12-11T14:59:08.469Z</time>
      </trkpt>
      <trkpt lat="48.25563" lon="-3.49983">
        <ele>157.150059</ele>
        <time>2022-12-11T14:59:11.467Z</time>
      </trkpt>
      <trkpt lat="48.25552" lon="-3.49979">
        <ele>157.304695</ele>
        <time>2022-12-11T14:59:14.483Z</time>
      </trkpt>
      <trkpt lat="48.25542" lon="-3.49973">
        <ele>157.453185</ele>
        <time>2022-12-11T14:59:17.471Z</time>
      </trkpt>
      <trkpt lat="48.25533" lon="-3.49967">
        <ele>157.58915</ele>
        <time>2022-12-11T14:59:20.471Z</time>
      </trkpt>
      <trkpt lat="48.25524" lon="-3.49959">
        <ele>157.728333</ele>
        <time>2022-12-11T14:59:23.469Z</time>
      </trkpt>
      <trkpt lat="48.25516" lon="-3.49951">
        <ele>157.864042</ele>
        <time>2022-12-11T14:59:26.473Z</time>
      </trkpt>
      <trkpt lat="48.25507" lon="-3.49944">
        <ele>157.997189</ele>
        <time>2022-12-11T14:59:29.487Z</time>
      </trkpt>
      <trkpt lat="48.25496" lon="-3.49938">
        <ele>158.160367</ele>
        <time>2022-12-11T14:59:32.473Z</time>
      </trkpt>
      <trkpt lat="48.25486" lon="-3.4993">
        <ele>157.534176</ele>
        <time>2022-12-11T14:59:35.480Z</time>
      </trkpt>
      <trkpt lat="48.25476" lon="-3.49924">
        <ele>156.903203</ele>
        <time>2022-12-11T14:59:38.474Z</time>
      </trkpt>
      <trkpt lat="48.25467" lon="-3.49918">
        <ele>156.342584</ele>
        <time>2022-12-11T14:59:41.471Z</time>
      </trkpt>
      <trkpt lat="48.25458" lon="-3.49912">
        <ele>155.729107</ele>
        <time>2022-12-11T14:59:44.472Z</time>
      </trkpt>
      <trkpt lat="48.25447" lon="-3.49905">
        <ele>155.065506</ele>
        <time>2022-12-11T14:59:47.476Z</time>
      </trkpt>
      <trkpt lat="48.25437" lon="-3.49899">
        <ele>154.429807</ele>
        <time>2022-12-11T14:59:50.469Z</time>
      </trkpt>
      <trkpt lat="48.25428" lon="-3.49891">
        <ele>153.821689</ele>
        <time>2022-12-11T14:59:53.472Z</time>
      </trkpt>
      <trkpt lat="48.2542" lon="-3.49886">
        <ele>153.264205</ele>
        <time>2022-12-11T14:59:56.475Z</time>
      </trkpt>
      <trkpt lat="48.25411" lon="-3.49879">
        <ele>152.688014</ele>
        <time>2022-12-11T14:59:59.471Z</time>
      </trkpt>
      <trkpt lat="48.25402" lon="-3.49874">
        <ele>152.136521</ele>
        <time>2022-12-11T15:00:02.484Z</time>
      </trkpt>
      <trkpt lat="48.25391" lon="-3.49867">
        <ele>151.432395</ele>
        <time>2022-12-11T15:00:06.466Z</time>
      </trkpt>
      <trkpt lat="48.25381" lon="-3.49859">
        <ele>150.731881</ele>
        <time>2022-12-11T15:00:10.483Z</time>
      </trkpt>
      <trkpt lat="48.25371" lon="-3.49851">
        <ele>150.085685</ele>
        <time>2022-12-11T15:00:14.471Z</time>
      </trkpt>
      <trkpt lat="48.25363" lon="-3.49844">
        <ele>149.543449</ele>
        <time>2022-12-11T15:00:17.470Z</time>
      </trkpt>
      <trkpt lat="48.25357" lon="-3.49833">
        <ele>148.978331</ele>
        <time>2022-12-11T15:00:20.474Z</time>
      </trkpt>
      <trkpt lat="48.2535" lon="-3.49819">
        <ele>148.305385</ele>
        <time>2022-12-11T15:00:24.475Z</time>
      </trkpt>
      <trkpt lat="48.25345" lon="-3.49807">
        <ele>147.768156</ele>
        <time>2022-12-11T15:00:27.474Z</time>
      </trkpt>
      <trkpt lat="48.25341" lon="-3.49793">
        <ele>147.898515</ele>
        <time>2022-12-11T15:00:30.474Z</time>
      </trkpt>
      <trkpt lat="48.25338" lon="-3.49779">
        <ele>148.360649</ele>
        <time>2022-12-11T15:00:33.470Z</time>
      </trkpt>
      <trkpt lat="48.25337" lon="-3.49764">
        <ele>148.814702</ele>
        <time>2022-12-11T15:00:36.474Z</time>
      </trkpt>
      <trkpt lat="48.25336" lon="-3.49749">
        <ele>149.266323</ele>
        <time>2022-12-11T15:00:39.465Z</time>
      </trkpt>
      <trkpt lat="48.25338" lon="-3.49734">
        <ele>149.72765</ele>
        <time>2022-12-11T15:00:43.469Z</time>
      </trkpt>
      <trkpt lat="48.25339" lon="-3.49717">
        <ele>150.252285</ele>
        <time>2022-12-11T15:00:47.479Z</time>
      </trkpt>
      <trkpt lat="48.25345" lon="-3.49704">
        <ele>150.73829</ele>
        <time>2022-12-11T15:00:52.473Z</time>
      </trkpt>
      <trkpt lat="48.25346" lon="-3.49687">
        <ele>151.244818</ele>
        <time>2022-12-11T15:00:56.468Z</time>
      </trkpt>
      <trkpt lat="48.25347" lon="-3.49671">
        <ele>151.739629</ele>
        <time>2022-12-11T15:01:01.476Z</time>
      </trkpt>
      <trkpt lat="48.2535" lon="-3.49655">
        <ele>152.223453</ele>
        <time>2022-12-11T15:01:05.472Z</time>
      </trkpt>
      <trkpt lat="48.25351" lon="-3.4964">
        <ele>152.682096</ele>
        <time>2022-12-11T15:01:09.474Z</time>
      </trkpt>
      <trkpt lat="48.25351" lon="-3.49625">
        <ele>153.151036</ele>
        <time>2022-12-11T15:01:13.477Z</time>
      </trkpt>
      <trkpt lat="48.25356" lon="-3.49611">
        <ele>153.604574</ele>
        <time>2022-12-11T15:01:18.492Z</time>
      </trkpt>
      <trkpt lat="48.25356" lon="-3.49596">
        <ele>154.062203</ele>
        <time>2022-12-11T15:01:22.470Z</time>
      </trkpt>
      <trkpt lat="48.25355" lon="-3.49581">
        <ele>154.533316</ele>
        <time>2022-12-11T15:01:25.489Z</time>
      </trkpt>
      <trkpt lat="48.25354" lon="-3.49564">
        <ele>155.039843</ele>
        <time>2022-12-11T15:01:29.474Z</time>
      </trkpt>
      <trkpt lat="48.25352" lon="-3.49547">
        <ele>155.553995</ele>
        <time>2022-12-11T15:01:33.467Z</time>
      </trkpt>
      <trkpt lat="48.25354" lon="-3.49532">
        <ele>155.749315</ele>
        <time>2022-12-11T15:01:37.475Z</time>
      </trkpt>
      <trkpt lat="48.25356" lon="-3.49515">
        <ele>155.751678</ele>
        <time>2022-12-11T15:01:41.474Z</time>
      </trkpt>
      <trkpt lat="48.25355" lon="-3.49499">
        <ele>155.753722</ele>
        <time>2022-12-11T15:01:44.475Z</time>
      </trkpt>
      <trkpt lat="48.25358" lon="-3.49486">
        <ele>155.755589</ele>
        <time>2022-12-11T15:01:49.468Z</time>
      </trkpt>
      <trkpt lat="48.25359" lon="-3.49472">
        <ele>155.757499</ele>
        <time>2022-12-11T15:01:53.490Z</time>
      </trkpt>
      <trkpt lat="48.25361" lon="-3.49455">
        <ele>155.759839</ele>
        <time>2022-12-11T15:01:57.469Z</time>
      </trkpt>
      <trkpt lat="48.25364" lon="-3.49438">
        <ele>155.762146</ele>
        <time>2022-12-11T15:02:02.482Z</time>
      </trkpt>
      <trkpt lat="48.25365" lon="-3.49422">
        <ele>155.764328</ele>
        <time>2022-12-11T15:02:06.473Z</time>
      </trkpt>
      <trkpt lat="48.25367" lon="-3.49407">
        <ele>155.766349</ele>
        <time>2022-12-11T15:02:09.472Z</time>
      </trkpt>
      <trkpt lat="48.25368" lon="-3.49394">
        <ele>155.768212</ele>
        <time>2022-12-11T15:02:12.495Z</time>
      </trkpt>
      <trkpt lat="48.25369" lon="-3.49378">
        <ele>155.770338</ele>
        <time>2022-12-11T15:02:15.492Z</time>
      </trkpt>
      <trkpt lat="48.25371" lon="-3.49364">
        <ele>155.772251</ele>
        <time>2022-12-11T15:02:18.488Z</time>
      </trkpt>
      <trkpt lat="48.25374" lon="-3.49349">
        <ele>155.774303</ele>
        <time>2022-12-11T15:02:21.476Z</time>
      </trkpt>
      <trkpt lat="48.25377" lon="-3.49334">
        <ele>155.776347</ele>
        <time>2022-12-11T15:02:24.473Z</time>
      </trkpt>
      <trkpt lat="48.25375" lon="-3.49318">
        <ele>155.778601</ele>
        <time>2022-12-11T15:02:27.475Z</time>
      </trkpt>
      <trkpt lat="48.25373" lon="-3.49303">
        <ele>155.780601</ele>
        <time>2022-12-11T15:02:30.479Z</time>
      </trkpt>
      <trkpt lat="48.25371" lon="-3.49288">
        <ele>155.782742</ele>
        <time>2022-12-11T15:02:33.468Z</time>
      </trkpt>
      <trkpt lat="48.2537" lon="-3.49273">
        <ele>155.795328</ele>
        <time>2022-12-11T15:02:36.466Z</time>
      </trkpt>
      <trkpt lat="48.25368" lon="-3.49255">
        <ele>155.863514</ele>
        <time>2022-12-11T15:02:39.483Z</time>
      </trkpt>
      <trkpt lat="48.25366" lon="-3.49238">
        <ele>155.929837</ele>
        <time>2022-12-11T15:02:42.514Z</time>
      </trkpt>
      <trkpt lat="48.25364" lon="-3.49224">
        <ele>155.982653</ele>
        <time>2022-12-11T15:02:45.476Z</time>
      </trkpt>
      <trkpt lat="48.25363" lon="-3.49207">
        <ele>156.045289</ele>
        <time>2022-12-11T15:02:49.491Z</time>
      </trkpt>
      <trkpt lat="48.25361" lon="-3.49193">
        <ele>156.09885</ele>
        <time>2022-12-11T15:02:52.466Z</time>
      </trkpt>
      <trkpt lat="48.2536" lon="-3.49179">
        <ele>156.153189</ele>
        <time>2022-12-11T15:02:55.475Z</time>
      </trkpt>
      <trkpt lat="48.25358" lon="-3.49165">
        <ele>156.20796</ele>
        <time>2022-12-11T15:02:58.497Z</time>
      </trkpt>
      <trkpt lat="48.25356" lon="-3.4915">
        <ele>156.265433</ele>
        <time>2022-12-11T15:03:01.486Z</time>
      </trkpt>
      <trkpt lat="48.25355" lon="-3.49135">
        <ele>156.322059</ele>
        <time>2022-12-11T15:03:05.469Z</time>
      </trkpt>
      <trkpt lat="48.25354" lon="-3.49121">
        <ele>156.377323</ele>
        <time>2022-12-11T15:03:09.474Z</time>
      </trkpt>
      <trkpt lat="48.25353" lon="-3.49104">
        <ele>156.439707</ele>
        <time>2022-12-11T15:03:13.477Z</time>
      </trkpt>
      <trkpt lat="48.25352" lon="-3.4909">
        <ele>156.492287</ele>
        <time>2022-12-11T15:03:16.467Z</time>
      </trkpt>
      <trkpt lat="48.25351" lon="-3.49077">
        <ele>156.543521</ele>
        <time>2022-12-11T15:03:19.470Z</time>
      </trkpt>
      <trkpt lat="48.25349" lon="-3.49063">
        <ele>156.59613</ele>
        <time>2022-12-11T15:03:22.474Z</time>
      </trkpt>
      <trkpt lat="48.25347" lon="-3.49049">
        <ele>156.651472</ele>
        <time>2022-12-11T15:03:25.471Z</time>
      </trkpt>
      <trkpt lat="48.25345" lon="-3.49035">
        <ele>156.705439</ele>
        <time>2022-12-11T15:03:28.472Z</time>
      </trkpt>
      <trkpt lat="48.25343" lon="-3.4902">
        <ele>156.764445</ele>
        <time>2022-12-11T15:03:31.470Z</time>
      </trkpt>
      <trkpt lat="48.25342" lon="-3.49006">
        <ele>156.799093</ele>
        <time>2022-12-11T15:03:34.471Z</time>
      </trkpt>
      <trkpt lat="48.2534" lon="-3.4899">
        <ele>156.769582</ele>
        <time>2022-12-11T15:03:38.475Z</time>
      </trkpt>
      <trkpt lat="48.25339" lon="-3.48974">
        <ele>156.74171</ele>
        <time>2022-12-11T15:03:42.479Z</time>
      </trkpt>
      <trkpt lat="48.25336" lon="-3.4896">
        <ele>156.714047</ele>
        <time>2022-12-11T15:03:46.470Z</time>
      </trkpt>
      <trkpt lat="48.25334" lon="-3.48944">
        <ele>156.68538</ele>
        <time>2022-12-11T15:03:50.475Z</time>
      </trkpt>
      <trkpt lat="48.25332" lon="-3.48929">
        <ele>156.658057</ele>
        <time>2022-12-11T15:03:54.468Z</time>
      </trkpt>
      <trkpt lat="48.25331" lon="-3.48913">
        <ele>156.628601</ele>
        <time>2022-12-11T15:03:59.484Z</time>
      </trkpt>
      <trkpt lat="48.2533" lon="-3.48896">
        <ele>156.598142</ele>
        <time>2022-12-11T15:04:03.472Z</time>
      </trkpt>
      <trkpt lat="48.25328" lon="-3.48879">
        <ele>156.565653</ele>
        <time>2022-12-11T15:04:07.477Z</time>
      </trkpt>
      <trkpt lat="48.25325" lon="-3.48864">
        <ele>156.538138</ele>
        <time>2022-12-11T15:04:10.484Z</time>
      </trkpt>
      <trkpt lat="48.25323" lon="-3.48848">
        <ele>156.509013</ele>
        <time>2022-12-11T15:04:14.471Z</time>
      </trkpt>
      <trkpt lat="48.25321" lon="-3.48831">
        <ele>156.477508</ele>
        <time>2022-12-11T15:04:18.479Z</time>
      </trkpt>
      <trkpt lat="48.2532" lon="-3.48813">
        <ele>156.444563</ele>
        <time>2022-12-11T15:04:22.470Z</time>
      </trkpt>
      <trkpt lat="48.25319" lon="-3.48795">
        <ele>156.413073</ele>
        <time>2022-12-11T15:04:26.466Z</time>
      </trkpt>
      <trkpt lat="48.25317" lon="-3.48778">
        <ele>156.381449</ele>
        <time>2022-12-11T15:04:30.475Z</time>
      </trkpt>
      <trkpt lat="48.25318" lon="-3.48762">
        <ele>156.352748</ele>
        <time>2022-12-11T15:04:33.469Z</time>
      </trkpt>
      <trkpt lat="48.25319" lon="-3.48747">
        <ele>156.325954</ele>
        <time>2022-12-11T15:04:36.471Z</time>
      </trkpt>
      <trkpt lat="48.25322" lon="-3.48732">
        <ele>156.352979</ele>
        <time>2022-12-11T15:04:39.477Z</time>
      </trkpt>
      <trkpt lat="48.25326" lon="-3.4872">
        <ele>156.398052</ele>
        <time>2022-12-11T15:04:42.476Z</time>
      </trkpt>
      <trkpt lat="48.25332" lon="-3.48706">
        <ele>156.451612</ele>
        <time>2022-12-11T15:04:46.469Z</time>
      </trkpt>
      <trkpt lat="48.25339" lon="-3.48695">
        <ele>156.500616</ele>
        <time>2022-12-11T15:04:49.497Z</time>
      </trkpt>
      <trkpt lat="48.25346" lon="-3.48684">
        <ele>156.551795</ele>
        <time>2022-12-11T15:04:52.478Z</time>
      </trkpt>
      <trkpt lat="48.25353" lon="-3.48675">
        <ele>156.598902</ele>
        <time>2022-12-11T15:04:55.474Z</time>
      </trkpt>
      <trkpt lat="48.25362" lon="-3.48666">
        <ele>156.650303</ele>
        <time>2022-12-11T15:04:59.487Z</time>
      </trkpt>
      <trkpt lat="48.2537" lon="-3.48658">
        <ele>156.696402</ele>
        <time>2022-12-11T15:05:02.474Z</time>
      </trkpt>
      <trkpt lat="48.25377" lon="-3.48649">
        <ele>156.741337</ele>
        <time>2022-12-11T15:05:05.471Z</time>
      </trkpt>
      <trkpt lat="48.25386" lon="-3.4864">
        <ele>156.79649</ele>
        <time>2022-12-11T15:05:09.490Z</time>
      </trkpt>
      <trkpt lat="48.25395" lon="-3.48631">
        <ele>156.848698</ele>
        <time>2022-12-11T15:05:12.488Z</time>
      </trkpt>
      <trkpt lat="48.25405" lon="-3.48621">
        <ele>156.906965</ele>
        <time>2022-12-11T15:05:16.473Z</time>
      </trkpt>
      <trkpt lat="48.25412" lon="-3.48612">
        <ele>156.952646</ele>
        <time>2022-12-11T15:05:19.478Z</time>
      </trkpt>
      <trkpt lat="48.2542" lon="-3.48602">
        <ele>157.002306</ele>
        <time>2022-12-11T15:05:22.477Z</time>
      </trkpt>
      <trkpt lat="48.25428" lon="-3.48593">
        <ele>157.052303</ele>
        <time>2022-12-11T15:05:25.466Z</time>
      </trkpt>
      <trkpt lat="48.25437" lon="-3.48583">
        <ele>157.105436</ele>
        <time>2022-12-11T15:05:28.468Z</time>
      </trkpt>
      <trkpt lat="48.25445" lon="-3.48573">
        <ele>157.158182</ele>
        <time>2022-12-11T15:05:32.470Z</time>
      </trkpt>
      <trkpt lat="48.25453" lon="-3.48559">
        <ele>157.281684</ele>
        <time>2022-12-11T15:05:36.471Z</time>
      </trkpt>
      <trkpt lat="48.25461" lon="-3.48551">
        <ele>157.475424</ele>
        <time>2022-12-11T15:05:39.476Z</time>
      </trkpt>
      <trkpt lat="48.25469" lon="-3.48543">
        <ele>157.692416</ele>
        <time>2022-12-11T15:05:44.480Z</time>
      </trkpt>
      <trkpt lat="48.25477" lon="-3.48534">
        <ele>157.880269</ele>
        <time>2022-12-11T15:05:48.486Z</time>
      </trkpt>
      <trkpt lat="48.25482" lon="-3.48523">
        <ele>158.075358</ele>
        <time>2022-12-11T15:05:51.473Z</time>
      </trkpt>
      <trkpt lat="48.2549" lon="-3.48515">
        <ele>158.268242</ele>
        <time>2022-12-11T15:05:54.472Z</time>
      </trkpt>
      <trkpt lat="48.25497" lon="-3.48504">
        <ele>158.477959</ele>
        <time>2022-12-11T15:05:57.469Z</time>
      </trkpt>
      <trkpt lat="48.25504" lon="-3.48492">
        <ele>158.707697</ele>
        <time>2022-12-11T15:06:01.472Z</time>
      </trkpt>
      <trkpt lat="48.25512" lon="-3.48484">
        <ele>158.898908</ele>
        <time>2022-12-11T15:06:04.478Z</time>
      </trkpt>
      <trkpt lat="48.25519" lon="-3.48476">
        <ele>159.095949</ele>
        <time>2022-12-11T15:06:07.487Z</time>
      </trkpt>
      <trkpt lat="48.25528" lon="-3.48468">
        <ele>159.299306</ele>
        <time>2022-12-11T15:06:10.469Z</time>
      </trkpt>
      <trkpt lat="48.25534" lon="-3.48458">
        <ele>159.496521</ele>
        <time>2022-12-11T15:06:13.482Z</time>
      </trkpt>
      <trkpt lat="48.25539" lon="-3.48446">
        <ele>159.690953</ele>
        <time>2022-12-11T15:06:16.476Z</time>
      </trkpt>
      <trkpt lat="48.25544" lon="-3.48432">
        <ele>159.90153</ele>
        <time>2022-12-11T15:06:19.488Z</time>
      </trkpt>
      <trkpt lat="48.25547" lon="-3.48418">
        <ele>160.109961</ele>
        <time>2022-12-11T15:06:22.468Z</time>
      </trkpt>
      <trkpt lat="48.2555" lon="-3.48404">
        <ele>160.311797</ele>
        <time>2022-12-11T15:06:25.472Z</time>
      </trkpt>
      <trkpt lat="48.25553" lon="-3.4839">
        <ele>160.513876</ele>
        <time>2022-12-11T15:06:28.468Z</time>
      </trkpt>
      <trkpt lat="48.25554" lon="-3.48373">
        <ele>160.753679</ele>
        <time>2022-12-11T15:06:32.470Z</time>
      </trkpt>
      <trkpt lat="48.25555" lon="-3.48358">
        <ele>160.956832</ele>
        <time>2022-12-11T15:06:36.471Z</time>
      </trkpt>
      <trkpt lat="48.25554" lon="-3.48344">
        <ele>160.97762</ele>
        <time>2022-12-11T15:06:39.471Z</time>
      </trkpt>
      <trkpt lat="48.25552" lon="-3.48326">
        <ele>161.003363</ele>
        <time>2022-12-11T15:06:43.473Z</time>
      </trkpt>
      <trkpt lat="48.25548" lon="-3.48311">
        <ele>161.026406</ele>
        <time>2022-12-11T15:06:46.469Z</time>
      </trkpt>
      <trkpt lat="48.25545" lon="-3.48298">
        <ele>161.046688</ele>
        <time>2022-12-11T15:06:49.476Z</time>
      </trkpt>
      <trkpt lat="48.2554" lon="-3.48282">
        <ele>161.07239</ele>
        <time>2022-12-11T15:06:53.475Z</time>
      </trkpt>
      <trkpt lat="48.25537" lon="-3.48265">
        <ele>161.098331</ele>
        <time>2022-12-11T15:06:57.478Z</time>
      </trkpt>
      <trkpt lat="48.25534" lon="-3.48252">
        <ele>161.118857</ele>
        <time>2022-12-11T15:07:00.476Z</time>
      </trkpt>
      <trkpt lat="48.2553" lon="-3.48236">
        <ele>161.142923</ele>
        <time>2022-12-11T15:07:04.473Z</time>
      </trkpt>
      <trkpt lat="48.25525" lon="-3.48221">
        <ele>161.167425</ele>
        <time>2022-12-11T15:07:08.470Z</time>
      </trkpt>
      <trkpt lat="48.2552" lon="-3.48208">
        <ele>161.189424</ele>
        <time>2022-12-11T15:07:11.466Z</time>
      </trkpt>
      <trkpt lat="48.25516" lon="-3.48191">
        <ele>161.215159</ele>
        <time>2022-12-11T15:07:15.482Z</time>
      </trkpt>
      <trkpt lat="48.25513" lon="-3.48179">
        <ele>161.234713</ele>
        <time>2022-12-11T15:07:18.471Z</time>
      </trkpt>
      <trkpt lat="48.25509" lon="-3.48164">
        <ele>161.257102</ele>
        <time>2022-12-11T15:07:21.497Z</time>
      </trkpt>
      <trkpt lat="48.25506" lon="-3.48151">
        <ele>161.278214</ele>
        <time>2022-12-11T15:07:24.470Z</time>
      </trkpt>
      <trkpt lat="48.25502" lon="-3.48137">
        <ele>161.300199</ele>
        <time>2022-12-11T15:07:27.476Z</time>
      </trkpt>
      <trkpt lat="48.25499" lon="-3.48123">
        <ele>161.321968</ele>
        <time>2022-12-11T15:07:30.485Z</time>
      </trkpt>
      <trkpt lat="48.25494" lon="-3.48106">
        <ele>161.347931</ele>
        <time>2022-12-11T15:07:34.473Z</time>
      </trkpt>
      <trkpt lat="48.25489" lon="-3.4809">
        <ele>161.214254</ele>
        <time>2022-12-11T15:07:37.478Z</time>
      </trkpt>
      <trkpt lat="48.25486" lon="-3.48074">
        <ele>161.086465</ele>
        <time>2022-12-11T15:07:40.473Z</time>
      </trkpt>
      <trkpt lat="48.25482" lon="-3.4806">
        <ele>160.965617</ele>
        <time>2022-12-11T15:07:43.484Z</time>
      </trkpt>
      <trkpt lat="48.2548" lon="-3.48046">
        <ele>160.860422</ele>
        <time>2022-12-11T15:07:46.492Z</time>
      </trkpt>
      <trkpt lat="48.25477" lon="-3.48032">
        <ele>160.739065</ele>
        <time>2022-12-11T15:07:49.472Z</time>
      </trkpt>
      <trkpt lat="48.25474" lon="-3.48018">
        <ele>160.631225</ele>
        <time>2022-12-11T15:07:52.486Z</time>
      </trkpt>
      <trkpt lat="48.25473" lon="-3.48002">
        <ele>160.503826</ele>
        <time>2022-12-11T15:07:56.476Z</time>
      </trkpt>
      <trkpt lat="48.25473" lon="-3.47986">
        <ele>160.385874</ele>
        <time>2022-12-11T15:08:00.493Z</time>
      </trkpt>
      <trkpt lat="48.25473" lon="-3.47972">
        <ele>160.276585</ele>
        <time>2022-12-11T15:08:03.473Z</time>
      </trkpt>
      <trkpt lat="48.25474" lon="-3.47957">
        <ele>160.158474</ele>
        <time>2022-12-11T15:08:06.477Z</time>
      </trkpt>
      <trkpt lat="48.25478" lon="-3.47945">
        <ele>160.054601</ele>
        <time>2022-12-11T15:08:09.468Z</time>
      </trkpt>
      <trkpt lat="48.25483" lon="-3.47932">
        <ele>159.943136</ele>
        <time>2022-12-11T15:08:13.469Z</time>
      </trkpt>
      <trkpt lat="48.25489" lon="-3.47919">
        <ele>159.8246</ele>
        <time>2022-12-11T15:08:17.474Z</time>
      </trkpt>
      <trkpt lat="48.25492" lon="-3.47903">
        <ele>159.691337</ele>
        <time>2022-12-11T15:08:21.497Z</time>
      </trkpt>
      <trkpt lat="48.25493" lon="-3.47886">
        <ele>159.559997</ele>
        <time>2022-12-11T15:08:24.481Z</time>
      </trkpt>
      <trkpt lat="48.25498" lon="-3.47872">
        <ele>159.439333</ele>
        <time>2022-12-11T15:08:27.474Z</time>
      </trkpt>
      <trkpt lat="48.25503" lon="-3.47857">
        <ele>159.3081</ele>
        <time>2022-12-11T15:08:31.488Z</time>
      </trkpt>
      <trkpt lat="48.2551" lon="-3.47845">
        <ele>159.421635</ele>
        <time>2022-12-11T15:08:35.475Z</time>
      </trkpt>
      <trkpt lat="48.25515" lon="-3.4783">
        <ele>159.66412</ele>
        <time>2022-12-11T15:08:39.477Z</time>
      </trkpt>
      <trkpt lat="48.25519" lon="-3.47818">
        <ele>159.874157</ele>
        <time>2022-12-11T15:08:42.474Z</time>
      </trkpt>
      <trkpt lat="48.25523" lon="-3.47805">
        <ele>160.07645</ele>
        <time>2022-12-11T15:08:45.476Z</time>
      </trkpt>
      <trkpt lat="48.25527" lon="-3.47792">
        <ele>160.289683</ele>
        <time>2022-12-11T15:08:48.474Z</time>
      </trkpt>
      <trkpt lat="48.25531" lon="-3.47778">
        <ele>160.503867</ele>
        <time>2022-12-11T15:08:51.472Z</time>
      </trkpt>
      <trkpt lat="48.25536" lon="-3.47765">
        <ele>160.733155</ele>
        <time>2022-12-11T15:08:54.473Z</time>
      </trkpt>
      <trkpt lat="48.25541" lon="-3.4775">
        <ele>160.968735</ele>
        <time>2022-12-11T15:08:57.485Z</time>
      </trkpt>
      <trkpt lat="48.25546" lon="-3.47738">
        <ele>161.183951</ele>
        <time>2022-12-11T15:09:00.476Z</time>
      </trkpt>
      <trkpt lat="48.25552" lon="-3.47725">
        <ele>161.417535</ele>
        <time>2022-12-11T15:09:04.473Z</time>
      </trkpt>
      <trkpt lat="48.25557" lon="-3.4771">
        <ele>161.672952</ele>
        <time>2022-12-11T15:09:08.484Z</time>
      </trkpt>
      <trkpt lat="48.25562" lon="-3.47697">
        <ele>161.888751</ele>
        <time>2022-12-11T15:09:11.473Z</time>
      </trkpt>
      <trkpt lat="48.25567" lon="-3.47683">
        <ele>162.115905</ele>
        <time>2022-12-11T15:09:14.475Z</time>
      </trkpt>
      <trkpt lat="48.25572" lon="-3.4767">
        <ele>162.347557</ele>
        <time>2022-12-11T15:09:17.467Z</time>
      </trkpt>
      <trkpt lat="48.25578" lon="-3.47656">
        <ele>162.587471</ele>
        <time>2022-12-11T15:09:20.484Z</time>
      </trkpt>
      <trkpt lat="48.25583" lon="-3.47639">
        <ele>162.853938</ele>
        <time>2022-12-11T15:09:23.486Z</time>
      </trkpt>
      <trkpt lat="48.25588" lon="-3.47627">
        <ele>163.065268</ele>
        <time>2022-12-11T15:09:26.475Z</time>
      </trkpt>
      <trkpt lat="48.25592" lon="-3.47611">
        <ele>163.227347</ele>
        <time>2022-12-11T15:09:30.476Z</time>
      </trkpt>
      <trkpt lat="48.25596" lon="-3.47597">
        <ele>163.200921</ele>
        <time>2022-12-11T15:09:33.478Z</time>
      </trkpt>
      <trkpt lat="48.25601" lon="-3.47581">
        <ele>163.171342</ele>
        <time>2022-12-11T15:09:36.473Z</time>
      </trkpt>
      <trkpt lat="48.25605" lon="-3.47566">
        <ele>163.14172</ele>
        <time>2022-12-11T15:09:39.471Z</time>
      </trkpt>
      <trkpt lat="48.25611" lon="-3.47551">
        <ele>163.111438</ele>
        <time>2022-12-11T15:09:42.475Z</time>
      </trkpt>
      <trkpt lat="48.25615" lon="-3.47535">
        <ele>163.08053</ele>
        <time>2022-12-11T15:09:45.472Z</time>
      </trkpt>
      <trkpt lat="48.2562" lon="-3.47519">
        <ele>163.049998</ele>
        <time>2022-12-11T15:09:48.476Z</time>
      </trkpt>
      <trkpt lat="48.25625" lon="-3.47504">
        <ele>163.020253</ele>
        <time>2022-12-11T15:09:51.482Z</time>
      </trkpt>
      <trkpt lat="48.25631" lon="-3.47492">
        <ele>162.993861</ele>
        <time>2022-12-11T15:09:54.487Z</time>
      </trkpt>
      <trkpt lat="48.25637" lon="-3.47478">
        <ele>162.964254</ele>
        <time>2022-12-11T15:09:58.479Z</time>
      </trkpt>
      <trkpt lat="48.25641" lon="-3.47465">
        <ele>162.938856</ele>
        <time>2022-12-11T15:10:01.483Z</time>
      </trkpt>
      <trkpt lat="48.25644" lon="-3.47451">
        <ele>162.912234</ele>
        <time>2022-12-11T15:10:04.492Z</time>
      </trkpt>
      <trkpt lat="48.25649" lon="-3.47436">
        <ele>162.883962</ele>
        <time>2022-12-11T15:10:08.477Z</time>
      </trkpt>
      <trkpt lat="48.25652" lon="-3.47424">
        <ele>162.859714</ele>
        <time>2022-12-11T15:10:12.476Z</time>
      </trkpt>
      <trkpt lat="48.25656" lon="-3.47408">
        <ele>162.830373</ele>
        <time>2022-12-11T15:10:17.477Z</time>
      </trkpt>
      <trkpt lat="48.25661" lon="-3.47392">
        <ele>162.800244</ele>
        <time>2022-12-11T15:10:21.477Z</time>
      </trkpt>
      <trkpt lat="48.25667" lon="-3.4738">
        <ele>162.7738</ele>
        <time>2022-12-11T15:10:24.480Z</time>
      </trkpt>
      <trkpt lat="48.25671" lon="-3.47368">
        <ele>162.816954</ele>
        <time>2022-12-11T15:10:27.484Z</time>
      </trkpt>
      <trkpt lat="48.25675" lon="-3.47352">
        <ele>162.958058</ele>
        <time>2022-12-11T15:10:31.474Z</time>
      </trkpt>
      <trkpt lat="48.25679" lon="-3.47336">
        <ele>163.098708</ele>
        <time>2022-12-11T15:10:35.476Z</time>
      </trkpt>
      <trkpt lat="48.25677" lon="-3.47322">
        <ele>163.215138</ele>
        <time>2022-12-11T15:10:38.487Z</time>
      </trkpt>
      <trkpt lat="48.25675" lon="-3.47307">
        <ele>163.340057</ele>
        <time>2022-12-11T15:10:41.476Z</time>
      </trkpt>
      <trkpt lat="48.25674" lon="-3.4729">
        <ele>163.475988</ele>
        <time>2022-12-11T15:10:45.497Z</time>
      </trkpt>
      <trkpt lat="48.25673" lon="-3.47274">
        <ele>163.606977</ele>
        <time>2022-12-11T15:10:49.490Z</time>
      </trkpt>
      <trkpt lat="48.2567" lon="-3.47261">
        <ele>163.71862</ele>
        <time>2022-12-11T15:10:52.476Z</time>
      </trkpt>
      <trkpt lat="48.25668" lon="-3.47248">
        <ele>163.830256</ele>
        <time>2022-12-11T15:10:55.474Z</time>
      </trkpt>
      <trkpt lat="48.25665" lon="-3.47231">
        <ele>163.973284</ele>
        <time>2022-12-11T15:10:59.469Z</time>
      </trkpt>
      <trkpt lat="48.25663" lon="-3.47217">
        <ele>164.09189</ele>
        <time>2022-12-11T15:11:02.471Z</time>
      </trkpt>
      <trkpt lat="48.2566" lon="-3.47203">
        <ele>164.214411</ele>
        <time>2022-12-11T15:11:05.479Z</time>
      </trkpt>
      <trkpt lat="48.25656" lon="-3.4719">
        <ele>164.327895</ele>
        <time>2022-12-11T15:11:08.469Z</time>
      </trkpt>
      <trkpt lat="48.25653" lon="-3.47175">
        <ele>164.456539</ele>
        <time>2022-12-11T15:11:12.487Z</time>
      </trkpt>
      <trkpt lat="48.25649" lon="-3.47161">
        <ele>164.580972</ele>
        <time>2022-12-11T15:11:18.482Z</time>
      </trkpt>
      <trkpt lat="48.25647" lon="-3.47146">
        <ele>164.70538</ele>
        <time>2022-12-11T15:11:23.471Z</time>
      </trkpt>
      <trkpt lat="48.25643" lon="-3.47131">
        <ele>164.836793</ele>
        <time>2022-12-11T15:11:27.493Z</time>
      </trkpt>
      <trkpt lat="48.25641" lon="-3.47117">
        <ele>164.95002</ele>
        <time>2022-12-11T15:11:30.479Z</time>
      </trkpt>
      <trkpt lat="48.25638" lon="-3.47104">
        <ele>164.920368</ele>
        <time>2022-12-11T15:11:33.474Z</time>
      </trkpt>
      <trkpt lat="48.25636" lon="-3.47088">
        <ele>164.849558</ele>
        <time>2022-12-11T15:11:37.474Z</time>
      </trkpt>
      <trkpt lat="48.25633" lon="-3.47071">
        <ele>164.777312</ele>
        <time>2022-12-11T15:11:41.476Z</time>
      </trkpt>
      <trkpt lat="48.25631" lon="-3.47054">
        <ele>164.702096</ele>
        <time>2022-12-11T15:11:45.487Z</time>
      </trkpt>
      <trkpt lat="48.25628" lon="-3.47041">
        <ele>164.644681</ele>
        <time>2022-12-11T15:11:48.490Z</time>
      </trkpt>
      <trkpt lat="48.25625" lon="-3.47027">
        <ele>164.585898</ele>
        <time>2022-12-11T15:11:51.477Z</time>
      </trkpt>
      <trkpt lat="48.25623" lon="-3.47013">
        <ele>164.524041</ele>
        <time>2022-12-11T15:11:54.486Z</time>
      </trkpt>
      <trkpt lat="48.25621" lon="-3.46999">
        <ele>164.465169</ele>
        <time>2022-12-11T15:11:57.470Z</time>
      </trkpt>
      <trkpt lat="48.2562" lon="-3.46984">
        <ele>164.399082</ele>
        <time>2022-12-11T15:12:00.499Z</time>
      </trkpt>
      <trkpt lat="48.25616" lon="-3.46968">
        <ele>164.32894</ele>
        <time>2022-12-11T15:12:03.480Z</time>
      </trkpt>
      <trkpt lat="48.25614" lon="-3.46952">
        <ele>164.259435</ele>
        <time>2022-12-11T15:12:06.470Z</time>
      </trkpt>
      <trkpt lat="48.25611" lon="-3.46936">
        <ele>164.191273</ele>
        <time>2022-12-11T15:12:09.479Z</time>
      </trkpt>
      <trkpt lat="48.25608" lon="-3.46922">
        <ele>164.130052</ele>
        <time>2022-12-11T15:12:12.477Z</time>
      </trkpt>
      <trkpt lat="48.25605" lon="-3.46908">
        <ele>164.067277</ele>
        <time>2022-12-11T15:12:15.475Z</time>
      </trkpt>
      <trkpt lat="48.25603" lon="-3.46894">
        <ele>164.00604</ele>
        <time>2022-12-11T15:12:18.474Z</time>
      </trkpt>
      <trkpt lat="48.25599" lon="-3.46877">
        <ele>163.930623</ele>
        <time>2022-12-11T15:12:21.483Z</time>
      </trkpt>
      <trkpt lat="48.25597" lon="-3.46862">
        <ele>163.867304</ele>
        <time>2022-12-11T15:12:24.479Z</time>
      </trkpt>
      <trkpt lat="48.25595" lon="-3.46847">
        <ele>163.879686</ele>
        <time>2022-12-11T15:12:28.474Z</time>
      </trkpt>
      <trkpt lat="48.25592" lon="-3.46831">
        <ele>163.980938</ele>
        <time>2022-12-11T15:12:31.471Z</time>
      </trkpt>
      <trkpt lat="48.2559" lon="-3.46814">
        <ele>164.089546</ele>
        <time>2022-12-11T15:12:34.474Z</time>
      </trkpt>
      <trkpt lat="48.25587" lon="-3.46796">
        <ele>164.197736</ele>
        <time>2022-12-11T15:12:37.470Z</time>
      </trkpt>
      <trkpt lat="48.25585" lon="-3.46783">
        <ele>164.284884</ele>
        <time>2022-12-11T15:12:40.472Z</time>
      </trkpt>
      <trkpt lat="48.25585" lon="-3.46769">
        <ele>164.368738</ele>
        <time>2022-12-11T15:12:43.491Z</time>
      </trkpt>
      <trkpt lat="48.25584" lon="-3.46753">
        <ele>164.467925</ele>
        <time>2022-12-11T15:12:46.468Z</time>
      </trkpt>
      <trkpt lat="48.25587" lon="-3.4674">
        <ele>164.55267</ele>
        <time>2022-12-11T15:12:49.469Z</time>
      </trkpt>
      <trkpt lat="48.25592" lon="-3.46725">
        <ele>164.655277</ele>
        <time>2022-12-11T15:12:53.510Z</time>
      </trkpt>
      <trkpt lat="48.25596" lon="-3.46713">
        <ele>164.741378</ele>
        <time>2022-12-11T15:12:56.473Z</time>
      </trkpt>
      <trkpt lat="48.25601" lon="-3.46697">
        <ele>164.843051</ele>
        <time>2022-12-11T15:12:59.477Z</time>
      </trkpt>
      <trkpt lat="48.25605" lon="-3.46683">
        <ele>164.940982</ele>
        <time>2022-12-11T15:13:02.478Z</time>
      </trkpt>
      <trkpt lat="48.25609" lon="-3.46669">
        <ele>165.037766</ele>
        <time>2022-12-11T15:13:05.479Z</time>
      </trkpt>
      <trkpt lat="48.25614" lon="-3.46653">
        <ele>165.14136</ele>
        <time>2022-12-11T15:13:08.487Z</time>
      </trkpt>
      <trkpt lat="48.25619" lon="-3.4664">
        <ele>165.23432</ele>
        <time>2022-12-11T15:13:11.492Z</time>
      </trkpt>
      <trkpt lat="48.25624" lon="-3.46623">
        <ele>165.347918</ele>
        <time>2022-12-11T15:13:15.473Z</time>
      </trkpt>
      <trkpt lat="48.25628" lon="-3.4661">
        <ele>165.436876</ele>
        <time>2022-12-11T15:13:18.485Z</time>
      </trkpt>
      <trkpt lat="48.25631" lon="-3.46598">
        <ele>165.531427</ele>
        <time>2022-12-11T15:13:21.477Z</time>
      </trkpt>
      <trkpt lat="48.25635" lon="-3.46583">
        <ele>165.668716</ele>
        <time>2022-12-11T15:13:24.472Z</time>
      </trkpt>
      <trkpt lat="48.25639" lon="-3.46571">
        <ele>165.789539</ele>
        <time>2022-12-11T15:13:27.491Z</time>
      </trkpt>
      <trkpt lat="48.25645" lon="-3.46557">
        <ele>165.931868</ele>
        <time>2022-12-11T15:13:30.479Z</time>
      </trkpt>
      <trkpt lat="48.25649" lon="-3.46543">
        <ele>166.067048</ele>
        <time>2022-12-11T15:13:33.489Z</time>
      </trkpt>
      <trkpt lat="48.25653" lon="-3.46529">
        <ele>166.206957</ele>
        <time>2022-12-11T15:13:37.478Z</time>
      </trkpt>
      <trkpt lat="48.25658" lon="-3.46515">
        <ele>166.340755</ele>
        <time>2022-12-11T15:13:40.480Z</time>
      </trkpt>
      <trkpt lat="48.25663" lon="-3.46501">
        <ele>166.48462</ele>
        <time>2022-12-11T15:13:44.473Z</time>
      </trkpt>
      <trkpt lat="48.25669" lon="-3.46486">
        <ele>166.63503</ele>
        <time>2022-12-11T15:13:47.477Z</time>
      </trkpt>
      <trkpt lat="48.25673" lon="-3.4647">
        <ele>166.786359</ele>
        <time>2022-12-11T15:13:50.483Z</time>
      </trkpt>
      <trkpt lat="48.25675" lon="-3.46455">
        <ele>166.919101</ele>
        <time>2022-12-11T15:13:53.503Z</time>
      </trkpt>
      <trkpt lat="48.25674" lon="-3.46436">
        <ele>167.090637</ele>
        <time>2022-12-11T15:13:57.484Z</time>
      </trkpt>
      <trkpt lat="48.25673" lon="-3.46421">
        <ele>167.22345</ele>
        <time>2022-12-11T15:14:00.473Z</time>
      </trkpt>
      <trkpt lat="48.25672" lon="-3.46406">
        <ele>167.354097</ele>
        <time>2022-12-11T15:14:03.487Z</time>
      </trkpt>
      <trkpt lat="48.25669" lon="-3.4639">
        <ele>167.496875</ele>
        <time>2022-12-11T15:14:06.468Z</time>
      </trkpt>
      <trkpt lat="48.25666" lon="-3.46376">
        <ele>167.631566</ele>
        <time>2022-12-11T15:14:09.487Z</time>
      </trkpt>
      <trkpt lat="48.25662" lon="-3.46364">
        <ele>167.752087</ele>
        <time>2022-12-11T15:14:12.477Z</time>
      </trkpt>
      <trkpt lat="48.25658" lon="-3.46348">
        <ele>167.859938</ele>
        <time>2022-12-11T15:14:16.474Z</time>
      </trkpt>
      <trkpt lat="48.25652" lon="-3.46335">
        <ele>167.770897</ele>
        <time>2022-12-11T15:14:19.485Z</time>
      </trkpt>
      <trkpt lat="48.25646" lon="-3.46325">
        <ele>167.69288</ele>
        <time>2022-12-11T15:14:22.490Z</time>
      </trkpt>
      <trkpt lat="48.25639" lon="-3.46316">
        <ele>167.612886</ele>
        <time>2022-12-11T15:14:25.490Z</time>
      </trkpt>
      <trkpt lat="48.25631" lon="-3.46308">
        <ele>167.527669</ele>
        <time>2022-12-11T15:14:28.500Z</time>
      </trkpt>
      <trkpt lat="48.25622" lon="-3.46301">
        <ele>167.443227</ele>
        <time>2022-12-11T15:14:31.467Z</time>
      </trkpt>
      <trkpt lat="48.25613" lon="-3.46295">
        <ele>167.360804</ele>
        <time>2022-12-11T15:14:34.476Z</time>
      </trkpt>
      <trkpt lat="48.25605" lon="-3.4629">
        <ele>167.278822</ele>
        <time>2022-12-11T15:14:37.498Z</time>
      </trkpt>
      <trkpt lat="48.25594" lon="-3.46283">
        <ele>167.17805</ele>
        <time>2022-12-11T15:14:41.501Z</time>
      </trkpt>
      <trkpt lat="48.25583" lon="-3.46278">
        <ele>167.079262</ele>
        <time>2022-12-11T15:14:45.502Z</time>
      </trkpt>
      <trkpt lat="48.25574" lon="-3.46273">
        <ele>166.99488</ele>
        <time>2022-12-11T15:14:48.480Z</time>
      </trkpt>
      <trkpt lat="48.25565" lon="-3.46265">
        <ele>166.909687</ele>
        <time>2022-12-11T15:14:51.494Z</time>
      </trkpt>
      <trkpt lat="48.25555" lon="-3.46257">
        <ele>166.809089</ele>
        <time>2022-12-11T15:14:55.482Z</time>
      </trkpt>
      <trkpt lat="48.25547" lon="-3.46251">
        <ele>166.729144</ele>
        <time>2022-12-11T15:14:58.497Z</time>
      </trkpt>
      <trkpt lat="48.25539" lon="-3.46243">
        <ele>166.64885</ele>
        <time>2022-12-11T15:15:01.475Z</time>
      </trkpt>
      <trkpt lat="48.25528" lon="-3.46236">
        <ele>166.547018</ele>
        <time>2022-12-11T15:15:05.499Z</time>
      </trkpt>
      <trkpt lat="48.25519" lon="-3.46228">
        <ele>166.455222</ele>
        <time>2022-12-11T15:15:08.498Z</time>
      </trkpt>
      <trkpt lat="48.2551" lon="-3.46221">
        <ele>166.369344</ele>
        <time>2022-12-11T15:15:11.476Z</time>
      </trkpt>
      <trkpt lat="48.25499" lon="-3.46214">
        <ele>166.556557</ele>
        <time>2022-12-11T15:15:15.476Z</time>
      </trkpt>
      <trkpt lat="48.25489" lon="-3.46207">
        <ele>166.938315</ele>
        <time>2022-12-11T15:15:18.482Z</time>
      </trkpt>
      <trkpt lat="48.2548" lon="-3.46201">
        <ele>167.293321</ele>
        <time>2022-12-11T15:15:21.493Z</time>
      </trkpt>
      <trkpt lat="48.2547" lon="-3.46191">
        <ele>167.69756</ele>
        <time>2022-12-11T15:15:24.475Z</time>
      </trkpt>
      <trkpt lat="48.25459" lon="-3.46182">
        <ele>168.122417</ele>
        <time>2022-12-11T15:15:27.483Z</time>
      </trkpt>
      <trkpt lat="48.25449" lon="-3.46174">
        <ele>168.518624</ele>
        <time>2022-12-11T15:15:30.497Z</time>
      </trkpt>
      <trkpt lat="48.25438" lon="-3.46167">
        <ele>168.940009</ele>
        <time>2022-12-11T15:15:33.471Z</time>
      </trkpt>
      <trkpt lat="48.25428" lon="-3.46163">
        <ele>169.276535</ele>
        <time>2022-12-11T15:15:36.474Z</time>
      </trkpt>
      <trkpt lat="48.2542" lon="-3.46157">
        <ele>169.590576</ele>
        <time>2022-12-11T15:15:39.508Z</time>
      </trkpt>
      <trkpt lat="48.25411" lon="-3.46146">
        <ele>169.985482</ele>
        <time>2022-12-11T15:15:43.488Z</time>
      </trkpt>
      <trkpt lat="48.25403" lon="-3.46138">
        <ele>170.327844</ele>
        <time>2022-12-11T15:15:48.476Z</time>
      </trkpt>
      <trkpt lat="48.25394" lon="-3.46136">
        <ele>170.643335</ele>
        <time>2022-12-11T15:15:54.496Z</time>
      </trkpt>
      <trkpt lat="48.25394" lon="-3.46133">
        <ele>170.73532</ele>
        <time>2022-12-11T15:17:10.206Z</time>
      </trkpt>
      <trkpt lat="48.25384" lon="-3.46129">
        <ele>171.12002</ele>
        <time>2022-12-11T15:21:44.573Z</time>
      </trkpt>
      <trkpt lat="48.25374" lon="-3.46122">
        <ele>171.49044</ele>
        <time>2022-12-11T15:21:49.494Z</time>
      </trkpt>
      <trkpt lat="48.25367" lon="-3.46111">
        <ele>171.844913</ele>
        <time>2022-12-11T15:22:19.489Z</time>
      </trkpt>
      <trkpt lat="48.25357" lon="-3.46104">
        <ele>172.227893</ele>
        <time>2022-12-11T15:22:25.478Z</time>
      </trkpt>
      <trkpt lat="48.25346" lon="-3.46098">
        <ele>172.544653</ele>
        <time>2022-12-11T15:22:29.473Z</time>
      </trkpt>
      <trkpt lat="48.25336" lon="-3.46092">
        <ele>172.585105</ele>
        <time>2022-12-11T15:22:32.478Z</time>
      </trkpt>
      <trkpt lat="48.25328" lon="-3.46085">
        <ele>172.623647</ele>
        <time>2022-12-11T15:22:35.482Z</time>
      </trkpt>
      <trkpt lat="48.25318" lon="-3.46077">
        <ele>172.666985</ele>
        <time>2022-12-11T15:22:38.469Z</time>
      </trkpt>
      <trkpt lat="48.25308" lon="-3.46068">
        <ele>172.711164</ele>
        <time>2022-12-11T15:22:41.472Z</time>
      </trkpt>
      <trkpt lat="48.25299" lon="-3.46059">
        <ele>172.756228</ele>
        <time>2022-12-11T15:22:44.485Z</time>
      </trkpt>
      <trkpt lat="48.25289" lon="-3.4605">
        <ele>172.800397</ele>
        <time>2022-12-11T15:22:47.497Z</time>
      </trkpt>
      <trkpt lat="48.2528" lon="-3.46039">
        <ele>172.845613</ele>
        <time>2022-12-11T15:22:50.496Z</time>
      </trkpt>
      <trkpt lat="48.25272" lon="-3.46029">
        <ele>172.888483</ele>
        <time>2022-12-11T15:22:53.484Z</time>
      </trkpt>
      <trkpt lat="48.25264" lon="-3.4602">
        <ele>172.927724</ele>
        <time>2022-12-11T15:22:56.485Z</time>
      </trkpt>
      <trkpt lat="48.25257" lon="-3.46009">
        <ele>172.967916</ele>
        <time>2022-12-11T15:22:59.483Z</time>
      </trkpt>
      <trkpt lat="48.2525" lon="-3.45999">
        <ele>173.00588</ele>
        <time>2022-12-11T15:23:02.482Z</time>
      </trkpt>
      <trkpt lat="48.25241" lon="-3.45988">
        <ele>173.050198</ele>
        <time>2022-12-11T15:23:05.484Z</time>
      </trkpt>
      <trkpt lat="48.25233" lon="-3.45975">
        <ele>173.09664</ele>
        <time>2022-12-11T15:23:08.480Z</time>
      </trkpt>
      <trkpt lat="48.25226" lon="-3.45961">
        <ele>173.143475</ele>
        <time>2022-12-11T15:23:11.477Z</time>
      </trkpt>
      <trkpt lat="48.25219" lon="-3.45948">
        <ele>173.187135</ele>
        <time>2022-12-11T15:23:14.495Z</time>
      </trkpt>
      <trkpt lat="48.25212" lon="-3.45934">
        <ele>173.23127</ele>
        <time>2022-12-11T15:23:17.482Z</time>
      </trkpt>
      <trkpt lat="48.25205" lon="-3.45919">
        <ele>173.146795</ele>
        <time>2022-12-11T15:23:20.481Z</time>
      </trkpt>
      <trkpt lat="48.25201" lon="-3.45905">
        <ele>173.044014</ele>
        <time>2022-12-11T15:23:23.491Z</time>
      </trkpt>
      <trkpt lat="48.25196" lon="-3.45891">
        <ele>172.938533</ele>
        <time>2022-12-11T15:23:26.479Z</time>
      </trkpt>
      <trkpt lat="48.25191" lon="-3.45879">
        <ele>172.842589</ele>
        <time>2022-12-11T15:23:29.479Z</time>
      </trkpt>
      <trkpt lat="48.25185" lon="-3.45862">
        <ele>172.713553</ele>
        <time>2022-12-11T15:23:32.481Z</time>
      </trkpt>
      <trkpt lat="48.2518" lon="-3.45844">
        <ele>172.582258</ele>
        <time>2022-12-11T15:23:35.478Z</time>
      </trkpt>
      <trkpt lat="48.25175" lon="-3.45827">
        <ele>172.457906</ele>
        <time>2022-12-11T15:23:38.480Z</time>
      </trkpt>
      <trkpt lat="48.25171" lon="-3.4581">
        <ele>172.337949</ele>
        <time>2022-12-11T15:23:41.491Z</time>
      </trkpt>
      <trkpt lat="48.25167" lon="-3.45794">
        <ele>172.226897</ele>
        <time>2022-12-11T15:23:44.483Z</time>
      </trkpt>
      <trkpt lat="48.25164" lon="-3.45779">
        <ele>172.121166</ele>
        <time>2022-12-11T15:23:47.483Z</time>
      </trkpt>
      <trkpt lat="48.25161" lon="-3.45765">
        <ele>172.021472</ele>
        <time>2022-12-11T15:23:50.479Z</time>
      </trkpt>
      <trkpt lat="48.25159" lon="-3.4575">
        <ele>171.921413</ele>
        <time>2022-12-11T15:23:53.528Z</time>
      </trkpt>
      <trkpt lat="48.25157" lon="-3.45736">
        <ele>171.82351</ele>
        <time>2022-12-11T15:23:56.486Z</time>
      </trkpt>
      <trkpt lat="48.25155" lon="-3.45721">
        <ele>171.727461</ele>
        <time>2022-12-11T15:23:59.470Z</time>
      </trkpt>
      <trkpt lat="48.25154" lon="-3.45707">
        <ele>171.629746</ele>
        <time>2022-12-11T15:24:02.481Z</time>
      </trkpt>
      <trkpt lat="48.25153" lon="-3.45693">
        <ele>171.534945</ele>
        <time>2022-12-11T15:24:05.488Z</time>
      </trkpt>
      <trkpt lat="48.25151" lon="-3.45678">
        <ele>171.447285</ele>
        <time>2022-12-11T15:24:08.484Z</time>
      </trkpt>
      <trkpt lat="48.25151" lon="-3.45663">
        <ele>171.621129</ele>
        <time>2022-12-11T15:24:11.474Z</time>
      </trkpt>
      <trkpt lat="48.2515" lon="-3.45648">
        <ele>171.795737</ele>
        <time>2022-12-11T15:24:14.486Z</time>
      </trkpt>
      <trkpt lat="48.2515" lon="-3.45633">
        <ele>171.970734</ele>
        <time>2022-12-11T15:24:17.486Z</time>
      </trkpt>
      <trkpt lat="48.2515" lon="-3.45617">
        <ele>172.151122</ele>
        <time>2022-12-11T15:24:20.497Z</time>
      </trkpt>
      <trkpt lat="48.25151" lon="-3.45602">
        <ele>172.327892</ele>
        <time>2022-12-11T15:24:23.497Z</time>
      </trkpt>
      <trkpt lat="48.25151" lon="-3.45585">
        <ele>172.532525</ele>
        <time>2022-12-11T15:24:27.479Z</time>
      </trkpt>
      <trkpt lat="48.25151" lon="-3.4557">
        <ele>172.696704</ele>
        <time>2022-12-11T15:24:30.485Z</time>
      </trkpt>
      <trkpt lat="48.25151" lon="-3.45555">
        <ele>172.874746</ele>
        <time>2022-12-11T15:24:33.480Z</time>
      </trkpt>
      <trkpt lat="48.25151" lon="-3.45541">
        <ele>173.041236</ele>
        <time>2022-12-11T15:24:36.499Z</time>
      </trkpt>
      <trkpt lat="48.25151" lon="-3.45523">
        <ele>173.245899</ele>
        <time>2022-12-11T15:24:40.481Z</time>
      </trkpt>
      <trkpt lat="48.25151" lon="-3.45509">
        <ele>173.408921</ele>
        <time>2022-12-11T15:24:43.479Z</time>
      </trkpt>
      <trkpt lat="48.25151" lon="-3.45494">
        <ele>173.576594</ele>
        <time>2022-12-11T15:24:46.489Z</time>
      </trkpt>
      <trkpt lat="48.25151" lon="-3.4548">
        <ele>173.74553</ele>
        <time>2022-12-11T15:24:49.481Z</time>
      </trkpt>
      <trkpt lat="48.25152" lon="-3.45465">
        <ele>173.911438</ele>
        <time>2022-12-11T15:24:52.484Z</time>
      </trkpt>
      <trkpt lat="48.25152" lon="-3.45451">
        <ele>174.080267</ele>
        <time>2022-12-11T15:24:55.489Z</time>
      </trkpt>
      <trkpt lat="48.25152" lon="-3.45436">
        <ele>174.249096</ele>
        <time>2022-12-11T15:24:58.478Z</time>
      </trkpt>
      <trkpt lat="48.25153" lon="-3.45421">
        <ele>174.420211</ele>
        <time>2022-12-11T15:25:01.496Z</time>
      </trkpt>
      <trkpt lat="48.25153" lon="-3.45405">
        <ele>174.59801</ele>
        <time>2022-12-11T15:25:04.498Z</time>
      </trkpt>
      <trkpt lat="48.25153" lon="-3.45389">
        <ele>174.761559</ele>
        <time>2022-12-11T15:25:07.486Z</time>
      </trkpt>
      <trkpt lat="48.25154" lon="-3.45373">
        <ele>174.921175</ele>
        <time>2022-12-11T15:25:10.476Z</time>
      </trkpt>
      <trkpt lat="48.25154" lon="-3.45356">
        <ele>175.085779</ele>
        <time>2022-12-11T15:25:13.476Z</time>
      </trkpt>
      <trkpt lat="48.25155" lon="-3.45339">
        <ele>175.254315</ele>
        <time>2022-12-11T15:25:16.491Z</time>
      </trkpt>
      <trkpt lat="48.25155" lon="-3.45322">
        <ele>175.41983</ele>
        <time>2022-12-11T15:25:19.479Z</time>
      </trkpt>
      <trkpt lat="48.25157" lon="-3.45306">
        <ele>175.581406</ele>
        <time>2022-12-11T15:25:22.489Z</time>
      </trkpt>
      <trkpt lat="48.25157" lon="-3.4529">
        <ele>175.741022</ele>
        <time>2022-12-11T15:25:25.482Z</time>
      </trkpt>
      <trkpt lat="48.25157" lon="-3.45276">
        <ele>175.879098</ele>
        <time>2022-12-11T15:25:28.479Z</time>
      </trkpt>
      <trkpt lat="48.25156" lon="-3.4526">
        <ele>176.031129</ele>
        <time>2022-12-11T15:25:31.480Z</time>
      </trkpt>
      <trkpt lat="48.25157" lon="-3.45245">
        <ele>176.18569</ele>
        <time>2022-12-11T15:25:35.476Z</time>
      </trkpt>
      <trkpt lat="48.25158" lon="-3.4523">
        <ele>176.325832</ele>
        <time>2022-12-11T15:25:38.485Z</time>
      </trkpt>
      <trkpt lat="48.25161" lon="-3.45216">
        <ele>176.479485</ele>
        <time>2022-12-11T15:25:41.492Z</time>
      </trkpt>
      <trkpt lat="48.25166" lon="-3.45202">
        <ele>176.63249</ele>
        <time>2022-12-11T15:25:44.493Z</time>
      </trkpt>
      <trkpt lat="48.2517" lon="-3.45188">
        <ele>176.782763</ele>
        <time>2022-12-11T15:25:47.480Z</time>
      </trkpt>
      <trkpt lat="48.25174" lon="-3.45175">
        <ele>176.922469</ele>
        <time>2022-12-11T15:25:50.482Z</time>
      </trkpt>
      <trkpt lat="48.25182" lon="-3.45162">
        <ele>177.092518</ele>
        <time>2022-12-11T15:25:54.482Z</time>
      </trkpt>
      <trkpt lat="48.25191" lon="-3.45152">
        <ele>177.213784</ele>
        <time>2022-12-11T15:25:58.477Z</time>
      </trkpt>
      <trkpt lat="48.252" lon="-3.45143">
        <ele>177.179422</ele>
        <time>2022-12-11T15:26:02.480Z</time>
      </trkpt>
      <trkpt lat="48.25208" lon="-3.45134">
        <ele>177.145871</ele>
        <time>2022-12-11T15:26:06.486Z</time>
      </trkpt>
      <trkpt lat="48.25217" lon="-3.45124">
        <ele>177.108706</ele>
        <time>2022-12-11T15:26:10.495Z</time>
      </trkpt>
      <trkpt lat="48.25225" lon="-3.45115">
        <ele>177.077856</ele>
        <time>2022-12-11T15:26:13.485Z</time>
      </trkpt>
      <trkpt lat="48.25234" lon="-3.45106">
        <ele>177.043372</ele>
        <time>2022-12-11T15:26:16.488Z</time>
      </trkpt>
      <trkpt lat="48.25243" lon="-3.45097">
        <ele>177.007833</ele>
        <time>2022-12-11T15:26:19.482Z</time>
      </trkpt>
      <trkpt lat="48.25252" lon="-3.45091">
        <ele>176.975602</ele>
        <time>2022-12-11T15:26:22.476Z</time>
      </trkpt>
      <trkpt lat="48.25262" lon="-3.45084">
        <ele>176.940434</ele>
        <time>2022-12-11T15:26:25.484Z</time>
      </trkpt>
      <trkpt lat="48.25273" lon="-3.45076">
        <ele>176.902237</ele>
        <time>2022-12-11T15:26:28.479Z</time>
      </trkpt>
      <trkpt lat="48.25282" lon="-3.45068">
        <ele>176.867211</ele>
        <time>2022-12-11T15:26:31.486Z</time>
      </trkpt>
      <trkpt lat="48.25292" lon="-3.45059">
        <ele>176.828975</ele>
        <time>2022-12-11T15:26:34.495Z</time>
      </trkpt>
      <trkpt lat="48.25302" lon="-3.4505">
        <ele>176.791608</ele>
        <time>2022-12-11T15:26:37.489Z</time>
      </trkpt>
      <trkpt lat="48.2531" lon="-3.45043">
        <ele>176.761009</ele>
        <time>2022-12-11T15:26:40.480Z</time>
      </trkpt>
      <trkpt lat="48.25318" lon="-3.45034">
        <ele>176.72978</ele>
        <time>2022-12-11T15:26:43.476Z</time>
      </trkpt>
      <trkpt lat="48.25328" lon="-3.45025">
        <ele>176.693592</ele>
        <time>2022-12-11T15:26:46.483Z</time>
      </trkpt>
      <trkpt lat="48.25338" lon="-3.45017">
        <ele>176.65588</ele>
        <time>2022-12-11T15:26:49.494Z</time>
      </trkpt>
      <trkpt lat="48.25348" lon="-3.4501">
        <ele>176.698826</ele>
        <time>2022-12-11T15:26:52.492Z</time>
      </trkpt>
      <trkpt lat="48.25357" lon="-3.45003">
        <ele>176.780619</ele>
        <time>2022-12-11T15:26:55.480Z</time>
      </trkpt>
      <trkpt lat="48.25368" lon="-3.44996">
        <ele>176.878072</ele>
        <time>2022-12-11T15:26:58.491Z</time>
      </trkpt>
      <trkpt lat="48.25379" lon="-3.44987">
        <ele>176.97629</ele>
        <time>2022-12-11T15:27:01.477Z</time>
      </trkpt>
      <trkpt lat="48.25388" lon="-3.44978">
        <ele>177.067592</ele>
        <time>2022-12-11T15:27:04.476Z</time>
      </trkpt>
      <trkpt lat="48.25398" lon="-3.44969">
        <ele>177.162092</ele>
        <time>2022-12-11T15:27:07.486Z</time>
      </trkpt>
      <trkpt lat="48.25409" lon="-3.4496">
        <ele>177.261823</ele>
        <time>2022-12-11T15:27:10.482Z</time>
      </trkpt>
      <trkpt lat="48.25419" lon="-3.44952">
        <ele>177.35926</ele>
        <time>2022-12-11T15:27:13.504Z</time>
      </trkpt>
      <trkpt lat="48.25428" lon="-3.44943">
        <ele>177.447727</ele>
        <time>2022-12-11T15:27:16.481Z</time>
      </trkpt>
      <trkpt lat="48.25437" lon="-3.44936">
        <ele>177.52976</ele>
        <time>2022-12-11T15:27:19.483Z</time>
      </trkpt>
      <trkpt lat="48.25447" lon="-3.44928">
        <ele>177.62216</ele>
        <time>2022-12-11T15:27:23.484Z</time>
      </trkpt>
      <trkpt lat="48.25456" lon="-3.4492">
        <ele>177.709669</ele>
        <time>2022-12-11T15:27:27.483Z</time>
      </trkpt>
      <trkpt lat="48.25464" lon="-3.44913">
        <ele>177.786335</ele>
        <time>2022-12-11T15:27:31.492Z</time>
      </trkpt>
      <trkpt lat="48.25473" lon="-3.44907">
        <ele>177.863968</ele>
        <time>2022-12-11T15:27:35.493Z</time>
      </trkpt>
      <trkpt lat="48.25483" lon="-3.44898">
        <ele>177.957237</ele>
        <time>2022-12-11T15:27:39.495Z</time>
      </trkpt>
      <trkpt lat="48.25492" lon="-3.4489">
        <ele>178.041479</ele>
        <time>2022-12-11T15:27:43.483Z</time>
      </trkpt>
      <trkpt lat="48.255" lon="-3.44883">
        <ele>178.118882</ele>
        <time>2022-12-11T15:27:46.479Z</time>
      </trkpt>
      <trkpt lat="48.2551" lon="-3.44875">
        <ele>178.258736</ele>
        <time>2022-12-11T15:27:50.480Z</time>
      </trkpt>
      <trkpt lat="48.2552" lon="-3.44867">
        <ele>178.394916</ele>
        <time>2022-12-11T15:27:54.476Z</time>
      </trkpt>
      <trkpt lat="48.2553" lon="-3.44859">
        <ele>178.523241</ele>
        <time>2022-12-11T15:27:57.478Z</time>
      </trkpt>
      <trkpt lat="48.2554" lon="-3.44851">
        <ele>178.651929</ele>
        <time>2022-12-11T15:28:00.480Z</time>
      </trkpt>
      <trkpt lat="48.2555" lon="-3.44842">
        <ele>178.787873</ele>
        <time>2022-12-11T15:28:04.481Z</time>
      </trkpt>
      <trkpt lat="48.25559" lon="-3.44835">
        <ele>178.910001</ele>
        <time>2022-12-11T15:28:08.478Z</time>
      </trkpt>
      <trkpt lat="48.25567" lon="-3.44828">
        <ele>179.018994</ele>
        <time>2022-12-11T15:28:11.476Z</time>
      </trkpt>
      <trkpt lat="48.25575" lon="-3.44819">
        <ele>179.133485</ele>
        <time>2022-12-11T15:28:14.498Z</time>
      </trkpt>
      <trkpt lat="48.25585" lon="-3.44809">
        <ele>179.273729</ele>
        <time>2022-12-11T15:28:18.482Z</time>
      </trkpt>
      <trkpt lat="48.25593" lon="-3.44799">
        <ele>179.397211</ele>
        <time>2022-12-11T15:28:21.486Z</time>
      </trkpt>
      <trkpt lat="48.25601" lon="-3.44787">
        <ele>179.529827</ele>
        <time>2022-12-11T15:28:24.494Z</time>
      </trkpt>
      <trkpt lat="48.25606" lon="-3.44773">
        <ele>179.654706</ele>
        <time>2022-12-11T15:28:27.484Z</time>
      </trkpt>
      <trkpt lat="48.25612" lon="-3.44759">
        <ele>179.783674</ele>
        <time>2022-12-11T15:28:30.495Z</time>
      </trkpt>
      <trkpt lat="48.25616" lon="-3.44745">
        <ele>179.905594</ele>
        <time>2022-12-11T15:28:33.484Z</time>
      </trkpt>
      <trkpt lat="48.2562" lon="-3.44731">
        <ele>180.019713</ele>
        <time>2022-12-11T15:28:36.482Z</time>
      </trkpt>
      <trkpt lat="48.25621" lon="-3.44717">
        <ele>180.129173</ele>
        <time>2022-12-11T15:28:39.481Z</time>
      </trkpt>
      <trkpt lat="48.25622" lon="-3.44701">
        <ele>180.263836</ele>
        <time>2022-12-11T15:28:42.511Z</time>
      </trkpt>
      <trkpt lat="48.25622" lon="-3.44687">
        <ele>180.401717</ele>
        <time>2022-12-11T15:28:45.484Z</time>
      </trkpt>
      <trkpt lat="48.25624" lon="-3.44672">
        <ele>180.550296</ele>
        <time>2022-12-11T15:28:49.489Z</time>
      </trkpt>
      <trkpt lat="48.25622" lon="-3.44658">
        <ele>180.694961</ele>
        <time>2022-12-11T15:28:55.488Z</time>
      </trkpt>
      <trkpt lat="48.25621" lon="-3.44643">
        <ele>180.839559</ele>
        <time>2022-12-11T15:29:01.484Z</time>
      </trkpt>
      <trkpt lat="48.25621" lon="-3.44626">
        <ele>181.006772</ele>
        <time>2022-12-11T15:29:05.507Z</time>
      </trkpt>
      <trkpt lat="48.2562" lon="-3.44612">
        <ele>181.145788</ele>
        <time>2022-12-11T15:29:14.482Z</time>
      </trkpt>
      <trkpt lat="48.25619" lon="-3.44597">
        <ele>181.293668</ele>
        <time>2022-12-11T15:29:27.487Z</time>
      </trkpt>
      <trkpt lat="48.25617" lon="-3.44581">
        <ele>181.455304</ele>
        <time>2022-12-11T15:29:31.481Z</time>
      </trkpt>
      <trkpt lat="48.25618" lon="-3.44566">
        <ele>181.605669</ele>
        <time>2022-12-11T15:29:34.478Z</time>
      </trkpt>
      <trkpt lat="48.25618" lon="-3.4455">
        <ele>181.756253</ele>
        <time>2022-12-11T15:29:37.480Z</time>
      </trkpt>
      <trkpt lat="48.25617" lon="-3.44534">
        <ele>181.915743</ele>
        <time>2022-12-11T15:29:40.484Z</time>
      </trkpt>
      <trkpt lat="48.25617" lon="-3.44519">
        <ele>182.066241</ele>
        <time>2022-12-11T15:29:43.482Z</time>
      </trkpt>
      <trkpt lat="48.25618" lon="-3.44503">
        <ele>182.223621</ele>
        <time>2022-12-11T15:29:46.477Z</time>
      </trkpt>
      <trkpt lat="48.25617" lon="-3.44486">
        <ele>182.392439</ele>
        <time>2022-12-11T15:29:49.501Z</time>
      </trkpt>
      <trkpt lat="48.25616" lon="-3.44469">
        <ele>182.555138</ele>
        <time>2022-12-11T15:29:52.483Z</time>
      </trkpt>
      <trkpt lat="48.25615" lon="-3.44453">
        <ele>182.713914</ele>
        <time>2022-12-11T15:29:55.478Z</time>
      </trkpt>
      <trkpt lat="48.25615" lon="-3.44437">
        <ele>182.871267</ele>
        <time>2022-12-11T15:29:58.485Z</time>
      </trkpt>
      <trkpt lat="48.25614" lon="-3.44421">
        <ele>182.793287</ele>
        <time>2022-12-11T15:30:01.495Z</time>
      </trkpt>
      <trkpt lat="48.25614" lon="-3.44404">
        <ele>182.696822</ele>
        <time>2022-12-11T15:30:05.484Z</time>
      </trkpt>
      <trkpt lat="48.25614" lon="-3.44389">
        <ele>182.616632</ele>
        <time>2022-12-11T15:30:08.488Z</time>
      </trkpt>
      <trkpt lat="48.25612" lon="-3.44371">
        <ele>182.514783</ele>
        <time>2022-12-11T15:30:12.516Z</time>
      </trkpt>
      <trkpt lat="48.25612" lon="-3.44353">
        <ele>182.411498</ele>
        <time>2022-12-11T15:30:15.483Z</time>
      </trkpt>
      <trkpt lat="48.25612" lon="-3.44337">
        <ele>182.317871</ele>
        <time>2022-12-11T15:30:18.513Z</time>
      </trkpt>
      <trkpt lat="48.2561" lon="-3.44321">
        <ele>182.227985</ele>
        <time>2022-12-11T15:30:21.503Z</time>
      </trkpt>
      <trkpt lat="48.2561" lon="-3.44302">
        <ele>182.124616</ele>
        <time>2022-12-11T15:30:24.481Z</time>
      </trkpt>
      <trkpt lat="48.25608" lon="-3.44283">
        <ele>182.014181</ele>
        <time>2022-12-11T15:30:27.482Z</time>
      </trkpt>
      <trkpt lat="48.25607" lon="-3.44264">
        <ele>181.908978</ele>
        <time>2022-12-11T15:30:30.496Z</time>
      </trkpt>
      <trkpt lat="48.25604" lon="-3.44247">
        <ele>181.809467</ele>
        <time>2022-12-11T15:30:33.482Z</time>
      </trkpt>
      <trkpt lat="48.256" lon="-3.44229">
        <ele>181.701375</ele>
        <time>2022-12-11T15:30:36.483Z</time>
      </trkpt>
      <trkpt lat="48.25596" lon="-3.44214">
        <ele>181.6088</ele>
        <time>2022-12-11T15:30:39.495Z</time>
      </trkpt>
      <trkpt lat="48.25591" lon="-3.44199">
        <ele>181.516976</ele>
        <time>2022-12-11T15:30:44.496Z</time>
      </trkpt>
      <trkpt lat="48.25585" lon="-3.44186">
        <ele>181.426302</ele>
        <time>2022-12-11T15:30:47.487Z</time>
      </trkpt>
      <trkpt lat="48.25579" lon="-3.44174">
        <ele>181.395315</ele>
        <time>2022-12-11T15:30:49.480Z</time>
      </trkpt>
      <trkpt lat="48.25574" lon="-3.44164">
        <ele>181.612055</ele>
        <time>2022-12-11T15:30:51.492Z</time>
      </trkpt>
      <trkpt lat="48.25568" lon="-3.44153">
        <ele>181.834201</ele>
        <time>2022-12-11T15:30:53.479Z</time>
      </trkpt>
      <trkpt lat="48.25561" lon="-3.44136">
        <ele>182.134127</ele>
        <time>2022-12-11T15:30:56.477Z</time>
      </trkpt>
      <trkpt lat="48.25554" lon="-3.44121">
        <ele>182.430004</ele>
        <time>2022-12-11T15:30:59.520Z</time>
      </trkpt>
      <trkpt lat="48.25547" lon="-3.44109">
        <ele>182.675501</ele>
        <time>2022-12-11T15:31:01.494Z</time>
      </trkpt>
      <trkpt lat="48.25541" lon="-3.44099">
        <ele>182.896626</ele>
        <time>2022-12-11T15:31:03.478Z</time>
      </trkpt>
      <trkpt lat="48.25536" lon="-3.44084">
        <ele>183.15376</ele>
        <time>2022-12-11T15:31:06.485Z</time>
      </trkpt>
      <trkpt lat="48.25532" lon="-3.44072">
        <ele>183.374318</ele>
        <time>2022-12-11T15:31:11.486Z</time>
      </trkpt>
      <trkpt lat="48.25525" lon="-3.44058">
        <ele>183.644878</ele>
        <time>2022-12-11T15:31:15.504Z</time>
      </trkpt>
      <trkpt lat="48.25519" lon="-3.44044">
        <ele>183.914625</ele>
        <time>2022-12-11T15:31:19.484Z</time>
      </trkpt>
      <trkpt lat="48.25512" lon="-3.44028">
        <ele>184.20132</ele>
        <time>2022-12-11T15:31:23.508Z</time>
      </trkpt>
      <trkpt lat="48.25505" lon="-3.44015">
        <ele>184.468802</ele>
        <time>2022-12-11T15:31:27.487Z</time>
      </trkpt>
      <trkpt lat="48.25499" lon="-3.44003">
        <ele>184.694275</ele>
        <time>2022-12-11T15:31:30.479Z</time>
      </trkpt>
      <trkpt lat="48.25493" lon="-3.43988">
        <ele>184.968269</ele>
        <time>2022-12-11T15:31:34.482Z</time>
      </trkpt>
      <trkpt lat="48.25487" lon="-3.43976">
        <ele>185.217708</ele>
        <time>2022-12-11T15:31:37.494Z</time>
      </trkpt>
      <trkpt lat="48.25481" lon="-3.43963">
        <ele>185.470581</ele>
        <time>2022-12-11T15:31:40.487Z</time>
      </trkpt>
      <trkpt lat="48.25474" lon="-3.43949">
        <ele>185.557737</ele>
        <time>2022-12-11T15:31:43.490Z</time>
      </trkpt>
      <trkpt lat="48.25468" lon="-3.43937">
        <ele>185.465809</ele>
        <time>2022-12-11T15:31:46.483Z</time>
      </trkpt>
      <trkpt lat="48.25462" lon="-3.43924">
        <ele>185.369995</ele>
        <time>2022-12-11T15:31:49.481Z</time>
      </trkpt>
      <trkpt lat="48.25456" lon="-3.43911">
        <ele>185.271164</ele>
        <time>2022-12-11T15:31:52.483Z</time>
      </trkpt>
      <trkpt lat="48.2545" lon="-3.43896">
        <ele>185.165192</ele>
        <time>2022-12-11T15:31:55.490Z</time>
      </trkpt>
      <trkpt lat="48.25443" lon="-3.43881">
        <ele>185.053176</ele>
        <time>2022-12-11T15:31:58.482Z</time>
      </trkpt>
      <trkpt lat="48.25435" lon="-3.43867">
        <ele>184.940965</ele>
        <time>2022-12-11T15:32:01.500Z</time>
      </trkpt>
      <trkpt lat="48.25428" lon="-3.43852">
        <ele>184.829345</ele>
        <time>2022-12-11T15:32:04.483Z</time>
      </trkpt>
      <trkpt lat="48.2542" lon="-3.43838">
        <ele>184.71554</ele>
        <time>2022-12-11T15:32:07.486Z</time>
      </trkpt>
      <trkpt lat="48.25413" lon="-3.43824">
        <ele>184.611353</ele>
        <time>2022-12-11T15:32:10.502Z</time>
      </trkpt>
      <trkpt lat="48.25406" lon="-3.43809">
        <ele>184.502363</ele>
        <time>2022-12-11T15:32:13.487Z</time>
      </trkpt>
      <trkpt lat="48.254" lon="-3.43794">
        <ele>184.394299</ele>
        <time>2022-12-11T15:32:16.517Z</time>
      </trkpt>
      <trkpt lat="48.25394" lon="-3.43781">
        <ele>184.292857</ele>
        <time>2022-12-11T15:32:19.488Z</time>
      </trkpt>
      <trkpt lat="48.25386" lon="-3.43767">
        <ele>184.182635</ele>
        <time>2022-12-11T15:32:23.483Z</time>
      </trkpt>
      <trkpt lat="48.25379" lon="-3.43757">
        <ele>184.09603</ele>
        <time>2022-12-11T15:32:26.481Z</time>
      </trkpt>
      <trkpt lat="48.25373" lon="-3.43745">
        <ele>184.006662</ele>
        <time>2022-12-11T15:32:29.483Z</time>
      </trkpt>
      <trkpt lat="48.25368" lon="-3.43732">
        <ele>184.144315</ele>
        <time>2022-12-11T15:32:32.485Z</time>
      </trkpt>
      <trkpt lat="48.25363" lon="-3.43721">
        <ele>184.491891</ele>
        <time>2022-12-11T15:32:35.485Z</time>
      </trkpt>
      <trkpt lat="48.25359" lon="-3.43708">
        <ele>184.845415</ele>
        <time>2022-12-11T15:32:39.498Z</time>
      </trkpt>
      <trkpt lat="48.25355" lon="-3.43695">
        <ele>185.210497</ele>
        <time>2022-12-11T15:32:45.485Z</time>
      </trkpt>
      <trkpt lat="48.25349" lon="-3.43683">
        <ele>185.579677</ele>
        <time>2022-12-11T15:32:49.483Z</time>
      </trkpt>
      <trkpt lat="48.25341" lon="-3.4367">
        <ele>186.010089</ele>
        <time>2022-12-11T15:32:53.489Z</time>
      </trkpt>
      <trkpt lat="48.25334" lon="-3.43657">
        <ele>186.428186</ele>
        <time>2022-12-11T15:32:57.484Z</time>
      </trkpt>
      <trkpt lat="48.25327" lon="-3.43642">
        <ele>186.87422</ele>
        <time>2022-12-11T15:33:01.487Z</time>
      </trkpt>
      <trkpt lat="48.25322" lon="-3.43631">
        <ele>187.221828</ele>
        <time>2022-12-11T15:33:04.487Z</time>
      </trkpt>
      <trkpt lat="48.25316" lon="-3.4362">
        <ele>187.56654</ele>
        <time>2022-12-11T15:33:07.493Z</time>
      </trkpt>
      <trkpt lat="48.25308" lon="-3.43606">
        <ele>188.008727</ele>
        <time>2022-12-11T15:33:11.481Z</time>
      </trkpt>
      <trkpt lat="48.25303" lon="-3.43594">
        <ele>188.383076</ele>
        <time>2022-12-11T15:33:14.483Z</time>
      </trkpt>
      <trkpt lat="48.25296" lon="-3.43581">
        <ele>188.783684</ele>
        <time>2022-12-11T15:33:17.492Z</time>
      </trkpt>
      <trkpt lat="48.2529" lon="-3.43568">
        <ele>189.172535</ele>
        <time>2022-12-11T15:33:20.493Z</time>
      </trkpt>
      <trkpt lat="48.25283" lon="-3.43554">
        <ele>189.619848</ele>
        <time>2022-12-11T15:33:23.486Z</time>
      </trkpt>
      <trkpt lat="48.25277" lon="-3.4354">
        <ele>190.046097</ele>
        <time>2022-12-11T15:33:26.483Z</time>
      </trkpt>
      <trkpt lat="48.2527" lon="-3.43524">
        <ele>190.5011</ele>
        <time>2022-12-11T15:33:29.487Z</time>
      </trkpt>
      <trkpt lat="48.25263" lon="-3.43511">
        <ele>190.622696</ele>
        <time>2022-12-11T15:33:32.483Z</time>
      </trkpt>
      <trkpt lat="48.25257" lon="-3.43501">
        <ele>190.549164</ele>
        <time>2022-12-11T15:33:35.490Z</time>
      </trkpt>
      <trkpt lat="48.25251" lon="-3.43486">
        <ele>190.458705</ele>
        <time>2022-12-11T15:33:39.479Z</time>
      </trkpt>
      <trkpt lat="48.25245" lon="-3.43473">
        <ele>190.376889</ele>
        <time>2022-12-11T15:33:43.483Z</time>
      </trkpt>
      <trkpt lat="48.25241" lon="-3.43461">
        <ele>190.305916</ele>
        <time>2022-12-11T15:33:46.505Z</time>
      </trkpt>
      <trkpt lat="48.25235" lon="-3.4345">
        <ele>190.234243</ele>
        <time>2022-12-11T15:33:50.481Z</time>
      </trkpt>
      <trkpt lat="48.2523" lon="-3.43437">
        <ele>190.152926</ele>
        <time>2022-12-11T15:33:53.477Z</time>
      </trkpt>
      <trkpt lat="48.25222" lon="-3.43422">
        <ele>190.0543</ele>
        <time>2022-12-11T15:33:56.497Z</time>
      </trkpt>
      <trkpt lat="48.25216" lon="-3.43406">
        <ele>189.95732</ele>
        <time>2022-12-11T15:33:59.481Z</time>
      </trkpt>
      <trkpt lat="48.25209" lon="-3.43393">
        <ele>189.874976</ele>
        <time>2022-12-11T15:34:02.488Z</time>
      </trkpt>
      <trkpt lat="48.25204" lon="-3.43382">
        <ele>189.804433</ele>
        <time>2022-12-11T15:34:05.492Z</time>
      </trkpt>
      <trkpt lat="48.25201" lon="-3.43369">
        <ele>189.730358</ele>
        <time>2022-12-11T15:34:10.498Z</time>
      </trkpt>
      <trkpt lat="48.25195" lon="-3.43355">
        <ele>189.644663</ele>
        <time>2022-12-11T15:34:14.490Z</time>
      </trkpt>
      <trkpt lat="48.25189" lon="-3.43341">
        <ele>189.559372</ele>
        <time>2022-12-11T15:34:18.488Z</time>
      </trkpt>
      <trkpt lat="48.25182" lon="-3.4333">
        <ele>189.481473</ele>
        <time>2022-12-11T15:34:21.504Z</time>
      </trkpt>
      <trkpt lat="48.25176" lon="-3.43318">
        <ele>189.402744</ele>
        <time>2022-12-11T15:34:25.513Z</time>
      </trkpt>
      <trkpt lat="48.25171" lon="-3.43304">
        <ele>189.319069</ele>
        <time>2022-12-11T15:34:29.479Z</time>
      </trkpt>
      <trkpt lat="48.25164" lon="-3.43292">
        <ele>189.151162</ele>
        <time>2022-12-11T15:34:34.486Z</time>
      </trkpt>
      <trkpt lat="48.25159" lon="-3.43276">
        <ele>188.787939</ele>
        <time>2022-12-11T15:34:39.474Z</time>
      </trkpt>
      <trkpt lat="48.25153" lon="-3.43264">
        <ele>188.474713</ele>
        <time>2022-12-11T15:34:42.485Z</time>
      </trkpt>
      <trkpt lat="48.25147" lon="-3.43253">
        <ele>188.189526</ele>
        <time>2022-12-11T15:34:45.486Z</time>
      </trkpt>
      <trkpt lat="48.25139" lon="-3.4324">
        <ele>187.845431</ele>
        <time>2022-12-11T15:34:49.481Z</time>
      </trkpt>
      <trkpt lat="48.25132" lon="-3.43231">
        <ele>187.549833</ele>
        <time>2022-12-11T15:34:52.480Z</time>
      </trkpt>
      <trkpt lat="48.25123" lon="-3.43219">
        <ele>187.173242</ele>
        <time>2022-12-11T15:34:55.490Z</time>
      </trkpt>
      <trkpt lat="48.25113" lon="-3.43209">
        <ele>186.817768</ele>
        <time>2022-12-11T15:34:58.485Z</time>
      </trkpt>
      <trkpt lat="48.25103" lon="-3.43201">
        <ele>186.476572</ele>
        <time>2022-12-11T15:35:01.485Z</time>
      </trkpt>
      <trkpt lat="48.25092" lon="-3.43195">
        <ele>186.109868</ele>
        <time>2022-12-11T15:35:04.485Z</time>
      </trkpt>
      <trkpt lat="48.25081" lon="-3.43186">
        <ele>185.731151</ele>
        <time>2022-12-11T15:35:07.483Z</time>
      </trkpt>
      <trkpt lat="48.25071" lon="-3.43178">
        <ele>185.395405</ele>
        <time>2022-12-11T15:35:10.484Z</time>
      </trkpt>
      <trkpt lat="48.25061" lon="-3.43171">
        <ele>185.065123</ele>
        <time>2022-12-11T15:35:13.482Z</time>
      </trkpt>
      <trkpt lat="48.25053" lon="-3.43166">
        <ele>184.777196</ele>
        <time>2022-12-11T15:35:16.483Z</time>
      </trkpt>
      <trkpt lat="48.25044" lon="-3.4316">
        <ele>184.488265</ele>
        <time>2022-12-11T15:35:19.476Z</time>
      </trkpt>
      <trkpt lat="48.25035" lon="-3.43153">
        <ele>184.174364</ele>
        <time>2022-12-11T15:35:22.486Z</time>
      </trkpt>
      <trkpt lat="48.25026" lon="-3.43149">
        <ele>183.891444</ele>
        <time>2022-12-11T15:35:25.473Z</time>
      </trkpt>
      <trkpt lat="48.25015" lon="-3.43142">
        <ele>183.998182</ele>
        <time>2022-12-11T15:35:28.498Z</time>
      </trkpt>
      <trkpt lat="48.25005" lon="-3.43134">
        <ele>184.330157</ele>
        <time>2022-12-11T15:35:31.495Z</time>
      </trkpt>
      <trkpt lat="48.24993" lon="-3.43127">
        <ele>184.672786</ele>
        <time>2022-12-11T15:35:34.486Z</time>
      </trkpt>
      <trkpt lat="48.24982" lon="-3.43119">
        <ele>185.014327</ele>
        <time>2022-12-11T15:35:37.492Z</time>
      </trkpt>
      <trkpt lat="48.24973" lon="-3.43112">
        <ele>185.313022</ele>
        <time>2022-12-11T15:35:40.500Z</time>
      </trkpt>
      <trkpt lat="48.24963" lon="-3.43107">
        <ele>185.58546</ele>
        <time>2022-12-11T15:35:43.500Z</time>
      </trkpt>
      <trkpt lat="48.24953" lon="-3.43101">
        <ele>185.886736</ele>
        <time>2022-12-11T15:35:46.496Z</time>
      </trkpt>
      <trkpt lat="48.24944" lon="-3.43092">
        <ele>186.202626</ele>
        <time>2022-12-11T15:35:49.501Z</time>
      </trkpt>
      <trkpt lat="48.24935" lon="-3.43087">
        <ele>186.46097</ele>
        <time>2022-12-11T15:35:52.506Z</time>
      </trkpt>
      <trkpt lat="48.24925" lon="-3.43079">
        <ele>186.775657</ele>
        <time>2022-12-11T15:35:56.484Z</time>
      </trkpt>
      <trkpt lat="48.24915" lon="-3.43071">
        <ele>187.081835</ele>
        <time>2022-12-11T15:36:00.491Z</time>
      </trkpt>
      <trkpt lat="48.24907" lon="-3.43065">
        <ele>187.343996</ele>
        <time>2022-12-11T15:36:03.501Z</time>
      </trkpt>
      <trkpt lat="48.24897" lon="-3.43059">
        <ele>187.631663</ele>
        <time>2022-12-11T15:36:07.497Z</time>
      </trkpt>
      <trkpt lat="48.24888" lon="-3.43053">
        <ele>187.927937</ele>
        <time>2022-12-11T15:36:12.501Z</time>
      </trkpt>
      <trkpt lat="48.24878" lon="-3.43046">
        <ele>188.219172</ele>
        <time>2022-12-11T15:36:16.477Z</time>
      </trkpt>
      <trkpt lat="48.24869" lon="-3.43039">
        <ele>188.516199</ele>
        <time>2022-12-11T15:36:20.497Z</time>
      </trkpt>
      <trkpt lat="48.24859" lon="-3.43032">
        <ele>188.803445</ele>
        <time>2022-12-11T15:36:24.506Z</time>
      </trkpt>
      <trkpt lat="48.24849" lon="-3.43026">
        <ele>189.039904</ele>
        <time>2022-12-11T15:36:28.501Z</time>
      </trkpt>
      <trkpt lat="48.2484" lon="-3.4302">
        <ele>189.246585</ele>
        <time>2022-12-11T15:36:31.493Z</time>
      </trkpt>
      <trkpt lat="48.24831" lon="-3.43015">
        <ele>189.440218</ele>
        <time>2022-12-11T15:36:34.510Z</time>
      </trkpt>
      <trkpt lat="48.24822" lon="-3.4301">
        <ele>189.644481</ele>
        <time>2022-12-11T15:36:37.498Z</time>
      </trkpt>
      <trkpt lat="48.24812" lon="-3.43003">
        <ele>189.860361</ele>
        <time>2022-12-11T15:36:40.500Z</time>
      </trkpt>
      <trkpt lat="48.24802" lon="-3.42995">
        <ele>190.100041</ele>
        <time>2022-12-11T15:36:44.506Z</time>
      </trkpt>
      <trkpt lat="48.24795" lon="-3.42985">
        <ele>190.30047</ele>
        <time>2022-12-11T15:36:47.501Z</time>
      </trkpt>
      <trkpt lat="48.24787" lon="-3.42974">
        <ele>190.520251</ele>
        <time>2022-12-11T15:36:50.496Z</time>
      </trkpt>
      <trkpt lat="48.24782" lon="-3.42961">
        <ele>190.717444</ele>
        <time>2022-12-11T15:36:53.514Z</time>
      </trkpt>
      <trkpt lat="48.24776" lon="-3.42949">
        <ele>190.934416</ele>
        <time>2022-12-11T15:36:56.494Z</time>
      </trkpt>
      <trkpt lat="48.2477" lon="-3.42936">
        <ele>191.156799</ele>
        <time>2022-12-11T15:37:00.493Z</time>
      </trkpt>
      <trkpt lat="48.24765" lon="-3.42923">
        <ele>191.36662</ele>
        <time>2022-12-11T15:37:03.502Z</time>
      </trkpt>
      <trkpt lat="48.24758" lon="-3.42907">
        <ele>191.623362</ele>
        <time>2022-12-11T15:37:06.510Z</time>
      </trkpt>
      <trkpt lat="48.24753" lon="-3.42895">
        <ele>191.810613</ele>
        <time>2022-12-11T15:37:08.492Z</time>
      </trkpt>
      <trkpt lat="48.24749" lon="-3.42883">
        <ele>192.002663</ele>
        <time>2022-12-11T15:37:10.483Z</time>
      </trkpt>
      <trkpt lat="48.24744" lon="-3.42871">
        <ele>192.193719</ele>
        <time>2022-12-11T15:37:13.508Z</time>
      </trkpt>
      <trkpt lat="48.24739" lon="-3.42857">
        <ele>192.416403</ele>
        <time>2022-12-11T15:37:17.496Z</time>
      </trkpt>
      <trkpt lat="48.24734" lon="-3.4284">
        <ele>192.590007</ele>
        <time>2022-12-11T15:37:20.510Z</time>
      </trkpt>
      <trkpt lat="48.2473" lon="-3.42825">
        <ele>192.696526</ele>
        <time>2022-12-11T15:37:23.485Z</time>
      </trkpt>
      <trkpt lat="48.24726" lon="-3.42812">
        <ele>192.79597</ele>
        <time>2022-12-11T15:37:26.512Z</time>
      </trkpt>
      <trkpt lat="48.2472" lon="-3.42797">
        <ele>192.905303</ele>
        <time>2022-12-11T15:37:29.486Z</time>
      </trkpt>
      <trkpt lat="48.24716" lon="-3.42782">
        <ele>193.015659</ele>
        <time>2022-12-11T15:37:33.509Z</time>
      </trkpt>
      <trkpt lat="48.2471" lon="-3.42767">
        <ele>193.13473</ele>
        <time>2022-12-11T15:37:36.526Z</time>
      </trkpt>
      <trkpt lat="48.24704" lon="-3.42752">
        <ele>193.245953</ele>
        <time>2022-12-11T15:37:39.502Z</time>
      </trkpt>
      <trkpt lat="48.24698" lon="-3.42738">
        <ele>193.35944</ele>
        <time>2022-12-11T15:37:42.485Z</time>
      </trkpt>
      <trkpt lat="48.24691" lon="-3.42723">
        <ele>193.483975</ele>
        <time>2022-12-11T15:37:45.492Z</time>
      </trkpt>
      <trkpt lat="48.24686" lon="-3.42708">
        <ele>193.591487</ele>
        <time>2022-12-11T15:37:48.478Z</time>
      </trkpt>
      <trkpt lat="48.24682" lon="-3.42695">
        <ele>193.688103</ele>
        <time>2022-12-11T15:37:52.487Z</time>
      </trkpt>
      <trkpt lat="48.24677" lon="-3.42683">
        <ele>193.781078</ele>
        <time>2022-12-11T15:37:55.498Z</time>
      </trkpt>
      <trkpt lat="48.24673" lon="-3.42671">
        <ele>193.87204</ele>
        <time>2022-12-11T15:37:58.480Z</time>
      </trkpt>
      <trkpt lat="48.24668" lon="-3.42659">
        <ele>193.963325</ele>
        <time>2022-12-11T15:38:01.489Z</time>
      </trkpt>
      <trkpt lat="48.24663" lon="-3.42647">
        <ele>194.061239</ele>
        <time>2022-12-11T15:38:04.477Z</time>
      </trkpt>
      <trkpt lat="48.24658" lon="-3.42634">
        <ele>194.163027</ele>
        <time>2022-12-11T15:38:07.478Z</time>
      </trkpt>
      <trkpt lat="48.24652" lon="-3.42618">
        <ele>194.280212</ele>
        <time>2022-12-11T15:38:11.495Z</time>
      </trkpt>
      <trkpt lat="48.24646" lon="-3.42604">
        <ele>194.389355</ele>
        <time>2022-12-11T15:38:14.499Z</time>
      </trkpt>
      <trkpt lat="48.2464" lon="-3.4259">
        <ele>194.500012</ele>
        <time>2022-12-11T15:38:17.479Z</time>
      </trkpt>
      <trkpt lat="48.24634" lon="-3.42575">
        <ele>194.610803</ele>
        <time>2022-12-11T15:38:20.496Z</time>
      </trkpt>
      <trkpt lat="48.24629" lon="-3.42562">
        <ele>194.715613</ele>
        <time>2022-12-11T15:38:23.493Z</time>
      </trkpt>
      <trkpt lat="48.24624" lon="-3.42549">
        <ele>194.81183</ele>
        <time>2022-12-11T15:38:26.505Z</time>
      </trkpt>
      <trkpt lat="48.24619" lon="-3.42537">
        <ele>194.900803</ele>
        <time>2022-12-11T15:38:29.491Z</time>
      </trkpt>
      <trkpt lat="48.24614" lon="-3.42526">
        <ele>194.992473</ele>
        <time>2022-12-11T15:38:32.481Z</time>
      </trkpt>
      <trkpt lat="48.24607" lon="-3.42512">
        <ele>195.102602</ele>
        <time>2022-12-11T15:38:35.487Z</time>
      </trkpt>
      <trkpt lat="48.24601" lon="-3.425">
        <ele>195.201505</ele>
        <time>2022-12-11T15:38:38.493Z</time>
      </trkpt>
      <trkpt lat="48.24595" lon="-3.42489">
        <ele>195.29254</ele>
        <time>2022-12-11T15:38:41.496Z</time>
      </trkpt>
      <trkpt lat="48.24589" lon="-3.42477">
        <ele>195.387846</ele>
        <time>2022-12-11T15:38:44.488Z</time>
      </trkpt>
      <trkpt lat="48.24581" lon="-3.42467">
        <ele>195.491523</ele>
        <time>2022-12-11T15:38:47.490Z</time>
      </trkpt>
      <trkpt lat="48.24572" lon="-3.42458">
        <ele>195.59405</ele>
        <time>2022-12-11T15:38:50.478Z</time>
      </trkpt>
      <trkpt lat="48.24562" lon="-3.4245">
        <ele>195.705866</ele>
        <time>2022-12-11T15:38:53.500Z</time>
      </trkpt>
      <trkpt lat="48.24552" lon="-3.42444">
        <ele>195.814049</ele>
        <time>2022-12-11T15:38:56.523Z</time>
      </trkpt>
      <trkpt lat="48.24541" lon="-3.4244">
        <ele>195.926417</ele>
        <time>2022-12-11T15:38:59.505Z</time>
      </trkpt>
      <trkpt lat="48.24531" lon="-3.42438">
        <ele>196.023486</ele>
        <time>2022-12-11T15:39:02.480Z</time>
      </trkpt>
      <trkpt lat="48.24522" lon="-3.42438">
        <ele>196.096611</ele>
        <time>2022-12-11T15:39:06.499Z</time>
      </trkpt>
      <trkpt lat="48.24511" lon="-3.42438">
        <ele>196.159611</ele>
        <time>2022-12-11T15:39:11.485Z</time>
      </trkpt>
      <trkpt lat="48.24502" lon="-3.42439">
        <ele>196.213302</ele>
        <time>2022-12-11T15:39:15.487Z</time>
      </trkpt>
      <trkpt lat="48.2449" lon="-3.42441">
        <ele>196.285401</ele>
        <time>2022-12-11T15:39:19.489Z</time>
      </trkpt>
      <trkpt lat="48.2448" lon="-3.42443">
        <ele>196.345022</ele>
        <time>2022-12-11T15:39:22.502Z</time>
      </trkpt>
      <trkpt lat="48.24471" lon="-3.42445">
        <ele>196.401738</ele>
        <time>2022-12-11T15:39:25.483Z</time>
      </trkpt>
      <trkpt lat="48.24459" lon="-3.42448">
        <ele>196.468927</ele>
        <time>2022-12-11T15:39:29.482Z</time>
      </trkpt>
      <trkpt lat="48.24449" lon="-3.4245">
        <ele>196.530233</ele>
        <time>2022-12-11T15:39:33.479Z</time>
      </trkpt>
      <trkpt lat="48.2444" lon="-3.42451">
        <ele>196.583291</ele>
        <time>2022-12-11T15:39:37.502Z</time>
      </trkpt>
      <trkpt lat="48.24428" lon="-3.42452">
        <ele>196.651746</ele>
        <time>2022-12-11T15:39:41.491Z</time>
      </trkpt>
      <trkpt lat="48.24419" lon="-3.42454">
        <ele>196.705368</ele>
        <time>2022-12-11T15:39:44.500Z</time>
      </trkpt>
      <trkpt lat="48.2441" lon="-3.42456">
        <ele>196.758535</ele>
        <time>2022-12-11T15:39:47.477Z</time>
      </trkpt>
      <trkpt lat="48.24401" lon="-3.42458">
        <ele>196.812523</ele>
        <time>2022-12-11T15:39:50.488Z</time>
      </trkpt>
      <trkpt lat="48.24392" lon="-3.4246">
        <ele>196.869176</ele>
        <time>2022-12-11T15:39:53.479Z</time>
      </trkpt>
      <trkpt lat="48.24381" lon="-3.42463">
        <ele>196.932706</ele>
        <time>2022-12-11T15:39:57.511Z</time>
      </trkpt>
      <trkpt lat="48.2437" lon="-3.42465">
        <ele>196.99794</ele>
        <time>2022-12-11T15:40:02.490Z</time>
      </trkpt>
      <trkpt lat="48.24359" lon="-3.42467">
        <ele>197.066682</ele>
        <time>2022-12-11T15:40:06.517Z</time>
      </trkpt>
      <trkpt lat="48.24348" lon="-3.42468">
        <ele>197.128272</ele>
        <time>2022-12-11T15:40:09.485Z</time>
      </trkpt>
      <trkpt lat="48.24337" lon="-3.4247">
        <ele>197.252989</ele>
        <time>2022-12-11T15:40:13.490Z</time>
      </trkpt>
      <trkpt lat="48.24327" lon="-3.42473">
        <ele>197.373091</ele>
        <time>2022-12-11T15:40:17.487Z</time>
      </trkpt>
      <trkpt lat="48.24317" lon="-3.42474">
        <ele>197.49122</ele>
        <time>2022-12-11T15:40:21.516Z</time>
      </trkpt>
      <trkpt lat="48.24307" lon="-3.42476">
        <ele>197.613098</ele>
        <time>2022-12-11T15:40:25.503Z</time>
      </trkpt>
      <trkpt lat="48.24297" lon="-3.42478">
        <ele>197.723047</ele>
        <time>2022-12-11T15:40:29.490Z</time>
      </trkpt>
      <trkpt lat="48.24287" lon="-3.42481">
        <ele>197.841711</ele>
        <time>2022-12-11T15:40:33.491Z</time>
      </trkpt>
      <trkpt lat="48.24277" lon="-3.42483">
        <ele>197.962532</ele>
        <time>2022-12-11T15:40:37.473Z</time>
      </trkpt>
      <trkpt lat="48.24266" lon="-3.42485">
        <ele>198.090629</ele>
        <time>2022-12-11T15:40:41.497Z</time>
      </trkpt>
      <trkpt lat="48.24254" lon="-3.42488">
        <ele>198.229537</ele>
        <time>2022-12-11T15:40:45.484Z</time>
      </trkpt>
      <trkpt lat="48.24244" lon="-3.4249">
        <ele>198.35552</ele>
        <time>2022-12-11T15:40:49.492Z</time>
      </trkpt>
      <trkpt lat="48.24235" lon="-3.42491">
        <ele>198.460921</ele>
        <time>2022-12-11T15:40:52.488Z</time>
      </trkpt>
      <trkpt lat="48.24224" lon="-3.42493">
        <ele>198.582875</ele>
        <time>2022-12-11T15:40:55.498Z</time>
      </trkpt>
      <trkpt lat="48.24213" lon="-3.42494">
        <ele>198.717208</ele>
        <time>2022-12-11T15:40:59.496Z</time>
      </trkpt>
      <trkpt lat="48.24203" lon="-3.42493">
        <ele>198.830386</ele>
        <time>2022-12-11T15:41:02.493Z</time>
      </trkpt>
      <trkpt lat="48.24193" lon="-3.42492">
        <ele>198.946539</ele>
        <time>2022-12-11T15:41:05.495Z</time>
      </trkpt>
      <trkpt lat="48.24183" lon="-3.42489">
        <ele>199.068095</ele>
        <time>2022-12-11T15:41:08.500Z</time>
      </trkpt>
      <trkpt lat="48.24174" lon="-3.42483">
        <ele>199.175957</ele>
        <time>2022-12-11T15:41:11.506Z</time>
      </trkpt>
      <trkpt lat="48.24165" lon="-3.42474">
        <ele>199.323439</ele>
        <time>2022-12-11T15:41:15.491Z</time>
      </trkpt>
      <trkpt lat="48.24156" lon="-3.42468">
        <ele>199.463166</ele>
        <time>2022-12-11T15:41:19.490Z</time>
      </trkpt>
      <trkpt lat="48.24145" lon="-3.42462">
        <ele>199.617477</ele>
        <time>2022-12-11T15:41:23.485Z</time>
      </trkpt>
      <trkpt lat="48.24136" lon="-3.42455">
        <ele>199.762012</ele>
        <time>2022-12-11T15:41:27.480Z</time>
      </trkpt>
      <trkpt lat="48.24127" lon="-3.42447">
        <ele>199.90986</ele>
        <time>2022-12-11T15:41:31.507Z</time>
      </trkpt>
      <trkpt lat="48.24117" lon="-3.42441">
        <ele>200.061255</ele>
        <time>2022-12-11T15:41:35.488Z</time>
      </trkpt>
      <trkpt lat="48.24106" lon="-3.42434">
        <ele>200.217764</ele>
        <time>2022-12-11T15:41:39.487Z</time>
      </trkpt>
      <trkpt lat="48.24097" lon="-3.42428">
        <ele>200.362428</ele>
        <time>2022-12-11T15:41:43.491Z</time>
      </trkpt>
      <trkpt lat="48.24087" lon="-3.42422">
        <ele>200.512665</ele>
        <time>2022-12-11T15:41:48.497Z</time>
      </trkpt>
      <trkpt lat="48.24078" lon="-3.42417">
        <ele>200.643458</ele>
        <time>2022-12-11T15:41:52.498Z</time>
      </trkpt>
      <trkpt lat="48.24069" lon="-3.42411">
        <ele>200.776088</ele>
        <time>2022-12-11T15:41:56.475Z</time>
      </trkpt>
      <trkpt lat="48.2406" lon="-3.42405">
        <ele>200.910365</ele>
        <time>2022-12-11T15:42:00.495Z</time>
      </trkpt>
      <trkpt lat="48.24052" lon="-3.42399">
        <ele>201.040601</ele>
        <time>2022-12-11T15:42:03.502Z</time>
      </trkpt>
      <trkpt lat="48.24043" lon="-3.42394">
        <ele>201.173391</ele>
        <time>2022-12-11T15:42:06.477Z</time>
      </trkpt>
      <trkpt lat="48.24032" lon="-3.42387">
        <ele>201.334819</ele>
        <time>2022-12-11T15:42:10.503Z</time>
      </trkpt>
      <trkpt lat="48.24022" lon="-3.42381">
        <ele>201.489339</ele>
        <time>2022-12-11T15:42:14.484Z</time>
      </trkpt>
      <trkpt lat="48.24012" lon="-3.42374">
        <ele>201.646437</ele>
        <time>2022-12-11T15:42:18.487Z</time>
      </trkpt>
      <trkpt lat="48.24002" lon="-3.42369">
        <ele>201.819983</ele>
        <time>2022-12-11T15:42:21.497Z</time>
      </trkpt>
      <trkpt lat="48.23993" lon="-3.42364">
        <ele>202.05439</ele>
        <time>2022-12-11T15:42:24.499Z</time>
      </trkpt>
      <trkpt lat="48.23982" lon="-3.42358">
        <ele>202.312373</ele>
        <time>2022-12-11T15:42:27.497Z</time>
      </trkpt>
      <trkpt lat="48.23972" lon="-3.42352">
        <ele>202.56014</ele>
        <time>2022-12-11T15:42:30.487Z</time>
      </trkpt>
      <trkpt lat="48.23963" lon="-3.42347">
        <ele>202.771448</ele>
        <time>2022-12-11T15:42:33.477Z</time>
      </trkpt>
      <trkpt lat="48.23953" lon="-3.42341">
        <ele>203.027448</ele>
        <time>2022-12-11T15:42:37.487Z</time>
      </trkpt>
      <trkpt lat="48.23942" lon="-3.42333">
        <ele>203.298202</ele>
        <time>2022-12-11T15:42:41.499Z</time>
      </trkpt>
      <trkpt lat="48.23933" lon="-3.42327">
        <ele>203.524455</ele>
        <time>2022-12-11T15:42:44.484Z</time>
      </trkpt>
      <trkpt lat="48.23925" lon="-3.42321">
        <ele>203.745769</ele>
        <time>2022-12-11T15:42:47.485Z</time>
      </trkpt>
      <trkpt lat="48.23916" lon="-3.42315">
        <ele>203.952177</ele>
        <time>2022-12-11T15:42:50.490Z</time>
      </trkpt>
      <trkpt lat="48.23906" lon="-3.42308">
        <ele>204.212698</ele>
        <time>2022-12-11T15:42:54.484Z</time>
      </trkpt>
      <trkpt lat="48.23897" lon="-3.42303">
        <ele>204.430429</ele>
        <time>2022-12-11T15:42:58.504Z</time>
      </trkpt>
      <trkpt lat="48.23889" lon="-3.42298">
        <ele>204.640163</ele>
        <time>2022-12-11T15:43:02.506Z</time>
      </trkpt>
      <trkpt lat="48.23879" lon="-3.42292">
        <ele>204.880008</ele>
        <time>2022-12-11T15:43:06.489Z</time>
      </trkpt>
      <trkpt lat="48.23869" lon="-3.42286">
        <ele>205.127903</ele>
        <time>2022-12-11T15:43:10.483Z</time>
      </trkpt>
      <trkpt lat="48.23859" lon="-3.4228">
        <ele>205.384783</ele>
        <time>2022-12-11T15:43:14.491Z</time>
      </trkpt>
      <trkpt lat="48.23848" lon="-3.42272">
        <ele>205.656</ele>
        <time>2022-12-11T15:43:18.491Z</time>
      </trkpt>
      <trkpt lat="48.23839" lon="-3.42267">
        <ele>205.865506</ele>
        <time>2022-12-11T15:43:21.489Z</time>
      </trkpt>
      <trkpt lat="48.23829" lon="-3.4226">
        <ele>205.996953</ele>
        <time>2022-12-11T15:43:24.502Z</time>
      </trkpt>
      <trkpt lat="48.2382" lon="-3.42253">
        <ele>206.122589</ele>
        <time>2022-12-11T15:43:27.479Z</time>
      </trkpt>
      <trkpt lat="48.2381" lon="-3.42246">
        <ele>206.249764</ele>
        <time>2022-12-11T15:43:30.488Z</time>
      </trkpt>
      <trkpt lat="48.23802" lon="-3.42236">
        <ele>206.376752</ele>
        <time>2022-12-11T15:43:33.506Z</time>
      </trkpt>
      <trkpt lat="48.23795" lon="-3.42224">
        <ele>206.503827</ele>
        <time>2022-12-11T15:43:36.475Z</time>
      </trkpt>
      <trkpt lat="48.23789" lon="-3.42213">
        <ele>206.61698</ele>
        <time>2022-12-11T15:43:39.487Z</time>
      </trkpt>
      <trkpt lat="48.23785" lon="-3.42201">
        <ele>206.728136</ele>
        <time>2022-12-11T15:43:42.503Z</time>
      </trkpt>
      <trkpt lat="48.23782" lon="-3.42188">
        <ele>206.838836</ele>
        <time>2022-12-11T15:43:45.499Z</time>
      </trkpt>
      <trkpt lat="48.2378" lon="-3.42174">
        <ele>206.952486</ele>
        <time>2022-12-11T15:43:48.524Z</time>
      </trkpt>
      <trkpt lat="48.23777" lon="-3.42159">
        <ele>207.077626</ele>
        <time>2022-12-11T15:43:52.484Z</time>
      </trkpt>
      <trkpt lat="48.23775" lon="-3.42144">
        <ele>207.199841</ele>
        <time>2022-12-11T15:43:57.487Z</time>
      </trkpt>
      <trkpt lat="48.23772" lon="-3.42131">
        <ele>207.310856</ele>
        <time>2022-12-11T15:44:02.499Z</time>
      </trkpt>
      <trkpt lat="48.23769" lon="-3.42115">
        <ele>207.44437</ele>
        <time>2022-12-11T15:44:07.476Z</time>
      </trkpt>
      <trkpt lat="48.23768" lon="-3.421">
        <ele>207.568125</ele>
        <time>2022-12-11T15:44:12.501Z</time>
      </trkpt>
      <trkpt lat="48.23767" lon="-3.42084">
        <ele>207.696151</ele>
        <time>2022-12-11T15:44:16.496Z</time>
      </trkpt>
      <trkpt lat="48.23764" lon="-3.42068">
        <ele>207.829966</ele>
        <time>2022-12-11T15:44:20.494Z</time>
      </trkpt>
      <trkpt lat="48.23761" lon="-3.42053">
        <ele>207.9548</ele>
        <time>2022-12-11T15:44:24.497Z</time>
      </trkpt>
      <trkpt lat="48.23757" lon="-3.42038">
        <ele>208.077547</ele>
        <time>2022-12-11T15:44:28.491Z</time>
      </trkpt>
      <trkpt lat="48.23754" lon="-3.42024">
        <ele>208.183801</ele>
        <time>2022-12-11T15:44:32.492Z</time>
      </trkpt>
      <trkpt lat="48.23755" lon="-3.4201">
        <ele>208.288705</ele>
        <time>2022-12-11T15:44:36.478Z</time>
      </trkpt>
      <trkpt lat="48.23751" lon="-3.41993">
        <ele>208.420042</ele>
        <time>2022-12-11T15:44:40.493Z</time>
      </trkpt>
      <trkpt lat="48.23748" lon="-3.41977">
        <ele>208.539345</ele>
        <time>2022-12-11T15:44:45.487Z</time>
      </trkpt>
      <trkpt lat="48.23746" lon="-3.41963">
        <ele>208.647114</ele>
        <time>2022-12-11T15:44:51.493Z</time>
      </trkpt>
      <trkpt lat="48.23744" lon="-3.41949">
        <ele>208.750874</ele>
        <time>2022-12-11T15:44:57.496Z</time>
      </trkpt>
      <trkpt lat="48.23743" lon="-3.41934">
        <ele>208.859053</ele>
        <time>2022-12-11T15:45:02.499Z</time>
      </trkpt>
      <trkpt lat="48.2374" lon="-3.4192">
        <ele>208.961517</ele>
        <time>2022-12-11T15:45:07.493Z</time>
      </trkpt>
      <trkpt lat="48.23738" lon="-3.41906">
        <ele>209.066714</ele>
        <time>2022-12-11T15:45:11.494Z</time>
      </trkpt>
      <trkpt lat="48.23735" lon="-3.41893">
        <ele>209.167439</ele>
        <time>2022-12-11T15:45:15.509Z</time>
      </trkpt>
      <trkpt lat="48.23731" lon="-3.41878">
        <ele>209.285028</ele>
        <time>2022-12-11T15:45:20.504Z</time>
      </trkpt>
      <trkpt lat="48.2373" lon="-3.41864">
        <ele>209.385881</ele>
        <time>2022-12-11T15:45:24.497Z</time>
      </trkpt>
      <trkpt lat="48.23727" lon="-3.4185">
        <ele>209.495548</ele>
        <time>2022-12-11T15:45:28.480Z</time>
      </trkpt>
      <trkpt lat="48.23724" lon="-3.41836">
        <ele>209.599715</ele>
        <time>2022-12-11T15:45:32.495Z</time>
      </trkpt>
      <trkpt lat="48.23721" lon="-3.41821">
        <ele>209.713209</ele>
        <time>2022-12-11T15:45:37.489Z</time>
      </trkpt>
      <trkpt lat="48.23717" lon="-3.41807">
        <ele>209.822253</ele>
        <time>2022-12-11T15:45:42.493Z</time>
      </trkpt>
      <trkpt lat="48.23716" lon="-3.41792">
        <ele>209.933054</ele>
        <time>2022-12-11T15:45:46.479Z</time>
      </trkpt>
      <trkpt lat="48.23712" lon="-3.41776">
        <ele>210.131983</ele>
        <time>2022-12-11T15:45:50.493Z</time>
      </trkpt>
      <trkpt lat="48.2371" lon="-3.4176">
        <ele>210.387562</ele>
        <time>2022-12-11T15:45:54.482Z</time>
      </trkpt>
      <trkpt lat="48.23707" lon="-3.41747">
        <ele>210.598011</ele>
        <time>2022-12-11T15:45:57.484Z</time>
      </trkpt>
      <trkpt lat="48.23704" lon="-3.41733">
        <ele>210.815846</ele>
        <time>2022-12-11T15:46:00.512Z</time>
      </trkpt>
      <trkpt lat="48.237" lon="-3.41719">
        <ele>211.045397</ele>
        <time>2022-12-11T15:46:03.505Z</time>
      </trkpt>
      <trkpt lat="48.23695" lon="-3.41706">
        <ele>211.276534</ele>
        <time>2022-12-11T15:46:06.480Z</time>
      </trkpt>
      <trkpt lat="48.23689" lon="-3.41693">
        <ele>211.509378</ele>
        <time>2022-12-11T15:46:09.491Z</time>
      </trkpt>
      <trkpt lat="48.23683" lon="-3.41682">
        <ele>211.736554</ele>
        <time>2022-12-11T15:46:12.505Z</time>
      </trkpt>
      <trkpt lat="48.23674" lon="-3.4167">
        <ele>211.99651</ele>
        <time>2022-12-11T15:46:16.479Z</time>
      </trkpt>
      <trkpt lat="48.23664" lon="-3.41662">
        <ele>212.266059</ele>
        <time>2022-12-11T15:46:20.510Z</time>
      </trkpt>
      <trkpt lat="48.23654" lon="-3.41653">
        <ele>212.532401</ele>
        <time>2022-12-11T15:46:24.495Z</time>
      </trkpt>
      <trkpt lat="48.23646" lon="-3.41644">
        <ele>212.750381</ele>
        <time>2022-12-11T15:46:28.506Z</time>
      </trkpt>
      <trkpt lat="48.23638" lon="-3.41637">
        <ele>212.964696</ele>
        <time>2022-12-11T15:46:32.502Z</time>
      </trkpt>
      <trkpt lat="48.23629" lon="-3.41629">
        <ele>213.204197</ele>
        <time>2022-12-11T15:46:38.500Z</time>
      </trkpt>
      <trkpt lat="48.2362" lon="-3.41621">
        <ele>213.445598</ele>
        <time>2022-12-11T15:46:43.504Z</time>
      </trkpt>
      <trkpt lat="48.23612" lon="-3.4161">
        <ele>213.697363</ele>
        <time>2022-12-11T15:46:48.497Z</time>
      </trkpt>
      <trkpt lat="48.23602" lon="-3.41602">
        <ele>213.941007</ele>
        <time>2022-12-11T15:46:53.513Z</time>
      </trkpt>
      <trkpt lat="48.23593" lon="-3.41595">
        <ele>214.192866</ele>
        <time>2022-12-11T15:46:57.488Z</time>
      </trkpt>
      <trkpt lat="48.23583" lon="-3.41587">
        <ele>214.47832</ele>
        <time>2022-12-11T15:47:01.497Z</time>
      </trkpt>
      <trkpt lat="48.23574" lon="-3.41579">
        <ele>214.733614</ele>
        <time>2022-12-11T15:47:05.510Z</time>
      </trkpt>
      <trkpt lat="48.23565" lon="-3.41572">
        <ele>214.978001</ele>
        <time>2022-12-11T15:47:09.496Z</time>
      </trkpt>
      <trkpt lat="48.23555" lon="-3.41564">
        <ele>215.271462</ele>
        <time>2022-12-11T15:47:13.507Z</time>
      </trkpt>
      <trkpt lat="48.23546" lon="-3.41556">
        <ele>215.525914</ele>
        <time>2022-12-11T15:47:17.500Z</time>
      </trkpt>
      <trkpt lat="48.23537" lon="-3.41548">
        <ele>215.785916</ele>
        <time>2022-12-11T15:47:22.485Z</time>
      </trkpt>
      <trkpt lat="48.23529" lon="-3.41542">
        <ele>216.025705</ele>
        <time>2022-12-11T15:47:27.501Z</time>
      </trkpt>
      <trkpt lat="48.2352" lon="-3.41535">
        <ele>216.268524</ele>
        <time>2022-12-11T15:47:31.485Z</time>
      </trkpt>
      <trkpt lat="48.23512" lon="-3.41528">
        <ele>216.503162</ele>
        <time>2022-12-11T15:47:35.510Z</time>
      </trkpt>
      <trkpt lat="48.23503" lon="-3.4152">
        <ele>216.764939</ele>
        <time>2022-12-11T15:47:39.509Z</time>
      </trkpt>
      <trkpt lat="48.23493" lon="-3.41511">
        <ele>217.051788</ele>
        <time>2022-12-11T15:47:43.496Z</time>
      </trkpt>
      <trkpt lat="48.23483" lon="-3.41501">
        <ele>217.343916</ele>
        <time>2022-12-11T15:47:47.509Z</time>
      </trkpt>
      <trkpt lat="48.23474" lon="-3.41492">
        <ele>217.62966</ele>
        <time>2022-12-11T15:47:51.494Z</time>
      </trkpt>
      <trkpt lat="48.23465" lon="-3.41483">
        <ele>217.907508</ele>
        <time>2022-12-11T15:47:55.499Z</time>
      </trkpt>
      <trkpt lat="48.23455" lon="-3.41476">
        <ele>218.173362</ele>
        <time>2022-12-11T15:47:59.473Z</time>
      </trkpt>
      <trkpt lat="48.23447" lon="-3.41466">
        <ele>218.429097</ele>
        <time>2022-12-11T15:48:03.501Z</time>
      </trkpt>
      <trkpt lat="48.23438" lon="-3.41458">
        <ele>218.68434</ele>
        <time>2022-12-11T15:48:07.504Z</time>
      </trkpt>
      <trkpt lat="48.2343" lon="-3.41452">
        <ele>218.93353</ele>
        <time>2022-12-11T15:48:12.496Z</time>
      </trkpt>
      <trkpt lat="48.2342" lon="-3.41445">
        <ele>219.203272</ele>
        <time>2022-12-11T15:48:16.482Z</time>
      </trkpt>
      <trkpt lat="48.23412" lon="-3.41438">
        <ele>219.458585</ele>
        <time>2022-12-11T15:48:20.508Z</time>
      </trkpt>
      <trkpt lat="48.23403" lon="-3.4143">
        <ele>219.721814</ele>
        <time>2022-12-11T15:48:25.499Z</time>
      </trkpt>
      <trkpt lat="48.23394" lon="-3.41423">
        <ele>219.979395</ele>
        <time>2022-12-11T15:48:29.503Z</time>
      </trkpt>
      <trkpt lat="48.23386" lon="-3.41415">
        <ele>220.227441</ele>
        <time>2022-12-11T15:48:33.502Z</time>
      </trkpt>
      <trkpt lat="48.23377" lon="-3.41406">
        <ele>220.510941</ele>
        <time>2022-12-11T15:48:39.497Z</time>
      </trkpt>
      <trkpt lat="48.23369" lon="-3.41397">
        <ele>220.780538</ele>
        <time>2022-12-11T15:48:44.509Z</time>
      </trkpt>
      <trkpt lat="48.23361" lon="-3.4139">
        <ele>221.015797</ele>
        <time>2022-12-11T15:48:49.487Z</time>
      </trkpt>
      <trkpt lat="48.23353" lon="-3.41383">
        <ele>221.268324</ele>
        <time>2022-12-11T15:48:54.477Z</time>
      </trkpt>
      <trkpt lat="48.23344" lon="-3.41374">
        <ele>221.53272</ele>
        <time>2022-12-11T15:48:59.502Z</time>
      </trkpt>
      <trkpt lat="48.23335" lon="-3.41366">
        <ele>221.79651</ele>
        <time>2022-12-11T15:49:05.494Z</time>
      </trkpt>
      <trkpt lat="48.23326" lon="-3.4136">
        <ele>222.052545</ele>
        <time>2022-12-11T15:49:12.507Z</time>
      </trkpt>
      <trkpt lat="48.23315" lon="-3.41344">
        <ele>222.46193</ele>
        <time>2022-12-11T15:52:07.490Z</time>
      </trkpt>
      <trkpt lat="48.23307" lon="-3.41335">
        <ele>222.726531</ele>
        <time>2022-12-11T15:52:12.482Z</time>
      </trkpt>
      <trkpt lat="48.23298" lon="-3.41327">
        <ele>223.000834</ele>
        <time>2022-12-11T15:52:16.479Z</time>
      </trkpt>
      <trkpt lat="48.23289" lon="-3.4132">
        <ele>223.240418</ele>
        <time>2022-12-11T15:52:19.493Z</time>
      </trkpt>
      <trkpt lat="48.23279" lon="-3.41312">
        <ele>223.42169</ele>
        <time>2022-12-11T15:52:23.503Z</time>
      </trkpt>
      <trkpt lat="48.23271" lon="-3.41304">
        <ele>223.573664</ele>
        <time>2022-12-11T15:52:26.479Z</time>
      </trkpt>
      <trkpt lat="48.23263" lon="-3.41295">
        <ele>223.724865</ele>
        <time>2022-12-11T15:52:29.491Z</time>
      </trkpt>
      <trkpt lat="48.23256" lon="-3.41283">
        <ele>223.888841</ele>
        <time>2022-12-11T15:52:33.482Z</time>
      </trkpt>
      <trkpt lat="48.23249" lon="-3.41268">
        <ele>224.065404</ele>
        <time>2022-12-11T15:52:37.485Z</time>
      </trkpt>
      <trkpt lat="48.23243" lon="-3.41254">
        <ele>224.238848</ele>
        <time>2022-12-11T15:52:41.509Z</time>
      </trkpt>
      <trkpt lat="48.23238" lon="-3.41242">
        <ele>224.384819</ele>
        <time>2022-12-11T15:52:45.485Z</time>
      </trkpt>
      <trkpt lat="48.23232" lon="-3.41229">
        <ele>224.552306</ele>
        <time>2022-12-11T15:52:49.491Z</time>
      </trkpt>
      <trkpt lat="48.23227" lon="-3.41217">
        <ele>224.695775</ele>
        <time>2022-12-11T15:52:53.495Z</time>
      </trkpt>
      <trkpt lat="48.2322" lon="-3.41204">
        <ele>224.860176</ele>
        <time>2022-12-11T15:52:58.483Z</time>
      </trkpt>
      <trkpt lat="48.23214" lon="-3.41191">
        <ele>225.023162</ele>
        <time>2022-12-11T15:53:02.479Z</time>
      </trkpt>
      <trkpt lat="48.23209" lon="-3.41178">
        <ele>225.17282</ele>
        <time>2022-12-11T15:53:06.485Z</time>
      </trkpt>
      <trkpt lat="48.23204" lon="-3.41165">
        <ele>225.330958</ele>
        <time>2022-12-11T15:53:10.490Z</time>
      </trkpt>
      <trkpt lat="48.23198" lon="-3.41151">
        <ele>225.502554</ele>
        <time>2022-12-11T15:53:14.483Z</time>
      </trkpt>
      <trkpt lat="48.23192" lon="-3.41138">
        <ele>225.654476</ele>
        <time>2022-12-11T15:53:17.486Z</time>
      </trkpt>
      <trkpt lat="48.23186" lon="-3.41126">
        <ele>225.810846</ele>
        <time>2022-12-11T15:53:21.486Z</time>
      </trkpt>
      <trkpt lat="48.23184" lon="-3.41112">
        <ele>225.955126</ele>
        <time>2022-12-11T15:53:27.492Z</time>
      </trkpt>
      <trkpt lat="48.23177" lon="-3.411">
        <ele>226.130823</ele>
        <time>2022-12-11T15:53:33.506Z</time>
      </trkpt>
      <trkpt lat="48.23173" lon="-3.41088">
        <ele>226.300399</ele>
        <time>2022-12-11T15:53:38.483Z</time>
      </trkpt>
      <trkpt lat="48.23166" lon="-3.41077">
        <ele>226.471681</ele>
        <time>2022-12-11T15:53:43.482Z</time>
      </trkpt>
      <trkpt lat="48.23161" lon="-3.41066">
        <ele>226.632202</ele>
        <time>2022-12-11T15:53:48.487Z</time>
      </trkpt>
      <trkpt lat="48.23156" lon="-3.41054">
        <ele>226.798843</ele>
        <time>2022-12-11T15:53:53.489Z</time>
      </trkpt>
      <trkpt lat="48.2315" lon="-3.41041">
        <ele>226.987278</ele>
        <time>2022-12-11T15:53:59.479Z</time>
      </trkpt>
      <trkpt lat="48.23144" lon="-3.41028">
        <ele>227.175241</ele>
        <time>2022-12-11T15:54:04.482Z</time>
      </trkpt>
      <trkpt lat="48.23138" lon="-3.41015">
        <ele>227.361239</ele>
        <time>2022-12-11T15:54:09.488Z</time>
      </trkpt>
      <trkpt lat="48.23134" lon="-3.41001">
        <ele>227.539991</ele>
        <time>2022-12-11T15:54:14.492Z</time>
      </trkpt>
      <trkpt lat="48.23129" lon="-3.40989">
        <ele>227.703346</ele>
        <time>2022-12-11T15:54:19.501Z</time>
      </trkpt>
      <trkpt lat="48.23123" lon="-3.40977">
        <ele>227.891946</ele>
        <time>2022-12-11T15:54:25.495Z</time>
      </trkpt>
      <trkpt lat="48.23118" lon="-3.40965">
        <ele>228.056544</ele>
        <time>2022-12-11T15:54:30.516Z</time>
      </trkpt>
      <trkpt lat="48.23114" lon="-3.40952">
        <ele>228.230017</ele>
        <time>2022-12-11T15:54:35.485Z</time>
      </trkpt>
      <trkpt lat="48.23108" lon="-3.4094">
        <ele>228.399338</ele>
        <time>2022-12-11T15:54:39.479Z</time>
      </trkpt>
      <trkpt lat="48.23102" lon="-3.40926">
        <ele>228.596296</ele>
        <time>2022-12-11T15:54:43.481Z</time>
      </trkpt>
      <trkpt lat="48.23095" lon="-3.40913">
        <ele>228.784385</ele>
        <time>2022-12-11T15:54:47.479Z</time>
      </trkpt>
      <trkpt lat="48.23089" lon="-3.40899">
        <ele>228.98027</ele>
        <time>2022-12-11T15:54:51.481Z</time>
      </trkpt>
      <trkpt lat="48.23084" lon="-3.40888">
        <ele>229.150524</ele>
        <time>2022-12-11T15:54:54.497Z</time>
      </trkpt>
      <trkpt lat="48.23078" lon="-3.40877">
        <ele>229.132806</ele>
        <time>2022-12-11T15:54:57.485Z</time>
      </trkpt>
      <trkpt lat="48.23072" lon="-3.40866">
        <ele>229.06575</ele>
        <time>2022-12-11T15:55:00.514Z</time>
      </trkpt>
      <trkpt lat="48.23067" lon="-3.40853">
        <ele>228.995914</ele>
        <time>2022-12-11T15:55:03.480Z</time>
      </trkpt>
      <trkpt lat="48.2306" lon="-3.40841">
        <ele>228.923665</ele>
        <time>2022-12-11T15:55:06.482Z</time>
      </trkpt>
      <trkpt lat="48.23055" lon="-3.4083">
        <ele>228.859614</ele>
        <time>2022-12-11T15:55:09.484Z</time>
      </trkpt>
      <trkpt lat="48.23051" lon="-3.40816">
        <ele>228.789041</ele>
        <time>2022-12-11T15:55:13.483Z</time>
      </trkpt>
      <trkpt lat="48.23049" lon="-3.40798">
        <ele>228.705496</ele>
        <time>2022-12-11T15:55:17.483Z</time>
      </trkpt>
      <trkpt lat="48.23052" lon="-3.40783">
        <ele>228.629832</ele>
        <time>2022-12-11T15:55:21.492Z</time>
      </trkpt>
      <trkpt lat="48.23052" lon="-3.40769">
        <ele>228.563136</ele>
        <time>2022-12-11T15:55:25.482Z</time>
      </trkpt>
      <trkpt lat="48.23055" lon="-3.40752">
        <ele>228.485039</ele>
        <time>2022-12-11T15:55:30.488Z</time>
      </trkpt>
      <trkpt lat="48.23058" lon="-3.40738">
        <ele>228.414688</ele>
        <time>2022-12-11T15:55:35.487Z</time>
      </trkpt>
      <trkpt lat="48.23066" lon="-3.40728">
        <ele>228.343373</ele>
        <time>2022-12-11T15:55:38.490Z</time>
      </trkpt>
      <trkpt lat="48.23074" lon="-3.40716">
        <ele>228.26409</ele>
        <time>2022-12-11T15:55:41.497Z</time>
      </trkpt>
      <trkpt lat="48.23084" lon="-3.40704">
        <ele>228.176457</ele>
        <time>2022-12-11T15:55:44.483Z</time>
      </trkpt>
      <trkpt lat="48.23092" lon="-3.40693">
        <ele>228.098911</ele>
        <time>2022-12-11T15:55:47.480Z</time>
      </trkpt>
      <trkpt lat="48.23098" lon="-3.40682">
        <ele>228.031573</ele>
        <time>2022-12-11T15:55:50.487Z</time>
      </trkpt>
      <trkpt lat="48.23105" lon="-3.40671">
        <ele>227.960483</ele>
        <time>2022-12-11T15:55:53.479Z</time>
      </trkpt>
      <trkpt lat="48.23112" lon="-3.4066">
        <ele>227.928381</ele>
        <time>2022-12-11T15:55:56.486Z</time>
      </trkpt>
      <trkpt lat="48.2312" lon="-3.40649">
        <ele>227.934194</ele>
        <time>2022-12-11T15:55:59.486Z</time>
      </trkpt>
      <trkpt lat="48.23126" lon="-3.40636">
        <ele>227.940052</ele>
        <time>2022-12-11T15:56:03.511Z</time>
      </trkpt>
      <trkpt lat="48.23133" lon="-3.40621">
        <ele>227.946617</ele>
        <time>2022-12-11T15:56:07.489Z</time>
      </trkpt>
      <trkpt lat="48.2314" lon="-3.40612">
        <ele>227.951774</ele>
        <time>2022-12-11T15:56:11.507Z</time>
      </trkpt>
      <trkpt lat="48.23149" lon="-3.40603">
        <ele>227.957677</ele>
        <time>2022-12-11T15:56:15.483Z</time>
      </trkpt>
      <trkpt lat="48.23155" lon="-3.40592">
        <ele>227.962783</ele>
        <time>2022-12-11T15:56:18.524Z</time>
      </trkpt>
      <trkpt lat="48.23164" lon="-3.40579">
        <ele>227.96955</ele>
        <time>2022-12-11T15:56:22.489Z</time>
      </trkpt>
      <trkpt lat="48.23172" lon="-3.4057">
        <ele>227.975165</ele>
        <time>2022-12-11T15:56:26.484Z</time>
      </trkpt>
      <trkpt lat="48.23179" lon="-3.40559">
        <ele>227.980577</ele>
        <time>2022-12-11T15:56:30.489Z</time>
      </trkpt>
      <trkpt lat="48.23187" lon="-3.40547">
        <ele>227.986828</ele>
        <time>2022-12-11T15:56:34.488Z</time>
      </trkpt>
      <trkpt lat="48.23195" lon="-3.40535">
        <ele>227.993415</ele>
        <time>2022-12-11T15:56:38.485Z</time>
      </trkpt>
      <trkpt lat="48.23202" lon="-3.40524">
        <ele>227.99842</ele>
        <time>2022-12-11T15:56:41.485Z</time>
      </trkpt>
      <trkpt lat="48.23209" lon="-3.40514">
        <ele>228.003819</ele>
        <time>2022-12-11T15:56:44.484Z</time>
      </trkpt>
      <trkpt lat="48.23215" lon="-3.40502">
        <ele>228.009434</ele>
        <time>2022-12-11T15:56:47.484Z</time>
      </trkpt>
      <trkpt lat="48.23222" lon="-3.40491">
        <ele>228.014913</ele>
        <time>2022-12-11T15:56:50.485Z</time>
      </trkpt>
      <trkpt lat="48.23229" lon="-3.4048">
        <ele>228.020437</ele>
        <time>2022-12-11T15:56:53.478Z</time>
      </trkpt>
      <trkpt lat="48.23236" lon="-3.40469">
        <ele>228.069056</ele>
        <time>2022-12-11T15:56:56.489Z</time>
      </trkpt>
      <trkpt lat="48.23243" lon="-3.40455">
        <ele>228.199417</ele>
        <time>2022-12-11T15:57:00.488Z</time>
      </trkpt>
      <trkpt lat="48.23248" lon="-3.40442">
        <ele>228.317784</ele>
        <time>2022-12-11T15:57:04.489Z</time>
      </trkpt>
      <trkpt lat="48.23254" lon="-3.40432">
        <ele>228.423804</ele>
        <time>2022-12-11T15:57:07.491Z</time>
      </trkpt>
      <trkpt lat="48.23261" lon="-3.40422">
        <ele>228.535002</ele>
        <time>2022-12-11T15:57:11.488Z</time>
      </trkpt>
      <trkpt lat="48.23268" lon="-3.40412">
        <ele>228.64542</ele>
        <time>2022-12-11T15:57:14.488Z</time>
      </trkpt>
      <trkpt lat="48.23275" lon="-3.40401">
        <ele>228.762962</ele>
        <time>2022-12-11T15:57:17.489Z</time>
      </trkpt>
      <trkpt lat="48.23282" lon="-3.4039">
        <ele>228.881885</ele>
        <time>2022-12-11T15:57:20.489Z</time>
      </trkpt>
      <trkpt lat="48.23289" lon="-3.40378">
        <ele>229.005796</ele>
        <time>2022-12-11T15:57:23.488Z</time>
      </trkpt>
      <trkpt lat="48.23295" lon="-3.40366">
        <ele>229.121981</ele>
        <time>2022-12-11T15:57:26.484Z</time>
      </trkpt>
      <trkpt lat="48.23301" lon="-3.40356">
        <ele>229.228</ele>
        <time>2022-12-11T15:57:29.485Z</time>
      </trkpt>
      <trkpt lat="48.23308" lon="-3.40344">
        <ele>229.344196</ele>
        <time>2022-12-11T15:57:32.486Z</time>
      </trkpt>
      <trkpt lat="48.23314" lon="-3.40333">
        <ele>229.458894</ele>
        <time>2022-12-11T15:57:35.494Z</time>
      </trkpt>
      <trkpt lat="48.23321" lon="-3.40322">
        <ele>229.58215</ele>
        <time>2022-12-11T15:57:38.495Z</time>
      </trkpt>
      <trkpt lat="48.23329" lon="-3.40308">
        <ele>229.721294</ele>
        <time>2022-12-11T15:57:42.485Z</time>
      </trkpt>
      <trkpt lat="48.23336" lon="-3.40295">
        <ele>229.851467</ele>
        <time>2022-12-11T15:57:46.482Z</time>
      </trkpt>
      <trkpt lat="48.23344" lon="-3.40286">
        <ele>229.966835</ele>
        <time>2022-12-11T15:57:50.485Z</time>
      </trkpt>
      <trkpt lat="48.23352" lon="-3.40275">
        <ele>230.088106</ele>
        <time>2022-12-11T15:57:54.487Z</time>
      </trkpt>
      <trkpt lat="48.23358" lon="-3.40265">
        <ele>230.230433</ele>
        <time>2022-12-11T15:57:59.482Z</time>
      </trkpt>
      <trkpt lat="48.23365" lon="-3.40251">
        <ele>230.417076</ele>
        <time>2022-12-11T15:58:03.486Z</time>
      </trkpt>
      <trkpt lat="48.23372" lon="-3.40243">
        <ele>230.567862</ele>
        <time>2022-12-11T15:58:06.479Z</time>
      </trkpt>
      <trkpt lat="48.23379" lon="-3.40233">
        <ele>230.720065</ele>
        <time>2022-12-11T15:58:09.487Z</time>
      </trkpt>
      <trkpt lat="48.23385" lon="-3.4022">
        <ele>230.90465</ele>
        <time>2022-12-11T15:58:12.488Z</time>
      </trkpt>
      <trkpt lat="48.23392" lon="-3.40205">
        <ele>231.098923</ele>
        <time>2022-12-11T15:58:16.479Z</time>
      </trkpt>
      <trkpt lat="48.23397" lon="-3.40193">
        <ele>231.25948</ele>
        <time>2022-12-11T15:58:19.489Z</time>
      </trkpt>
      <trkpt lat="48.23403" lon="-3.4018">
        <ele>231.430081</ele>
        <time>2022-12-11T15:58:23.481Z</time>
      </trkpt>
      <trkpt lat="48.23412" lon="-3.40174">
        <ele>231.593221</ele>
        <time>2022-12-11T15:58:26.489Z</time>
      </trkpt>
      <trkpt lat="48.23416" lon="-3.40162">
        <ele>231.741583</ele>
        <time>2022-12-11T15:58:30.488Z</time>
      </trkpt>
      <trkpt lat="48.23423" lon="-3.40149">
        <ele>231.934418</ele>
        <time>2022-12-11T15:58:35.483Z</time>
      </trkpt>
      <trkpt lat="48.23429" lon="-3.40133">
        <ele>232.124539</ele>
        <time>2022-12-11T15:58:39.488Z</time>
      </trkpt>
      <trkpt lat="48.23434" lon="-3.40123">
        <ele>232.274233</ele>
        <time>2022-12-11T15:58:42.491Z</time>
      </trkpt>
      <trkpt lat="48.23442" lon="-3.40108">
        <ele>232.476188</ele>
        <time>2022-12-11T15:58:46.486Z</time>
      </trkpt>
      <trkpt lat="48.2345" lon="-3.40095">
        <ele>232.675525</ele>
        <time>2022-12-11T15:58:50.485Z</time>
      </trkpt>
      <trkpt lat="48.23454" lon="-3.40082">
        <ele>232.824678</ele>
        <time>2022-12-11T15:58:53.488Z</time>
      </trkpt>
      <trkpt lat="48.2346" lon="-3.40071">
        <ele>232.98108</ele>
        <time>2022-12-11T15:58:56.484Z</time>
      </trkpt>
      <trkpt lat="48.23467" lon="-3.4006">
        <ele>233.1977</ele>
        <time>2022-12-11T15:59:00.481Z</time>
      </trkpt>
      <trkpt lat="48.23474" lon="-3.40048">
        <ele>233.498736</ele>
        <time>2022-12-11T15:59:04.482Z</time>
      </trkpt>
      <trkpt lat="48.23481" lon="-3.40035">
        <ele>233.793157</ele>
        <time>2022-12-11T15:59:08.485Z</time>
      </trkpt>
      <trkpt lat="48.2348" lon="-3.4002">
        <ele>234.073492</ele>
        <time>2022-12-11T15:59:13.490Z</time>
      </trkpt>
      <trkpt lat="48.23486" lon="-3.40008">
        <ele>234.342273</ele>
        <time>2022-12-11T15:59:23.482Z</time>
      </trkpt>
      <trkpt lat="48.23491" lon="-3.39997">
        <ele>234.595609</ele>
        <time>2022-12-11T15:59:34.485Z</time>
      </trkpt>
      <trkpt lat="48.23493" lon="-3.39984">
        <ele>234.845329</ele>
        <time>2022-12-11T16:00:12.487Z</time>
      </trkpt>
      <trkpt lat="48.23484" lon="-3.3998">
        <ele>235.099338</ele>
        <time>2022-12-11T16:00:25.484Z</time>
      </trkpt>
      <trkpt lat="48.23501" lon="-3.3997">
        <ele>235.58799</ele>
        <time>2022-12-11T16:01:44.490Z</time>
      </trkpt>
      <trkpt lat="48.23507" lon="-3.39955">
        <ele>235.912389</ele>
        <time>2022-12-11T16:01:48.488Z</time>
      </trkpt>
      <trkpt lat="48.23509" lon="-3.39941">
        <ele>236.182163</ele>
        <time>2022-12-11T16:01:51.487Z</time>
      </trkpt>
      <trkpt lat="48.23515" lon="-3.39927">
        <ele>236.480132</ele>
        <time>2022-12-11T16:01:54.497Z</time>
      </trkpt>
      <trkpt lat="48.23522" lon="-3.39916">
        <ele>236.770391</ele>
        <time>2022-12-11T16:01:57.483Z</time>
      </trkpt>
      <trkpt lat="48.23529" lon="-3.39904">
        <ele>237.062243</ele>
        <time>2022-12-11T16:02:01.495Z</time>
      </trkpt>
      <trkpt lat="48.23536" lon="-3.39894">
        <ele>237.324687</ele>
        <time>2022-12-11T16:02:04.486Z</time>
      </trkpt>
      <trkpt lat="48.23541" lon="-3.39883">
        <ele>237.575608</ele>
        <time>2022-12-11T16:02:07.486Z</time>
      </trkpt>
      <trkpt lat="48.23546" lon="-3.39871">
        <ele>237.829311</ele>
        <time>2022-12-11T16:02:10.484Z</time>
      </trkpt>
      <trkpt lat="48.23554" lon="-3.39857">
        <ele>238.12158</ele>
        <time>2022-12-11T16:02:14.491Z</time>
      </trkpt>
      <trkpt lat="48.23561" lon="-3.39846">
        <ele>238.270951</ele>
        <time>2022-12-11T16:02:17.491Z</time>
      </trkpt>
      <trkpt lat="48.23567" lon="-3.39834">
        <ele>238.42046</ele>
        <time>2022-12-11T16:02:20.483Z</time>
      </trkpt>
      <trkpt lat="48.23575" lon="-3.3982">
        <ele>238.592997</ele>
        <time>2022-12-11T16:02:23.489Z</time>
      </trkpt>
      <trkpt lat="48.23583" lon="-3.39807">
        <ele>238.762125</ele>
        <time>2022-12-11T16:02:26.484Z</time>
      </trkpt>
      <trkpt lat="48.23589" lon="-3.39794">
        <ele>238.915006</ele>
        <time>2022-12-11T16:02:29.480Z</time>
      </trkpt>
      <trkpt lat="48.23597" lon="-3.39782">
        <ele>239.077411</ele>
        <time>2022-12-11T16:02:32.499Z</time>
      </trkpt>
      <trkpt lat="48.23602" lon="-3.39768">
        <ele>239.237289</ele>
        <time>2022-12-11T16:02:35.491Z</time>
      </trkpt>
      <trkpt lat="48.23608" lon="-3.39754">
        <ele>239.389506</ele>
        <time>2022-12-11T16:02:38.486Z</time>
      </trkpt>
      <trkpt lat="48.23613" lon="-3.39741">
        <ele>239.535449</ele>
        <time>2022-12-11T16:02:41.487Z</time>
      </trkpt>
      <trkpt lat="48.23618" lon="-3.39728">
        <ele>239.679497</ele>
        <time>2022-12-11T16:02:44.488Z</time>
      </trkpt>
      <trkpt lat="48.23623" lon="-3.39717">
        <ele>239.813849</ele>
        <time>2022-12-11T16:02:47.488Z</time>
      </trkpt>
      <trkpt lat="48.23628" lon="-3.39703">
        <ele>239.963309</ele>
        <time>2022-12-11T16:02:50.492Z</time>
      </trkpt>
      <trkpt lat="48.23633" lon="-3.39691">
        <ele>240.10508</ele>
        <time>2022-12-11T16:02:53.486Z</time>
      </trkpt>
      <trkpt lat="48.23639" lon="-3.3968">
        <ele>240.24722</ele>
        <time>2022-12-11T16:02:56.496Z</time>
      </trkpt>
      <trkpt lat="48.23646" lon="-3.39666">
        <ele>240.412473</ele>
        <time>2022-12-11T16:03:00.487Z</time>
      </trkpt>
      <trkpt lat="48.23653" lon="-3.39653">
        <ele>240.565538</ele>
        <time>2022-12-11T16:03:05.490Z</time>
      </trkpt>
      <trkpt lat="48.23658" lon="-3.3964">
        <ele>240.69379</ele>
        <time>2022-12-11T16:03:09.483Z</time>
      </trkpt>
      <trkpt lat="48.23666" lon="-3.39628">
        <ele>240.771986</ele>
        <time>2022-12-11T16:03:13.498Z</time>
      </trkpt>
      <trkpt lat="48.23672" lon="-3.39613">
        <ele>240.849218</ele>
        <time>2022-12-11T16:03:17.483Z</time>
      </trkpt>
      <trkpt lat="48.23676" lon="-3.39601">
        <ele>240.910546</ele>
        <time>2022-12-11T16:03:20.489Z</time>
      </trkpt>
      <trkpt lat="48.23683" lon="-3.3959">
        <ele>240.978772</ele>
        <time>2022-12-11T16:03:23.497Z</time>
      </trkpt>
      <trkpt lat="48.23689" lon="-3.39577">
        <ele>241.047339</ele>
        <time>2022-12-11T16:03:26.493Z</time>
      </trkpt>
      <trkpt lat="48.23694" lon="-3.39564">
        <ele>241.116428</ele>
        <time>2022-12-11T16:03:29.489Z</time>
      </trkpt>
      <trkpt lat="48.23699" lon="-3.3955">
        <ele>241.190297</ele>
        <time>2022-12-11T16:03:33.485Z</time>
      </trkpt>
      <trkpt lat="48.23705" lon="-3.39536">
        <ele>241.264551</ele>
        <time>2022-12-11T16:03:37.487Z</time>
      </trkpt>
      <trkpt lat="48.23712" lon="-3.3952">
        <ele>241.349634</ele>
        <time>2022-12-11T16:03:41.486Z</time>
      </trkpt>
      <trkpt lat="48.23718" lon="-3.39506">
        <ele>241.423475</ele>
        <time>2022-12-11T16:03:45.487Z</time>
      </trkpt>
      <trkpt lat="48.23724" lon="-3.39492">
        <ele>241.500303</ele>
        <time>2022-12-11T16:03:49.484Z</time>
      </trkpt>
      <trkpt lat="48.23731" lon="-3.39479">
        <ele>241.574862</ele>
        <time>2022-12-11T16:03:53.480Z</time>
      </trkpt>
      <trkpt lat="48.23738" lon="-3.39465">
        <ele>241.654134</ele>
        <time>2022-12-11T16:03:57.496Z</time>
      </trkpt>
      <trkpt lat="48.23744" lon="-3.39455">
        <ele>241.715465</ele>
        <time>2022-12-11T16:04:00.488Z</time>
      </trkpt>
      <trkpt lat="48.23749" lon="-3.39442">
        <ele>241.782319</ele>
        <time>2022-12-11T16:04:04.488Z</time>
      </trkpt>
      <trkpt lat="48.23755" lon="-3.39428">
        <ele>241.85616</ele>
        <time>2022-12-11T16:04:08.482Z</time>
      </trkpt>
      <trkpt lat="48.23762" lon="-3.39415">
        <ele>242.039105</ele>
        <time>2022-12-11T16:04:11.477Z</time>
      </trkpt>
      <trkpt lat="48.23766" lon="-3.39403">
        <ele>242.273934</ele>
        <time>2022-12-11T16:04:14.483Z</time>
      </trkpt>
      <trkpt lat="48.23771" lon="-3.3939">
        <ele>242.521403</ele>
        <time>2022-12-11T16:04:17.489Z</time>
      </trkpt>
      <trkpt lat="48.23776" lon="-3.39376">
        <ele>242.793899</ele>
        <time>2022-12-11T16:04:21.484Z</time>
      </trkpt>
      <trkpt lat="48.23781" lon="-3.39362">
        <ele>243.071198</ele>
        <time>2022-12-11T16:04:25.487Z</time>
      </trkpt>
      <trkpt lat="48.23786" lon="-3.39346">
        <ele>243.376646</ele>
        <time>2022-12-11T16:04:29.483Z</time>
      </trkpt>
      <trkpt lat="48.23793" lon="-3.39334">
        <ele>243.640181</ele>
        <time>2022-12-11T16:04:32.491Z</time>
      </trkpt>
      <trkpt lat="48.23801" lon="-3.39325">
        <ele>243.886573</ele>
        <time>2022-12-11T16:04:35.490Z</time>
      </trkpt>
      <trkpt lat="48.23807" lon="-3.39311">
        <ele>244.171451</ele>
        <time>2022-12-11T16:04:40.486Z</time>
      </trkpt>
      <trkpt lat="48.23816" lon="-3.39299">
        <ele>244.465568</ele>
        <time>2022-12-11T16:04:44.509Z</time>
      </trkpt>
      <trkpt lat="48.23821" lon="-3.39287">
        <ele>244.716802</ele>
        <time>2022-12-11T16:04:47.514Z</time>
      </trkpt>
      <trkpt lat="48.23828" lon="-3.39275">
        <ele>244.986046</ele>
        <time>2022-12-11T16:04:50.496Z</time>
      </trkpt>
      <trkpt lat="48.23833" lon="-3.39258">
        <ele>245.293209</ele>
        <time>2022-12-11T16:04:54.487Z</time>
      </trkpt>
      <trkpt lat="48.23837" lon="-3.39242">
        <ele>245.583042</ele>
        <time>2022-12-11T16:04:58.486Z</time>
      </trkpt>
      <trkpt lat="48.23841" lon="-3.3923">
        <ele>245.81914</ele>
        <time>2022-12-11T16:05:01.492Z</time>
      </trkpt>
      <trkpt lat="48.2385" lon="-3.39215">
        <ele>246.160022</ele>
        <time>2022-12-11T16:05:04.488Z</time>
      </trkpt>
      <trkpt lat="48.23858" lon="-3.39203">
        <ele>246.442929</ele>
        <time>2022-12-11T16:05:07.486Z</time>
      </trkpt>
      <trkpt lat="48.23862" lon="-3.3919">
        <ele>246.237482</ele>
        <time>2022-12-11T16:05:11.481Z</time>
      </trkpt>
      <trkpt lat="48.23868" lon="-3.39175">
        <ele>245.932208</ele>
        <time>2022-12-11T16:05:15.481Z</time>
      </trkpt>
      <trkpt lat="48.23873" lon="-3.39163">
        <ele>245.687663</ele>
        <time>2022-12-11T16:05:18.482Z</time>
      </trkpt>
      <trkpt lat="48.2388" lon="-3.39149">
        <ele>245.370822</ele>
        <time>2022-12-11T16:05:22.487Z</time>
      </trkpt>
      <trkpt lat="48.23887" lon="-3.39138">
        <ele>245.090309</ele>
        <time>2022-12-11T16:05:25.489Z</time>
      </trkpt>
      <trkpt lat="48.23895" lon="-3.39125">
        <ele>244.796077</ele>
        <time>2022-12-11T16:05:28.490Z</time>
      </trkpt>
      <trkpt lat="48.239" lon="-3.39114">
        <ele>244.554445</ele>
        <time>2022-12-11T16:05:31.490Z</time>
      </trkpt>
      <trkpt lat="48.23906" lon="-3.39102">
        <ele>244.283431</ele>
        <time>2022-12-11T16:05:34.487Z</time>
      </trkpt>
      <trkpt lat="48.23914" lon="-3.39089">
        <ele>243.977339</ele>
        <time>2022-12-11T16:05:37.488Z</time>
      </trkpt>
      <trkpt lat="48.2392" lon="-3.39075">
        <ele>243.687148</ele>
        <time>2022-12-11T16:05:40.496Z</time>
      </trkpt>
      <trkpt lat="48.23925" lon="-3.39062">
        <ele>243.414486</ele>
        <time>2022-12-11T16:05:43.489Z</time>
      </trkpt>
      <trkpt lat="48.2393" lon="-3.3905">
        <ele>243.155149</ele>
        <time>2022-12-11T16:05:46.481Z</time>
      </trkpt>
      <trkpt lat="48.23936" lon="-3.39038">
        <ele>242.888164</ele>
        <time>2022-12-11T16:05:49.483Z</time>
      </trkpt>
      <trkpt lat="48.23943" lon="-3.39023">
        <ele>242.574305</ele>
        <time>2022-12-11T16:05:53.478Z</time>
      </trkpt>
      <trkpt lat="48.23949" lon="-3.3901">
        <ele>242.28677</ele>
        <time>2022-12-11T16:05:57.480Z</time>
      </trkpt>
      <trkpt lat="48.23955" lon="-3.38995">
        <ele>241.987128</ele>
        <time>2022-12-11T16:06:02.488Z</time>
      </trkpt>
      <trkpt lat="48.23958" lon="-3.38982">
        <ele>241.7435</ele>
        <time>2022-12-11T16:06:06.493Z</time>
      </trkpt>
      <trkpt lat="48.23962" lon="-3.38965">
        <ele>241.803343</ele>
        <time>2022-12-11T16:06:10.482Z</time>
      </trkpt>
      <trkpt lat="48.23966" lon="-3.38952">
        <ele>241.912712</ele>
        <time>2022-12-11T16:06:13.486Z</time>
      </trkpt>
      <trkpt lat="48.2397" lon="-3.38939">
        <ele>242.022564</ele>
        <time>2022-12-11T16:06:16.485Z</time>
      </trkpt>
      <trkpt lat="48.23972" lon="-3.38923">
        <ele>242.153862</ele>
        <time>2022-12-11T16:06:20.499Z</time>
      </trkpt>
      <trkpt lat="48.23974" lon="-3.3891">
        <ele>242.26343</ele>
        <time>2022-12-11T16:06:23.485Z</time>
      </trkpt>
      <trkpt lat="48.23973" lon="-3.38895">
        <ele>242.382056</ele>
        <time>2022-12-11T16:06:27.481Z</time>
      </trkpt>
      <trkpt lat="48.23972" lon="-3.38877">
        <ele>242.516679</ele>
        <time>2022-12-11T16:06:32.490Z</time>
      </trkpt>
      <trkpt lat="48.23972" lon="-3.38863">
        <ele>242.630849</ele>
        <time>2022-12-11T16:06:35.486Z</time>
      </trkpt>
      <trkpt lat="48.23973" lon="-3.38849">
        <ele>242.739058</ele>
        <time>2022-12-11T16:06:38.486Z</time>
      </trkpt>
      <trkpt lat="48.23974" lon="-3.38832">
        <ele>242.874416</ele>
        <time>2022-12-11T16:06:42.488Z</time>
      </trkpt>
      <trkpt lat="48.23976" lon="-3.38814">
        <ele>243.015198</ele>
        <time>2022-12-11T16:06:46.482Z</time>
      </trkpt>
      <trkpt lat="48.23978" lon="-3.388">
        <ele>243.126916</ele>
        <time>2022-12-11T16:06:49.488Z</time>
      </trkpt>
      <trkpt lat="48.23979" lon="-3.38784">
        <ele>243.256369</ele>
        <time>2022-12-11T16:06:53.488Z</time>
      </trkpt>
      <trkpt lat="48.2398" lon="-3.3877">
        <ele>243.364794</ele>
        <time>2022-12-11T16:06:56.486Z</time>
      </trkpt>
      <trkpt lat="48.23982" lon="-3.38754">
        <ele>243.490136</ele>
        <time>2022-12-11T16:07:00.497Z</time>
      </trkpt>
      <trkpt lat="48.2398" lon="-3.38739">
        <ele>243.607196</ele>
        <time>2022-12-11T16:07:04.506Z</time>
      </trkpt>
      <trkpt lat="48.23976" lon="-3.38726">
        <ele>243.726128</ele>
        <time>2022-12-11T16:07:08.491Z</time>
      </trkpt>
      <trkpt lat="48.23975" lon="-3.38709">
        <ele>243.844446</ele>
        <time>2022-12-11T16:07:12.488Z</time>
      </trkpt>
      <trkpt lat="48.23976" lon="-3.38692">
        <ele>243.947904</ele>
        <time>2022-12-11T16:07:16.482Z</time>
      </trkpt>
      <trkpt lat="48.23979" lon="-3.38677">
        <ele>244.037769</ele>
        <time>2022-12-11T16:07:19.496Z</time>
      </trkpt>
      <trkpt lat="48.23979" lon="-3.38661">
        <ele>244.138105</ele>
        <time>2022-12-11T16:07:23.506Z</time>
      </trkpt>
      <trkpt lat="48.23976" lon="-3.38648">
        <ele>244.220549</ele>
        <time>2022-12-11T16:07:26.487Z</time>
      </trkpt>
      <trkpt lat="48.23977" lon="-3.38633">
        <ele>244.307783</ele>
        <time>2022-12-11T16:07:29.487Z</time>
      </trkpt>
      <trkpt lat="48.23976" lon="-3.38617">
        <ele>244.40147</ele>
        <time>2022-12-11T16:07:32.489Z</time>
      </trkpt>
      <trkpt lat="48.23976" lon="-3.38601">
        <ele>244.500075</ele>
        <time>2022-12-11T16:07:35.488Z</time>
      </trkpt>
      <trkpt lat="48.23976" lon="-3.38584">
        <ele>244.599277</ele>
        <time>2022-12-11T16:07:39.482Z</time>
      </trkpt>
      <trkpt lat="48.23978" lon="-3.3857">
        <ele>244.686948</ele>
        <time>2022-12-11T16:07:42.486Z</time>
      </trkpt>
      <trkpt lat="48.23981" lon="-3.38556">
        <ele>244.770301</ele>
        <time>2022-12-11T16:07:45.497Z</time>
      </trkpt>
      <trkpt lat="48.23984" lon="-3.3854">
        <ele>244.870254</ele>
        <time>2022-12-11T16:07:48.489Z</time>
      </trkpt>
      <trkpt lat="48.23985" lon="-3.38525">
        <ele>244.961909</ele>
        <time>2022-12-11T16:07:51.483Z</time>
      </trkpt>
      <trkpt lat="48.23992" lon="-3.3851">
        <ele>245.076584</ele>
        <time>2022-12-11T16:07:54.483Z</time>
      </trkpt>
      <trkpt lat="48.23998" lon="-3.38496">
        <ele>245.173886</ele>
        <time>2022-12-11T16:07:57.487Z</time>
      </trkpt>
      <trkpt lat="48.23999" lon="-3.38479">
        <ele>245.272418</ele>
        <time>2022-12-11T16:08:00.507Z</time>
      </trkpt>
      <trkpt lat="48.24" lon="-3.38462">
        <ele>245.373149</ele>
        <time>2022-12-11T16:08:04.504Z</time>
      </trkpt>
      <trkpt lat="48.24" lon="-3.38447">
        <ele>245.232409</ele>
        <time>2022-12-11T16:08:08.514Z</time>
      </trkpt>
      <trkpt lat="48.24002" lon="-3.38434">
        <ele>244.945662</ele>
        <time>2022-12-11T16:08:11.509Z</time>
      </trkpt>
      <trkpt lat="48.23999" lon="-3.38421">
        <ele>244.653066</ele>
        <time>2022-12-11T16:08:15.509Z</time>
      </trkpt>
      <trkpt lat="48.23999" lon="-3.38403">
        <ele>244.281566</ele>
        <time>2022-12-11T16:08:19.504Z</time>
      </trkpt>
      <trkpt lat="48.24" lon="-3.38388">
        <ele>243.973145</ele>
        <time>2022-12-11T16:08:23.489Z</time>
      </trkpt>
      <trkpt lat="48.23999" lon="-3.38371">
        <ele>243.610195</ele>
        <time>2022-12-11T16:08:27.495Z</time>
      </trkpt>
      <trkpt lat="48.23999" lon="-3.38354">
        <ele>243.257774</ele>
        <time>2022-12-11T16:08:31.503Z</time>
      </trkpt>
      <trkpt lat="48.24002" lon="-3.38339">
        <ele>242.92805</ele>
        <time>2022-12-11T16:08:35.504Z</time>
      </trkpt>
      <trkpt lat="48.24005" lon="-3.38323">
        <ele>242.580217</ele>
        <time>2022-12-11T16:08:39.489Z</time>
      </trkpt>
      <trkpt lat="48.24008" lon="-3.38307">
        <ele>242.236716</ele>
        <time>2022-12-11T16:08:42.495Z</time>
      </trkpt>
      <trkpt lat="48.2401" lon="-3.38294">
        <ele>241.940347</ele>
        <time>2022-12-11T16:08:45.496Z</time>
      </trkpt>
      <trkpt lat="48.24009" lon="-3.3828">
        <ele>241.653661</ele>
        <time>2022-12-11T16:08:48.484Z</time>
      </trkpt>
      <trkpt lat="48.24012" lon="-3.38267">
        <ele>241.361066</ele>
        <time>2022-12-11T16:08:51.506Z</time>
      </trkpt>
      <trkpt lat="48.24012" lon="-3.38251">
        <ele>241.042206</ele>
        <time>2022-12-11T16:08:54.490Z</time>
      </trkpt>
      <trkpt lat="48.24012" lon="-3.38237">
        <ele>240.733786</ele>
        <time>2022-12-11T16:08:57.507Z</time>
      </trkpt>
      <trkpt lat="48.24016" lon="-3.38221">
        <ele>240.372614</ele>
        <time>2022-12-11T16:09:00.508Z</time>
      </trkpt>
      <trkpt lat="48.24019" lon="-3.38205">
        <ele>240.031959</ele>
        <time>2022-12-11T16:09:03.490Z</time>
      </trkpt>
      <trkpt lat="48.24022" lon="-3.38188">
        <ele>239.671319</ele>
        <time>2022-12-11T16:09:07.484Z</time>
      </trkpt>
      <trkpt lat="48.24022" lon="-3.3817">
        <ele>239.329216</ele>
        <time>2022-12-11T16:09:11.504Z</time>
      </trkpt>
      <trkpt lat="48.24023" lon="-3.38152">
        <ele>239.001067</ele>
        <time>2022-12-11T16:09:14.516Z</time>
      </trkpt>
      <trkpt lat="48.24026" lon="-3.38139">
        <ele>238.74881</ele>
        <time>2022-12-11T16:09:16.488Z</time>
      </trkpt>
      <trkpt lat="48.24029" lon="-3.38124">
        <ele>238.448743</ele>
        <time>2022-12-11T16:09:19.488Z</time>
      </trkpt>
      <trkpt lat="48.2403" lon="-3.3811">
        <ele>238.193327</ele>
        <time>2022-12-11T16:09:22.513Z</time>
      </trkpt>
      <trkpt lat="48.2403" lon="-3.38092">
        <ele>237.858136</ele>
        <time>2022-12-11T16:09:26.489Z</time>
      </trkpt>
      <trkpt lat="48.24029" lon="-3.38078">
        <ele>237.599357</ele>
        <time>2022-12-11T16:09:29.490Z</time>
      </trkpt>
      <trkpt lat="48.24031" lon="-3.38065">
        <ele>237.34031</ele>
        <time>2022-12-11T16:09:32.493Z</time>
      </trkpt>
      <trkpt lat="48.24034" lon="-3.38051">
        <ele>237.073699</ele>
        <time>2022-12-11T16:09:35.507Z</time>
      </trkpt>
      <trkpt lat="48.2404" lon="-3.38037">
        <ele>236.750312</ele>
        <time>2022-12-11T16:09:38.495Z</time>
      </trkpt>
      <trkpt lat="48.24043" lon="-3.38023">
        <ele>236.479768</ele>
        <time>2022-12-11T16:09:41.515Z</time>
      </trkpt>
      <trkpt lat="48.24043" lon="-3.38007">
        <ele>236.182314</ele>
        <time>2022-12-11T16:09:45.503Z</time>
      </trkpt>
      <trkpt lat="48.24038" lon="-3.37991">
        <ele>235.868825</ele>
        <time>2022-12-11T16:09:49.490Z</time>
      </trkpt>
      <trkpt lat="48.24033" lon="-3.3798">
        <ele>235.607338</ele>
        <time>2022-12-11T16:09:52.484Z</time>
      </trkpt>
      <trkpt lat="48.24027" lon="-3.37968">
        <ele>235.34382</ele>
        <time>2022-12-11T16:09:55.501Z</time>
      </trkpt>
      <trkpt lat="48.24022" lon="-3.37956">
        <ele>235.062048</ele>
        <time>2022-12-11T16:09:58.514Z</time>
      </trkpt>
      <trkpt lat="48.24015" lon="-3.37943">
        <ele>234.755918</ele>
        <time>2022-12-11T16:10:01.535Z</time>
      </trkpt>
      <trkpt lat="48.24009" lon="-3.3793">
        <ele>234.798837</ele>
        <time>2022-12-11T16:10:04.516Z</time>
      </trkpt>
      <trkpt lat="48.24002" lon="-3.37919">
        <ele>234.883793</ele>
        <time>2022-12-11T16:10:07.499Z</time>
      </trkpt>
      <trkpt lat="48.23994" lon="-3.37908">
        <ele>234.967004</ele>
        <time>2022-12-11T16:10:10.508Z</time>
      </trkpt>
      <trkpt lat="48.23985" lon="-3.37899">
        <ele>235.058341</ele>
        <time>2022-12-11T16:10:13.506Z</time>
      </trkpt>
      <trkpt lat="48.23975" lon="-3.37889">
        <ele>235.148659</ele>
        <time>2022-12-11T16:10:16.487Z</time>
      </trkpt>
      <trkpt lat="48.23966" lon="-3.37879">
        <ele>235.240298</ele>
        <time>2022-12-11T16:10:19.517Z</time>
      </trkpt>
      <trkpt lat="48.23959" lon="-3.37869">
        <ele>235.31969</ele>
        <time>2022-12-11T16:10:22.512Z</time>
      </trkpt>
      <trkpt lat="48.23951" lon="-3.37859">
        <ele>235.401233</ele>
        <time>2022-12-11T16:10:25.511Z</time>
      </trkpt>
      <trkpt lat="48.23944" lon="-3.37849">
        <ele>235.478837</ele>
        <time>2022-12-11T16:10:28.518Z</time>
      </trkpt>
      <trkpt lat="48.23938" lon="-3.37837">
        <ele>235.558103</ele>
        <time>2022-12-11T16:10:31.500Z</time>
      </trkpt>
      <trkpt lat="48.23924" lon="-3.37829">
        <ele>235.681649</ele>
        <time>2022-12-11T16:10:34.497Z</time>
      </trkpt>
      <trkpt lat="48.23913" lon="-3.3782">
        <ele>235.781148</ele>
        <time>2022-12-11T16:10:37.492Z</time>
      </trkpt>
      <trkpt lat="48.23905" lon="-3.3781">
        <ele>235.865079</ele>
        <time>2022-12-11T16:10:40.516Z</time>
      </trkpt>
      <trkpt lat="48.23896" lon="-3.378">
        <ele>235.952784</ele>
        <time>2022-12-11T16:10:43.502Z</time>
      </trkpt>
      <trkpt lat="48.23888" lon="-3.37791">
        <ele>236.036348</ele>
        <time>2022-12-11T16:10:46.498Z</time>
      </trkpt>
      <trkpt lat="48.23877" lon="-3.3778">
        <ele>236.13779</ele>
        <time>2022-12-11T16:10:49.512Z</time>
      </trkpt>
      <trkpt lat="48.23871" lon="-3.37769">
        <ele>236.071298</ele>
        <time>2022-12-11T16:10:52.486Z</time>
      </trkpt>
      <trkpt lat="48.23866" lon="-3.37755">
        <ele>235.88898</ele>
        <time>2022-12-11T16:10:55.514Z</time>
      </trkpt>
      <trkpt lat="48.23861" lon="-3.37739">
        <ele>235.685243</ele>
        <time>2022-12-11T16:10:58.515Z</time>
      </trkpt>
      <trkpt lat="48.23856" lon="-3.37723">
        <ele>235.478598</ele>
        <time>2022-12-11T16:11:01.484Z</time>
      </trkpt>
      <trkpt lat="48.23851" lon="-3.37705">
        <ele>235.261618</ele>
        <time>2022-12-11T16:11:04.515Z</time>
      </trkpt>
      <trkpt lat="48.23847" lon="-3.37692">
        <ele>235.103404</ele>
        <time>2022-12-11T16:11:07.485Z</time>
      </trkpt>
      <trkpt lat="48.23843" lon="-3.37678">
        <ele>234.925516</ele>
        <time>2022-12-11T16:11:10.504Z</time>
      </trkpt>
      <trkpt lat="48.23838" lon="-3.37663">
        <ele>234.728605</ele>
        <time>2022-12-11T16:11:13.508Z</time>
      </trkpt>
      <trkpt lat="48.23833" lon="-3.37645">
        <ele>234.509903</ele>
        <time>2022-12-11T16:11:16.502Z</time>
      </trkpt>
      <trkpt lat="48.23829" lon="-3.37629">
        <ele>234.311487</ele>
        <time>2022-12-11T16:11:19.493Z</time>
      </trkpt>
      <trkpt lat="48.23827" lon="-3.37615">
        <ele>234.145682</ele>
        <time>2022-12-11T16:11:22.510Z</time>
      </trkpt>
      <trkpt lat="48.23822" lon="-3.376">
        <ele>233.952049</ele>
        <time>2022-12-11T16:11:26.489Z</time>
      </trkpt>
      <trkpt lat="48.2382" lon="-3.37583">
        <ele>233.759489</ele>
        <time>2022-12-11T16:11:30.518Z</time>
      </trkpt>
      <trkpt lat="48.23816" lon="-3.37567">
        <ele>233.562142</ele>
        <time>2022-12-11T16:11:34.500Z</time>
      </trkpt>
      <trkpt lat="48.23817" lon="-3.37552">
        <ele>233.384621</ele>
        <time>2022-12-11T16:11:38.509Z</time>
      </trkpt>
      <trkpt lat="48.23815" lon="-3.37538">
        <ele>233.22772</ele>
        <time>2022-12-11T16:11:43.505Z</time>
      </trkpt>
      <trkpt lat="48.23816" lon="-3.37524">
        <ele>233.068158</ele>
        <time>2022-12-11T16:11:47.483Z</time>
      </trkpt>
      <trkpt lat="48.2382" lon="-3.37512">
        <ele>232.933702</ele>
        <time>2022-12-11T16:11:59.507Z</time>
      </trkpt>
      <trkpt lat="48.23821" lon="-3.37498">
        <ele>232.799182</ele>
        <time>2022-12-11T16:12:12.491Z</time>
      </trkpt>
      <trkpt lat="48.23817" lon="-3.37484">
        <ele>232.663621</ele>
        <time>2022-12-11T16:12:23.500Z</time>
      </trkpt>
      <trkpt lat="48.23816" lon="-3.37469">
        <ele>232.513713</ele>
        <time>2022-12-11T16:12:26.488Z</time>
      </trkpt>
      <trkpt lat="48.23812" lon="-3.37454">
        <ele>232.360448</ele>
        <time>2022-12-11T16:12:28.492Z</time>
      </trkpt>
      <trkpt lat="48.2381" lon="-3.37438">
        <ele>232.207488</ele>
        <time>2022-12-11T16:12:30.514Z</time>
      </trkpt>
      <trkpt lat="48.23809" lon="-3.37423">
        <ele>232.06149</ele>
        <time>2022-12-11T16:12:32.513Z</time>
      </trkpt>
      <trkpt lat="48.23805" lon="-3.37408">
        <ele>231.906019</ele>
        <time>2022-12-11T16:12:34.518Z</time>
      </trkpt>
      <trkpt lat="48.23804" lon="-3.37391">
        <ele>231.746943</ele>
        <time>2022-12-11T16:12:36.487Z</time>
      </trkpt>
      <trkpt lat="48.23803" lon="-3.37377">
        <ele>231.607358</ele>
        <time>2022-12-11T16:12:38.512Z</time>
      </trkpt>
      <trkpt lat="48.23801" lon="-3.37363">
        <ele>231.475257</ele>
        <time>2022-12-11T16:12:40.512Z</time>
      </trkpt>
      <trkpt lat="48.23799" lon="-3.37344">
        <ele>231.295528</ele>
        <time>2022-12-11T16:12:43.495Z</time>
      </trkpt>
      <trkpt lat="48.23796" lon="-3.37331">
        <ele>231.158135</ele>
        <time>2022-12-11T16:12:46.490Z</time>
      </trkpt>
      <trkpt lat="48.23791" lon="-3.37315">
        <ele>230.99234</ele>
        <time>2022-12-11T16:12:50.514Z</time>
      </trkpt>
      <trkpt lat="48.23786" lon="-3.373">
        <ele>230.836585</ele>
        <time>2022-12-11T16:12:54.520Z</time>
      </trkpt>
      <trkpt lat="48.23781" lon="-3.37284">
        <ele>230.671241</ele>
        <time>2022-12-11T16:12:58.513Z</time>
      </trkpt>
      <trkpt lat="48.23776" lon="-3.37272">
        <ele>230.526085</ele>
        <time>2022-12-11T16:13:01.485Z</time>
      </trkpt>
      <trkpt lat="48.23771" lon="-3.37258">
        <ele>230.507381</ele>
        <time>2022-12-11T16:13:04.513Z</time>
      </trkpt>
      <trkpt lat="48.23765" lon="-3.37244">
        <ele>230.508209</ele>
        <time>2022-12-11T16:13:07.503Z</time>
      </trkpt>
      <trkpt lat="48.2376" lon="-3.37233">
        <ele>230.508898</ele>
        <time>2022-12-11T16:13:10.497Z</time>
      </trkpt>
      <trkpt lat="48.23755" lon="-3.37219">
        <ele>230.509707</ele>
        <time>2022-12-11T16:13:14.510Z</time>
      </trkpt>
      <trkpt lat="48.23745" lon="-3.37213">
        <ele>230.510485</ele>
        <time>2022-12-11T16:13:17.510Z</time>
      </trkpt>
      <trkpt lat="48.23734" lon="-3.37211">
        <ele>230.511344</ele>
        <time>2022-12-11T16:13:20.505Z</time>
      </trkpt>
      <trkpt lat="48.23724" lon="-3.3721">
        <ele>230.51213</ele>
        <time>2022-12-11T16:13:23.493Z</time>
      </trkpt>
      <trkpt lat="48.23713" lon="-3.37209">
        <ele>230.512939</ele>
        <time>2022-12-11T16:13:26.491Z</time>
      </trkpt>
      <trkpt lat="48.23701" lon="-3.37207">
        <ele>230.513844</ele>
        <time>2022-12-11T16:13:29.518Z</time>
      </trkpt>
      <trkpt lat="48.2369" lon="-3.37205">
        <ele>230.514754</ele>
        <time>2022-12-11T16:13:32.518Z</time>
      </trkpt>
      <trkpt lat="48.23678" lon="-3.37204">
        <ele>230.515608</ele>
        <time>2022-12-11T16:13:35.487Z</time>
      </trkpt>
      <trkpt lat="48.23667" lon="-3.37204">
        <ele>230.516478</ele>
        <time>2022-12-11T16:13:38.500Z</time>
      </trkpt>
      <trkpt lat="48.23654" lon="-3.37204">
        <ele>230.517439</ele>
        <time>2022-12-11T16:13:41.533Z</time>
      </trkpt>
      <trkpt lat="48.23641" lon="-3.37201">
        <ele>230.518434</ele>
        <time>2022-12-11T16:13:44.494Z</time>
      </trkpt>
      <trkpt lat="48.23629" lon="-3.37198">
        <ele>230.519362</ele>
        <time>2022-12-11T16:13:47.490Z</time>
      </trkpt>
      <trkpt lat="48.23617" lon="-3.372">
        <ele>230.520282</ele>
        <time>2022-12-11T16:13:50.490Z</time>
      </trkpt>
      <trkpt lat="48.23605" lon="-3.37199">
        <ele>230.601903</ele>
        <time>2022-12-11T16:13:53.504Z</time>
      </trkpt>
      <trkpt lat="48.23593" lon="-3.37199">
        <ele>230.68643</ele>
        <time>2022-12-11T16:13:56.485Z</time>
      </trkpt>
      <trkpt lat="48.23581" lon="-3.37201">
        <ele>230.773762</ele>
        <time>2022-12-11T16:13:59.486Z</time>
      </trkpt>
      <trkpt lat="48.23569" lon="-3.37201">
        <ele>230.858256</ele>
        <time>2022-12-11T16:14:02.519Z</time>
      </trkpt>
      <trkpt lat="48.23558" lon="-3.37203">
        <ele>230.938771</ele>
        <time>2022-12-11T16:14:05.485Z</time>
      </trkpt>
      <trkpt lat="48.23546" lon="-3.37207">
        <ele>231.022709</ele>
        <time>2022-12-11T16:14:08.497Z</time>
      </trkpt>
      <trkpt lat="48.23537" lon="-3.37213">
        <ele>231.096163</ele>
        <time>2022-12-11T16:14:11.494Z</time>
      </trkpt>
      <trkpt lat="48.23529" lon="-3.37221">
        <ele>231.164811</ele>
        <time>2022-12-11T16:14:14.493Z</time>
      </trkpt>
      <trkpt lat="48.23519" lon="-3.37229">
        <ele>231.245947</ele>
        <time>2022-12-11T16:14:18.486Z</time>
      </trkpt>
      <trkpt lat="48.2351" lon="-3.37237">
        <ele>231.318504</ele>
        <time>2022-12-11T16:14:21.515Z</time>
      </trkpt>
      <trkpt lat="48.235" lon="-3.37243">
        <ele>231.398112</ele>
        <time>2022-12-11T16:14:25.515Z</time>
      </trkpt>
      <trkpt lat="48.23492" lon="-3.37255">
        <ele>231.481134</ele>
        <time>2022-12-11T16:14:28.510Z</time>
      </trkpt>
      <trkpt lat="48.23483" lon="-3.37259">
        <ele>231.548281</ele>
        <time>2022-12-11T16:14:32.512Z</time>
      </trkpt>
      <trkpt lat="48.23472" lon="-3.37261">
        <ele>231.624129</ele>
        <time>2022-12-11T16:14:35.516Z</time>
      </trkpt>
      <trkpt lat="48.2346" lon="-3.37263">
        <ele>231.71338</ele>
        <time>2022-12-11T16:14:38.516Z</time>
      </trkpt>
      <trkpt lat="48.23448" lon="-3.37265">
        <ele>231.797811</ele>
        <time>2022-12-11T16:14:41.504Z</time>
      </trkpt>
      <trkpt lat="48.23436" lon="-3.37272">
        <ele>231.707779</ele>
        <time>2022-12-11T16:14:44.517Z</time>
      </trkpt>
      <trkpt lat="48.23424" lon="-3.37278">
        <ele>231.603805</ele>
        <time>2022-12-11T16:14:47.491Z</time>
      </trkpt>
      <trkpt lat="48.23412" lon="-3.37282">
        <ele>231.499857</ele>
        <time>2022-12-11T16:14:50.489Z</time>
      </trkpt>
      <trkpt lat="48.234" lon="-3.37287">
        <ele>231.395527</ele>
        <time>2022-12-11T16:14:53.515Z</time>
      </trkpt>
      <trkpt lat="48.23389" lon="-3.37288">
        <ele>231.302027</ele>
        <time>2022-12-11T16:14:56.498Z</time>
      </trkpt>
      <trkpt lat="48.23379" lon="-3.37291">
        <ele>231.219456</ele>
        <time>2022-12-11T16:14:59.498Z</time>
      </trkpt>
      <trkpt lat="48.23368" lon="-3.37294">
        <ele>231.125562</ele>
        <time>2022-12-11T16:15:02.486Z</time>
      </trkpt>
      <trkpt lat="48.23358" lon="-3.37295">
        <ele>231.039904</ele>
        <time>2022-12-11T16:15:05.510Z</time>
      </trkpt>
      <trkpt lat="48.23347" lon="-3.37296">
        <ele>230.953502</ele>
        <time>2022-12-11T16:15:08.514Z</time>
      </trkpt>
      <trkpt lat="48.23337" lon="-3.37296">
        <ele>230.865511</ele>
        <time>2022-12-11T16:15:11.493Z</time>
      </trkpt>
      <trkpt lat="48.23327" lon="-3.37292">
        <ele>230.77988</ele>
        <time>2022-12-11T16:15:14.494Z</time>
      </trkpt>
      <trkpt lat="48.23317" lon="-3.37287">
        <ele>230.695602</ele>
        <time>2022-12-11T16:15:17.512Z</time>
      </trkpt>
      <trkpt lat="48.2331" lon="-3.37277">
        <ele>230.612865</ele>
        <time>2022-12-11T16:15:21.521Z</time>
      </trkpt>
      <trkpt lat="48.233" lon="-3.37268">
        <ele>230.516011</ele>
        <time>2022-12-11T16:15:24.510Z</time>
      </trkpt>
      <trkpt lat="48.23292" lon="-3.3726">
        <ele>230.433194</ele>
        <time>2022-12-11T16:15:27.515Z</time>
      </trkpt>
      <trkpt lat="48.23282" lon="-3.37254">
        <ele>230.343728</ele>
        <time>2022-12-11T16:15:30.518Z</time>
      </trkpt>
      <trkpt lat="48.23272" lon="-3.37247">
        <ele>230.23646</ele>
        <time>2022-12-11T16:15:33.496Z</time>
      </trkpt>
      <trkpt lat="48.23262" lon="-3.37241">
        <ele>230.113013</ele>
        <time>2022-12-11T16:15:36.488Z</time>
      </trkpt>
      <trkpt lat="48.2325" lon="-3.37237">
        <ele>229.984663</ele>
        <time>2022-12-11T16:15:39.494Z</time>
      </trkpt>
      <trkpt lat="48.2324" lon="-3.37234">
        <ele>229.873785</ele>
        <time>2022-12-11T16:15:42.499Z</time>
      </trkpt>
      <trkpt lat="48.2323" lon="-3.37231">
        <ele>229.767011</ele>
        <time>2022-12-11T16:15:45.488Z</time>
      </trkpt>
      <trkpt lat="48.23221" lon="-3.37228">
        <ele>229.660089</ele>
        <time>2022-12-11T16:15:48.488Z</time>
      </trkpt>
      <trkpt lat="48.23211" lon="-3.37223">
        <ele>229.548875</ele>
        <time>2022-12-11T16:15:51.486Z</time>
      </trkpt>
      <trkpt lat="48.23202" lon="-3.37218">
        <ele>229.445504</ele>
        <time>2022-12-11T16:15:54.494Z</time>
      </trkpt>
      <trkpt lat="48.23192" lon="-3.37209">
        <ele>229.314398</ele>
        <time>2022-12-11T16:15:58.489Z</time>
      </trkpt>
      <trkpt lat="48.23183" lon="-3.37201">
        <ele>229.203235</ele>
        <time>2022-12-11T16:16:01.485Z</time>
      </trkpt>
      <trkpt lat="48.23175" lon="-3.37193">
        <ele>229.094918</ele>
        <time>2022-12-11T16:16:04.496Z</time>
      </trkpt>
      <trkpt lat="48.23167" lon="-3.37184">
        <ele>228.986221</ele>
        <time>2022-12-11T16:16:07.497Z</time>
      </trkpt>
      <trkpt lat="48.23159" lon="-3.37174">
        <ele>228.879407</ele>
        <time>2022-12-11T16:16:10.501Z</time>
      </trkpt>
      <trkpt lat="48.23153" lon="-3.37164">
        <ele>228.775433</ele>
        <time>2022-12-11T16:16:13.502Z</time>
      </trkpt>
      <trkpt lat="48.23147" lon="-3.37151">
        <ele>228.66452</ele>
        <time>2022-12-11T16:16:16.494Z</time>
      </trkpt>
      <trkpt lat="48.23142" lon="-3.37137">
        <ele>228.54819</ele>
        <time>2022-12-11T16:16:19.504Z</time>
      </trkpt>
      <trkpt lat="48.23137" lon="-3.37122">
        <ele>228.422385</ele>
        <time>2022-12-11T16:16:22.481Z</time>
      </trkpt>
      <trkpt lat="48.23132" lon="-3.37108">
        <ele>228.324941</ele>
        <time>2022-12-11T16:16:25.511Z</time>
      </trkpt>
      <trkpt lat="48.2313" lon="-3.37094">
        <ele>228.245911</ele>
        <time>2022-12-11T16:16:28.509Z</time>
      </trkpt>
      <trkpt lat="48.23129" lon="-3.3708">
        <ele>228.174735</ele>
        <time>2022-12-11T16:16:31.504Z</time>
      </trkpt>
      <trkpt lat="48.23124" lon="-3.37067">
        <ele>228.095461</ele>
        <time>2022-12-11T16:16:34.528Z</time>
      </trkpt>
      <trkpt lat="48.23119" lon="-3.37054">
        <ele>228.015867</ele>
        <time>2022-12-11T16:16:37.508Z</time>
      </trkpt>
      <trkpt lat="48.23112" lon="-3.37043">
        <ele>227.937382</ele>
        <time>2022-12-11T16:16:41.490Z</time>
      </trkpt>
      <trkpt lat="48.23106" lon="-3.37032">
        <ele>227.864587</ele>
        <time>2022-12-11T16:16:45.509Z</time>
      </trkpt>
      <trkpt lat="48.23099" lon="-3.37018">
        <ele>227.770408</ele>
        <time>2022-12-11T16:16:49.515Z</time>
      </trkpt>
      <trkpt lat="48.23097" lon="-3.37004">
        <ele>227.69615</ele>
        <time>2022-12-11T16:16:52.489Z</time>
      </trkpt>
      <trkpt lat="48.231" lon="-3.36988">
        <ele>227.610653</ele>
        <time>2022-12-11T16:16:55.507Z</time>
      </trkpt>
      <trkpt lat="48.23104" lon="-3.36975">
        <ele>227.531184</ele>
        <time>2022-12-11T16:16:58.482Z</time>
      </trkpt>
      <trkpt lat="48.23108" lon="-3.3696">
        <ele>227.447599</ele>
        <time>2022-12-11T16:17:01.526Z</time>
      </trkpt>
      <trkpt lat="48.23113" lon="-3.36943">
        <ele>227.353992</ele>
        <time>2022-12-11T16:17:04.517Z</time>
      </trkpt>
      <trkpt lat="48.23118" lon="-3.36927">
        <ele>227.258174</ele>
        <time>2022-12-11T16:17:07.508Z</time>
      </trkpt>
      <trkpt lat="48.23124" lon="-3.36912">
        <ele>227.168425</ele>
        <time>2022-12-11T16:17:09.487Z</time>
      </trkpt>
      <trkpt lat="48.23131" lon="-3.36899">
        <ele>227.081027</ele>
        <time>2022-12-11T16:17:11.495Z</time>
      </trkpt>
      <trkpt lat="48.23138" lon="-3.36886">
        <ele>226.993752</ele>
        <time>2022-12-11T16:17:13.511Z</time>
      </trkpt>
      <trkpt lat="48.23145" lon="-3.36876">
        <ele>226.887244</ele>
        <time>2022-12-11T16:17:15.504Z</time>
      </trkpt>
      <trkpt lat="48.23151" lon="-3.36865">
        <ele>226.613865</ele>
        <time>2022-12-11T16:17:17.511Z</time>
      </trkpt>
      <trkpt lat="48.23159" lon="-3.36851">
        <ele>226.277617</ele>
        <time>2022-12-11T16:17:20.508Z</time>
      </trkpt>
      <trkpt lat="48.23166" lon="-3.36842">
        <ele>226.027918</ele>
        <time>2022-12-11T16:17:22.489Z</time>
      </trkpt>
      <trkpt lat="48.23175" lon="-3.36829">
        <ele>225.673482</ele>
        <time>2022-12-11T16:17:25.511Z</time>
      </trkpt>
      <trkpt lat="48.23183" lon="-3.36816">
        <ele>225.348078</ele>
        <time>2022-12-11T16:17:28.517Z</time>
      </trkpt>
      <trkpt lat="48.2319" lon="-3.36804">
        <ele>225.060064</ele>
        <time>2022-12-11T16:17:31.499Z</time>
      </trkpt>
      <trkpt lat="48.23194" lon="-3.36789">
        <ele>224.760556</ele>
        <time>2022-12-11T16:17:34.506Z</time>
      </trkpt>
      <trkpt lat="48.23194" lon="-3.36772">
        <ele>224.446631</ele>
        <time>2022-12-11T16:17:37.503Z</time>
      </trkpt>
      <trkpt lat="48.23189" lon="-3.36754">
        <ele>224.083777</ele>
        <time>2022-12-11T16:17:40.486Z</time>
      </trkpt>
      <trkpt lat="48.23185" lon="-3.36736">
        <ele>223.749302</ele>
        <time>2022-12-11T16:17:43.493Z</time>
      </trkpt>
      <trkpt lat="48.23182" lon="-3.36721">
        <ele>223.441526</ele>
        <time>2022-12-11T16:17:46.498Z</time>
      </trkpt>
      <trkpt lat="48.2318" lon="-3.36703">
        <ele>223.11427</ele>
        <time>2022-12-11T16:17:49.493Z</time>
      </trkpt>
      <trkpt lat="48.23178" lon="-3.36686">
        <ele>222.787903</ele>
        <time>2022-12-11T16:17:52.510Z</time>
      </trkpt>
      <trkpt lat="48.23175" lon="-3.36668">
        <ele>222.455025</ele>
        <time>2022-12-11T16:17:55.511Z</time>
      </trkpt>
      <trkpt lat="48.23174" lon="-3.36655">
        <ele>222.204585</ele>
        <time>2022-12-11T16:17:57.496Z</time>
      </trkpt>
      <trkpt lat="48.23171" lon="-3.36641">
        <ele>221.979586</ele>
        <time>2022-12-11T16:17:59.502Z</time>
      </trkpt>
      <trkpt lat="48.23171" lon="-3.36625">
        <ele>222.400758</ele>
        <time>2022-12-11T16:18:01.508Z</time>
      </trkpt>
      <trkpt lat="48.2317" lon="-3.36606">
        <ele>222.911273</ele>
        <time>2022-12-11T16:18:04.501Z</time>
      </trkpt>
      <trkpt lat="48.23165" lon="-3.36589">
        <ele>223.411022</ele>
        <time>2022-12-11T16:18:07.498Z</time>
      </trkpt>
      <trkpt lat="48.23163" lon="-3.36573">
        <ele>223.851917</ele>
        <time>2022-12-11T16:18:09.506Z</time>
      </trkpt>
      <trkpt lat="48.2316" lon="-3.36553">
        <ele>224.408957</ele>
        <time>2022-12-11T16:18:12.518Z</time>
      </trkpt>
      <trkpt lat="48.23157" lon="-3.36533">
        <ele>224.94993</ele>
        <time>2022-12-11T16:18:15.516Z</time>
      </trkpt>
      <trkpt lat="48.23152" lon="-3.36515">
        <ele>225.471074</ele>
        <time>2022-12-11T16:18:18.505Z</time>
      </trkpt>
      <trkpt lat="48.23151" lon="-3.36497">
        <ele>225.964953</ele>
        <time>2022-12-11T16:18:20.512Z</time>
      </trkpt>
      <trkpt lat="48.23149" lon="-3.36482">
        <ele>226.367597</ele>
        <time>2022-12-11T16:18:22.527Z</time>
      </trkpt>
      <trkpt lat="48.23149" lon="-3.36469">
        <ele>226.73732</ele>
        <time>2022-12-11T16:18:24.489Z</time>
      </trkpt>
      <trkpt lat="48.23147" lon="-3.36455">
        <ele>227.127233</ele>
        <time>2022-12-11T16:18:26.508Z</time>
      </trkpt>
      <trkpt lat="48.23141" lon="-3.36443">
        <ele>227.527347</ele>
        <time>2022-12-11T16:18:28.494Z</time>
      </trkpt>
      <trkpt lat="48.23136" lon="-3.36429">
        <ele>227.943796</ele>
        <time>2022-12-11T16:18:30.503Z</time>
      </trkpt>
      <trkpt lat="48.23129" lon="-3.36411">
        <ele>228.503193</ele>
        <time>2022-12-11T16:18:33.501Z</time>
      </trkpt>
      <trkpt lat="48.23124" lon="-3.36396">
        <ele>228.955855</ele>
        <time>2022-12-11T16:18:36.499Z</time>
      </trkpt>
      <trkpt lat="48.23118" lon="-3.36385">
        <ele>229.118223</ele>
        <time>2022-12-11T16:18:38.530Z</time>
      </trkpt>
      <trkpt lat="48.23111" lon="-3.36375">
        <ele>228.681156</ele>
        <time>2022-12-11T16:18:40.513Z</time>
      </trkpt>
      <trkpt lat="48.23105" lon="-3.36366">
        <ele>228.263252</ele>
        <time>2022-12-11T16:18:42.508Z</time>
      </trkpt>
      <trkpt lat="48.23098" lon="-3.36356">
        <ele>227.837987</ele>
        <time>2022-12-11T16:18:44.513Z</time>
      </trkpt>
      <trkpt lat="48.2309" lon="-3.36341">
        <ele>227.233591</ele>
        <time>2022-12-11T16:18:47.495Z</time>
      </trkpt>
      <trkpt lat="48.2308" lon="-3.36331">
        <ele>226.686255</ele>
        <time>2022-12-11T16:18:49.504Z</time>
      </trkpt>
      <trkpt lat="48.23072" lon="-3.36322">
        <ele>226.193684</ele>
        <time>2022-12-11T16:18:51.513Z</time>
      </trkpt>
      <trkpt lat="48.23064" lon="-3.36308">
        <ele>225.622557</ele>
        <time>2022-12-11T16:18:54.507Z</time>
      </trkpt>
      <trkpt lat="48.23054" lon="-3.36295">
        <ele>225.021604</ele>
        <time>2022-12-11T16:18:57.517Z</time>
      </trkpt>
      <trkpt lat="48.23044" lon="-3.36282">
        <ele>224.421846</ele>
        <time>2022-12-11T16:19:00.500Z</time>
      </trkpt>
      <trkpt lat="48.23035" lon="-3.3627">
        <ele>223.858841</ele>
        <time>2022-12-11T16:19:03.504Z</time>
      </trkpt>
      <trkpt lat="48.23028" lon="-3.36262">
        <ele>223.431183</ele>
        <time>2022-12-11T16:19:05.517Z</time>
      </trkpt>
      <trkpt lat="48.2302" lon="-3.36248">
        <ele>222.864243</ele>
        <time>2022-12-11T16:19:08.508Z</time>
      </trkpt>
      <trkpt lat="48.23012" lon="-3.36235">
        <ele>222.30538</ele>
        <time>2022-12-11T16:19:11.497Z</time>
      </trkpt>
      <trkpt lat="48.23002" lon="-3.36224">
        <ele>221.757041</ele>
        <time>2022-12-11T16:19:14.488Z</time>
      </trkpt>
      <trkpt lat="48.22996" lon="-3.36214">
        <ele>221.326522</ele>
        <time>2022-12-11T16:19:16.492Z</time>
      </trkpt>
      <trkpt lat="48.22989" lon="-3.36204">
        <ele>220.876991</ele>
        <time>2022-12-11T16:19:18.516Z</time>
      </trkpt>
      <trkpt lat="48.22982" lon="-3.36193">
        <ele>220.727859</ele>
        <time>2022-12-11T16:19:20.504Z</time>
      </trkpt>
      <trkpt lat="48.22975" lon="-3.36181">
        <ele>220.562412</ele>
        <time>2022-12-11T16:19:22.516Z</time>
      </trkpt>
      <trkpt lat="48.22966" lon="-3.36171">
        <ele>220.392201</ele>
        <time>2022-12-11T16:19:24.517Z</time>
      </trkpt>
      <trkpt lat="48.22957" lon="-3.36162">
        <ele>220.23148</ele>
        <time>2022-12-11T16:19:26.494Z</time>
      </trkpt>
      <trkpt lat="48.22951" lon="-3.36151">
        <ele>220.094331</ele>
        <time>2022-12-11T16:19:28.506Z</time>
      </trkpt>
      <trkpt lat="48.22943" lon="-3.36136">
        <ele>219.899814</ele>
        <time>2022-12-11T16:19:31.496Z</time>
      </trkpt>
      <trkpt lat="48.22934" lon="-3.36122">
        <ele>219.704191</ele>
        <time>2022-12-11T16:19:34.513Z</time>
      </trkpt>
      <trkpt lat="48.22927" lon="-3.36113">
        <ele>219.561697</ele>
        <time>2022-12-11T16:19:36.492Z</time>
      </trkpt>
      <trkpt lat="48.22918" lon="-3.36099">
        <ele>219.363891</ele>
        <time>2022-12-11T16:19:39.501Z</time>
      </trkpt>
      <trkpt lat="48.22909" lon="-3.36084">
        <ele>219.164619</ele>
        <time>2022-12-11T16:19:42.486Z</time>
      </trkpt>
      <trkpt lat="48.22899" lon="-3.3607">
        <ele>218.957802</ele>
        <time>2022-12-11T16:19:45.502Z</time>
      </trkpt>
      <trkpt lat="48.22892" lon="-3.3606">
        <ele>218.819813</ele>
        <time>2022-12-11T16:19:47.493Z</time>
      </trkpt>
      <trkpt lat="48.22883" lon="-3.36046">
        <ele>218.617009</ele>
        <time>2022-12-11T16:19:50.517Z</time>
      </trkpt>
      <trkpt lat="48.22876" lon="-3.36037">
        <ele>218.478548</ele>
        <time>2022-12-11T16:19:52.496Z</time>
      </trkpt>
      <trkpt lat="48.22866" lon="-3.36023">
        <ele>218.279578</ele>
        <time>2022-12-11T16:19:55.513Z</time>
      </trkpt>
      <trkpt lat="48.22857" lon="-3.3601">
        <ele>218.308274</ele>
        <time>2022-12-11T16:19:58.512Z</time>
      </trkpt>
      <trkpt lat="48.22847" lon="-3.35997">
        <ele>218.626772</ele>
        <time>2022-12-11T16:20:01.513Z</time>
      </trkpt>
      <trkpt lat="48.22837" lon="-3.35986">
        <ele>218.923706</ele>
        <time>2022-12-11T16:20:04.495Z</time>
      </trkpt>
      <trkpt lat="48.22827" lon="-3.3598">
        <ele>219.179938</ele>
        <time>2022-12-11T16:20:07.496Z</time>
      </trkpt>
      <trkpt lat="48.22817" lon="-3.35975">
        <ele>219.443252</ele>
        <time>2022-12-11T16:20:10.490Z</time>
      </trkpt>
      <trkpt lat="48.22806" lon="-3.35975">
        <ele>219.692985</ele>
        <time>2022-12-11T16:20:13.516Z</time>
      </trkpt>
      <trkpt lat="48.22796" lon="-3.35978">
        <ele>219.951031</ele>
        <time>2022-12-11T16:20:16.494Z</time>
      </trkpt>
      <trkpt lat="48.22786" lon="-3.35984">
        <ele>220.211675</ele>
        <time>2022-12-11T16:20:19.512Z</time>
      </trkpt>
      <trkpt lat="48.22776" lon="-3.3599">
        <ele>220.477271</ele>
        <time>2022-12-11T16:20:22.508Z</time>
      </trkpt>
      <trkpt lat="48.22765" lon="-3.35994">
        <ele>220.743373</ele>
        <time>2022-12-11T16:20:25.493Z</time>
      </trkpt>
      <trkpt lat="48.22756" lon="-3.35998">
        <ele>220.977415</ele>
        <time>2022-12-11T16:20:28.512Z</time>
      </trkpt>
      <trkpt lat="48.22744" lon="-3.36004">
        <ele>221.27306</ele>
        <time>2022-12-11T16:20:32.510Z</time>
      </trkpt>
      <trkpt lat="48.22735" lon="-3.36009">
        <ele>221.505163</ele>
        <time>2022-12-11T16:20:35.503Z</time>
      </trkpt>
      <trkpt lat="48.22725" lon="-3.36014">
        <ele>221.758917</ele>
        <time>2022-12-11T16:20:38.499Z</time>
      </trkpt>
      <trkpt lat="48.22714" lon="-3.36019">
        <ele>222.052884</ele>
        <time>2022-12-11T16:20:41.499Z</time>
      </trkpt>
      <trkpt lat="48.22702" lon="-3.36027">
        <ele>222.367403</ele>
        <time>2022-12-11T16:20:44.510Z</time>
      </trkpt>
      <trkpt lat="48.22693" lon="-3.36032">
        <ele>222.467321</ele>
        <time>2022-12-11T16:20:46.505Z</time>
      </trkpt>
      <trkpt lat="48.22684" lon="-3.36038">
        <ele>222.252103</ele>
        <time>2022-12-11T16:20:48.512Z</time>
      </trkpt>
      <trkpt lat="48.22671" lon="-3.36041">
        <ele>221.963437</ele>
        <time>2022-12-11T16:20:51.495Z</time>
      </trkpt>
      <trkpt lat="48.22663" lon="-3.36049">
        <ele>221.743575</ele>
        <time>2022-12-11T16:20:53.507Z</time>
      </trkpt>
      <trkpt lat="48.2265" lon="-3.36053">
        <ele>221.463953</ele>
        <time>2022-12-11T16:20:56.481Z</time>
      </trkpt>
      <trkpt lat="48.22642" lon="-3.36058">
        <ele>221.264073</ele>
        <time>2022-12-11T16:20:58.511Z</time>
      </trkpt>
      <trkpt lat="48.22631" lon="-3.3606">
        <ele>221.013077</ele>
        <time>2022-12-11T16:21:01.504Z</time>
      </trkpt>
      <trkpt lat="48.22619" lon="-3.36067">
        <ele>220.747171</ele>
        <time>2022-12-11T16:21:04.498Z</time>
      </trkpt>
      <trkpt lat="48.22606" lon="-3.36074">
        <ele>220.438341</ele>
        <time>2022-12-11T16:21:07.493Z</time>
      </trkpt>
      <trkpt lat="48.22598" lon="-3.3608">
        <ele>220.231224</ele>
        <time>2022-12-11T16:21:09.495Z</time>
      </trkpt>
      <trkpt lat="48.22589" lon="-3.36088">
        <ele>220.01549</ele>
        <time>2022-12-11T16:21:11.500Z</time>
      </trkpt>
      <trkpt lat="48.22581" lon="-3.36091">
        <ele>219.816095</ele>
        <time>2022-12-11T16:21:13.485Z</time>
      </trkpt>
      <trkpt lat="48.22568" lon="-3.36095">
        <ele>219.530716</ele>
        <time>2022-12-11T16:21:16.492Z</time>
      </trkpt>
      <trkpt lat="48.22557" lon="-3.36098">
        <ele>219.274608</ele>
        <time>2022-12-11T16:21:19.492Z</time>
      </trkpt>
      <trkpt lat="48.22544" lon="-3.36099">
        <ele>218.987654</ele>
        <time>2022-12-11T16:21:22.497Z</time>
      </trkpt>
      <trkpt lat="48.22534" lon="-3.36103">
        <ele>218.760708</ele>
        <time>2022-12-11T16:21:24.489Z</time>
      </trkpt>
      <trkpt lat="48.22521" lon="-3.36099">
        <ele>218.516138</ele>
        <time>2022-12-11T16:21:27.511Z</time>
      </trkpt>
      <trkpt lat="48.22508" lon="-3.36095">
        <ele>218.361174</ele>
        <time>2022-12-11T16:21:30.493Z</time>
      </trkpt>
      <trkpt lat="48.225" lon="-3.36088">
        <ele>218.254883</ele>
        <time>2022-12-11T16:21:32.516Z</time>
      </trkpt>
      <trkpt lat="48.22491" lon="-3.36084">
        <ele>218.145828</ele>
        <time>2022-12-11T16:21:34.512Z</time>
      </trkpt>
      <trkpt lat="48.22481" lon="-3.36074">
        <ele>217.999442</ele>
        <time>2022-12-11T16:21:37.491Z</time>
      </trkpt>
      <trkpt lat="48.22471" lon="-3.36062">
        <ele>217.845791</ele>
        <time>2022-12-11T16:21:40.512Z</time>
      </trkpt>
      <trkpt lat="48.22464" lon="-3.36051">
        <ele>217.733361</ele>
        <time>2022-12-11T16:21:42.503Z</time>
      </trkpt>
      <trkpt lat="48.22459" lon="-3.36039">
        <ele>217.618403</ele>
        <time>2022-12-11T16:21:45.503Z</time>
      </trkpt>
      <trkpt lat="48.22452" lon="-3.36026">
        <ele>217.486005</ele>
        <time>2022-12-11T16:21:48.503Z</time>
      </trkpt>
      <trkpt lat="48.22445" lon="-3.36012">
        <ele>217.355382</ele>
        <time>2022-12-11T16:21:51.494Z</time>
      </trkpt>
      <trkpt lat="48.22441" lon="-3.35999">
        <ele>217.238849</ele>
        <time>2022-12-11T16:21:54.517Z</time>
      </trkpt>
      <trkpt lat="48.22437" lon="-3.35984">
        <ele>217.113307</ele>
        <time>2022-12-11T16:21:57.510Z</time>
      </trkpt>
      <trkpt lat="48.22434" lon="-3.35964">
        <ele>216.954193</ele>
        <time>2022-12-11T16:22:00.494Z</time>
      </trkpt>
      <trkpt lat="48.22429" lon="-3.35947">
        <ele>216.81259</ele>
        <time>2022-12-11T16:22:03.515Z</time>
      </trkpt>
      <trkpt lat="48.22426" lon="-3.35934">
        <ele>216.70486</ele>
        <time>2022-12-11T16:22:05.545Z</time>
      </trkpt>
      <trkpt lat="48.22422" lon="-3.35916">
        <ele>216.558616</ele>
        <time>2022-12-11T16:22:08.516Z</time>
      </trkpt>
      <trkpt lat="48.22419" lon="-3.35899">
        <ele>216.474983</ele>
        <time>2022-12-11T16:22:11.496Z</time>
      </trkpt>
      <trkpt lat="48.22415" lon="-3.35883">
        <ele>216.563698</ele>
        <time>2022-12-11T16:22:14.513Z</time>
      </trkpt>
      <trkpt lat="48.2241" lon="-3.35866">
        <ele>216.658545</ele>
        <time>2022-12-11T16:22:17.490Z</time>
      </trkpt>
      <trkpt lat="48.22407" lon="-3.35848">
        <ele>216.751728</ele>
        <time>2022-12-11T16:22:20.510Z</time>
      </trkpt>
      <trkpt lat="48.22402" lon="-3.3583">
        <ele>216.846216</ele>
        <time>2022-12-11T16:22:23.509Z</time>
      </trkpt>
      <trkpt lat="48.22398" lon="-3.35812">
        <ele>216.944293</ele>
        <time>2022-12-11T16:22:26.503Z</time>
      </trkpt>
      <trkpt lat="48.22392" lon="-3.35794">
        <ele>217.044829</ele>
        <time>2022-12-11T16:22:29.505Z</time>
      </trkpt>
      <trkpt lat="48.22386" lon="-3.35781">
        <ele>217.12435</ele>
        <time>2022-12-11T16:22:32.512Z</time>
      </trkpt>
      <trkpt lat="48.22379" lon="-3.35769">
        <ele>217.205971</ele>
        <time>2022-12-11T16:22:35.512Z</time>
      </trkpt>
      <trkpt lat="48.22372" lon="-3.35757">
        <ele>217.288988</ele>
        <time>2022-12-11T16:22:38.519Z</time>
      </trkpt>
      <trkpt lat="48.22364" lon="-3.35746">
        <ele>217.369284</ele>
        <time>2022-12-11T16:22:41.489Z</time>
      </trkpt>
      <trkpt lat="48.22356" lon="-3.35737">
        <ele>217.44665</ele>
        <time>2022-12-11T16:22:44.495Z</time>
      </trkpt>
      <trkpt lat="48.22348" lon="-3.35726">
        <ele>217.525913</ele>
        <time>2022-12-11T16:22:47.526Z</time>
      </trkpt>
      <trkpt lat="48.22339" lon="-3.35715">
        <ele>217.61183</ele>
        <time>2022-12-11T16:22:50.522Z</time>
      </trkpt>
      <trkpt lat="48.22331" lon="-3.35706">
        <ele>217.6929</ele>
        <time>2022-12-11T16:22:53.507Z</time>
      </trkpt>
      <trkpt lat="48.22321" lon="-3.35698">
        <ele>217.77759</ele>
        <time>2022-12-11T16:22:56.491Z</time>
      </trkpt>
      <trkpt lat="48.22312" lon="-3.35687">
        <ele>217.801502</ele>
        <time>2022-12-11T16:23:00.503Z</time>
      </trkpt>
      <trkpt lat="48.22305" lon="-3.35673">
        <ele>217.769388</ele>
        <time>2022-12-11T16:23:04.498Z</time>
      </trkpt>
      <trkpt lat="48.22298" lon="-3.35659">
        <ele>217.737593</ele>
        <time>2022-12-11T16:23:07.485Z</time>
      </trkpt>
      <trkpt lat="48.22288" lon="-3.3565">
        <ele>217.705901</ele>
        <time>2022-12-11T16:23:10.486Z</time>
      </trkpt>
      <trkpt lat="48.22279" lon="-3.35636">
        <ele>217.66968</ele>
        <time>2022-12-11T16:23:13.518Z</time>
      </trkpt>
      <trkpt lat="48.2227" lon="-3.35625">
        <ele>217.636523</ele>
        <time>2022-12-11T16:23:16.498Z</time>
      </trkpt>
      <trkpt lat="48.22263" lon="-3.35616">
        <ele>217.611638</ele>
        <time>2022-12-11T16:23:18.512Z</time>
      </trkpt>
      <trkpt lat="48.22253" lon="-3.35604">
        <ele>217.576402</ele>
        <time>2022-12-11T16:23:21.511Z</time>
      </trkpt>
      <trkpt lat="48.22247" lon="-3.35588">
        <ele>217.542864</ele>
        <time>2022-12-11T16:23:24.503Z</time>
      </trkpt>
      <trkpt lat="48.22242" lon="-3.35571">
        <ele>217.509662</ele>
        <time>2022-12-11T16:23:27.514Z</time>
      </trkpt>
      <trkpt lat="48.22237" lon="-3.3556">
        <ele>217.484702</ele>
        <time>2022-12-11T16:23:29.482Z</time>
      </trkpt>
      <trkpt lat="48.22231" lon="-3.35543">
        <ele>217.450586</ele>
        <time>2022-12-11T16:23:32.495Z</time>
      </trkpt>
      <trkpt lat="48.22228" lon="-3.35526">
        <ele>217.416998</ele>
        <time>2022-12-11T16:23:35.497Z</time>
      </trkpt>
      <trkpt lat="48.22223" lon="-3.35508">
        <ele>217.382353</ele>
        <time>2022-12-11T16:23:38.518Z</time>
      </trkpt>
      <trkpt lat="48.22219" lon="-3.35492">
        <ele>217.351044</ele>
        <time>2022-12-11T16:23:41.517Z</time>
      </trkpt>
      <trkpt lat="48.22215" lon="-3.35474">
        <ele>217.332772</ele>
        <time>2022-12-11T16:23:44.502Z</time>
      </trkpt>
      <trkpt lat="48.22215" lon="-3.35457">
        <ele>217.368178</ele>
        <time>2022-12-11T16:23:47.489Z</time>
      </trkpt>
      <trkpt lat="48.22211" lon="-3.35439">
        <ele>217.408312</ele>
        <time>2022-12-11T16:23:50.498Z</time>
      </trkpt>
      <trkpt lat="48.22206" lon="-3.35421">
        <ele>217.447195</ele>
        <time>2022-12-11T16:23:53.519Z</time>
      </trkpt>
      <trkpt lat="48.22203" lon="-3.35408">
        <ele>217.47622</ele>
        <time>2022-12-11T16:23:56.491Z</time>
      </trkpt>
      <trkpt lat="48.22201" lon="-3.35392">
        <ele>217.509285</ele>
        <time>2022-12-11T16:23:59.509Z</time>
      </trkpt>
      <trkpt lat="48.22199" lon="-3.35373">
        <ele>217.548882</ele>
        <time>2022-12-11T16:24:03.503Z</time>
      </trkpt>
      <trkpt lat="48.22196" lon="-3.35355">
        <ele>217.588538</ele>
        <time>2022-12-11T16:24:06.490Z</time>
      </trkpt>
      <trkpt lat="48.22197" lon="-3.35336">
        <ele>217.627301</ele>
        <time>2022-12-11T16:24:09.503Z</time>
      </trkpt>
      <trkpt lat="48.222" lon="-3.35316">
        <ele>217.668673</ele>
        <time>2022-12-11T16:24:12.493Z</time>
      </trkpt>
      <trkpt lat="48.22206" lon="-3.35301">
        <ele>217.70607</ele>
        <time>2022-12-11T16:24:15.521Z</time>
      </trkpt>
      <trkpt lat="48.22213" lon="-3.35286">
        <ele>217.74275</ele>
        <time>2022-12-11T16:24:18.490Z</time>
      </trkpt>
      <trkpt lat="48.22222" lon="-3.35273">
        <ele>217.783227</ele>
        <time>2022-12-11T16:24:21.529Z</time>
      </trkpt>
      <trkpt lat="48.2223" lon="-3.35261">
        <ele>217.818271</ele>
        <time>2022-12-11T16:24:24.513Z</time>
      </trkpt>
      <trkpt lat="48.22238" lon="-3.35251">
        <ele>217.851051</ele>
        <time>2022-12-11T16:24:27.499Z</time>
      </trkpt>
      <trkpt lat="48.22249" lon="-3.35244">
        <ele>217.851972</ele>
        <time>2022-12-11T16:24:30.499Z</time>
      </trkpt>
      <trkpt lat="48.2226" lon="-3.35238">
        <ele>217.524694</ele>
        <time>2022-12-11T16:24:33.505Z</time>
      </trkpt>
      <trkpt lat="48.22271" lon="-3.3523">
        <ele>217.203982</ele>
        <time>2022-12-11T16:24:36.497Z</time>
      </trkpt>
      <trkpt lat="48.22281" lon="-3.35224">
        <ele>216.900088</ele>
        <time>2022-12-11T16:24:39.510Z</time>
      </trkpt>
      <trkpt lat="48.22292" lon="-3.35219">
        <ele>216.603786</ele>
        <time>2022-12-11T16:24:42.513Z</time>
      </trkpt>
      <trkpt lat="48.22304" lon="-3.35214">
        <ele>216.271204</ele>
        <time>2022-12-11T16:24:45.489Z</time>
      </trkpt>
      <trkpt lat="48.22313" lon="-3.35207">
        <ele>215.986249</ele>
        <time>2022-12-11T16:24:48.502Z</time>
      </trkpt>
      <trkpt lat="48.22321" lon="-3.35196">
        <ele>215.693267</ele>
        <time>2022-12-11T16:24:51.500Z</time>
      </trkpt>
      <trkpt lat="48.2233" lon="-3.35187">
        <ele>215.399639</ele>
        <time>2022-12-11T16:24:54.504Z</time>
      </trkpt>
      <trkpt lat="48.22338" lon="-3.35174">
        <ele>215.088184</ele>
        <time>2022-12-11T16:24:57.504Z</time>
      </trkpt>
      <trkpt lat="48.22344" lon="-3.35159">
        <ele>214.766277</ele>
        <time>2022-12-11T16:25:00.516Z</time>
      </trkpt>
      <trkpt lat="48.2235" lon="-3.35143">
        <ele>214.444103</ele>
        <time>2022-12-11T16:25:03.509Z</time>
      </trkpt>
      <trkpt lat="48.22355" lon="-3.35129">
        <ele>214.156875</ele>
        <time>2022-12-11T16:25:06.504Z</time>
      </trkpt>
      <trkpt lat="48.22361" lon="-3.35114">
        <ele>213.835628</ele>
        <time>2022-12-11T16:25:09.491Z</time>
      </trkpt>
      <trkpt lat="48.22366" lon="-3.35101">
        <ele>213.562791</ele>
        <time>2022-12-11T16:25:12.489Z</time>
      </trkpt>
      <trkpt lat="48.22373" lon="-3.35085">
        <ele>213.227519</ele>
        <time>2022-12-11T16:25:15.494Z</time>
      </trkpt>
      <trkpt lat="48.22378" lon="-3.35074">
        <ele>213.037607</ele>
        <time>2022-12-11T16:25:17.520Z</time>
      </trkpt>
      <trkpt lat="48.22383" lon="-3.35062">
        <ele>213.092915</ele>
        <time>2022-12-11T16:25:19.486Z</time>
      </trkpt>
      <trkpt lat="48.22388" lon="-3.35051">
        <ele>213.146962</ele>
        <time>2022-12-11T16:25:21.490Z</time>
      </trkpt>
      <trkpt lat="48.22394" lon="-3.35037">
        <ele>213.213852</ele>
        <time>2022-12-11T16:25:24.493Z</time>
      </trkpt>
      <trkpt lat="48.224" lon="-3.35023">
        <ele>213.278219</ele>
        <time>2022-12-11T16:25:27.489Z</time>
      </trkpt>
      <trkpt lat="48.22407" lon="-3.35007">
        <ele>213.352729</ele>
        <time>2022-12-11T16:25:30.490Z</time>
      </trkpt>
      <trkpt lat="48.22413" lon="-3.34991">
        <ele>213.427587</ele>
        <time>2022-12-11T16:25:33.489Z</time>
      </trkpt>
      <trkpt lat="48.2242" lon="-3.34977">
        <ele>213.498119</ele>
        <time>2022-12-11T16:25:36.502Z</time>
      </trkpt>
      <trkpt lat="48.22425" lon="-3.34963">
        <ele>213.560856</ele>
        <time>2022-12-11T16:25:39.511Z</time>
      </trkpt>
      <trkpt lat="48.2243" lon="-3.34948">
        <ele>213.626729</ele>
        <time>2022-12-11T16:25:42.518Z</time>
      </trkpt>
      <trkpt lat="48.22435" lon="-3.34933">
        <ele>213.694716</ele>
        <time>2022-12-11T16:25:45.514Z</time>
      </trkpt>
      <trkpt lat="48.2244" lon="-3.34917">
        <ele>213.765869</ele>
        <time>2022-12-11T16:25:48.497Z</time>
      </trkpt>
      <trkpt lat="48.22444" lon="-3.349">
        <ele>213.83533</ele>
        <time>2022-12-11T16:25:51.490Z</time>
      </trkpt>
      <trkpt lat="48.22446" lon="-3.34886">
        <ele>213.89295</ele>
        <time>2022-12-11T16:25:54.491Z</time>
      </trkpt>
      <trkpt lat="48.22447" lon="-3.34871">
        <ele>213.953458</ele>
        <time>2022-12-11T16:25:57.488Z</time>
      </trkpt>
      <trkpt lat="48.22446" lon="-3.34855">
        <ele>214.018192</ele>
        <time>2022-12-11T16:26:00.489Z</time>
      </trkpt>
      <trkpt lat="48.22444" lon="-3.34839">
        <ele>214.084494</ele>
        <time>2022-12-11T16:26:03.499Z</time>
      </trkpt>
      <trkpt lat="48.22441" lon="-3.34821">
        <ele>213.930372</ele>
        <time>2022-12-11T16:26:06.532Z</time>
      </trkpt>
      <trkpt lat="48.22438" lon="-3.34806">
        <ele>213.719934</ele>
        <time>2022-12-11T16:26:09.489Z</time>
      </trkpt>
      <trkpt lat="48.22435" lon="-3.3479">
        <ele>213.508122</ele>
        <time>2022-12-11T16:26:12.491Z</time>
      </trkpt>
      <trkpt lat="48.22431" lon="-3.34775">
        <ele>213.291876</ele>
        <time>2022-12-11T16:26:15.505Z</time>
      </trkpt>
      <trkpt lat="48.22428" lon="-3.34757">
        <ele>213.053245</ele>
        <time>2022-12-11T16:26:18.486Z</time>
      </trkpt>
      <trkpt lat="48.22425" lon="-3.34741">
        <ele>212.839612</ele>
        <time>2022-12-11T16:26:21.491Z</time>
      </trkpt>
      <trkpt lat="48.22421" lon="-3.34726">
        <ele>212.630289</ele>
        <time>2022-12-11T16:26:24.503Z</time>
      </trkpt>
      <trkpt lat="48.22419" lon="-3.34712">
        <ele>212.446132</ele>
        <time>2022-12-11T16:26:27.493Z</time>
      </trkpt>
      <trkpt lat="48.22416" lon="-3.34697">
        <ele>212.249081</ele>
        <time>2022-12-11T16:26:30.506Z</time>
      </trkpt>
      <trkpt lat="48.22412" lon="-3.34681">
        <ele>212.022487</ele>
        <time>2022-12-11T16:26:34.500Z</time>
      </trkpt>
      <trkpt lat="48.22408" lon="-3.34661">
        <ele>211.75286</ele>
        <time>2022-12-11T16:26:37.497Z</time>
      </trkpt>
      <trkpt lat="48.22405" lon="-3.34648">
        <ele>211.57308</ele>
        <time>2022-12-11T16:26:39.515Z</time>
      </trkpt>
      <trkpt lat="48.22401" lon="-3.34633">
        <ele>211.359945</ele>
        <time>2022-12-11T16:26:41.494Z</time>
      </trkpt>
      <trkpt lat="48.22398" lon="-3.34618">
        <ele>211.160136</ele>
        <time>2022-12-11T16:26:43.494Z</time>
      </trkpt>
      <trkpt lat="48.22393" lon="-3.34607">
        <ele>210.980702</ele>
        <time>2022-12-11T16:26:45.498Z</time>
      </trkpt>
      <trkpt lat="48.22388" lon="-3.34594">
        <ele>210.795698</ele>
        <time>2022-12-11T16:26:47.502Z</time>
      </trkpt>
      <trkpt lat="48.22382" lon="-3.34584">
        <ele>210.618082</ele>
        <time>2022-12-11T16:26:49.503Z</time>
      </trkpt>
      <trkpt lat="48.22374" lon="-3.34571">
        <ele>210.446166</ele>
        <time>2022-12-11T16:26:52.500Z</time>
      </trkpt>
      <trkpt lat="48.22363" lon="-3.3456">
        <ele>210.262697</ele>
        <time>2022-12-11T16:26:55.496Z</time>
      </trkpt>
      <trkpt lat="48.22353" lon="-3.34553">
        <ele>210.100674</ele>
        <time>2022-12-11T16:26:58.502Z</time>
      </trkpt>
      <trkpt lat="48.22341" lon="-3.34547">
        <ele>209.932442</ele>
        <time>2022-12-11T16:27:01.487Z</time>
      </trkpt>
      <trkpt lat="48.22329" lon="-3.34539">
        <ele>209.75093</ele>
        <time>2022-12-11T16:27:04.489Z</time>
      </trkpt>
      <trkpt lat="48.22318" lon="-3.34533">
        <ele>209.572213</ele>
        <time>2022-12-11T16:27:07.506Z</time>
      </trkpt>
      <trkpt lat="48.22307" lon="-3.34525">
        <ele>209.403588</ele>
        <time>2022-12-11T16:27:10.498Z</time>
      </trkpt>
      <trkpt lat="48.22296" lon="-3.34517">
        <ele>209.231566</ele>
        <time>2022-12-11T16:27:13.515Z</time>
      </trkpt>
      <trkpt lat="48.22285" lon="-3.3451">
        <ele>209.066454</ele>
        <time>2022-12-11T16:27:16.493Z</time>
      </trkpt>
      <trkpt lat="48.22275" lon="-3.34504">
        <ele>208.921429</ele>
        <time>2022-12-11T16:27:19.489Z</time>
      </trkpt>
      <trkpt lat="48.22265" lon="-3.34499">
        <ele>208.773193</ele>
        <time>2022-12-11T16:27:22.502Z</time>
      </trkpt>
      <trkpt lat="48.22254" lon="-3.34493">
        <ele>208.607604</ele>
        <time>2022-12-11T16:27:25.526Z</time>
      </trkpt>
      <trkpt lat="48.22243" lon="-3.34486">
        <ele>208.438254</ele>
        <time>2022-12-11T16:27:28.503Z</time>
      </trkpt>
      <trkpt lat="48.22233" lon="-3.34478">
        <ele>208.277112</ele>
        <time>2022-12-11T16:27:31.495Z</time>
      </trkpt>
      <trkpt lat="48.22222" lon="-3.34471">
        <ele>208.109782</ele>
        <time>2022-12-11T16:27:34.515Z</time>
      </trkpt>
      <trkpt lat="48.2221" lon="-3.34464">
        <ele>208.264305</ele>
        <time>2022-12-11T16:27:37.520Z</time>
      </trkpt>
      <trkpt lat="48.22199" lon="-3.34457">
        <ele>208.500959</ele>
        <time>2022-12-11T16:27:40.516Z</time>
      </trkpt>
      <trkpt lat="48.22187" lon="-3.3445">
        <ele>208.739317</ele>
        <time>2022-12-11T16:27:43.490Z</time>
      </trkpt>
      <trkpt lat="48.22176" lon="-3.34445">
        <ele>208.959606</ele>
        <time>2022-12-11T16:27:46.494Z</time>
      </trkpt>
      <trkpt lat="48.22166" lon="-3.34439">
        <ele>209.167223</ele>
        <time>2022-12-11T16:27:49.515Z</time>
      </trkpt>
      <trkpt lat="48.22155" lon="-3.34431">
        <ele>209.399169</ele>
        <time>2022-12-11T16:27:52.493Z</time>
      </trkpt>
      <trkpt lat="48.22145" lon="-3.34423">
        <ele>209.61959</ele>
        <time>2022-12-11T16:27:55.498Z</time>
      </trkpt>
      <trkpt lat="48.22134" lon="-3.34418">
        <ele>209.834752</ele>
        <time>2022-12-11T16:27:58.521Z</time>
      </trkpt>
      <trkpt lat="48.22124" lon="-3.34413">
        <ele>210.040804</ele>
        <time>2022-12-11T16:28:01.536Z</time>
      </trkpt>
      <trkpt lat="48.22113" lon="-3.34407">
        <ele>210.251085</ele>
        <time>2022-12-11T16:28:04.491Z</time>
      </trkpt>
      <trkpt lat="48.22103" lon="-3.34401">
        <ele>210.462715</ele>
        <time>2022-12-11T16:28:07.510Z</time>
      </trkpt>
      <trkpt lat="48.22094" lon="-3.34394">
        <ele>210.653241</ele>
        <time>2022-12-11T16:28:10.518Z</time>
      </trkpt>
      <trkpt lat="48.22085" lon="-3.34388">
        <ele>210.840356</ele>
        <time>2022-12-11T16:28:13.522Z</time>
      </trkpt>
      <trkpt lat="48.22077" lon="-3.34379">
        <ele>211.031856</ele>
        <time>2022-12-11T16:28:16.495Z</time>
      </trkpt>
      <trkpt lat="48.22069" lon="-3.34369">
        <ele>211.225697</ele>
        <time>2022-12-11T16:28:19.510Z</time>
      </trkpt>
      <trkpt lat="48.22062" lon="-3.34359">
        <ele>211.421649</ele>
        <time>2022-12-11T16:28:22.511Z</time>
      </trkpt>
      <trkpt lat="48.22056" lon="-3.34348">
        <ele>211.599895</ele>
        <time>2022-12-11T16:28:25.492Z</time>
      </trkpt>
      <trkpt lat="48.2205" lon="-3.34335">
        <ele>211.787545</ele>
        <time>2022-12-11T16:28:28.489Z</time>
      </trkpt>
      <trkpt lat="48.22046" lon="-3.34321">
        <ele>211.975007</ele>
        <time>2022-12-11T16:28:31.507Z</time>
      </trkpt>
      <trkpt lat="48.22041" lon="-3.34309">
        <ele>212.146144</ele>
        <time>2022-12-11T16:28:34.505Z</time>
      </trkpt>
      <trkpt lat="48.22036" lon="-3.34294">
        <ele>212.34287</ele>
        <time>2022-12-11T16:28:37.516Z</time>
      </trkpt>
      <trkpt lat="48.22031" lon="-3.34281">
        <ele>212.531022</ele>
        <time>2022-12-11T16:28:40.516Z</time>
      </trkpt>
      <trkpt lat="48.22026" lon="-3.34266">
        <ele>212.735337</ele>
        <time>2022-12-11T16:28:43.518Z</time>
      </trkpt>
      <trkpt lat="48.22022" lon="-3.3425">
        <ele>212.939812</ele>
        <time>2022-12-11T16:28:46.508Z</time>
      </trkpt>
      <trkpt lat="48.22018" lon="-3.34236">
        <ele>213.123963</ele>
        <time>2022-12-11T16:28:50.500Z</time>
      </trkpt>
      <trkpt lat="48.22016" lon="-3.34234">
        <ele>213.178108</ele>
        <time>2022-12-11T16:29:28.759Z</time>
      </trkpt>
      <trkpt lat="48.22009" lon="-3.34215">
        <ele>213.437826</ele>
        <time>2022-12-11T16:35:33.492Z</time>
      </trkpt>
      <trkpt lat="48.22004" lon="-3.34202">
        <ele>213.625676</ele>
        <time>2022-12-11T16:35:37.493Z</time>
      </trkpt>
      <trkpt lat="48.21999" lon="-3.34187">
        <ele>213.821115</ele>
        <time>2022-12-11T16:35:41.496Z</time>
      </trkpt>
      <trkpt lat="48.21995" lon="-3.34173">
        <ele>214.010373</ele>
        <time>2022-12-11T16:35:46.496Z</time>
      </trkpt>
      <trkpt lat="48.2199" lon="-3.34161">
        <ele>214.189147</ele>
        <time>2022-12-11T16:35:50.501Z</time>
      </trkpt>
      <trkpt lat="48.21984" lon="-3.34145">
        <ele>214.406813</ele>
        <time>2022-12-11T16:35:54.498Z</time>
      </trkpt>
      <trkpt lat="48.2198" lon="-3.34131">
        <ele>214.588058</ele>
        <time>2022-12-11T16:35:57.515Z</time>
      </trkpt>
      <trkpt lat="48.21975" lon="-3.34118">
        <ele>214.77533</ele>
        <time>2022-12-11T16:36:00.499Z</time>
      </trkpt>
      <trkpt lat="48.2197" lon="-3.34103">
        <ele>214.767045</ele>
        <time>2022-12-11T16:36:03.497Z</time>
      </trkpt>
      <trkpt lat="48.21966" lon="-3.34089">
        <ele>214.740394</ele>
        <time>2022-12-11T16:36:06.491Z</time>
      </trkpt>
      <trkpt lat="48.21961" lon="-3.34075">
        <ele>214.712131</ele>
        <time>2022-12-11T16:36:09.514Z</time>
      </trkpt>
      <trkpt lat="48.21955" lon="-3.3406">
        <ele>214.681874</ele>
        <time>2022-12-11T16:36:12.518Z</time>
      </trkpt>
      <trkpt lat="48.2195" lon="-3.34046">
        <ele>214.654151</ele>
        <time>2022-12-11T16:36:15.503Z</time>
      </trkpt>
      <trkpt lat="48.21945" lon="-3.34031">
        <ele>214.626388</ele>
        <time>2022-12-11T16:36:18.502Z</time>
      </trkpt>
      <trkpt lat="48.21939" lon="-3.34016">
        <ele>214.596694</ele>
        <time>2022-12-11T16:36:21.512Z</time>
      </trkpt>
      <trkpt lat="48.21934" lon="-3.34003">
        <ele>214.570621</ele>
        <time>2022-12-11T16:36:24.524Z</time>
      </trkpt>
      <trkpt lat="48.21929" lon="-3.33987">
        <ele>214.540239</ele>
        <time>2022-12-11T16:36:28.490Z</time>
      </trkpt>
      <trkpt lat="48.21924" lon="-3.33972">
        <ele>214.511784</ele>
        <time>2022-12-11T16:36:31.498Z</time>
      </trkpt>
      <trkpt lat="48.2192" lon="-3.33961">
        <ele>214.488115</ele>
        <time>2022-12-11T16:36:34.505Z</time>
      </trkpt>
      <trkpt lat="48.21915" lon="-3.33946">
        <ele>214.460929</ele>
        <time>2022-12-11T16:36:37.498Z</time>
      </trkpt>
      <trkpt lat="48.21911" lon="-3.33931">
        <ele>214.432855</ele>
        <time>2022-12-11T16:36:40.500Z</time>
      </trkpt>
      <trkpt lat="48.21905" lon="-3.33915">
        <ele>214.400583</ele>
        <time>2022-12-11T16:36:43.491Z</time>
      </trkpt>
      <trkpt lat="48.219" lon="-3.33899">
        <ele>214.370195</ele>
        <time>2022-12-11T16:36:46.499Z</time>
      </trkpt>
      <trkpt lat="48.21895" lon="-3.33883">
        <ele>214.340666</ele>
        <time>2022-12-11T16:36:49.508Z</time>
      </trkpt>
      <trkpt lat="48.2189" lon="-3.33867">
        <ele>214.206757</ele>
        <time>2022-12-11T16:36:52.502Z</time>
      </trkpt>
      <trkpt lat="48.21884" lon="-3.3385">
        <ele>214.002678</ele>
        <time>2022-12-11T16:36:55.521Z</time>
      </trkpt>
      <trkpt lat="48.21879" lon="-3.33837">
        <ele>213.832101</ele>
        <time>2022-12-11T16:36:58.530Z</time>
      </trkpt>
      <trkpt lat="48.21875" lon="-3.33824">
        <ele>213.676397</ele>
        <time>2022-12-11T16:37:01.508Z</time>
      </trkpt>
      <trkpt lat="48.21871" lon="-3.3381">
        <ele>213.512479</ele>
        <time>2022-12-11T16:37:04.503Z</time>
      </trkpt>
      <trkpt lat="48.21867" lon="-3.33797">
        <ele>213.354428</ele>
        <time>2022-12-11T16:37:07.510Z</time>
      </trkpt>
      <trkpt lat="48.21862" lon="-3.33783">
        <ele>213.180013</ele>
        <time>2022-12-11T16:37:10.508Z</time>
      </trkpt>
      <trkpt lat="48.21857" lon="-3.33768">
        <ele>213.001733</ele>
        <time>2022-12-11T16:37:13.503Z</time>
      </trkpt>
      <trkpt lat="48.21852" lon="-3.33753">
        <ele>212.81414</ele>
        <time>2022-12-11T16:37:16.501Z</time>
      </trkpt>
      <trkpt lat="48.21846" lon="-3.33739">
        <ele>212.625691</ele>
        <time>2022-12-11T16:37:19.502Z</time>
      </trkpt>
      <trkpt lat="48.21839" lon="-3.33726">
        <ele>212.453524</ele>
        <time>2022-12-11T16:37:22.504Z</time>
      </trkpt>
      <trkpt lat="48.21833" lon="-3.33714">
        <ele>212.284989</ele>
        <time>2022-12-11T16:37:25.498Z</time>
      </trkpt>
      <trkpt lat="48.21825" lon="-3.33703">
        <ele>212.107482</ele>
        <time>2022-12-11T16:37:28.504Z</time>
      </trkpt>
      <trkpt lat="48.21819" lon="-3.33694">
        <ele>211.95272</ele>
        <time>2022-12-11T16:37:31.506Z</time>
      </trkpt>
      <trkpt lat="48.21811" lon="-3.33684">
        <ele>211.79223</ele>
        <time>2022-12-11T16:37:34.493Z</time>
      </trkpt>
      <trkpt lat="48.21802" lon="-3.33676">
        <ele>211.611442</ele>
        <time>2022-12-11T16:37:37.510Z</time>
      </trkpt>
      <trkpt lat="48.21791" lon="-3.33669">
        <ele>211.419611</ele>
        <time>2022-12-11T16:37:40.497Z</time>
      </trkpt>
      <trkpt lat="48.2178" lon="-3.33662">
        <ele>211.523347</ele>
        <time>2022-12-11T16:37:43.496Z</time>
      </trkpt>
      <trkpt lat="48.2177" lon="-3.33656">
        <ele>211.735241</ele>
        <time>2022-12-11T16:37:46.494Z</time>
      </trkpt>
      <trkpt lat="48.2176" lon="-3.33649">
        <ele>211.961935</ele>
        <time>2022-12-11T16:37:49.518Z</time>
      </trkpt>
      <trkpt lat="48.2175" lon="-3.33642">
        <ele>212.188995</ele>
        <time>2022-12-11T16:37:52.492Z</time>
      </trkpt>
      <trkpt lat="48.21739" lon="-3.33636">
        <ele>212.414968</ele>
        <time>2022-12-11T16:37:55.498Z</time>
      </trkpt>
      <trkpt lat="48.21729" lon="-3.33629">
        <ele>212.641942</ele>
        <time>2022-12-11T16:37:58.499Z</time>
      </trkpt>
      <trkpt lat="48.21719" lon="-3.33623">
        <ele>212.856593</ele>
        <time>2022-12-11T16:38:01.504Z</time>
      </trkpt>
      <trkpt lat="48.21709" lon="-3.33617">
        <ele>213.072808</ele>
        <time>2022-12-11T16:38:04.504Z</time>
      </trkpt>
      <trkpt lat="48.21698" lon="-3.3361">
        <ele>213.300579</ele>
        <time>2022-12-11T16:38:07.498Z</time>
      </trkpt>
      <trkpt lat="48.21689" lon="-3.33604">
        <ele>213.510609</ele>
        <time>2022-12-11T16:38:10.516Z</time>
      </trkpt>
      <trkpt lat="48.2168" lon="-3.33598">
        <ele>213.697672</ele>
        <time>2022-12-11T16:38:13.498Z</time>
      </trkpt>
      <trkpt lat="48.2167" lon="-3.33592">
        <ele>213.908186</ele>
        <time>2022-12-11T16:38:16.496Z</time>
      </trkpt>
      <trkpt lat="48.2166" lon="-3.33586">
        <ele>214.130453</ele>
        <time>2022-12-11T16:38:19.496Z</time>
      </trkpt>
      <trkpt lat="48.2165" lon="-3.33579">
        <ele>214.348225</ele>
        <time>2022-12-11T16:38:22.510Z</time>
      </trkpt>
      <trkpt lat="48.2164" lon="-3.33572">
        <ele>214.565111</ele>
        <time>2022-12-11T16:38:25.497Z</time>
      </trkpt>
      <trkpt lat="48.2163" lon="-3.33565">
        <ele>214.785781</ele>
        <time>2022-12-11T16:38:28.496Z</time>
      </trkpt>
      <trkpt lat="48.2162" lon="-3.33559">
        <ele>214.909534</ele>
        <time>2022-12-11T16:38:31.512Z</time>
      </trkpt>
      <trkpt lat="48.2161" lon="-3.33552">
        <ele>214.709734</ele>
        <time>2022-12-11T16:38:34.519Z</time>
      </trkpt>
      <trkpt lat="48.216" lon="-3.33547">
        <ele>214.523338</ele>
        <time>2022-12-11T16:38:37.499Z</time>
      </trkpt>
      <trkpt lat="48.2159" lon="-3.33541">
        <ele>214.332684</ele>
        <time>2022-12-11T16:38:40.505Z</time>
      </trkpt>
      <trkpt lat="48.21581" lon="-3.33537">
        <ele>214.163419</ele>
        <time>2022-12-11T16:38:43.492Z</time>
      </trkpt>
      <trkpt lat="48.21571" lon="-3.33529">
        <ele>213.966352</ele>
        <time>2022-12-11T16:38:47.508Z</time>
      </trkpt>
      <trkpt lat="48.2156" lon="-3.33523">
        <ele>213.757022</ele>
        <time>2022-12-11T16:38:50.507Z</time>
      </trkpt>
      <trkpt lat="48.2155" lon="-3.33517">
        <ele>213.561849</ele>
        <time>2022-12-11T16:38:53.501Z</time>
      </trkpt>
      <trkpt lat="48.21542" lon="-3.3351">
        <ele>213.394511</ele>
        <time>2022-12-11T16:38:56.501Z</time>
      </trkpt>
      <trkpt lat="48.21533" lon="-3.33502">
        <ele>213.207208</ele>
        <time>2022-12-11T16:38:59.501Z</time>
      </trkpt>
      <trkpt lat="48.21524" lon="-3.33492">
        <ele>213.010564</ele>
        <time>2022-12-11T16:39:02.503Z</time>
      </trkpt>
      <trkpt lat="48.21516" lon="-3.33481">
        <ele>212.815808</ele>
        <time>2022-12-11T16:39:05.498Z</time>
      </trkpt>
      <trkpt lat="48.21507" lon="-3.33472">
        <ele>212.630565</ele>
        <time>2022-12-11T16:39:08.495Z</time>
      </trkpt>
      <trkpt lat="48.21499" lon="-3.3346">
        <ele>212.432834</ele>
        <time>2022-12-11T16:39:12.511Z</time>
      </trkpt>
      <trkpt lat="48.21492" lon="-3.33449">
        <ele>212.246443</ele>
        <time>2022-12-11T16:39:16.497Z</time>
      </trkpt>
      <trkpt lat="48.21483" lon="-3.33437">
        <ele>212.034876</ele>
        <time>2022-12-11T16:39:20.516Z</time>
      </trkpt>
      <trkpt lat="48.21476" lon="-3.33428">
        <ele>211.866204</ele>
        <time>2022-12-11T16:39:23.499Z</time>
      </trkpt>
      <trkpt lat="48.21469" lon="-3.33419">
        <ele>211.811487</ele>
        <time>2022-12-11T16:39:26.494Z</time>
      </trkpt>
      <trkpt lat="48.21462" lon="-3.33409">
        <ele>212.036631</ele>
        <time>2022-12-11T16:39:30.499Z</time>
      </trkpt>
      <trkpt lat="48.21455" lon="-3.33398">
        <ele>212.249892</ele>
        <time>2022-12-11T16:39:40.508Z</time>
      </trkpt>
      <trkpt lat="48.21448" lon="-3.3339">
        <ele>212.46528</ele>
        <time>2022-12-11T16:39:51.502Z</time>
      </trkpt>
      <trkpt lat="48.21446" lon="-3.33379">
        <ele>212.625107</ele>
        <time>2022-12-11T16:40:15.777Z</time>
      </trkpt>
      <trkpt lat="48.21435" lon="-3.33376">
        <ele>212.891508</ele>
        <time>2022-12-11T16:50:19.505Z</time>
      </trkpt>
      <trkpt lat="48.21437" lon="-3.33361">
        <ele>213.11531</ele>
        <time>2022-12-11T16:50:23.498Z</time>
      </trkpt>
      <trkpt lat="48.21438" lon="-3.33346">
        <ele>213.34773</ele>
        <time>2022-12-11T16:50:27.495Z</time>
      </trkpt>
      <trkpt lat="48.21439" lon="-3.33331">
        <ele>213.575371</ele>
        <time>2022-12-11T16:50:32.498Z</time>
      </trkpt>
      <trkpt lat="48.21439" lon="-3.33317">
        <ele>213.797354</ele>
        <time>2022-12-11T16:50:37.492Z</time>
      </trkpt>
      <trkpt lat="48.21438" lon="-3.33302">
        <ele>214.019463</ele>
        <time>2022-12-11T16:50:42.498Z</time>
      </trkpt>
      <trkpt lat="48.21437" lon="-3.33288">
        <ele>214.231752</ele>
        <time>2022-12-11T16:50:47.496Z</time>
      </trkpt>
      <trkpt lat="48.21435" lon="-3.33272">
        <ele>214.483292</ele>
        <time>2022-12-11T16:50:53.498Z</time>
      </trkpt>
      <trkpt lat="48.21432" lon="-3.33257">
        <ele>214.719252</ele>
        <time>2022-12-11T16:50:58.500Z</time>
      </trkpt>
      <trkpt lat="48.21429" lon="-3.33242">
        <ele>214.959375</ele>
        <time>2022-12-11T16:51:03.495Z</time>
      </trkpt>
      <trkpt lat="48.21425" lon="-3.33227">
        <ele>215.200474</ele>
        <time>2022-12-11T16:51:08.496Z</time>
      </trkpt>
      <trkpt lat="48.2142" lon="-3.33213">
        <ele>215.44626</ele>
        <time>2022-12-11T16:51:14.499Z</time>
      </trkpt>
      <trkpt lat="48.21415" lon="-3.33201">
        <ele>215.653723</ele>
        <time>2022-12-11T16:51:19.498Z</time>
      </trkpt>
      <trkpt lat="48.2141" lon="-3.33189">
        <ele>215.896163</ele>
        <time>2022-12-11T16:51:24.496Z</time>
      </trkpt>
      <trkpt lat="48.21404" lon="-3.33176">
        <ele>216.218745</ele>
        <time>2022-12-11T16:51:29.496Z</time>
      </trkpt>
      <trkpt lat="48.21397" lon="-3.33163">
        <ele>216.564685</ele>
        <time>2022-12-11T16:51:34.501Z</time>
      </trkpt>
      <trkpt lat="48.21391" lon="-3.33149">
        <ele>216.920712</ele>
        <time>2022-12-11T16:51:39.497Z</time>
      </trkpt>
      <trkpt lat="48.21384" lon="-3.33136">
        <ele>217.278484</ele>
        <time>2022-12-11T16:51:44.504Z</time>
      </trkpt>
      <trkpt lat="48.21378" lon="-3.33123">
        <ele>217.636355</ele>
        <time>2022-12-11T16:51:49.496Z</time>
      </trkpt>
      <trkpt lat="48.21371" lon="-3.33112">
        <ele>217.937703</ele>
        <time>2022-12-11T16:51:53.495Z</time>
      </trkpt>
      <trkpt lat="48.21366" lon="-3.33099">
        <ele>218.249555</ele>
        <time>2022-12-11T16:51:58.507Z</time>
      </trkpt>
      <trkpt lat="48.2136" lon="-3.33089">
        <ele>218.54817</ele>
        <time>2022-12-11T16:52:03.500Z</time>
      </trkpt>
      <trkpt lat="48.21353" lon="-3.33076">
        <ele>218.901928</ele>
        <time>2022-12-11T16:52:08.495Z</time>
      </trkpt>
      <trkpt lat="48.21347" lon="-3.33064">
        <ele>219.206997</ele>
        <time>2022-12-11T16:52:12.497Z</time>
      </trkpt>
      <trkpt lat="48.21341" lon="-3.33053">
        <ele>219.518972</ele>
        <time>2022-12-11T16:52:16.495Z</time>
      </trkpt>
      <trkpt lat="48.21335" lon="-3.33039">
        <ele>219.882171</ele>
        <time>2022-12-11T16:52:21.510Z</time>
      </trkpt>
      <trkpt lat="48.2133" lon="-3.33025">
        <ele>220.226486</ele>
        <time>2022-12-11T16:52:25.502Z</time>
      </trkpt>
      <trkpt lat="48.21325" lon="-3.3301">
        <ele>220.588721</ele>
        <time>2022-12-11T16:52:29.503Z</time>
      </trkpt>
      <trkpt lat="48.2132" lon="-3.32995">
        <ele>220.922036</ele>
        <time>2022-12-11T16:52:33.499Z</time>
      </trkpt>
      <trkpt lat="48.21317" lon="-3.32979">
        <ele>221.291616</ele>
        <time>2022-12-11T16:52:37.499Z</time>
      </trkpt>
      <trkpt lat="48.21313" lon="-3.32963">
        <ele>221.580308</ele>
        <time>2022-12-11T16:52:40.506Z</time>
      </trkpt>
      <trkpt lat="48.21312" lon="-3.32946">
        <ele>221.425737</ele>
        <time>2022-12-11T16:52:43.509Z</time>
      </trkpt>
      <trkpt lat="48.21311" lon="-3.32929">
        <ele>221.273719</ele>
        <time>2022-12-11T16:52:46.505Z</time>
      </trkpt>
      <trkpt lat="48.2131" lon="-3.32911">
        <ele>221.113424</ele>
        <time>2022-12-11T16:52:49.515Z</time>
      </trkpt>
      <trkpt lat="48.2131" lon="-3.32891">
        <ele>220.932742</ele>
        <time>2022-12-11T16:52:52.500Z</time>
      </trkpt>
      <trkpt lat="48.2131" lon="-3.32876">
        <ele>220.802789</ele>
        <time>2022-12-11T16:52:54.515Z</time>
      </trkpt>
      <trkpt lat="48.2131" lon="-3.32862">
        <ele>220.675486</ele>
        <time>2022-12-11T16:52:56.496Z</time>
      </trkpt>
      <trkpt lat="48.2131" lon="-3.32846">
        <ele>220.534803</ele>
        <time>2022-12-11T16:52:58.496Z</time>
      </trkpt>
      <trkpt lat="48.21311" lon="-3.32829">
        <ele>220.388783</ele>
        <time>2022-12-11T16:53:00.502Z</time>
      </trkpt>
      <trkpt lat="48.21311" lon="-3.32812">
        <ele>220.232136</ele>
        <time>2022-12-11T16:53:02.495Z</time>
      </trkpt>
      <trkpt lat="48.21311" lon="-3.32795">
        <ele>220.07816</ele>
        <time>2022-12-11T16:53:04.504Z</time>
      </trkpt>
      <trkpt lat="48.21311" lon="-3.32777">
        <ele>219.917948</ele>
        <time>2022-12-11T16:53:06.495Z</time>
      </trkpt>
      <trkpt lat="48.2131" lon="-3.32758">
        <ele>219.756763</ele>
        <time>2022-12-11T16:53:08.503Z</time>
      </trkpt>
      <trkpt lat="48.2131" lon="-3.32741">
        <ele>219.598331</ele>
        <time>2022-12-11T16:53:10.505Z</time>
      </trkpt>
      <trkpt lat="48.2131" lon="-3.32722">
        <ele>219.430029</ele>
        <time>2022-12-11T16:53:12.495Z</time>
      </trkpt>
      <trkpt lat="48.2131" lon="-3.32703">
        <ele>219.266257</ele>
        <time>2022-12-11T16:53:14.514Z</time>
      </trkpt>
      <trkpt lat="48.2131" lon="-3.32686">
        <ele>219.192986</ele>
        <time>2022-12-11T16:53:16.498Z</time>
      </trkpt>
      <trkpt lat="48.21309" lon="-3.32668">
        <ele>219.186737</ele>
        <time>2022-12-11T16:53:18.531Z</time>
      </trkpt>
      <trkpt lat="48.21309" lon="-3.3265">
        <ele>219.180392</ele>
        <time>2022-12-11T16:53:20.501Z</time>
      </trkpt>
      <trkpt lat="48.21309" lon="-3.32632">
        <ele>219.174328</ele>
        <time>2022-12-11T16:53:22.525Z</time>
      </trkpt>
      <trkpt lat="48.21309" lon="-3.32615">
        <ele>219.168334</ele>
        <time>2022-12-11T16:53:24.505Z</time>
      </trkpt>
      <trkpt lat="48.21309" lon="-3.32598">
        <ele>219.16234</ele>
        <time>2022-12-11T16:53:26.496Z</time>
      </trkpt>
      <trkpt lat="48.21309" lon="-3.32582">
        <ele>219.156591</ele>
        <time>2022-12-11T16:53:28.504Z</time>
      </trkpt>
      <trkpt lat="48.21309" lon="-3.32567">
        <ele>219.151369</ele>
        <time>2022-12-11T16:53:30.507Z</time>
      </trkpt>
      <trkpt lat="48.21309" lon="-3.32552">
        <ele>219.146076</ele>
        <time>2022-12-11T16:53:32.499Z</time>
      </trkpt>
      <trkpt lat="48.21309" lon="-3.32538">
        <ele>219.141098</ele>
        <time>2022-12-11T16:53:34.500Z</time>
      </trkpt>
      <trkpt lat="48.21309" lon="-3.32524">
        <ele>219.136365</ele>
        <time>2022-12-11T16:53:36.499Z</time>
      </trkpt>
      <trkpt lat="48.21309" lon="-3.32506">
        <ele>219.129982</ele>
        <time>2022-12-11T16:53:39.497Z</time>
      </trkpt>
      <trkpt lat="48.21309" lon="-3.32489">
        <ele>219.123919</ele>
        <time>2022-12-11T16:53:42.504Z</time>
      </trkpt>
      <trkpt lat="48.21309" lon="-3.32472">
        <ele>219.117993</ele>
        <time>2022-12-11T16:53:45.497Z</time>
      </trkpt>
      <trkpt lat="48.21309" lon="-3.32455">
        <ele>219.112</ele>
        <time>2022-12-11T16:53:48.507Z</time>
      </trkpt>
      <trkpt lat="48.21308" lon="-3.32438">
        <ele>219.106179</ele>
        <time>2022-12-11T16:53:51.496Z</time>
      </trkpt>
      <trkpt lat="48.21309" lon="-3.32422">
        <ele>219.08192</ele>
        <time>2022-12-11T16:53:54.512Z</time>
      </trkpt>
      <trkpt lat="48.2131" lon="-3.32407">
        <ele>218.993084</ele>
        <time>2022-12-11T16:53:57.499Z</time>
      </trkpt>
      <trkpt lat="48.21313" lon="-3.32391">
        <ele>218.899866</ele>
        <time>2022-12-11T16:54:00.503Z</time>
      </trkpt>
      <trkpt lat="48.21317" lon="-3.32376">
        <ele>218.802115</ele>
        <time>2022-12-11T16:54:03.514Z</time>
      </trkpt>
      <trkpt lat="48.21322" lon="-3.32361">
        <ele>218.702358</ele>
        <time>2022-12-11T16:54:06.499Z</time>
      </trkpt>
      <trkpt lat="48.21329" lon="-3.32346">
        <ele>218.596675</ele>
        <time>2022-12-11T16:54:09.498Z</time>
      </trkpt>
      <trkpt lat="48.21339" lon="-3.32332">
        <ele>218.486171</ele>
        <time>2022-12-11T16:54:12.504Z</time>
      </trkpt>
      <trkpt lat="48.21349" lon="-3.32321">
        <ele>218.373727</ele>
        <time>2022-12-11T16:54:15.500Z</time>
      </trkpt>
      <trkpt lat="48.2136" lon="-3.32311">
        <ele>218.263329</ele>
        <time>2022-12-11T16:54:18.500Z</time>
      </trkpt>
      <trkpt lat="48.21371" lon="-3.32302">
        <ele>218.156337</ele>
        <time>2022-12-11T16:54:21.501Z</time>
      </trkpt>
      <trkpt lat="48.21383" lon="-3.32296">
        <ele>218.038967</ele>
        <time>2022-12-11T16:54:24.499Z</time>
      </trkpt>
      <trkpt lat="48.21393" lon="-3.32295">
        <ele>217.956077</ele>
        <time>2022-12-11T16:54:26.501Z</time>
      </trkpt>
      <trkpt lat="48.21407" lon="-3.32294">
        <ele>217.837561</ele>
        <time>2022-12-11T16:54:29.500Z</time>
      </trkpt>
      <trkpt lat="48.2142" lon="-3.32291">
        <ele>217.719365</ele>
        <time>2022-12-11T16:54:32.498Z</time>
      </trkpt>
      <trkpt lat="48.21429" lon="-3.3229">
        <ele>217.639196</ele>
        <time>2022-12-11T16:54:34.499Z</time>
      </trkpt>
      <trkpt lat="48.21439" lon="-3.32289">
        <ele>217.556096</ele>
        <time>2022-12-11T16:54:36.500Z</time>
      </trkpt>
      <trkpt lat="48.21449" lon="-3.32288">
        <ele>217.46028</ele>
        <time>2022-12-11T16:54:38.500Z</time>
      </trkpt>
      <trkpt lat="48.21459" lon="-3.32287">
        <ele>217.360259</ele>
        <time>2022-12-11T16:54:40.504Z</time>
      </trkpt>
      <trkpt lat="48.21469" lon="-3.32286">
        <ele>217.263278</ele>
        <time>2022-12-11T16:54:42.499Z</time>
      </trkpt>
      <trkpt lat="48.21479" lon="-3.32285">
        <ele>217.165331</ele>
        <time>2022-12-11T16:54:44.504Z</time>
      </trkpt>
      <trkpt lat="48.2149" lon="-3.32284">
        <ele>217.064444</ele>
        <time>2022-12-11T16:54:46.499Z</time>
      </trkpt>
      <trkpt lat="48.21501" lon="-3.32283">
        <ele>216.957843</ele>
        <time>2022-12-11T16:54:48.500Z</time>
      </trkpt>
      <trkpt lat="48.21512" lon="-3.32282">
        <ele>216.848343</ele>
        <time>2022-12-11T16:54:50.496Z</time>
      </trkpt>
      <trkpt lat="48.21522" lon="-3.32281">
        <ele>216.747409</ele>
        <time>2022-12-11T16:54:52.502Z</time>
      </trkpt>
      <trkpt lat="48.21533" lon="-3.32279">
        <ele>216.641297</ele>
        <time>2022-12-11T16:54:54.504Z</time>
      </trkpt>
      <trkpt lat="48.21543" lon="-3.32278">
        <ele>216.544271</ele>
        <time>2022-12-11T16:54:56.498Z</time>
      </trkpt>
      <trkpt lat="48.21552" lon="-3.32277">
        <ele>216.455208</ele>
        <time>2022-12-11T16:54:58.494Z</time>
      </trkpt>
      <trkpt lat="48.21562" lon="-3.32277">
        <ele>216.366181</ele>
        <time>2022-12-11T16:55:00.495Z</time>
      </trkpt>
      <trkpt lat="48.21571" lon="-3.32276">
        <ele>216.273014</ele>
        <time>2022-12-11T16:55:02.509Z</time>
      </trkpt>
      <trkpt lat="48.21581" lon="-3.32275">
        <ele>216.179681</ele>
        <time>2022-12-11T16:55:04.494Z</time>
      </trkpt>
      <trkpt lat="48.2159" lon="-3.32274">
        <ele>216.08954</ele>
        <time>2022-12-11T16:55:06.502Z</time>
      </trkpt>
      <trkpt lat="48.216" lon="-3.32273">
        <ele>215.994602</ele>
        <time>2022-12-11T16:55:08.514Z</time>
      </trkpt>
      <trkpt lat="48.2161" lon="-3.32272">
        <ele>215.897415</ele>
        <time>2022-12-11T16:55:10.499Z</time>
      </trkpt>
      <trkpt lat="48.2162" lon="-3.3227">
        <ele>215.800991</ele>
        <time>2022-12-11T16:55:12.510Z</time>
      </trkpt>
      <trkpt lat="48.2163" lon="-3.32269">
        <ele>215.709971</ele>
        <time>2022-12-11T16:55:14.521Z</time>
      </trkpt>
      <trkpt lat="48.2164" lon="-3.32268">
        <ele>215.617474</ele>
        <time>2022-12-11T16:55:16.519Z</time>
      </trkpt>
      <trkpt lat="48.21651" lon="-3.32268">
        <ele>215.526783</ele>
        <time>2022-12-11T16:55:18.500Z</time>
      </trkpt>
      <trkpt lat="48.21661" lon="-3.32266">
        <ele>215.435938</ele>
        <time>2022-12-11T16:55:20.497Z</time>
      </trkpt>
      <trkpt lat="48.2167" lon="-3.32265">
        <ele>215.351287</ele>
        <time>2022-12-11T16:55:22.504Z</time>
      </trkpt>
      <trkpt lat="48.2168" lon="-3.32264">
        <ele>215.26757</ele>
        <time>2022-12-11T16:55:24.501Z</time>
      </trkpt>
      <trkpt lat="48.21693" lon="-3.32264">
        <ele>215.147677</ele>
        <time>2022-12-11T16:55:27.506Z</time>
      </trkpt>
      <trkpt lat="48.21702" lon="-3.32262">
        <ele>215.065628</ele>
        <time>2022-12-11T16:55:29.506Z</time>
      </trkpt>
      <trkpt lat="48.21713" lon="-3.32262">
        <ele>214.974018</ele>
        <time>2022-12-11T16:55:31.501Z</time>
      </trkpt>
      <trkpt lat="48.21723" lon="-3.3226">
        <ele>214.883016</ele>
        <time>2022-12-11T16:55:33.500Z</time>
      </trkpt>
      <trkpt lat="48.21734" lon="-3.32259">
        <ele>214.78863</ele>
        <time>2022-12-11T16:55:35.497Z</time>
      </trkpt>
      <trkpt lat="48.21744" lon="-3.32257">
        <ele>214.694977</ele>
        <time>2022-12-11T16:55:37.499Z</time>
      </trkpt>
      <trkpt lat="48.21755" lon="-3.32256">
        <ele>214.599786</ele>
        <time>2022-12-11T16:55:39.494Z</time>
      </trkpt>
      <trkpt lat="48.21765" lon="-3.32255">
        <ele>214.510711</ele>
        <time>2022-12-11T16:55:41.500Z</time>
      </trkpt>
      <trkpt lat="48.21774" lon="-3.32254">
        <ele>214.426151</ele>
        <time>2022-12-11T16:55:43.512Z</time>
      </trkpt>
      <trkpt lat="48.21784" lon="-3.32253">
        <ele>214.341549</ele>
        <time>2022-12-11T16:55:45.503Z</time>
      </trkpt>
      <trkpt lat="48.21793" lon="-3.32252">
        <ele>214.261372</ele>
        <time>2022-12-11T16:55:47.498Z</time>
      </trkpt>
      <trkpt lat="48.21806" lon="-3.3225">
        <ele>214.226411</ele>
        <time>2022-12-11T16:55:50.498Z</time>
      </trkpt>
      <trkpt lat="48.21819" lon="-3.32248">
        <ele>214.284879</ele>
        <time>2022-12-11T16:55:53.498Z</time>
      </trkpt>
      <trkpt lat="48.21832" lon="-3.32247">
        <ele>214.342573</ele>
        <time>2022-12-11T16:55:56.500Z</time>
      </trkpt>
      <trkpt lat="48.21846" lon="-3.32246">
        <ele>214.402378</ele>
        <time>2022-12-11T16:55:59.506Z</time>
      </trkpt>
      <trkpt lat="48.21855" lon="-3.32245">
        <ele>214.445666</ele>
        <time>2022-12-11T16:56:01.497Z</time>
      </trkpt>
      <trkpt lat="48.21865" lon="-3.32244">
        <ele>214.48842</ele>
        <time>2022-12-11T16:56:03.500Z</time>
      </trkpt>
      <trkpt lat="48.21875" lon="-3.32243">
        <ele>214.53244</ele>
        <time>2022-12-11T16:56:05.497Z</time>
      </trkpt>
      <trkpt lat="48.21885" lon="-3.32242">
        <ele>214.573899</ele>
        <time>2022-12-11T16:56:07.501Z</time>
      </trkpt>
      <trkpt lat="48.21895" lon="-3.32241">
        <ele>214.618558</ele>
        <time>2022-12-11T16:56:09.497Z</time>
      </trkpt>
      <trkpt lat="48.21905" lon="-3.3224">
        <ele>214.663087</ele>
        <time>2022-12-11T16:56:11.495Z</time>
      </trkpt>
      <trkpt lat="48.21915" lon="-3.32238">
        <ele>214.708493</ele>
        <time>2022-12-11T16:56:13.507Z</time>
      </trkpt>
      <trkpt lat="48.21925" lon="-3.32237">
        <ele>214.751268</ele>
        <time>2022-12-11T16:56:15.507Z</time>
      </trkpt>
      <trkpt lat="48.21934" lon="-3.32237">
        <ele>214.793043</ele>
        <time>2022-12-11T16:56:17.498Z</time>
      </trkpt>
      <trkpt lat="48.21944" lon="-3.32236">
        <ele>214.834502</ele>
        <time>2022-12-11T16:56:19.502Z</time>
      </trkpt>
      <trkpt lat="48.21953" lon="-3.32236">
        <ele>214.876717</ele>
        <time>2022-12-11T16:56:21.506Z</time>
      </trkpt>
      <trkpt lat="48.21963" lon="-3.32235">
        <ele>214.918995</ele>
        <time>2022-12-11T16:56:23.504Z</time>
      </trkpt>
      <trkpt lat="48.21973" lon="-3.32236">
        <ele>214.96165</ele>
        <time>2022-12-11T16:56:25.498Z</time>
      </trkpt>
      <trkpt lat="48.21983" lon="-3.32236">
        <ele>214.958643</ele>
        <time>2022-12-11T16:56:27.500Z</time>
      </trkpt>
      <trkpt lat="48.21993" lon="-3.32237">
        <ele>214.866968</ele>
        <time>2022-12-11T16:56:29.500Z</time>
      </trkpt>
      <trkpt lat="48.22003" lon="-3.32237">
        <ele>214.779717</ele>
        <time>2022-12-11T16:56:31.502Z</time>
      </trkpt>
      <trkpt lat="48.22012" lon="-3.32239">
        <ele>214.694008</ele>
        <time>2022-12-11T16:56:33.496Z</time>
      </trkpt>
      <trkpt lat="48.22022" lon="-3.3224">
        <ele>214.608445</ele>
        <time>2022-12-11T16:56:35.503Z</time>
      </trkpt>
      <trkpt lat="48.22031" lon="-3.32241">
        <ele>214.52063</ele>
        <time>2022-12-11T16:56:37.496Z</time>
      </trkpt>
      <trkpt lat="48.22041" lon="-3.32243">
        <ele>214.433077</ele>
        <time>2022-12-11T16:56:39.498Z</time>
      </trkpt>
      <trkpt lat="48.2205" lon="-3.32246">
        <ele>214.3456</ele>
        <time>2022-12-11T16:56:41.504Z</time>
      </trkpt>
      <trkpt lat="48.2206" lon="-3.32248">
        <ele>214.255928</ele>
        <time>2022-12-11T16:56:43.497Z</time>
      </trkpt>
      <trkpt lat="48.2207" lon="-3.3225">
        <ele>214.165364</ele>
        <time>2022-12-11T16:56:45.501Z</time>
      </trkpt>
      <trkpt lat="48.2208" lon="-3.32254">
        <ele>214.072226</ele>
        <time>2022-12-11T16:56:47.507Z</time>
      </trkpt>
      <trkpt lat="48.22089" lon="-3.32257">
        <ele>213.98941</ele>
        <time>2022-12-11T16:56:49.509Z</time>
      </trkpt>
      <trkpt lat="48.22098" lon="-3.32261">
        <ele>213.905435</ele>
        <time>2022-12-11T16:56:51.504Z</time>
      </trkpt>
      <trkpt lat="48.22108" lon="-3.32264">
        <ele>213.817688</ele>
        <time>2022-12-11T16:56:53.507Z</time>
      </trkpt>
      <trkpt lat="48.22117" lon="-3.32267">
        <ele>213.735342</ele>
        <time>2022-12-11T16:56:55.502Z</time>
      </trkpt>
      <trkpt lat="48.22129" lon="-3.32272">
        <ele>213.617965</ele>
        <time>2022-12-11T16:56:58.511Z</time>
      </trkpt>
      <trkpt lat="48.22139" lon="-3.32277">
        <ele>213.528815</ele>
        <time>2022-12-11T16:57:00.501Z</time>
      </trkpt>
      <trkpt lat="48.22151" lon="-3.32282">
        <ele>213.411718</ele>
        <time>2022-12-11T16:57:03.506Z</time>
      </trkpt>
      <trkpt lat="48.22161" lon="-3.32287">
        <ele>213.428232</ele>
        <time>2022-12-11T16:57:05.499Z</time>
      </trkpt>
      <trkpt lat="48.22171" lon="-3.32292">
        <ele>213.516834</ele>
        <time>2022-12-11T16:57:07.508Z</time>
      </trkpt>
      <trkpt lat="48.22181" lon="-3.32296">
        <ele>213.59925</ele>
        <time>2022-12-11T16:57:09.503Z</time>
      </trkpt>
      <trkpt lat="48.2219" lon="-3.323">
        <ele>213.681909</ele>
        <time>2022-12-11T16:57:11.500Z</time>
      </trkpt>
      <trkpt lat="48.222" lon="-3.32304">
        <ele>213.768294</ele>
        <time>2022-12-11T16:57:13.512Z</time>
      </trkpt>
      <trkpt lat="48.22213" lon="-3.32309">
        <ele>213.878454</ele>
        <time>2022-12-11T16:57:16.505Z</time>
      </trkpt>
      <trkpt lat="48.22225" lon="-3.32314">
        <ele>213.987799</ele>
        <time>2022-12-11T16:57:19.506Z</time>
      </trkpt>
      <trkpt lat="48.22237" lon="-3.32319">
        <ele>214.088864</ele>
        <time>2022-12-11T16:57:22.503Z</time>
      </trkpt>
      <trkpt lat="48.22248" lon="-3.32322">
        <ele>214.185328</ele>
        <time>2022-12-11T16:57:25.496Z</time>
      </trkpt>
      <trkpt lat="48.2226" lon="-3.32325">
        <ele>214.282236</ele>
        <time>2022-12-11T16:57:28.496Z</time>
      </trkpt>
      <trkpt lat="48.22271" lon="-3.32327">
        <ele>214.37788</ele>
        <time>2022-12-11T16:57:31.500Z</time>
      </trkpt>
      <trkpt lat="48.22282" lon="-3.32328">
        <ele>214.471625</ele>
        <time>2022-12-11T16:57:34.508Z</time>
      </trkpt>
      <trkpt lat="48.22293" lon="-3.32329">
        <ele>214.56678</ele>
        <time>2022-12-11T16:57:38.502Z</time>
      </trkpt>
      <trkpt lat="48.22304" lon="-3.3233">
        <ele>214.654288</ele>
        <time>2022-12-11T16:57:42.503Z</time>
      </trkpt>
      <trkpt lat="48.22315" lon="-3.32331">
        <ele>214.74622</ele>
        <time>2022-12-11T16:57:46.498Z</time>
      </trkpt>
      <trkpt lat="48.22325" lon="-3.32332">
        <ele>214.832134</ele>
        <time>2022-12-11T16:57:50.503Z</time>
      </trkpt>
      <trkpt lat="48.22335" lon="-3.3233">
        <ele>215.087576</ele>
        <time>2022-12-11T16:57:55.494Z</time>
      </trkpt>
      <trkpt lat="48.22343" lon="-3.32329">
        <ele>215.640225</ele>
        <time>2022-12-11T16:58:00.500Z</time>
      </trkpt>
      <trkpt lat="48.22353" lon="-3.32327">
        <ele>216.257661</ele>
        <time>2022-12-11T16:58:05.497Z</time>
      </trkpt>
      <trkpt lat="48.22363" lon="-3.32327">
        <ele>216.872552</ele>
        <time>2022-12-11T16:58:10.504Z</time>
      </trkpt>
      <trkpt lat="48.22374" lon="-3.32325">
        <ele>217.51526</ele>
        <time>2022-12-11T16:58:16.504Z</time>
      </trkpt>
      <trkpt lat="48.22383" lon="-3.32324">
        <ele>218.095589</ele>
        <time>2022-12-11T16:58:21.494Z</time>
      </trkpt>
      <trkpt lat="48.22393" lon="-3.32322">
        <ele>218.685918</ele>
        <time>2022-12-11T16:58:26.495Z</time>
      </trkpt>
      <trkpt lat="48.22402" lon="-3.32318">
        <ele>219.250504</ele>
        <time>2022-12-11T16:58:31.499Z</time>
      </trkpt>
      <trkpt lat="48.22412" lon="-3.32318">
        <ele>219.859469</ele>
        <time>2022-12-11T16:58:37.499Z</time>
      </trkpt>
      <trkpt lat="48.22421" lon="-3.32319">
        <ele>220.469204</ele>
        <time>2022-12-11T16:58:42.500Z</time>
      </trkpt>
      <trkpt lat="48.22431" lon="-3.32318">
        <ele>221.067228</ele>
        <time>2022-12-11T16:58:47.499Z</time>
      </trkpt>
      <trkpt lat="48.22441" lon="-3.32316">
        <ele>221.648813</ele>
        <time>2022-12-11T16:58:52.499Z</time>
      </trkpt>
      <trkpt lat="48.2245" lon="-3.32315">
        <ele>222.25441</ele>
        <time>2022-12-11T16:58:57.500Z</time>
      </trkpt>
      <trkpt lat="48.2246" lon="-3.32313">
        <ele>222.835548</ele>
        <time>2022-12-11T16:59:02.513Z</time>
      </trkpt>
      <trkpt lat="48.2247" lon="-3.32311">
        <ele>223.466465</ele>
        <time>2022-12-11T16:59:08.504Z</time>
      </trkpt>
      <trkpt lat="48.2248" lon="-3.3231">
        <ele>224.110541</ele>
        <time>2022-12-11T16:59:14.499Z</time>
      </trkpt>
      <trkpt lat="48.2249" lon="-3.32309">
        <ele>224.725527</ele>
        <time>2022-12-11T16:59:20.501Z</time>
      </trkpt>
      <trkpt lat="48.225" lon="-3.32309">
        <ele>225.309686</ele>
        <time>2022-12-11T16:59:26.509Z</time>
      </trkpt>
      <trkpt lat="48.22509" lon="-3.32308">
        <ele>225.876472</ele>
        <time>2022-12-11T16:59:31.508Z</time>
      </trkpt>
      <trkpt lat="48.2252" lon="-3.32305">
        <ele>226.462137</ele>
        <time>2022-12-11T16:59:36.509Z</time>
      </trkpt>
      <trkpt lat="48.2253" lon="-3.32303">
        <ele>227.025358</ele>
        <time>2022-12-11T16:59:41.499Z</time>
      </trkpt>
      <trkpt lat="48.2254" lon="-3.32301">
        <ele>227.586212</ele>
        <time>2022-12-11T16:59:47.508Z</time>
      </trkpt>
      <trkpt lat="48.2255" lon="-3.323">
        <ele>228.100841</ele>
        <time>2022-12-11T16:59:53.497Z</time>
      </trkpt>
      <trkpt lat="48.2256" lon="-3.32299">
        <ele>228.63804</ele>
        <time>2022-12-11T16:59:59.510Z</time>
      </trkpt>
      <trkpt lat="48.2257" lon="-3.32298">
        <ele>229.18063</ele>
        <time>2022-12-11T17:00:05.499Z</time>
      </trkpt>
      <trkpt lat="48.22579" lon="-3.32296">
        <ele>229.688271</ele>
        <time>2022-12-11T17:00:10.501Z</time>
      </trkpt>
      <trkpt lat="48.22588" lon="-3.32294">
        <ele>230.189195</ele>
        <time>2022-12-11T17:00:15.528Z</time>
      </trkpt>
      <trkpt lat="48.22597" lon="-3.32292">
        <ele>230.686629</ele>
        <time>2022-12-11T17:00:21.502Z</time>
      </trkpt>
      <trkpt lat="48.22608" lon="-3.3229">
        <ele>231.261637</ele>
        <time>2022-12-11T17:00:27.501Z</time>
      </trkpt>
      <trkpt lat="48.22618" lon="-3.32289">
        <ele>231.829647</ele>
        <time>2022-12-11T17:00:33.497Z</time>
      </trkpt>
      <trkpt lat="48.22628" lon="-3.32289">
        <ele>232.381905</ele>
        <time>2022-12-11T17:00:39.499Z</time>
      </trkpt>
      <trkpt lat="48.22639" lon="-3.32287">
        <ele>232.946995</ele>
        <time>2022-12-11T17:00:45.495Z</time>
      </trkpt>
      <trkpt lat="48.22648" lon="-3.32286">
        <ele>233.436021</ele>
        <time>2022-12-11T17:00:50.494Z</time>
      </trkpt>
      <trkpt lat="48.22657" lon="-3.32285">
        <ele>233.929801</ele>
        <time>2022-12-11T17:00:55.497Z</time>
      </trkpt>
      <trkpt lat="48.22667" lon="-3.32285">
        <ele>234.465305</ele>
        <time>2022-12-11T17:01:01.504Z</time>
      </trkpt>
      <trkpt lat="48.22676" lon="-3.32282">
        <ele>234.998242</ele>
        <time>2022-12-11T17:01:07.501Z</time>
      </trkpt>
      <trkpt lat="48.22686" lon="-3.3228">
        <ele>235.498604</ele>
        <time>2022-12-11T17:01:12.497Z</time>
      </trkpt>
      <trkpt lat="48.22696" lon="-3.32278">
        <ele>236.178041</ele>
        <time>2022-12-11T17:01:18.505Z</time>
      </trkpt>
      <trkpt lat="48.22706" lon="-3.32275">
        <ele>236.936346</ele>
        <time>2022-12-11T17:01:24.501Z</time>
      </trkpt>
      <trkpt lat="48.22716" lon="-3.32274">
        <ele>237.710909</ele>
        <time>2022-12-11T17:01:30.506Z</time>
      </trkpt>
      <trkpt lat="48.22727" lon="-3.32272">
        <ele>238.49492</ele>
        <time>2022-12-11T17:01:36.504Z</time>
      </trkpt>
      <trkpt lat="48.22738" lon="-3.3227">
        <ele>239.279457</ele>
        <time>2022-12-11T17:01:42.498Z</time>
      </trkpt>
      <trkpt lat="48.22748" lon="-3.3227">
        <ele>239.9936</ele>
        <time>2022-12-11T17:01:47.509Z</time>
      </trkpt>
      <trkpt lat="48.22757" lon="-3.32269">
        <ele>240.69514</ele>
        <time>2022-12-11T17:01:53.502Z</time>
      </trkpt>
      <trkpt lat="48.2277" lon="-3.32266">
        <ele>241.669421</ele>
        <time>2022-12-11T17:02:49.552Z</time>
      </trkpt>
      <trkpt lat="48.22779" lon="-3.32264">
        <ele>242.330378</ele>
        <time>2022-12-11T17:02:56.495Z</time>
      </trkpt>
      <trkpt lat="48.2279" lon="-3.32262">
        <ele>243.080559</ele>
        <time>2022-12-11T17:03:04.515Z</time>
      </trkpt>
      <trkpt lat="48.228" lon="-3.3226">
        <ele>243.819628</ele>
        <time>2022-12-11T17:03:12.513Z</time>
      </trkpt>
      <trkpt lat="48.2281" lon="-3.32259">
        <ele>244.567969</ele>
        <time>2022-12-11T17:03:20.512Z</time>
      </trkpt>
      <trkpt lat="48.2282" lon="-3.32257">
        <ele>245.308518</ele>
        <time>2022-12-11T17:03:28.504Z</time>
      </trkpt>
      <trkpt lat="48.22829" lon="-3.32255">
        <ele>245.96498</ele>
        <time>2022-12-11T17:03:35.508Z</time>
      </trkpt>
      <trkpt lat="48.22839" lon="-3.32253">
        <ele>246.68381</ele>
        <time>2022-12-11T17:03:43.501Z</time>
      </trkpt>
      <trkpt lat="48.22848" lon="-3.32252">
        <ele>247.348656</ele>
        <time>2022-12-11T17:03:50.505Z</time>
      </trkpt>
      <trkpt lat="48.22857" lon="-3.32251">
        <ele>248.029233</ele>
        <time>2022-12-11T17:03:57.500Z</time>
      </trkpt>
      <trkpt lat="48.22866" lon="-3.32249">
        <ele>248.684958</ele>
        <time>2022-12-11T17:04:04.505Z</time>
      </trkpt>
      <trkpt lat="48.22875" lon="-3.32248">
        <ele>249.130314</ele>
        <time>2022-12-11T17:04:11.514Z</time>
      </trkpt>
      <trkpt lat="48.22885" lon="-3.32246">
        <ele>249.573491</ele>
        <time>2022-12-11T17:04:19.508Z</time>
      </trkpt>
      <trkpt lat="48.22895" lon="-3.32244">
        <ele>250.028988</ele>
        <time>2022-12-11T17:04:27.504Z</time>
      </trkpt>
      <trkpt lat="48.22905" lon="-3.32243">
        <ele>250.471792</ele>
        <time>2022-12-11T17:04:35.502Z</time>
      </trkpt>
      <trkpt lat="48.22914" lon="-3.32241">
        <ele>250.885963</ele>
        <time>2022-12-11T17:04:42.496Z</time>
      </trkpt>
      <trkpt lat="48.22924" lon="-3.3224">
        <ele>251.322735</ele>
        <time>2022-12-11T17:04:50.515Z</time>
      </trkpt>
      <trkpt lat="48.22933" lon="-3.32239">
        <ele>251.754544</ele>
        <time>2022-12-11T17:04:58.503Z</time>
      </trkpt>
      <trkpt lat="48.22943" lon="-3.32237">
        <ele>252.208274</ele>
        <time>2022-12-11T17:05:14.504Z</time>
      </trkpt>
      <trkpt lat="48.22952" lon="-3.32234">
        <ele>252.613672</ele>
        <time>2022-12-11T17:05:21.503Z</time>
      </trkpt>
      <trkpt lat="48.22961" lon="-3.32231">
        <ele>253.022128</ele>
        <time>2022-12-11T17:05:28.539Z</time>
      </trkpt>
      <trkpt lat="48.22971" lon="-3.32227">
        <ele>253.485513</ele>
        <time>2022-12-11T17:05:36.521Z</time>
      </trkpt>
      <trkpt lat="48.2298" lon="-3.32224">
        <ele>253.892744</ele>
        <time>2022-12-11T17:05:43.508Z</time>
      </trkpt>
      <trkpt lat="48.22989" lon="-3.3222">
        <ele>254.328582</ele>
        <time>2022-12-11T17:05:51.507Z</time>
      </trkpt>
      <trkpt lat="48.22999" lon="-3.32217">
        <ele>254.754986</ele>
        <time>2022-12-11T17:05:58.509Z</time>
      </trkpt>
      <trkpt lat="48.23007" lon="-3.32212">
        <ele>255.163452</ele>
        <time>2022-12-11T17:06:05.502Z</time>
      </trkpt>
      <trkpt lat="48.23016" lon="-3.32208">
        <ele>255.584647</ele>
        <time>2022-12-11T17:06:12.504Z</time>
      </trkpt>
      <trkpt lat="48.23025" lon="-3.32204">
        <ele>256.008275</ele>
        <time>2022-12-11T17:06:19.505Z</time>
      </trkpt>
      <trkpt lat="48.23033" lon="-3.32196">
        <ele>256.438925</ele>
        <time>2022-12-11T17:06:29.508Z</time>
      </trkpt>
      <trkpt lat="48.23043" lon="-3.32194">
        <ele>256.830082</ele>
        <time>2022-12-11T17:06:37.500Z</time>
      </trkpt>
      <trkpt lat="48.23053" lon="-3.3219">
        <ele>256.651585</ele>
        <time>2022-12-11T17:06:45.519Z</time>
      </trkpt>
      <trkpt lat="48.23062" lon="-3.32187">
        <ele>256.487403</ele>
        <time>2022-12-11T17:06:52.497Z</time>
      </trkpt>
      <trkpt lat="48.23071" lon="-3.32186">
        <ele>256.320198</ele>
        <time>2022-12-11T17:06:59.509Z</time>
      </trkpt>
      <trkpt lat="48.2308" lon="-3.32185">
        <ele>256.152056</ele>
        <time>2022-12-11T17:07:07.512Z</time>
      </trkpt>
      <trkpt lat="48.23089" lon="-3.32188">
        <ele>255.984661</ele>
        <time>2022-12-11T17:07:24.501Z</time>
      </trkpt>
      <trkpt lat="48.231" lon="-3.32186">
        <ele>255.792381</ele>
        <time>2022-12-11T17:07:29.499Z</time>
      </trkpt>
      <trkpt lat="48.23111" lon="-3.32182">
        <ele>255.585921</ele>
        <time>2022-12-11T17:07:33.498Z</time>
      </trkpt>
      <trkpt lat="48.23122" lon="-3.32181">
        <ele>255.382401</ele>
        <time>2022-12-11T17:07:37.506Z</time>
      </trkpt>
      <trkpt lat="48.23133" lon="-3.32176">
        <ele>255.176716</ele>
        <time>2022-12-11T17:07:41.503Z</time>
      </trkpt>
      <trkpt lat="48.23142" lon="-3.32173">
        <ele>255.013976</ele>
        <time>2022-12-11T17:07:44.504Z</time>
      </trkpt>
      <trkpt lat="48.23153" lon="-3.32168">
        <ele>254.807332</ele>
        <time>2022-12-11T17:07:48.511Z</time>
      </trkpt>
      <trkpt lat="48.23161" lon="-3.32164">
        <ele>254.642213</ele>
        <time>2022-12-11T17:07:51.516Z</time>
      </trkpt>
      <trkpt lat="48.23171" lon="-3.32159">
        <ele>254.455198</ele>
        <time>2022-12-11T17:07:54.509Z</time>
      </trkpt>
      <trkpt lat="48.23181" lon="-3.32154">
        <ele>254.268943</ele>
        <time>2022-12-11T17:07:57.529Z</time>
      </trkpt>
      <trkpt lat="48.2319" lon="-3.32149">
        <ele>254.092451</ele>
        <time>2022-12-11T17:08:00.504Z</time>
      </trkpt>
      <trkpt lat="48.232" lon="-3.32142">
        <ele>253.897885</ele>
        <time>2022-12-11T17:08:03.508Z</time>
      </trkpt>
      <trkpt lat="48.2321" lon="-3.32133">
        <ele>253.680018</ele>
        <time>2022-12-11T17:08:06.500Z</time>
      </trkpt>
      <trkpt lat="48.23221" lon="-3.32123">
        <ele>253.395249</ele>
        <time>2022-12-11T17:08:09.505Z</time>
      </trkpt>
      <trkpt lat="48.23231" lon="-3.32111">
        <ele>253.064107</ele>
        <time>2022-12-11T17:08:12.506Z</time>
      </trkpt>
      <trkpt lat="48.23239" lon="-3.32102">
        <ele>252.809124</ele>
        <time>2022-12-11T17:08:14.505Z</time>
      </trkpt>
      <trkpt lat="48.23247" lon="-3.3209">
        <ele>252.532461</ele>
        <time>2022-12-11T17:08:16.498Z</time>
      </trkpt>
      <trkpt lat="48.23255" lon="-3.32076">
        <ele>252.211505</ele>
        <time>2022-12-11T17:08:18.505Z</time>
      </trkpt>
      <trkpt lat="48.23263" lon="-3.32062">
        <ele>251.901997</ele>
        <time>2022-12-11T17:08:20.506Z</time>
      </trkpt>
      <trkpt lat="48.23271" lon="-3.32048">
        <ele>251.58238</ele>
        <time>2022-12-11T17:08:22.523Z</time>
      </trkpt>
      <trkpt lat="48.2328" lon="-3.32034">
        <ele>251.264803</ele>
        <time>2022-12-11T17:08:24.567Z</time>
      </trkpt>
      <trkpt lat="48.23288" lon="-3.32018">
        <ele>250.93359</ele>
        <time>2022-12-11T17:08:26.510Z</time>
      </trkpt>
      <trkpt lat="48.23296" lon="-3.32004">
        <ele>250.615357</ele>
        <time>2022-12-11T17:08:28.508Z</time>
      </trkpt>
      <trkpt lat="48.23302" lon="-3.31991">
        <ele>250.338999</ele>
        <time>2022-12-11T17:08:30.518Z</time>
      </trkpt>
      <trkpt lat="48.23308" lon="-3.3198">
        <ele>250.103589</ele>
        <time>2022-12-11T17:08:32.500Z</time>
      </trkpt>
      <trkpt lat="48.23315" lon="-3.31967">
        <ele>249.830549</ele>
        <time>2022-12-11T17:08:35.544Z</time>
      </trkpt>
      <trkpt lat="48.23322" lon="-3.31956">
        <ele>249.562189</ele>
        <time>2022-12-11T17:08:39.502Z</time>
      </trkpt>
      <trkpt lat="48.23333" lon="-3.31955">
        <ele>249.299513</ele>
        <time>2022-12-11T17:08:43.501Z</time>
      </trkpt>
      <trkpt lat="48.23343" lon="-3.31947">
        <ele>249.056644</ele>
        <time>2022-12-11T17:08:47.506Z</time>
      </trkpt>
      <trkpt lat="48.23352" lon="-3.31943">
        <ele>249.340422</ele>
        <time>2022-12-11T17:08:50.495Z</time>
      </trkpt>
      <trkpt lat="48.23361" lon="-3.31938">
        <ele>249.627077</ele>
        <time>2022-12-11T17:08:53.506Z</time>
      </trkpt>
      <trkpt lat="48.2337" lon="-3.31934">
        <ele>249.921143</ele>
        <time>2022-12-11T17:08:56.515Z</time>
      </trkpt>
      <trkpt lat="48.2338" lon="-3.31932">
        <ele>250.220211</ele>
        <time>2022-12-11T17:08:59.505Z</time>
      </trkpt>
      <trkpt lat="48.2339" lon="-3.31932">
        <ele>250.521714</ele>
        <time>2022-12-11T17:09:02.568Z</time>
      </trkpt>
      <trkpt lat="48.234" lon="-3.31934">
        <ele>250.821713</ele>
        <time>2022-12-11T17:09:05.505Z</time>
      </trkpt>
      <trkpt lat="48.23409" lon="-3.31937">
        <ele>251.126717</ele>
        <time>2022-12-11T17:09:08.503Z</time>
      </trkpt>
      <trkpt lat="48.23419" lon="-3.3194">
        <ele>251.442855</ele>
        <time>2022-12-11T17:09:11.512Z</time>
      </trkpt>
      <trkpt lat="48.23429" lon="-3.31945">
        <ele>251.734634</ele>
        <time>2022-12-11T17:09:14.511Z</time>
      </trkpt>
      <trkpt lat="48.23437" lon="-3.3195">
        <ele>252.022911</ele>
        <time>2022-12-11T17:09:18.523Z</time>
      </trkpt>
      <trkpt lat="48.23447" lon="-3.31957">
        <ele>252.346179</ele>
        <time>2022-12-11T17:09:22.510Z</time>
      </trkpt>
      <trkpt lat="48.23457" lon="-3.31963">
        <ele>252.692627</ele>
        <time>2022-12-11T17:09:26.506Z</time>
      </trkpt>
      <trkpt lat="48.23467" lon="-3.31971">
        <ele>253.013778</ele>
        <time>2022-12-11T17:09:30.513Z</time>
      </trkpt>
      <trkpt lat="48.23476" lon="-3.31979">
        <ele>253.345135</ele>
        <time>2022-12-11T17:09:34.526Z</time>
      </trkpt>
      <trkpt lat="48.23486" lon="-3.31983">
        <ele>253.657892</ele>
        <time>2022-12-11T17:09:38.504Z</time>
      </trkpt>
      <trkpt lat="48.23497" lon="-3.31985">
        <ele>253.999717</ele>
        <time>2022-12-11T17:09:42.500Z</time>
      </trkpt>
      <trkpt lat="48.23508" lon="-3.31985">
        <ele>254.325577</ele>
        <time>2022-12-11T17:09:46.506Z</time>
      </trkpt>
      <trkpt lat="48.23518" lon="-3.31984">
        <ele>254.505266</ele>
        <time>2022-12-11T17:09:50.505Z</time>
      </trkpt>
      <trkpt lat="48.23527" lon="-3.31978">
        <ele>254.505266</ele>
        <time>2022-12-11T17:09:54.514Z</time>
      </trkpt>
      <trkpt lat="48.23537" lon="-3.31974">
        <ele>254.505266</ele>
        <time>2022-12-11T17:09:58.519Z</time>
      </trkpt>
      <trkpt lat="48.23545" lon="-3.31969">
        <ele>254.505266</ele>
        <time>2022-12-11T17:10:02.502Z</time>
      </trkpt>
      <trkpt lat="48.23554" lon="-3.31965">
        <ele>254.505266</ele>
        <time>2022-12-11T17:10:06.499Z</time>
      </trkpt>
      <trkpt lat="48.23563" lon="-3.31959">
        <ele>254.505266</ele>
        <time>2022-12-11T17:10:10.526Z</time>
      </trkpt>
      <trkpt lat="48.23571" lon="-3.31954">
        <ele>254.505266</ele>
        <time>2022-12-11T17:10:15.512Z</time>
      </trkpt>
      <trkpt lat="48.23579" lon="-3.31941">
        <ele>254.505266</ele>
        <time>2022-12-11T17:10:21.502Z</time>
      </trkpt>
      <trkpt lat="48.23581" lon="-3.31928">
        <ele>254.505266</ele>
        <time>2022-12-11T17:10:25.508Z</time>
      </trkpt>
      <trkpt lat="48.23584" lon="-3.31915">
        <ele>254.505266</ele>
        <time>2022-12-11T17:11:00.506Z</time>
      </trkpt>
      <trkpt lat="48.23592" lon="-3.31917">
        <ele>254.505266</ele>
        <time>2022-12-11T17:11:51.739Z</time>
        <extensions>
          <visugpx:TrkExtension xmlns:visugpx="https://www.visugpx.com/editgpx/">
            <visugpx:node>1</visugpx:node>
            </visugpx:TrkExtension>
        </extensions>
      </trkpt>
    </trkseg>
  </trk>
</gpx>